<?xml version="1.0" encoding="UTF-8" standalone="no" ?>
<gpx xmlns="http://www.topografix.com/GPX/1/1" xmlns:xsi="http://www.w3.org/2001/XMLSchema-instance" xsi:schemaLocation="http://www.topografix.com/GPX/1/1 http://www.topografix.com/GPX/1/1/gpx.xsd" version="1.1" creator="VisuGPX - https://www.visugpx.com">
  <metadata>
    <name>GFB 2026-08-27 Saint-Hymetière-sur-Valouse</name>
    <desc><![CDATA[Départ de Saint-Hymetière-sur-Valouse
Points de passage : Belvédère, Ferme de Bourbouillon, Chisséria, La Caborne du Boeuf]]></desc>
  </metadata>
  <trk>
    <name><![CDATA[Saint-Hymetière Randonnée]]></name>
    <extensions>
      <line xmlns="http://www.topografix.com/GPX/gpx_style/0/2">
        <color>0000FF</color>
        <width>4</width>
      </line>
    </extensions>
    <trkseg>
      <trkpt lat="46.36132" lon="5.55399">
        <ele>440.60000610352</ele>
        <time>2026-08-27T06:34:51.000Z</time>
      </trkpt>
      <trkpt lat="46.3613" lon="5.554">
        <ele>440.60000610352</ele>
        <time>2026-08-27T06:35:00.000Z</time>
      </trkpt>
      <trkpt lat="46.36129" lon="5.554">
        <ele>440.60000610352</ele>
        <time>2026-08-27T06:35:07.000Z</time>
      </trkpt>
      <trkpt lat="46.36129" lon="5.554">
        <ele>440.60000610352</ele>
        <time>2026-08-27T06:35:10.000Z</time>
      </trkpt>
      <trkpt lat="46.3613" lon="5.554">
        <ele>440.60000610352</ele>
        <time>2026-08-27T06:35:13.000Z</time>
      </trkpt>
      <trkpt lat="46.36129" lon="5.55398">
        <ele>440.60000610352</ele>
        <time>2026-08-27T06:35:25.000Z</time>
      </trkpt>
      <trkpt lat="46.36132" lon="5.55396">
        <ele>440.60000610352</ele>
        <time>2026-08-27T06:35:39.000Z</time>
      </trkpt>
      <trkpt lat="46.36132" lon="5.55396">
        <ele>440.79998779297</ele>
        <time>2026-08-27T06:35:50.000Z</time>
      </trkpt>
      <trkpt lat="46.36134" lon="5.55395">
        <ele>440.79998779297</ele>
        <time>2026-08-27T06:36:06.000Z</time>
      </trkpt>
      <trkpt lat="46.36134" lon="5.55396">
        <ele>441</ele>
        <time>2026-08-27T06:36:18.000Z</time>
      </trkpt>
      <trkpt lat="46.36133" lon="5.55398">
        <ele>441</ele>
        <time>2026-08-27T06:36:25.000Z</time>
      </trkpt>
      <trkpt lat="46.36131" lon="5.55402">
        <ele>441</ele>
        <time>2026-08-27T06:36:34.000Z</time>
      </trkpt>
      <trkpt lat="46.3613" lon="5.55402">
        <ele>440.79998779297</ele>
        <time>2026-08-27T06:36:44.000Z</time>
      </trkpt>
      <trkpt lat="46.36131" lon="5.55403">
        <ele>440.79998779297</ele>
        <time>2026-08-27T06:36:48.000Z</time>
      </trkpt>
      <trkpt lat="46.36131" lon="5.55404">
        <ele>440.79998779297</ele>
        <time>2026-08-27T06:36:51.000Z</time>
      </trkpt>
      <trkpt lat="46.36131" lon="5.55404">
        <ele>440.79998779297</ele>
        <time>2026-08-27T06:36:52.000Z</time>
      </trkpt>
      <trkpt lat="46.36131" lon="5.55404">
        <ele>440.79998779297</ele>
        <time>2026-08-27T06:36:57.000Z</time>
      </trkpt>
      <trkpt lat="46.36131" lon="5.55405">
        <ele>441</ele>
        <time>2026-08-27T06:37:03.000Z</time>
      </trkpt>
      <trkpt lat="46.36131" lon="5.55405">
        <ele>441</ele>
        <time>2026-08-27T06:37:06.000Z</time>
      </trkpt>
      <trkpt lat="46.36131" lon="5.55404">
        <ele>441</ele>
        <time>2026-08-27T06:37:17.000Z</time>
      </trkpt>
      <trkpt lat="46.3613" lon="5.55407">
        <ele>441</ele>
        <time>2026-08-27T06:37:30.000Z</time>
      </trkpt>
      <trkpt lat="46.36131" lon="5.55407">
        <ele>441</ele>
        <time>2026-08-27T06:37:36.000Z</time>
      </trkpt>
      <trkpt lat="46.36131" lon="5.55405">
        <ele>441</ele>
        <time>2026-08-27T06:37:42.000Z</time>
      </trkpt>
      <trkpt lat="46.36131" lon="5.55404">
        <ele>441</ele>
        <time>2026-08-27T06:37:46.000Z</time>
      </trkpt>
      <trkpt lat="46.3613" lon="5.55405">
        <ele>441</ele>
        <time>2026-08-27T06:37:48.000Z</time>
      </trkpt>
      <trkpt lat="46.36131" lon="5.55404">
        <ele>441</ele>
        <time>2026-08-27T06:37:52.000Z</time>
      </trkpt>
      <trkpt lat="46.36128" lon="5.55402">
        <ele>441.20001220703</ele>
        <time>2026-08-27T06:38:01.000Z</time>
      </trkpt>
      <trkpt lat="46.36127" lon="5.554">
        <ele>441.20001220703</ele>
        <time>2026-08-27T06:38:13.000Z</time>
      </trkpt>
      <trkpt lat="46.3613" lon="5.55397">
        <ele>441.20001220703</ele>
        <time>2026-08-27T06:38:19.000Z</time>
      </trkpt>
      <trkpt lat="46.3613" lon="5.55397">
        <ele>441.20001220703</ele>
        <time>2026-08-27T06:38:20.000Z</time>
      </trkpt>
      <trkpt lat="46.36131" lon="5.55398">
        <ele>441.39999389648</ele>
        <time>2026-08-27T06:38:25.000Z</time>
      </trkpt>
      <trkpt lat="46.36131" lon="5.55398">
        <ele>441.60000610352</ele>
        <time>2026-08-27T06:38:26.000Z</time>
      </trkpt>
      <trkpt lat="46.36131" lon="5.55398">
        <ele>441.60000610352</ele>
        <time>2026-08-27T06:38:28.000Z</time>
      </trkpt>
      <trkpt lat="46.36132" lon="5.55399">
        <ele>441.39999389648</ele>
        <time>2026-08-27T06:38:32.000Z</time>
      </trkpt>
      <trkpt lat="46.36132" lon="5.55402">
        <ele>441.39999389648</ele>
        <time>2026-08-27T06:38:35.000Z</time>
      </trkpt>
      <trkpt lat="46.36126" lon="5.5541">
        <ele>441.60000610352</ele>
        <time>2026-08-27T06:38:42.000Z</time>
      </trkpt>
      <trkpt lat="46.36122" lon="5.55414">
        <ele>441.60000610352</ele>
        <time>2026-08-27T06:38:47.000Z</time>
      </trkpt>
      <trkpt lat="46.36121" lon="5.55416">
        <ele>441.60000610352</ele>
        <time>2026-08-27T06:38:49.000Z</time>
      </trkpt>
      <trkpt lat="46.36114" lon="5.55424">
        <ele>441.79998779297</ele>
        <time>2026-08-27T06:38:57.000Z</time>
      </trkpt>
      <trkpt lat="46.36106" lon="5.55431">
        <ele>441.79998779297</ele>
        <time>2026-08-27T06:39:06.000Z</time>
      </trkpt>
      <trkpt lat="46.36098" lon="5.55434">
        <ele>442</ele>
        <time>2026-08-27T06:39:13.000Z</time>
      </trkpt>
      <trkpt lat="46.36087" lon="5.55437">
        <ele>441.60000610352</ele>
        <time>2026-08-27T06:39:24.000Z</time>
      </trkpt>
      <trkpt lat="46.36084" lon="5.55439">
        <ele>441.60000610352</ele>
        <time>2026-08-27T06:39:27.000Z</time>
      </trkpt>
      <trkpt lat="46.36082" lon="5.55444">
        <ele>441.60000610352</ele>
        <time>2026-08-27T06:39:30.000Z</time>
      </trkpt>
      <trkpt lat="46.36081" lon="5.55445">
        <ele>441.60000610352</ele>
        <time>2026-08-27T06:39:31.000Z</time>
      </trkpt>
      <trkpt lat="46.36072" lon="5.55457">
        <ele>442</ele>
        <time>2026-08-27T06:39:42.000Z</time>
      </trkpt>
      <trkpt lat="46.36071" lon="5.55458">
        <ele>442.20001220703</ele>
        <time>2026-08-27T06:39:47.000Z</time>
      </trkpt>
      <trkpt lat="46.36071" lon="5.55458">
        <ele>442.20001220703</ele>
        <time>2026-08-27T06:39:48.000Z</time>
      </trkpt>
      <trkpt lat="46.36071" lon="5.55458">
        <ele>442.20001220703</ele>
        <time>2026-08-27T06:39:50.000Z</time>
      </trkpt>
      <trkpt lat="46.3607" lon="5.55459">
        <ele>442.20001220703</ele>
        <time>2026-08-27T06:39:52.000Z</time>
      </trkpt>
      <trkpt lat="46.36065" lon="5.55466">
        <ele>442.60000610352</ele>
        <time>2026-08-27T06:39:58.000Z</time>
      </trkpt>
      <trkpt lat="46.3606" lon="5.55473">
        <ele>443</ele>
        <time>2026-08-27T06:40:04.000Z</time>
      </trkpt>
      <trkpt lat="46.36056" lon="5.55478">
        <ele>443</ele>
        <time>2026-08-27T06:40:09.000Z</time>
      </trkpt>
      <trkpt lat="46.3605" lon="5.55484">
        <ele>443</ele>
        <time>2026-08-27T06:40:16.000Z</time>
      </trkpt>
      <trkpt lat="46.36049" lon="5.55485">
        <ele>443</ele>
        <time>2026-08-27T06:40:17.000Z</time>
      </trkpt>
      <trkpt lat="46.36049" lon="5.55486">
        <ele>443</ele>
        <time>2026-08-27T06:40:18.000Z</time>
      </trkpt>
      <trkpt lat="46.36048" lon="5.55485">
        <ele>443.60000610352</ele>
        <time>2026-08-27T06:40:21.000Z</time>
      </trkpt>
      <trkpt lat="46.36047" lon="5.55485">
        <ele>443.79998779297</ele>
        <time>2026-08-27T06:40:22.000Z</time>
      </trkpt>
      <trkpt lat="46.36045" lon="5.55484">
        <ele>444</ele>
        <time>2026-08-27T06:40:24.000Z</time>
      </trkpt>
      <trkpt lat="46.36043" lon="5.55484">
        <ele>444</ele>
        <time>2026-08-27T06:40:27.000Z</time>
      </trkpt>
      <trkpt lat="46.36037" lon="5.55485">
        <ele>444.39999389648</ele>
        <time>2026-08-27T06:40:33.000Z</time>
      </trkpt>
      <trkpt lat="46.36036" lon="5.55485">
        <ele>444.39999389648</ele>
        <time>2026-08-27T06:40:34.000Z</time>
      </trkpt>
      <trkpt lat="46.36026" lon="5.55487">
        <ele>444.79998779297</ele>
        <time>2026-08-27T06:40:45.000Z</time>
      </trkpt>
      <trkpt lat="46.36025" lon="5.55487">
        <ele>444.79998779297</ele>
        <time>2026-08-27T06:40:46.000Z</time>
      </trkpt>
      <trkpt lat="46.3602" lon="5.55489">
        <ele>444.79998779297</ele>
        <time>2026-08-27T06:40:53.000Z</time>
      </trkpt>
      <trkpt lat="46.3602" lon="5.55491">
        <ele>444.79998779297</ele>
        <time>2026-08-27T06:40:54.000Z</time>
      </trkpt>
      <trkpt lat="46.36019" lon="5.55495">
        <ele>444.79998779297</ele>
        <time>2026-08-27T06:40:58.000Z</time>
      </trkpt>
      <trkpt lat="46.3602" lon="5.55499">
        <ele>445</ele>
        <time>2026-08-27T06:41:01.000Z</time>
      </trkpt>
      <trkpt lat="46.3602" lon="5.55499">
        <ele>445.20001220703</ele>
        <time>2026-08-27T06:41:04.000Z</time>
      </trkpt>
      <trkpt lat="46.3602" lon="5.555">
        <ele>445</ele>
        <time>2026-08-27T06:41:07.000Z</time>
      </trkpt>
      <trkpt lat="46.36019" lon="5.55502">
        <ele>445.20001220703</ele>
        <time>2026-08-27T06:41:12.000Z</time>
      </trkpt>
      <trkpt lat="46.36023" lon="5.55505">
        <ele>445.20001220703</ele>
        <time>2026-08-27T06:41:17.000Z</time>
      </trkpt>
      <trkpt lat="46.36022" lon="5.55507">
        <ele>445</ele>
        <time>2026-08-27T06:41:19.000Z</time>
      </trkpt>
      <trkpt lat="46.36021" lon="5.5551">
        <ele>445</ele>
        <time>2026-08-27T06:41:22.000Z</time>
      </trkpt>
      <trkpt lat="46.36021" lon="5.55509">
        <ele>445</ele>
        <time>2026-08-27T06:41:26.000Z</time>
      </trkpt>
      <trkpt lat="46.36021" lon="5.55506">
        <ele>445</ele>
        <time>2026-08-27T06:41:28.000Z</time>
      </trkpt>
      <trkpt lat="46.36021" lon="5.55508">
        <ele>445.20001220703</ele>
        <time>2026-08-27T06:41:30.000Z</time>
      </trkpt>
      <trkpt lat="46.36019" lon="5.55513">
        <ele>445.20001220703</ele>
        <time>2026-08-27T06:41:40.000Z</time>
      </trkpt>
      <trkpt lat="46.3602" lon="5.55514">
        <ele>445.20001220703</ele>
        <time>2026-08-27T06:41:49.000Z</time>
      </trkpt>
      <trkpt lat="46.36014" lon="5.55532">
        <ele>445.60000610352</ele>
        <time>2026-08-27T06:45:42.000Z</time>
      </trkpt>
      <trkpt lat="46.36016" lon="5.55529">
        <ele>445.20001220703</ele>
        <time>2026-08-27T06:45:45.000Z</time>
      </trkpt>
      <trkpt lat="46.3602" lon="5.55492">
        <ele>445.20001220703</ele>
        <time>2026-08-27T06:45:48.000Z</time>
      </trkpt>
      <trkpt lat="46.36017" lon="5.55493">
        <ele>445.60000610352</ele>
        <time>2026-08-27T06:45:52.000Z</time>
      </trkpt>
      <trkpt lat="46.36011" lon="5.55495">
        <ele>445.79998779297</ele>
        <time>2026-08-27T06:45:59.000Z</time>
      </trkpt>
      <trkpt lat="46.36011" lon="5.55496">
        <ele>446</ele>
        <time>2026-08-27T06:46:01.000Z</time>
      </trkpt>
      <trkpt lat="46.36011" lon="5.55505">
        <ele>446.20001220703</ele>
        <time>2026-08-27T06:46:07.000Z</time>
      </trkpt>
      <trkpt lat="46.36011" lon="5.55522">
        <ele>446.20001220703</ele>
        <time>2026-08-27T06:46:16.000Z</time>
      </trkpt>
      <trkpt lat="46.36012" lon="5.55529">
        <ele>446.39999389648</ele>
        <time>2026-08-27T06:46:22.000Z</time>
      </trkpt>
      <trkpt lat="46.36012" lon="5.55538">
        <ele>446.39999389648</ele>
        <time>2026-08-27T06:46:27.000Z</time>
      </trkpt>
      <trkpt lat="46.36011" lon="5.5554">
        <ele>446.39999389648</ele>
        <time>2026-08-27T06:46:29.000Z</time>
      </trkpt>
      <trkpt lat="46.36011" lon="5.55542">
        <ele>446.79998779297</ele>
        <time>2026-08-27T06:46:34.000Z</time>
      </trkpt>
      <trkpt lat="46.36011" lon="5.55541">
        <ele>446.79998779297</ele>
        <time>2026-08-27T06:46:42.000Z</time>
      </trkpt>
      <trkpt lat="46.36011" lon="5.55541">
        <ele>446.79998779297</ele>
        <time>2026-08-27T06:46:44.000Z</time>
      </trkpt>
      <trkpt lat="46.36011" lon="5.55541">
        <ele>446.79998779297</ele>
        <time>2026-08-27T06:46:46.000Z</time>
      </trkpt>
      <trkpt lat="46.36011" lon="5.55547">
        <ele>447</ele>
        <time>2026-08-27T06:46:52.000Z</time>
      </trkpt>
      <trkpt lat="46.36012" lon="5.55548">
        <ele>447.20001220703</ele>
        <time>2026-08-27T06:47:01.000Z</time>
      </trkpt>
      <trkpt lat="46.36012" lon="5.55547">
        <ele>447.20001220703</ele>
        <time>2026-08-27T06:47:05.000Z</time>
      </trkpt>
      <trkpt lat="46.36011" lon="5.55547">
        <ele>447.39999389648</ele>
        <time>2026-08-27T06:47:11.000Z</time>
      </trkpt>
      <trkpt lat="46.36011" lon="5.55546">
        <ele>447.20001220703</ele>
        <time>2026-08-27T06:47:13.000Z</time>
      </trkpt>
      <trkpt lat="46.36011" lon="5.55544">
        <ele>447.20001220703</ele>
        <time>2026-08-27T06:47:21.000Z</time>
      </trkpt>
      <trkpt lat="46.36013" lon="5.55552">
        <ele>447.39999389648</ele>
        <time>2026-08-27T06:47:28.000Z</time>
      </trkpt>
      <trkpt lat="46.36013" lon="5.55551">
        <ele>447.39999389648</ele>
        <time>2026-08-27T06:47:38.000Z</time>
      </trkpt>
      <trkpt lat="46.36013" lon="5.55551">
        <ele>447.39999389648</ele>
        <time>2026-08-27T06:47:41.000Z</time>
      </trkpt>
      <trkpt lat="46.36014" lon="5.55551">
        <ele>447.20001220703</ele>
        <time>2026-08-27T06:47:53.000Z</time>
      </trkpt>
      <trkpt lat="46.36013" lon="5.55556">
        <ele>447.20001220703</ele>
        <time>2026-08-27T06:47:58.000Z</time>
      </trkpt>
      <trkpt lat="46.36009" lon="5.55565">
        <ele>447.60000610352</ele>
        <time>2026-08-27T06:48:04.000Z</time>
      </trkpt>
      <trkpt lat="46.36005" lon="5.5557">
        <ele>447.79998779297</ele>
        <time>2026-08-27T06:48:08.000Z</time>
      </trkpt>
      <trkpt lat="46.36003" lon="5.55572">
        <ele>448</ele>
        <time>2026-08-27T06:48:09.000Z</time>
      </trkpt>
      <trkpt lat="46.35998" lon="5.5558">
        <ele>448.39999389648</ele>
        <time>2026-08-27T06:48:15.000Z</time>
      </trkpt>
      <trkpt lat="46.35997" lon="5.55582">
        <ele>448.39999389648</ele>
        <time>2026-08-27T06:48:16.000Z</time>
      </trkpt>
      <trkpt lat="46.35988" lon="5.55589">
        <ele>448.39999389648</ele>
        <time>2026-08-27T06:48:23.000Z</time>
      </trkpt>
      <trkpt lat="46.35982" lon="5.55585">
        <ele>448.39999389648</ele>
        <time>2026-08-27T06:48:28.000Z</time>
      </trkpt>
      <trkpt lat="46.3598" lon="5.55582">
        <ele>448.39999389648</ele>
        <time>2026-08-27T06:48:30.000Z</time>
      </trkpt>
      <trkpt lat="46.35977" lon="5.55578">
        <ele>448.20001220703</ele>
        <time>2026-08-27T06:48:33.000Z</time>
      </trkpt>
      <trkpt lat="46.35972" lon="5.55572">
        <ele>448.20001220703</ele>
        <time>2026-08-27T06:48:37.000Z</time>
      </trkpt>
      <trkpt lat="46.35967" lon="5.55565">
        <ele>447.79998779297</ele>
        <time>2026-08-27T06:48:42.000Z</time>
      </trkpt>
      <trkpt lat="46.35958" lon="5.55552">
        <ele>447.20001220703</ele>
        <time>2026-08-27T06:48:51.000Z</time>
      </trkpt>
      <trkpt lat="46.35948" lon="5.55555">
        <ele>447</ele>
        <time>2026-08-27T06:48:58.000Z</time>
      </trkpt>
      <trkpt lat="46.35944" lon="5.55572">
        <ele>447.39999389648</ele>
        <time>2026-08-27T06:49:06.000Z</time>
      </trkpt>
      <trkpt lat="46.35942" lon="5.5559">
        <ele>448</ele>
        <time>2026-08-27T06:49:15.000Z</time>
      </trkpt>
      <trkpt lat="46.35941" lon="5.55596">
        <ele>448.20001220703</ele>
        <time>2026-08-27T06:49:18.000Z</time>
      </trkpt>
      <trkpt lat="46.35941" lon="5.55598">
        <ele>448.20001220703</ele>
        <time>2026-08-27T06:49:19.000Z</time>
      </trkpt>
      <trkpt lat="46.35941" lon="5.556">
        <ele>448.20001220703</ele>
        <time>2026-08-27T06:49:20.000Z</time>
      </trkpt>
      <trkpt lat="46.35941" lon="5.55604">
        <ele>448.39999389648</ele>
        <time>2026-08-27T06:49:22.000Z</time>
      </trkpt>
      <trkpt lat="46.35939" lon="5.55621">
        <ele>449</ele>
        <time>2026-08-27T06:49:30.000Z</time>
      </trkpt>
      <trkpt lat="46.35939" lon="5.55628">
        <ele>449.20001220703</ele>
        <time>2026-08-27T06:49:33.000Z</time>
      </trkpt>
      <trkpt lat="46.35936" lon="5.55653">
        <ele>449.79998779297</ele>
        <time>2026-08-27T06:49:45.000Z</time>
      </trkpt>
      <trkpt lat="46.35932" lon="5.55666">
        <ele>450</ele>
        <time>2026-08-27T06:49:52.000Z</time>
      </trkpt>
      <trkpt lat="46.3593" lon="5.55671">
        <ele>450</ele>
        <time>2026-08-27T06:49:55.000Z</time>
      </trkpt>
      <trkpt lat="46.35925" lon="5.55685">
        <ele>450.39999389648</ele>
        <time>2026-08-27T06:50:03.000Z</time>
      </trkpt>
      <trkpt lat="46.35916" lon="5.55701">
        <ele>450.79998779297</ele>
        <time>2026-08-27T06:50:12.000Z</time>
      </trkpt>
      <trkpt lat="46.3591" lon="5.55714">
        <ele>450.79998779297</ele>
        <time>2026-08-27T06:50:20.000Z</time>
      </trkpt>
      <trkpt lat="46.35902" lon="5.55725">
        <ele>451</ele>
        <time>2026-08-27T06:50:27.000Z</time>
      </trkpt>
      <trkpt lat="46.35901" lon="5.55729">
        <ele>451.20001220703</ele>
        <time>2026-08-27T06:50:29.000Z</time>
      </trkpt>
      <trkpt lat="46.35894" lon="5.55741">
        <ele>451.39999389648</ele>
        <time>2026-08-27T06:50:36.000Z</time>
      </trkpt>
      <trkpt lat="46.35889" lon="5.55757">
        <ele>451.60000610352</ele>
        <time>2026-08-27T06:50:44.000Z</time>
      </trkpt>
      <trkpt lat="46.35889" lon="5.55761">
        <ele>451.60000610352</ele>
        <time>2026-08-27T06:50:46.000Z</time>
      </trkpt>
      <trkpt lat="46.35886" lon="5.55776">
        <ele>452.20001220703</ele>
        <time>2026-08-27T06:50:53.000Z</time>
      </trkpt>
      <trkpt lat="46.35883" lon="5.55791">
        <ele>452.79998779297</ele>
        <time>2026-08-27T06:51:01.000Z</time>
      </trkpt>
      <trkpt lat="46.35881" lon="5.55799">
        <ele>453.20001220703</ele>
        <time>2026-08-27T06:51:05.000Z</time>
      </trkpt>
      <trkpt lat="46.3588" lon="5.55803">
        <ele>453.20001220703</ele>
        <time>2026-08-27T06:51:07.000Z</time>
      </trkpt>
      <trkpt lat="46.3588" lon="5.55805">
        <ele>453.20001220703</ele>
        <time>2026-08-27T06:51:08.000Z</time>
      </trkpt>
      <trkpt lat="46.3588" lon="5.5581">
        <ele>453.39999389648</ele>
        <time>2026-08-27T06:51:10.000Z</time>
      </trkpt>
      <trkpt lat="46.35878" lon="5.55828">
        <ele>453.60000610352</ele>
        <time>2026-08-27T06:51:18.000Z</time>
      </trkpt>
      <trkpt lat="46.35878" lon="5.5585">
        <ele>454</ele>
        <time>2026-08-27T06:51:29.000Z</time>
      </trkpt>
      <trkpt lat="46.35878" lon="5.55855">
        <ele>454.20001220703</ele>
        <time>2026-08-27T06:51:31.000Z</time>
      </trkpt>
      <trkpt lat="46.35881" lon="5.55866">
        <ele>454.20001220703</ele>
        <time>2026-08-27T06:51:37.000Z</time>
      </trkpt>
      <trkpt lat="46.35889" lon="5.55886">
        <ele>454.79998779297</ele>
        <time>2026-08-27T06:51:49.000Z</time>
      </trkpt>
      <trkpt lat="46.35895" lon="5.55898">
        <ele>454.79998779297</ele>
        <time>2026-08-27T06:51:58.000Z</time>
      </trkpt>
      <trkpt lat="46.35901" lon="5.55912">
        <ele>455.20001220703</ele>
        <time>2026-08-27T06:52:07.000Z</time>
      </trkpt>
      <trkpt lat="46.35902" lon="5.55914">
        <ele>455.20001220703</ele>
        <time>2026-08-27T06:52:08.000Z</time>
      </trkpt>
      <trkpt lat="46.35908" lon="5.5593">
        <ele>455.39999389648</ele>
        <time>2026-08-27T06:52:18.000Z</time>
      </trkpt>
      <trkpt lat="46.35909" lon="5.55943">
        <ele>455.39999389648</ele>
        <time>2026-08-27T06:52:26.000Z</time>
      </trkpt>
      <trkpt lat="46.35911" lon="5.55964">
        <ele>455.60000610352</ele>
        <time>2026-08-27T06:52:38.000Z</time>
      </trkpt>
      <trkpt lat="46.35911" lon="5.55985">
        <ele>456</ele>
        <time>2026-08-27T06:52:50.000Z</time>
      </trkpt>
      <trkpt lat="46.35911" lon="5.55987">
        <ele>456</ele>
        <time>2026-08-27T06:52:51.000Z</time>
      </trkpt>
      <trkpt lat="46.35911" lon="5.56004">
        <ele>456.20001220703</ele>
        <time>2026-08-27T06:53:00.000Z</time>
      </trkpt>
      <trkpt lat="46.35911" lon="5.56005">
        <ele>456.20001220703</ele>
        <time>2026-08-27T06:53:01.000Z</time>
      </trkpt>
      <trkpt lat="46.3591" lon="5.56025">
        <ele>456.39999389648</ele>
        <time>2026-08-27T06:53:13.000Z</time>
      </trkpt>
      <trkpt lat="46.3591" lon="5.56042">
        <ele>456.60000610352</ele>
        <time>2026-08-27T06:53:23.000Z</time>
      </trkpt>
      <trkpt lat="46.35909" lon="5.56062">
        <ele>457</ele>
        <time>2026-08-27T06:53:36.000Z</time>
      </trkpt>
      <trkpt lat="46.3591" lon="5.56081">
        <ele>457</ele>
        <time>2026-08-27T06:53:47.000Z</time>
      </trkpt>
      <trkpt lat="46.35911" lon="5.56103">
        <ele>457</ele>
        <time>2026-08-27T06:54:00.000Z</time>
      </trkpt>
      <trkpt lat="46.3591" lon="5.56125">
        <ele>457.20001220703</ele>
        <time>2026-08-27T06:54:13.000Z</time>
      </trkpt>
      <trkpt lat="46.3591" lon="5.56131">
        <ele>457.20001220703</ele>
        <time>2026-08-27T06:54:17.000Z</time>
      </trkpt>
      <trkpt lat="46.3591" lon="5.5615">
        <ele>457.39999389648</ele>
        <time>2026-08-27T06:54:27.000Z</time>
      </trkpt>
      <trkpt lat="46.3591" lon="5.5617">
        <ele>457.39999389648</ele>
        <time>2026-08-27T06:54:39.000Z</time>
      </trkpt>
      <trkpt lat="46.35913" lon="5.56189">
        <ele>457.79998779297</ele>
        <time>2026-08-27T06:54:51.000Z</time>
      </trkpt>
      <trkpt lat="46.35912" lon="5.56203">
        <ele>458.20001220703</ele>
        <time>2026-08-27T06:54:59.000Z</time>
      </trkpt>
      <trkpt lat="46.35913" lon="5.56207">
        <ele>458.20001220703</ele>
        <time>2026-08-27T06:55:02.000Z</time>
      </trkpt>
      <trkpt lat="46.35912" lon="5.56223">
        <ele>458.79998779297</ele>
        <time>2026-08-27T06:55:11.000Z</time>
      </trkpt>
      <trkpt lat="46.35912" lon="5.56237">
        <ele>459.39999389648</ele>
        <time>2026-08-27T06:55:19.000Z</time>
      </trkpt>
      <trkpt lat="46.35912" lon="5.56243">
        <ele>459.60000610352</ele>
        <time>2026-08-27T06:55:23.000Z</time>
      </trkpt>
      <trkpt lat="46.35912" lon="5.56252">
        <ele>460</ele>
        <time>2026-08-27T06:55:29.000Z</time>
      </trkpt>
      <trkpt lat="46.35912" lon="5.5626">
        <ele>460.39999389648</ele>
        <time>2026-08-27T06:55:34.000Z</time>
      </trkpt>
      <trkpt lat="46.35911" lon="5.56275">
        <ele>461</ele>
        <time>2026-08-27T06:55:44.000Z</time>
      </trkpt>
      <trkpt lat="46.3591" lon="5.5628">
        <ele>461.39999389648</ele>
        <time>2026-08-27T06:55:48.000Z</time>
      </trkpt>
      <trkpt lat="46.35911" lon="5.56288">
        <ele>461.79998779297</ele>
        <time>2026-08-27T06:55:54.000Z</time>
      </trkpt>
      <trkpt lat="46.35911" lon="5.56299">
        <ele>462.20001220703</ele>
        <time>2026-08-27T06:56:01.000Z</time>
      </trkpt>
      <trkpt lat="46.35911" lon="5.56302">
        <ele>462.39999389648</ele>
        <time>2026-08-27T06:56:03.000Z</time>
      </trkpt>
      <trkpt lat="46.3591" lon="5.56315">
        <ele>463.20001220703</ele>
        <time>2026-08-27T06:56:12.000Z</time>
      </trkpt>
      <trkpt lat="46.35909" lon="5.56326">
        <ele>463.60000610352</ele>
        <time>2026-08-27T06:56:18.000Z</time>
      </trkpt>
      <trkpt lat="46.35908" lon="5.56336">
        <ele>463.79998779297</ele>
        <time>2026-08-27T06:56:25.000Z</time>
      </trkpt>
      <trkpt lat="46.35908" lon="5.56355">
        <ele>464.20001220703</ele>
        <time>2026-08-27T06:56:36.000Z</time>
      </trkpt>
      <trkpt lat="46.35908" lon="5.5637">
        <ele>464.60000610352</ele>
        <time>2026-08-27T06:56:46.000Z</time>
      </trkpt>
      <trkpt lat="46.35908" lon="5.56372">
        <ele>464.60000610352</ele>
        <time>2026-08-27T06:56:47.000Z</time>
      </trkpt>
      <trkpt lat="46.35906" lon="5.56391">
        <ele>465.20001220703</ele>
        <time>2026-08-27T06:56:59.000Z</time>
      </trkpt>
      <trkpt lat="46.35905" lon="5.56405">
        <ele>465.60000610352</ele>
        <time>2026-08-27T06:57:08.000Z</time>
      </trkpt>
      <trkpt lat="46.35904" lon="5.56407">
        <ele>465.60000610352</ele>
        <time>2026-08-27T06:57:10.000Z</time>
      </trkpt>
      <trkpt lat="46.35903" lon="5.56419">
        <ele>466</ele>
        <time>2026-08-27T06:57:18.000Z</time>
      </trkpt>
      <trkpt lat="46.35901" lon="5.56434">
        <ele>466.60000610352</ele>
        <time>2026-08-27T06:57:27.000Z</time>
      </trkpt>
      <trkpt lat="46.35901" lon="5.56437">
        <ele>466.60000610352</ele>
        <time>2026-08-27T06:57:29.000Z</time>
      </trkpt>
      <trkpt lat="46.35899" lon="5.56454">
        <ele>467.20001220703</ele>
        <time>2026-08-27T06:57:40.000Z</time>
      </trkpt>
      <trkpt lat="46.35898" lon="5.56465">
        <ele>467.60000610352</ele>
        <time>2026-08-27T06:57:47.000Z</time>
      </trkpt>
      <trkpt lat="46.35897" lon="5.5647">
        <ele>467.79998779297</ele>
        <time>2026-08-27T06:57:52.000Z</time>
      </trkpt>
      <trkpt lat="46.35897" lon="5.56474">
        <ele>468.20001220703</ele>
        <time>2026-08-27T06:57:58.000Z</time>
      </trkpt>
      <trkpt lat="46.35898" lon="5.56475">
        <ele>468.20001220703</ele>
        <time>2026-08-27T06:58:00.000Z</time>
      </trkpt>
      <trkpt lat="46.35906" lon="5.56476">
        <ele>468.60000610352</ele>
        <time>2026-08-27T06:58:07.000Z</time>
      </trkpt>
      <trkpt lat="46.35911" lon="5.56476">
        <ele>468.60000610352</ele>
        <time>2026-08-27T06:58:12.000Z</time>
      </trkpt>
      <trkpt lat="46.35918" lon="5.56476">
        <ele>468.60000610352</ele>
        <time>2026-08-27T06:58:18.000Z</time>
      </trkpt>
      <trkpt lat="46.3593" lon="5.56475">
        <ele>468.60000610352</ele>
        <time>2026-08-27T06:58:29.000Z</time>
      </trkpt>
      <trkpt lat="46.35941" lon="5.56475">
        <ele>468.79998779297</ele>
        <time>2026-08-27T06:58:39.000Z</time>
      </trkpt>
      <trkpt lat="46.35955" lon="5.56475">
        <ele>468.79998779297</ele>
        <time>2026-08-27T06:58:51.000Z</time>
      </trkpt>
      <trkpt lat="46.35968" lon="5.56475">
        <ele>468.79998779297</ele>
        <time>2026-08-27T06:59:02.000Z</time>
      </trkpt>
      <trkpt lat="46.35982" lon="5.56474">
        <ele>469</ele>
        <time>2026-08-27T06:59:14.000Z</time>
      </trkpt>
      <trkpt lat="46.35995" lon="5.56476">
        <ele>469</ele>
        <time>2026-08-27T06:59:25.000Z</time>
      </trkpt>
      <trkpt lat="46.36009" lon="5.56475">
        <ele>469</ele>
        <time>2026-08-27T06:59:36.000Z</time>
      </trkpt>
      <trkpt lat="46.36017" lon="5.56483">
        <ele>469</ele>
        <time>2026-08-27T06:59:46.000Z</time>
      </trkpt>
      <trkpt lat="46.36022" lon="5.56497">
        <ele>469.60000610352</ele>
        <time>2026-08-27T06:59:56.000Z</time>
      </trkpt>
      <trkpt lat="46.36026" lon="5.56509">
        <ele>470.20001220703</ele>
        <time>2026-08-27T07:00:05.000Z</time>
      </trkpt>
      <trkpt lat="46.36029" lon="5.5652">
        <ele>470.60000610352</ele>
        <time>2026-08-27T07:00:12.000Z</time>
      </trkpt>
      <trkpt lat="46.3603" lon="5.56523">
        <ele>470.79998779297</ele>
        <time>2026-08-27T07:00:14.000Z</time>
      </trkpt>
      <trkpt lat="46.36032" lon="5.5653">
        <ele>471.20001220703</ele>
        <time>2026-08-27T07:00:19.000Z</time>
      </trkpt>
      <trkpt lat="46.36034" lon="5.56535">
        <ele>471.60000610352</ele>
        <time>2026-08-27T07:00:23.000Z</time>
      </trkpt>
      <trkpt lat="46.36036" lon="5.56539">
        <ele>471.79998779297</ele>
        <time>2026-08-27T07:00:26.000Z</time>
      </trkpt>
      <trkpt lat="46.36038" lon="5.56549">
        <ele>472.20001220703</ele>
        <time>2026-08-27T07:00:33.000Z</time>
      </trkpt>
      <trkpt lat="46.36043" lon="5.56561">
        <ele>472.79998779297</ele>
        <time>2026-08-27T07:00:41.000Z</time>
      </trkpt>
      <trkpt lat="46.36043" lon="5.56562">
        <ele>473</ele>
        <time>2026-08-27T07:00:42.000Z</time>
      </trkpt>
      <trkpt lat="46.36047" lon="5.56575">
        <ele>473.60000610352</ele>
        <time>2026-08-27T07:00:51.000Z</time>
      </trkpt>
      <trkpt lat="46.36048" lon="5.56577">
        <ele>473.79998779297</ele>
        <time>2026-08-27T07:00:53.000Z</time>
      </trkpt>
      <trkpt lat="46.3605" lon="5.56585">
        <ele>474.20001220703</ele>
        <time>2026-08-27T07:00:59.000Z</time>
      </trkpt>
      <trkpt lat="46.36055" lon="5.56596">
        <ele>474.79998779297</ele>
        <time>2026-08-27T07:01:07.000Z</time>
      </trkpt>
      <trkpt lat="46.36059" lon="5.56607">
        <ele>475.79998779297</ele>
        <time>2026-08-27T07:01:17.000Z</time>
      </trkpt>
      <trkpt lat="46.3606" lon="5.56609">
        <ele>476</ele>
        <time>2026-08-27T07:01:18.000Z</time>
      </trkpt>
      <trkpt lat="46.36063" lon="5.5662">
        <ele>476.79998779297</ele>
        <time>2026-08-27T07:01:26.000Z</time>
      </trkpt>
      <trkpt lat="46.36065" lon="5.56626">
        <ele>477</ele>
        <time>2026-08-27T07:01:30.000Z</time>
      </trkpt>
      <trkpt lat="46.36068" lon="5.56635">
        <ele>477.60000610352</ele>
        <time>2026-08-27T07:01:37.000Z</time>
      </trkpt>
      <trkpt lat="46.36069" lon="5.56639">
        <ele>478</ele>
        <time>2026-08-27T07:01:40.000Z</time>
      </trkpt>
      <trkpt lat="46.36071" lon="5.56646">
        <ele>478.60000610352</ele>
        <time>2026-08-27T07:01:45.000Z</time>
      </trkpt>
      <trkpt lat="46.36073" lon="5.5665">
        <ele>479</ele>
        <time>2026-08-27T07:01:49.000Z</time>
      </trkpt>
      <trkpt lat="46.36076" lon="5.56658">
        <ele>479.79998779297</ele>
        <time>2026-08-27T07:01:55.000Z</time>
      </trkpt>
      <trkpt lat="46.36077" lon="5.56662">
        <ele>480.20001220703</ele>
        <time>2026-08-27T07:01:58.000Z</time>
      </trkpt>
      <trkpt lat="46.3608" lon="5.5667">
        <ele>480.79998779297</ele>
        <time>2026-08-27T07:02:04.000Z</time>
      </trkpt>
      <trkpt lat="46.36082" lon="5.56674">
        <ele>481.20001220703</ele>
        <time>2026-08-27T07:02:07.000Z</time>
      </trkpt>
      <trkpt lat="46.36083" lon="5.56678">
        <ele>481.60000610352</ele>
        <time>2026-08-27T07:02:10.000Z</time>
      </trkpt>
      <trkpt lat="46.36084" lon="5.5668">
        <ele>481.79998779297</ele>
        <time>2026-08-27T07:02:12.000Z</time>
      </trkpt>
      <trkpt lat="46.36085" lon="5.56685">
        <ele>482.20001220703</ele>
        <time>2026-08-27T07:02:16.000Z</time>
      </trkpt>
      <trkpt lat="46.36088" lon="5.56693">
        <ele>482.79998779297</ele>
        <time>2026-08-27T07:02:22.000Z</time>
      </trkpt>
      <trkpt lat="46.36089" lon="5.56696">
        <ele>483.20001220703</ele>
        <time>2026-08-27T07:02:25.000Z</time>
      </trkpt>
      <trkpt lat="46.36092" lon="5.56704">
        <ele>484</ele>
        <time>2026-08-27T07:02:31.000Z</time>
      </trkpt>
      <trkpt lat="46.36093" lon="5.56708">
        <ele>484.39999389648</ele>
        <time>2026-08-27T07:02:34.000Z</time>
      </trkpt>
      <trkpt lat="46.36096" lon="5.56715">
        <ele>485</ele>
        <time>2026-08-27T07:02:40.000Z</time>
      </trkpt>
      <trkpt lat="46.36097" lon="5.56719">
        <ele>485.39999389648</ele>
        <time>2026-08-27T07:02:43.000Z</time>
      </trkpt>
      <trkpt lat="46.36099" lon="5.56726">
        <ele>485.79998779297</ele>
        <time>2026-08-27T07:02:48.000Z</time>
      </trkpt>
      <trkpt lat="46.36102" lon="5.56733">
        <ele>486.39999389648</ele>
        <time>2026-08-27T07:02:53.000Z</time>
      </trkpt>
      <trkpt lat="46.36105" lon="5.56739">
        <ele>486.79998779297</ele>
        <time>2026-08-27T07:02:57.000Z</time>
      </trkpt>
      <trkpt lat="46.36108" lon="5.56748">
        <ele>487.39999389648</ele>
        <time>2026-08-27T07:03:04.000Z</time>
      </trkpt>
      <trkpt lat="46.36109" lon="5.56751">
        <ele>487.60000610352</ele>
        <time>2026-08-27T07:03:06.000Z</time>
      </trkpt>
      <trkpt lat="46.36113" lon="5.56761">
        <ele>488.39999389648</ele>
        <time>2026-08-27T07:03:14.000Z</time>
      </trkpt>
      <trkpt lat="46.36113" lon="5.56763">
        <ele>488.60000610352</ele>
        <time>2026-08-27T07:03:15.000Z</time>
      </trkpt>
      <trkpt lat="46.36116" lon="5.56773">
        <ele>489.20001220703</ele>
        <time>2026-08-27T07:03:22.000Z</time>
      </trkpt>
      <trkpt lat="46.36118" lon="5.56779">
        <ele>489.60000610352</ele>
        <time>2026-08-27T07:03:27.000Z</time>
      </trkpt>
      <trkpt lat="46.36119" lon="5.56784">
        <ele>489.60000610352</ele>
        <time>2026-08-27T07:03:31.000Z</time>
      </trkpt>
      <trkpt lat="46.36122" lon="5.56797">
        <ele>490</ele>
        <time>2026-08-27T07:03:39.000Z</time>
      </trkpt>
      <trkpt lat="46.36123" lon="5.56798">
        <ele>490</ele>
        <time>2026-08-27T07:03:40.000Z</time>
      </trkpt>
      <trkpt lat="46.36125" lon="5.56812">
        <ele>490.20001220703</ele>
        <time>2026-08-27T07:03:49.000Z</time>
      </trkpt>
      <trkpt lat="46.36125" lon="5.56814">
        <ele>490.20001220703</ele>
        <time>2026-08-27T07:03:50.000Z</time>
      </trkpt>
      <trkpt lat="46.36128" lon="5.5683">
        <ele>490.39999389648</ele>
        <time>2026-08-27T07:04:00.000Z</time>
      </trkpt>
      <trkpt lat="46.36128" lon="5.56834">
        <ele>490.39999389648</ele>
        <time>2026-08-27T07:04:02.000Z</time>
      </trkpt>
      <trkpt lat="46.36128" lon="5.56835">
        <ele>490.39999389648</ele>
        <time>2026-08-27T07:04:03.000Z</time>
      </trkpt>
      <trkpt lat="46.36129" lon="5.5684">
        <ele>490.60000610352</ele>
        <time>2026-08-27T07:04:06.000Z</time>
      </trkpt>
      <trkpt lat="46.36132" lon="5.56854">
        <ele>491</ele>
        <time>2026-08-27T07:04:14.000Z</time>
      </trkpt>
      <trkpt lat="46.36137" lon="5.56873">
        <ele>491.39999389648</ele>
        <time>2026-08-27T07:04:26.000Z</time>
      </trkpt>
      <trkpt lat="46.36138" lon="5.56874">
        <ele>491.39999389648</ele>
        <time>2026-08-27T07:04:27.000Z</time>
      </trkpt>
      <trkpt lat="46.3614" lon="5.56879">
        <ele>491.60000610352</ele>
        <time>2026-08-27T07:04:30.000Z</time>
      </trkpt>
      <trkpt lat="46.36145" lon="5.56889">
        <ele>491.60000610352</ele>
        <time>2026-08-27T07:04:38.000Z</time>
      </trkpt>
      <trkpt lat="46.36151" lon="5.56903">
        <ele>491.60000610352</ele>
        <time>2026-08-27T07:04:47.000Z</time>
      </trkpt>
      <trkpt lat="46.36155" lon="5.5691">
        <ele>491.79998779297</ele>
        <time>2026-08-27T07:04:52.000Z</time>
      </trkpt>
      <trkpt lat="46.36163" lon="5.56925">
        <ele>492.20001220703</ele>
        <time>2026-08-27T07:05:03.000Z</time>
      </trkpt>
      <trkpt lat="46.36169" lon="5.56943">
        <ele>492.60000610352</ele>
        <time>2026-08-27T07:05:14.000Z</time>
      </trkpt>
      <trkpt lat="46.36172" lon="5.56949">
        <ele>492.60000610352</ele>
        <time>2026-08-27T07:05:18.000Z</time>
      </trkpt>
      <trkpt lat="46.36177" lon="5.56959">
        <ele>492.79998779297</ele>
        <time>2026-08-27T07:05:25.000Z</time>
      </trkpt>
      <trkpt lat="46.36183" lon="5.56974">
        <ele>493</ele>
        <time>2026-08-27T07:05:36.000Z</time>
      </trkpt>
      <trkpt lat="46.36189" lon="5.56987">
        <ele>493.60000610352</ele>
        <time>2026-08-27T07:05:46.000Z</time>
      </trkpt>
      <trkpt lat="46.36191" lon="5.5699">
        <ele>493.79998779297</ele>
        <time>2026-08-27T07:05:48.000Z</time>
      </trkpt>
      <trkpt lat="46.36197" lon="5.57003">
        <ele>494.20001220703</ele>
        <time>2026-08-27T07:05:56.000Z</time>
      </trkpt>
      <trkpt lat="46.36202" lon="5.57016">
        <ele>494.60000610352</ele>
        <time>2026-08-27T07:06:05.000Z</time>
      </trkpt>
      <trkpt lat="46.36203" lon="5.57018">
        <ele>494.79998779297</ele>
        <time>2026-08-27T07:06:06.000Z</time>
      </trkpt>
      <trkpt lat="46.36206" lon="5.57034">
        <ele>495.39999389648</ele>
        <time>2026-08-27T07:06:17.000Z</time>
      </trkpt>
      <trkpt lat="46.36207" lon="5.57047">
        <ele>495.79998779297</ele>
        <time>2026-08-27T07:06:26.000Z</time>
      </trkpt>
      <trkpt lat="46.36207" lon="5.57051">
        <ele>495.79998779297</ele>
        <time>2026-08-27T07:06:28.000Z</time>
      </trkpt>
      <trkpt lat="46.36208" lon="5.57066">
        <ele>496.39999389648</ele>
        <time>2026-08-27T07:06:38.000Z</time>
      </trkpt>
      <trkpt lat="46.36207" lon="5.57075">
        <ele>496.79998779297</ele>
        <time>2026-08-27T07:06:43.000Z</time>
      </trkpt>
      <trkpt lat="46.36207" lon="5.57085">
        <ele>497.20001220703</ele>
        <time>2026-08-27T07:06:50.000Z</time>
      </trkpt>
      <trkpt lat="46.36207" lon="5.571">
        <ele>497.79998779297</ele>
        <time>2026-08-27T07:06:59.000Z</time>
      </trkpt>
      <trkpt lat="46.36207" lon="5.57106">
        <ele>498</ele>
        <time>2026-08-27T07:07:02.000Z</time>
      </trkpt>
      <trkpt lat="46.36207" lon="5.57121">
        <ele>498.60000610352</ele>
        <time>2026-08-27T07:07:12.000Z</time>
      </trkpt>
      <trkpt lat="46.36208" lon="5.57127">
        <ele>499</ele>
        <time>2026-08-27T07:07:16.000Z</time>
      </trkpt>
      <trkpt lat="46.36208" lon="5.57139">
        <ele>499.39999389648</ele>
        <time>2026-08-27T07:07:23.000Z</time>
      </trkpt>
      <trkpt lat="46.36208" lon="5.57152">
        <ele>500</ele>
        <time>2026-08-27T07:07:31.000Z</time>
      </trkpt>
      <trkpt lat="46.36208" lon="5.57157">
        <ele>500.20001220703</ele>
        <time>2026-08-27T07:07:34.000Z</time>
      </trkpt>
      <trkpt lat="46.36209" lon="5.57176">
        <ele>500.79998779297</ele>
        <time>2026-08-27T07:07:46.000Z</time>
      </trkpt>
      <trkpt lat="46.36209" lon="5.5718">
        <ele>501</ele>
        <time>2026-08-27T07:07:48.000Z</time>
      </trkpt>
      <trkpt lat="46.36209" lon="5.57196">
        <ele>501.79998779297</ele>
        <time>2026-08-27T07:07:58.000Z</time>
      </trkpt>
      <trkpt lat="46.3621" lon="5.57202">
        <ele>502</ele>
        <time>2026-08-27T07:08:02.000Z</time>
      </trkpt>
      <trkpt lat="46.3621" lon="5.57213">
        <ele>502.60000610352</ele>
        <time>2026-08-27T07:08:09.000Z</time>
      </trkpt>
      <trkpt lat="46.36211" lon="5.57226">
        <ele>503.20001220703</ele>
        <time>2026-08-27T07:08:16.000Z</time>
      </trkpt>
      <trkpt lat="46.3621" lon="5.57233">
        <ele>503.60000610352</ele>
        <time>2026-08-27T07:08:21.000Z</time>
      </trkpt>
      <trkpt lat="46.3621" lon="5.57246">
        <ele>504.20001220703</ele>
        <time>2026-08-27T07:08:29.000Z</time>
      </trkpt>
      <trkpt lat="46.3621" lon="5.57248">
        <ele>504.20001220703</ele>
        <time>2026-08-27T07:08:30.000Z</time>
      </trkpt>
      <trkpt lat="46.36212" lon="5.57263">
        <ele>505</ele>
        <time>2026-08-27T07:08:39.000Z</time>
      </trkpt>
      <trkpt lat="46.36213" lon="5.57268">
        <ele>505.20001220703</ele>
        <time>2026-08-27T07:08:43.000Z</time>
      </trkpt>
      <trkpt lat="46.36215" lon="5.57279">
        <ele>505.60000610352</ele>
        <time>2026-08-27T07:08:49.000Z</time>
      </trkpt>
      <trkpt lat="46.3622" lon="5.57295">
        <ele>506.20001220703</ele>
        <time>2026-08-27T07:08:59.000Z</time>
      </trkpt>
      <trkpt lat="46.36221" lon="5.57296">
        <ele>506.20001220703</ele>
        <time>2026-08-27T07:09:00.000Z</time>
      </trkpt>
      <trkpt lat="46.36224" lon="5.57308">
        <ele>506.79998779297</ele>
        <time>2026-08-27T07:09:08.000Z</time>
      </trkpt>
      <trkpt lat="46.36229" lon="5.57321">
        <ele>507.20001220703</ele>
        <time>2026-08-27T07:09:17.000Z</time>
      </trkpt>
      <trkpt lat="46.3623" lon="5.57326">
        <ele>507.39999389648</ele>
        <time>2026-08-27T07:09:20.000Z</time>
      </trkpt>
      <trkpt lat="46.36235" lon="5.5734">
        <ele>508</ele>
        <time>2026-08-27T07:09:30.000Z</time>
      </trkpt>
      <trkpt lat="46.36238" lon="5.5735">
        <ele>508.20001220703</ele>
        <time>2026-08-27T07:09:37.000Z</time>
      </trkpt>
      <trkpt lat="46.3624" lon="5.57356">
        <ele>508.39999389648</ele>
        <time>2026-08-27T07:09:41.000Z</time>
      </trkpt>
      <trkpt lat="46.36241" lon="5.57359">
        <ele>508.60000610352</ele>
        <time>2026-08-27T07:09:48.000Z</time>
      </trkpt>
      <trkpt lat="46.36241" lon="5.57359">
        <ele>508.60000610352</ele>
        <time>2026-08-27T07:09:54.000Z</time>
      </trkpt>
      <trkpt lat="46.36242" lon="5.57363">
        <ele>508.60000610352</ele>
        <time>2026-08-27T07:09:58.000Z</time>
      </trkpt>
      <trkpt lat="46.36242" lon="5.57364">
        <ele>508.60000610352</ele>
        <time>2026-08-27T07:10:00.000Z</time>
      </trkpt>
      <trkpt lat="46.36243" lon="5.57369">
        <ele>508.79998779297</ele>
        <time>2026-08-27T07:10:09.000Z</time>
      </trkpt>
      <trkpt lat="46.36245" lon="5.57374">
        <ele>508.79998779297</ele>
        <time>2026-08-27T07:10:17.000Z</time>
      </trkpt>
      <trkpt lat="46.36244" lon="5.57374">
        <ele>508.79998779297</ele>
        <time>2026-08-27T07:10:20.000Z</time>
      </trkpt>
      <trkpt lat="46.36245" lon="5.57376">
        <ele>509</ele>
        <time>2026-08-27T07:10:24.000Z</time>
      </trkpt>
      <trkpt lat="46.36245" lon="5.57377">
        <ele>509</ele>
        <time>2026-08-27T07:10:34.000Z</time>
      </trkpt>
      <trkpt lat="46.36245" lon="5.57376">
        <ele>509</ele>
        <time>2026-08-27T07:10:38.000Z</time>
      </trkpt>
      <trkpt lat="46.36245" lon="5.57375">
        <ele>509</ele>
        <time>2026-08-27T07:10:40.000Z</time>
      </trkpt>
      <trkpt lat="46.36246" lon="5.57375">
        <ele>509</ele>
        <time>2026-08-27T07:10:47.000Z</time>
      </trkpt>
      <trkpt lat="46.36249" lon="5.57383">
        <ele>509.20001220703</ele>
        <time>2026-08-27T07:10:54.000Z</time>
      </trkpt>
      <trkpt lat="46.36251" lon="5.57389">
        <ele>509.39999389648</ele>
        <time>2026-08-27T07:10:58.000Z</time>
      </trkpt>
      <trkpt lat="46.36253" lon="5.57396">
        <ele>509.60000610352</ele>
        <time>2026-08-27T07:11:05.000Z</time>
      </trkpt>
      <trkpt lat="46.36253" lon="5.57396">
        <ele>509.60000610352</ele>
        <time>2026-08-27T07:11:15.000Z</time>
      </trkpt>
      <trkpt lat="46.36253" lon="5.57396">
        <ele>509.79998779297</ele>
        <time>2026-08-27T07:11:19.000Z</time>
      </trkpt>
      <trkpt lat="46.36255" lon="5.57399">
        <ele>510</ele>
        <time>2026-08-27T07:11:25.000Z</time>
      </trkpt>
      <trkpt lat="46.36253" lon="5.57402">
        <ele>510</ele>
        <time>2026-08-27T07:11:34.000Z</time>
      </trkpt>
      <trkpt lat="46.36256" lon="5.57414">
        <ele>510.20001220703</ele>
        <time>2026-08-27T07:11:42.000Z</time>
      </trkpt>
      <trkpt lat="46.36259" lon="5.57421">
        <ele>510.39999389648</ele>
        <time>2026-08-27T07:11:47.000Z</time>
      </trkpt>
      <trkpt lat="46.36261" lon="5.57423">
        <ele>510.39999389648</ele>
        <time>2026-08-27T07:11:50.000Z</time>
      </trkpt>
      <trkpt lat="46.36262" lon="5.57423">
        <ele>510.60000610352</ele>
        <time>2026-08-27T07:11:52.000Z</time>
      </trkpt>
      <trkpt lat="46.36261" lon="5.57423">
        <ele>510.60000610352</ele>
        <time>2026-08-27T07:11:53.000Z</time>
      </trkpt>
      <trkpt lat="46.36261" lon="5.57423">
        <ele>510.60000610352</ele>
        <time>2026-08-27T07:11:55.000Z</time>
      </trkpt>
      <trkpt lat="46.36262" lon="5.57424">
        <ele>510.60000610352</ele>
        <time>2026-08-27T07:12:03.000Z</time>
      </trkpt>
      <trkpt lat="46.36263" lon="5.57424">
        <ele>510.60000610352</ele>
        <time>2026-08-27T07:12:05.000Z</time>
      </trkpt>
      <trkpt lat="46.36263" lon="5.57425">
        <ele>510.39999389648</ele>
        <time>2026-08-27T07:12:06.000Z</time>
      </trkpt>
      <trkpt lat="46.36264" lon="5.57435">
        <ele>510.60000610352</ele>
        <time>2026-08-27T07:12:12.000Z</time>
      </trkpt>
      <trkpt lat="46.36264" lon="5.57451">
        <ele>510.79998779297</ele>
        <time>2026-08-27T07:12:21.000Z</time>
      </trkpt>
      <trkpt lat="46.36264" lon="5.5746">
        <ele>511.20001220703</ele>
        <time>2026-08-27T07:12:26.000Z</time>
      </trkpt>
      <trkpt lat="46.36264" lon="5.57462">
        <ele>511.39999389648</ele>
        <time>2026-08-27T07:12:27.000Z</time>
      </trkpt>
      <trkpt lat="46.36263" lon="5.57468">
        <ele>511.60000610352</ele>
        <time>2026-08-27T07:12:30.000Z</time>
      </trkpt>
      <trkpt lat="46.36261" lon="5.5748">
        <ele>512.20001220703</ele>
        <time>2026-08-27T07:12:37.000Z</time>
      </trkpt>
      <trkpt lat="46.3626" lon="5.57487">
        <ele>512.40002441406</ele>
        <time>2026-08-27T07:12:41.000Z</time>
      </trkpt>
      <trkpt lat="46.3626" lon="5.57493">
        <ele>512.40002441406</ele>
        <time>2026-08-27T07:12:44.000Z</time>
      </trkpt>
      <trkpt lat="46.36258" lon="5.57507">
        <ele>513</ele>
        <time>2026-08-27T07:12:52.000Z</time>
      </trkpt>
      <trkpt lat="46.36259" lon="5.57516">
        <ele>513.59997558594</ele>
        <time>2026-08-27T07:12:58.000Z</time>
      </trkpt>
      <trkpt lat="46.3626" lon="5.57519">
        <ele>513.79998779297</ele>
        <time>2026-08-27T07:13:00.000Z</time>
      </trkpt>
      <trkpt lat="46.3626" lon="5.5752">
        <ele>514</ele>
        <time>2026-08-27T07:13:01.000Z</time>
      </trkpt>
      <trkpt lat="46.36262" lon="5.57528">
        <ele>514.59997558594</ele>
        <time>2026-08-27T07:13:06.000Z</time>
      </trkpt>
      <trkpt lat="46.36264" lon="5.57534">
        <ele>515.20001220703</ele>
        <time>2026-08-27T07:13:10.000Z</time>
      </trkpt>
      <trkpt lat="46.36265" lon="5.5754">
        <ele>515.59997558594</ele>
        <time>2026-08-27T07:13:14.000Z</time>
      </trkpt>
      <trkpt lat="46.36267" lon="5.57548">
        <ele>516.20001220703</ele>
        <time>2026-08-27T07:13:19.000Z</time>
      </trkpt>
      <trkpt lat="46.36269" lon="5.57555">
        <ele>516.79998779297</ele>
        <time>2026-08-27T07:13:24.000Z</time>
      </trkpt>
      <trkpt lat="46.36272" lon="5.57561">
        <ele>517.40002441406</ele>
        <time>2026-08-27T07:13:29.000Z</time>
      </trkpt>
      <trkpt lat="46.36273" lon="5.57565">
        <ele>517.79998779297</ele>
        <time>2026-08-27T07:13:31.000Z</time>
      </trkpt>
      <trkpt lat="46.36276" lon="5.57572">
        <ele>518.40002441406</ele>
        <time>2026-08-27T07:13:36.000Z</time>
      </trkpt>
      <trkpt lat="46.36279" lon="5.57578">
        <ele>518.79998779297</ele>
        <time>2026-08-27T07:13:41.000Z</time>
      </trkpt>
      <trkpt lat="46.36281" lon="5.57582">
        <ele>519.20001220703</ele>
        <time>2026-08-27T07:13:44.000Z</time>
      </trkpt>
      <trkpt lat="46.36283" lon="5.57591">
        <ele>520</ele>
        <time>2026-08-27T07:13:51.000Z</time>
      </trkpt>
      <trkpt lat="46.36284" lon="5.57592">
        <ele>520.20001220703</ele>
        <time>2026-08-27T07:13:52.000Z</time>
      </trkpt>
      <trkpt lat="46.36286" lon="5.57599">
        <ele>521</ele>
        <time>2026-08-27T07:13:57.000Z</time>
      </trkpt>
      <trkpt lat="46.36289" lon="5.57604">
        <ele>521.59997558594</ele>
        <time>2026-08-27T07:14:01.000Z</time>
      </trkpt>
      <trkpt lat="46.36291" lon="5.57609">
        <ele>522.20001220703</ele>
        <time>2026-08-27T07:14:05.000Z</time>
      </trkpt>
      <trkpt lat="46.36295" lon="5.57614">
        <ele>523</ele>
        <time>2026-08-27T07:14:10.000Z</time>
      </trkpt>
      <trkpt lat="46.36296" lon="5.57616">
        <ele>523.20001220703</ele>
        <time>2026-08-27T07:14:12.000Z</time>
      </trkpt>
      <trkpt lat="46.36302" lon="5.57625">
        <ele>524.40002441406</ele>
        <time>2026-08-27T07:14:19.000Z</time>
      </trkpt>
      <trkpt lat="46.36304" lon="5.57626">
        <ele>524.79998779297</ele>
        <time>2026-08-27T07:14:21.000Z</time>
      </trkpt>
      <trkpt lat="46.36307" lon="5.57629">
        <ele>525.40002441406</ele>
        <time>2026-08-27T07:14:25.000Z</time>
      </trkpt>
      <trkpt lat="46.3631" lon="5.57633">
        <ele>526</ele>
        <time>2026-08-27T07:14:28.000Z</time>
      </trkpt>
      <trkpt lat="46.36312" lon="5.57635">
        <ele>526.59997558594</ele>
        <time>2026-08-27T07:14:31.000Z</time>
      </trkpt>
      <trkpt lat="46.36316" lon="5.5764">
        <ele>527.59997558594</ele>
        <time>2026-08-27T07:14:36.000Z</time>
      </trkpt>
      <trkpt lat="46.36317" lon="5.57642">
        <ele>527.79998779297</ele>
        <time>2026-08-27T07:14:37.000Z</time>
      </trkpt>
      <trkpt lat="46.36321" lon="5.57647">
        <ele>528.79998779297</ele>
        <time>2026-08-27T07:14:42.000Z</time>
      </trkpt>
      <trkpt lat="46.36322" lon="5.5765">
        <ele>529.20001220703</ele>
        <time>2026-08-27T07:14:44.000Z</time>
      </trkpt>
      <trkpt lat="46.36325" lon="5.57654">
        <ele>530</ele>
        <time>2026-08-27T07:14:48.000Z</time>
      </trkpt>
      <trkpt lat="46.36328" lon="5.57658">
        <ele>530.59997558594</ele>
        <time>2026-08-27T07:14:52.000Z</time>
      </trkpt>
      <trkpt lat="46.36328" lon="5.57659">
        <ele>530.79998779297</ele>
        <time>2026-08-27T07:14:53.000Z</time>
      </trkpt>
      <trkpt lat="46.36329" lon="5.5766">
        <ele>531</ele>
        <time>2026-08-27T07:14:54.000Z</time>
      </trkpt>
      <trkpt lat="46.36333" lon="5.57666">
        <ele>532.20001220703</ele>
        <time>2026-08-27T07:15:00.000Z</time>
      </trkpt>
      <trkpt lat="46.36334" lon="5.57669">
        <ele>532.79998779297</ele>
        <time>2026-08-27T07:15:03.000Z</time>
      </trkpt>
      <trkpt lat="46.36335" lon="5.57672">
        <ele>533.20001220703</ele>
        <time>2026-08-27T07:15:05.000Z</time>
      </trkpt>
      <trkpt lat="46.36338" lon="5.5768">
        <ele>534.40002441406</ele>
        <time>2026-08-27T07:15:11.000Z</time>
      </trkpt>
      <trkpt lat="46.3634" lon="5.57689">
        <ele>535.40002441406</ele>
        <time>2026-08-27T07:15:17.000Z</time>
      </trkpt>
      <trkpt lat="46.36341" lon="5.57693">
        <ele>536</ele>
        <time>2026-08-27T07:15:20.000Z</time>
      </trkpt>
      <trkpt lat="46.36342" lon="5.57696">
        <ele>536.40002441406</ele>
        <time>2026-08-27T07:15:23.000Z</time>
      </trkpt>
      <trkpt lat="46.36343" lon="5.57703">
        <ele>537.59997558594</ele>
        <time>2026-08-27T07:15:28.000Z</time>
      </trkpt>
      <trkpt lat="46.36343" lon="5.57705">
        <ele>537.79998779297</ele>
        <time>2026-08-27T07:15:29.000Z</time>
      </trkpt>
      <trkpt lat="46.36344" lon="5.57712">
        <ele>538.59997558594</ele>
        <time>2026-08-27T07:15:34.000Z</time>
      </trkpt>
      <trkpt lat="46.36344" lon="5.57717">
        <ele>539.20001220703</ele>
        <time>2026-08-27T07:15:37.000Z</time>
      </trkpt>
      <trkpt lat="46.36344" lon="5.57723">
        <ele>539.79998779297</ele>
        <time>2026-08-27T07:15:41.000Z</time>
      </trkpt>
      <trkpt lat="46.36343" lon="5.57731">
        <ele>540.40002441406</ele>
        <time>2026-08-27T07:15:46.000Z</time>
      </trkpt>
      <trkpt lat="46.36343" lon="5.57735">
        <ele>540.79998779297</ele>
        <time>2026-08-27T07:15:49.000Z</time>
      </trkpt>
      <trkpt lat="46.36341" lon="5.57744">
        <ele>541.79998779297</ele>
        <time>2026-08-27T07:15:56.000Z</time>
      </trkpt>
      <trkpt lat="46.36342" lon="5.57755">
        <ele>542.79998779297</ele>
        <time>2026-08-27T07:16:03.000Z</time>
      </trkpt>
      <trkpt lat="46.36342" lon="5.57756">
        <ele>543</ele>
        <time>2026-08-27T07:16:04.000Z</time>
      </trkpt>
      <trkpt lat="46.36342" lon="5.57761">
        <ele>543.59997558594</ele>
        <time>2026-08-27T07:16:08.000Z</time>
      </trkpt>
      <trkpt lat="46.36343" lon="5.57763">
        <ele>544</ele>
        <time>2026-08-27T07:16:10.000Z</time>
      </trkpt>
      <trkpt lat="46.36343" lon="5.57767">
        <ele>544.40002441406</ele>
        <time>2026-08-27T07:16:13.000Z</time>
      </trkpt>
      <trkpt lat="46.36343" lon="5.57772">
        <ele>545</ele>
        <time>2026-08-27T07:16:17.000Z</time>
      </trkpt>
      <trkpt lat="46.36344" lon="5.57777">
        <ele>545.40002441406</ele>
        <time>2026-08-27T07:16:21.000Z</time>
      </trkpt>
      <trkpt lat="46.36344" lon="5.57781">
        <ele>546</ele>
        <time>2026-08-27T07:16:24.000Z</time>
      </trkpt>
      <trkpt lat="46.36343" lon="5.57782">
        <ele>546.20001220703</ele>
        <time>2026-08-27T07:16:25.000Z</time>
      </trkpt>
      <trkpt lat="46.36344" lon="5.5779">
        <ele>547</ele>
        <time>2026-08-27T07:16:32.000Z</time>
      </trkpt>
      <trkpt lat="46.36344" lon="5.57793">
        <ele>547.40002441406</ele>
        <time>2026-08-27T07:16:35.000Z</time>
      </trkpt>
      <trkpt lat="46.36344" lon="5.57798">
        <ele>548</ele>
        <time>2026-08-27T07:16:39.000Z</time>
      </trkpt>
      <trkpt lat="46.36343" lon="5.57805">
        <ele>548.79998779297</ele>
        <time>2026-08-27T07:16:44.000Z</time>
      </trkpt>
      <trkpt lat="46.36343" lon="5.57807">
        <ele>549</ele>
        <time>2026-08-27T07:16:46.000Z</time>
      </trkpt>
      <trkpt lat="46.36344" lon="5.57814">
        <ele>549.79998779297</ele>
        <time>2026-08-27T07:16:52.000Z</time>
      </trkpt>
      <trkpt lat="46.36344" lon="5.57817">
        <ele>550.20001220703</ele>
        <time>2026-08-27T07:16:54.000Z</time>
      </trkpt>
      <trkpt lat="46.36343" lon="5.57822">
        <ele>550.59997558594</ele>
        <time>2026-08-27T07:16:58.000Z</time>
      </trkpt>
      <trkpt lat="46.36343" lon="5.57827">
        <ele>550.79998779297</ele>
        <time>2026-08-27T07:17:01.000Z</time>
      </trkpt>
      <trkpt lat="46.36343" lon="5.5783">
        <ele>551.20001220703</ele>
        <time>2026-08-27T07:17:03.000Z</time>
      </trkpt>
      <trkpt lat="46.36343" lon="5.5784">
        <ele>552.20001220703</ele>
        <time>2026-08-27T07:17:11.000Z</time>
      </trkpt>
      <trkpt lat="46.36343" lon="5.57841">
        <ele>552.20001220703</ele>
        <time>2026-08-27T07:17:12.000Z</time>
      </trkpt>
      <trkpt lat="46.36347" lon="5.57849">
        <ele>553</ele>
        <time>2026-08-27T07:17:20.000Z</time>
      </trkpt>
      <trkpt lat="46.36347" lon="5.5785">
        <ele>553.20001220703</ele>
        <time>2026-08-27T07:17:21.000Z</time>
      </trkpt>
      <trkpt lat="46.36352" lon="5.57853">
        <ele>554.20001220703</ele>
        <time>2026-08-27T07:17:27.000Z</time>
      </trkpt>
      <trkpt lat="46.36353" lon="5.57853">
        <ele>554.40002441406</ele>
        <time>2026-08-27T07:17:28.000Z</time>
      </trkpt>
      <trkpt lat="46.36358" lon="5.57853">
        <ele>555.59997558594</ele>
        <time>2026-08-27T07:17:35.000Z</time>
      </trkpt>
      <trkpt lat="46.36358" lon="5.57853">
        <ele>555.59997558594</ele>
        <time>2026-08-27T07:17:36.000Z</time>
      </trkpt>
      <trkpt lat="46.36364" lon="5.57852">
        <ele>556.59997558594</ele>
        <time>2026-08-27T07:17:43.000Z</time>
      </trkpt>
      <trkpt lat="46.36365" lon="5.57852">
        <ele>556.79998779297</ele>
        <time>2026-08-27T07:17:44.000Z</time>
      </trkpt>
      <trkpt lat="46.3637" lon="5.57851">
        <ele>557.79998779297</ele>
        <time>2026-08-27T07:17:50.000Z</time>
      </trkpt>
      <trkpt lat="46.36372" lon="5.57852">
        <ele>558</ele>
        <time>2026-08-27T07:17:51.000Z</time>
      </trkpt>
      <trkpt lat="46.36374" lon="5.57853">
        <ele>558.20001220703</ele>
        <time>2026-08-27T07:17:53.000Z</time>
      </trkpt>
      <trkpt lat="46.36378" lon="5.57856">
        <ele>558.79998779297</ele>
        <time>2026-08-27T07:17:58.000Z</time>
      </trkpt>
      <trkpt lat="46.36381" lon="5.57861">
        <ele>559.40002441406</ele>
        <time>2026-08-27T07:18:03.000Z</time>
      </trkpt>
      <trkpt lat="46.36382" lon="5.57866">
        <ele>560</ele>
        <time>2026-08-27T07:18:07.000Z</time>
      </trkpt>
      <trkpt lat="46.36381" lon="5.57873">
        <ele>560.59997558594</ele>
        <time>2026-08-27T07:18:12.000Z</time>
      </trkpt>
      <trkpt lat="46.36381" lon="5.57876">
        <ele>561</ele>
        <time>2026-08-27T07:18:14.000Z</time>
      </trkpt>
      <trkpt lat="46.36379" lon="5.57882">
        <ele>561.79998779297</ele>
        <time>2026-08-27T07:18:20.000Z</time>
      </trkpt>
      <trkpt lat="46.36378" lon="5.57884">
        <ele>562.20001220703</ele>
        <time>2026-08-27T07:18:22.000Z</time>
      </trkpt>
      <trkpt lat="46.36377" lon="5.57886">
        <ele>562.40002441406</ele>
        <time>2026-08-27T07:18:24.000Z</time>
      </trkpt>
      <trkpt lat="46.36374" lon="5.57889">
        <ele>563</ele>
        <time>2026-08-27T07:18:28.000Z</time>
      </trkpt>
      <trkpt lat="46.36371" lon="5.57891">
        <ele>563.20001220703</ele>
        <time>2026-08-27T07:18:31.000Z</time>
      </trkpt>
      <trkpt lat="46.36366" lon="5.57897">
        <ele>564</ele>
        <time>2026-08-27T07:18:37.000Z</time>
      </trkpt>
      <trkpt lat="46.36365" lon="5.57899">
        <ele>564.40002441406</ele>
        <time>2026-08-27T07:18:39.000Z</time>
      </trkpt>
      <trkpt lat="46.3636" lon="5.57904">
        <ele>564.79998779297</ele>
        <time>2026-08-27T07:18:45.000Z</time>
      </trkpt>
      <trkpt lat="46.36353" lon="5.57912">
        <ele>565.40002441406</ele>
        <time>2026-08-27T07:18:52.000Z</time>
      </trkpt>
      <trkpt lat="46.36353" lon="5.57913">
        <ele>565.40002441406</ele>
        <time>2026-08-27T07:18:53.000Z</time>
      </trkpt>
      <trkpt lat="46.3635" lon="5.57917">
        <ele>565.79998779297</ele>
        <time>2026-08-27T07:18:56.000Z</time>
      </trkpt>
      <trkpt lat="46.36343" lon="5.57922">
        <ele>566.20001220703</ele>
        <time>2026-08-27T07:19:02.000Z</time>
      </trkpt>
      <trkpt lat="46.36342" lon="5.57923">
        <ele>566.40002441406</ele>
        <time>2026-08-27T07:19:03.000Z</time>
      </trkpt>
      <trkpt lat="46.36336" lon="5.57931">
        <ele>567.20001220703</ele>
        <time>2026-08-27T07:19:10.000Z</time>
      </trkpt>
      <trkpt lat="46.36332" lon="5.57939">
        <ele>567.40002441406</ele>
        <time>2026-08-27T07:19:16.000Z</time>
      </trkpt>
      <trkpt lat="46.3633" lon="5.57943">
        <ele>567.59997558594</ele>
        <time>2026-08-27T07:19:19.000Z</time>
      </trkpt>
      <trkpt lat="46.36325" lon="5.57953">
        <ele>568</ele>
        <time>2026-08-27T07:19:27.000Z</time>
      </trkpt>
      <trkpt lat="46.3632" lon="5.57959">
        <ele>568.40002441406</ele>
        <time>2026-08-27T07:19:32.000Z</time>
      </trkpt>
      <trkpt lat="46.36316" lon="5.57963">
        <ele>568.79998779297</ele>
        <time>2026-08-27T07:19:35.000Z</time>
      </trkpt>
      <trkpt lat="46.3631" lon="5.57971">
        <ele>569.40002441406</ele>
        <time>2026-08-27T07:19:43.000Z</time>
      </trkpt>
      <trkpt lat="46.36309" lon="5.57973">
        <ele>569.59997558594</ele>
        <time>2026-08-27T07:19:44.000Z</time>
      </trkpt>
      <trkpt lat="46.36303" lon="5.57982">
        <ele>570</ele>
        <time>2026-08-27T07:19:52.000Z</time>
      </trkpt>
      <trkpt lat="46.36301" lon="5.57985">
        <ele>570.20001220703</ele>
        <time>2026-08-27T07:19:55.000Z</time>
      </trkpt>
      <trkpt lat="46.36299" lon="5.57988">
        <ele>570.40002441406</ele>
        <time>2026-08-27T07:19:58.000Z</time>
      </trkpt>
      <trkpt lat="46.36296" lon="5.57991">
        <ele>570.59997558594</ele>
        <time>2026-08-27T07:20:01.000Z</time>
      </trkpt>
      <trkpt lat="46.3629" lon="5.58002">
        <ele>571.40002441406</ele>
        <time>2026-08-27T07:20:09.000Z</time>
      </trkpt>
      <trkpt lat="46.36282" lon="5.58014">
        <ele>571.59997558594</ele>
        <time>2026-08-27T07:20:18.000Z</time>
      </trkpt>
      <trkpt lat="46.36275" lon="5.58024">
        <ele>572.20001220703</ele>
        <time>2026-08-27T07:20:27.000Z</time>
      </trkpt>
      <trkpt lat="46.36274" lon="5.58027">
        <ele>572.40002441406</ele>
        <time>2026-08-27T07:20:35.000Z</time>
      </trkpt>
      <trkpt lat="46.36273" lon="5.58028">
        <ele>572.59997558594</ele>
        <time>2026-08-27T07:20:40.000Z</time>
      </trkpt>
      <trkpt lat="46.3627" lon="5.58027">
        <ele>572.59997558594</ele>
        <time>2026-08-27T07:20:43.000Z</time>
      </trkpt>
      <trkpt lat="46.36269" lon="5.58027">
        <ele>572.79998779297</ele>
        <time>2026-08-27T07:20:44.000Z</time>
      </trkpt>
      <trkpt lat="46.36261" lon="5.58028">
        <ele>573.79998779297</ele>
        <time>2026-08-27T07:20:52.000Z</time>
      </trkpt>
      <trkpt lat="46.36259" lon="5.58029">
        <ele>574.20001220703</ele>
        <time>2026-08-27T07:20:55.000Z</time>
      </trkpt>
      <trkpt lat="46.36254" lon="5.58032">
        <ele>574.79998779297</ele>
        <time>2026-08-27T07:21:01.000Z</time>
      </trkpt>
      <trkpt lat="46.36252" lon="5.58034">
        <ele>575</ele>
        <time>2026-08-27T07:21:04.000Z</time>
      </trkpt>
      <trkpt lat="46.36249" lon="5.58037">
        <ele>575.20001220703</ele>
        <time>2026-08-27T07:21:07.000Z</time>
      </trkpt>
      <trkpt lat="46.36244" lon="5.58044">
        <ele>575.59997558594</ele>
        <time>2026-08-27T07:21:13.000Z</time>
      </trkpt>
      <trkpt lat="46.36242" lon="5.58051">
        <ele>575.79998779297</ele>
        <time>2026-08-27T07:21:18.000Z</time>
      </trkpt>
      <trkpt lat="46.36241" lon="5.58055">
        <ele>576</ele>
        <time>2026-08-27T07:21:21.000Z</time>
      </trkpt>
      <trkpt lat="46.36238" lon="5.58068">
        <ele>576.79998779297</ele>
        <time>2026-08-27T07:21:30.000Z</time>
      </trkpt>
      <trkpt lat="46.36238" lon="5.58069">
        <ele>577</ele>
        <time>2026-08-27T07:21:31.000Z</time>
      </trkpt>
      <trkpt lat="46.36237" lon="5.58083">
        <ele>577.59997558594</ele>
        <time>2026-08-27T07:21:39.000Z</time>
      </trkpt>
      <trkpt lat="46.36236" lon="5.5809">
        <ele>578</ele>
        <time>2026-08-27T07:21:44.000Z</time>
      </trkpt>
      <trkpt lat="46.36235" lon="5.58095">
        <ele>578.20001220703</ele>
        <time>2026-08-27T07:21:47.000Z</time>
      </trkpt>
      <trkpt lat="46.36231" lon="5.58106">
        <ele>578.79998779297</ele>
        <time>2026-08-27T07:21:55.000Z</time>
      </trkpt>
      <trkpt lat="46.3623" lon="5.58109">
        <ele>579</ele>
        <time>2026-08-27T07:21:57.000Z</time>
      </trkpt>
      <trkpt lat="46.36227" lon="5.58117">
        <ele>579.59997558594</ele>
        <time>2026-08-27T07:22:03.000Z</time>
      </trkpt>
      <trkpt lat="46.36223" lon="5.58122">
        <ele>580</ele>
        <time>2026-08-27T07:22:07.000Z</time>
      </trkpt>
      <trkpt lat="46.36221" lon="5.58125">
        <ele>580.40002441406</ele>
        <time>2026-08-27T07:22:10.000Z</time>
      </trkpt>
      <trkpt lat="46.36215" lon="5.58131">
        <ele>581</ele>
        <time>2026-08-27T07:22:17.000Z</time>
      </trkpt>
      <trkpt lat="46.36213" lon="5.58133">
        <ele>581.20001220703</ele>
        <time>2026-08-27T07:22:19.000Z</time>
      </trkpt>
      <trkpt lat="46.36207" lon="5.5814">
        <ele>582</ele>
        <time>2026-08-27T07:22:27.000Z</time>
      </trkpt>
      <trkpt lat="46.36205" lon="5.58143">
        <ele>582.20001220703</ele>
        <time>2026-08-27T07:22:29.000Z</time>
      </trkpt>
      <trkpt lat="46.362" lon="5.58151">
        <ele>583</ele>
        <time>2026-08-27T07:22:36.000Z</time>
      </trkpt>
      <trkpt lat="46.36199" lon="5.58152">
        <ele>583.20001220703</ele>
        <time>2026-08-27T07:22:37.000Z</time>
      </trkpt>
      <trkpt lat="46.36197" lon="5.58156">
        <ele>583.59997558594</ele>
        <time>2026-08-27T07:22:40.000Z</time>
      </trkpt>
      <trkpt lat="46.36196" lon="5.58157">
        <ele>583.79998779297</ele>
        <time>2026-08-27T07:22:42.000Z</time>
      </trkpt>
      <trkpt lat="46.36192" lon="5.5816">
        <ele>584</ele>
        <time>2026-08-27T07:22:45.000Z</time>
      </trkpt>
      <trkpt lat="46.3619" lon="5.58162">
        <ele>584.20001220703</ele>
        <time>2026-08-27T07:22:47.000Z</time>
      </trkpt>
      <trkpt lat="46.36183" lon="5.58172">
        <ele>584.59997558594</ele>
        <time>2026-08-27T07:22:55.000Z</time>
      </trkpt>
      <trkpt lat="46.36174" lon="5.58182">
        <ele>585</ele>
        <time>2026-08-27T07:23:04.000Z</time>
      </trkpt>
      <trkpt lat="46.36171" lon="5.58186">
        <ele>585.20001220703</ele>
        <time>2026-08-27T07:23:07.000Z</time>
      </trkpt>
      <trkpt lat="46.36167" lon="5.58192">
        <ele>585.40002441406</ele>
        <time>2026-08-27T07:23:12.000Z</time>
      </trkpt>
      <trkpt lat="46.36157" lon="5.58202">
        <ele>586</ele>
        <time>2026-08-27T07:23:21.000Z</time>
      </trkpt>
      <trkpt lat="46.36153" lon="5.58206">
        <ele>586.40002441406</ele>
        <time>2026-08-27T07:23:25.000Z</time>
      </trkpt>
      <trkpt lat="46.36149" lon="5.58211">
        <ele>586.59997558594</ele>
        <time>2026-08-27T07:23:30.000Z</time>
      </trkpt>
      <trkpt lat="46.36142" lon="5.58217">
        <ele>587.40002441406</ele>
        <time>2026-08-27T07:23:37.000Z</time>
      </trkpt>
      <trkpt lat="46.36139" lon="5.58219">
        <ele>587.59997558594</ele>
        <time>2026-08-27T07:23:39.000Z</time>
      </trkpt>
      <trkpt lat="46.36129" lon="5.58224">
        <ele>588.40002441406</ele>
        <time>2026-08-27T07:23:47.000Z</time>
      </trkpt>
      <trkpt lat="46.36126" lon="5.58228">
        <ele>588.79998779297</ele>
        <time>2026-08-27T07:23:50.000Z</time>
      </trkpt>
      <trkpt lat="46.36117" lon="5.58235">
        <ele>589.59997558594</ele>
        <time>2026-08-27T07:23:59.000Z</time>
      </trkpt>
      <trkpt lat="46.36103" lon="5.58239">
        <ele>590.40002441406</ele>
        <time>2026-08-27T07:24:09.000Z</time>
      </trkpt>
      <trkpt lat="46.36101" lon="5.58239">
        <ele>590.59997558594</ele>
        <time>2026-08-27T07:24:11.000Z</time>
      </trkpt>
      <trkpt lat="46.36093" lon="5.58238">
        <ele>591</ele>
        <time>2026-08-27T07:24:18.000Z</time>
      </trkpt>
      <trkpt lat="46.36081" lon="5.58238">
        <ele>591.59997558594</ele>
        <time>2026-08-27T07:24:27.000Z</time>
      </trkpt>
      <trkpt lat="46.36071" lon="5.5824">
        <ele>592.40002441406</ele>
        <time>2026-08-27T07:24:36.000Z</time>
      </trkpt>
      <trkpt lat="46.36067" lon="5.5824">
        <ele>592.59997558594</ele>
        <time>2026-08-27T07:24:41.000Z</time>
      </trkpt>
      <trkpt lat="46.36066" lon="5.5824">
        <ele>592.79998779297</ele>
        <time>2026-08-27T07:24:42.000Z</time>
      </trkpt>
      <trkpt lat="46.36057" lon="5.58241">
        <ele>593.20001220703</ele>
        <time>2026-08-27T07:24:48.000Z</time>
      </trkpt>
      <trkpt lat="46.36049" lon="5.58244">
        <ele>593.79998779297</ele>
        <time>2026-08-27T07:24:55.000Z</time>
      </trkpt>
      <trkpt lat="46.36046" lon="5.58246">
        <ele>594</ele>
        <time>2026-08-27T07:24:58.000Z</time>
      </trkpt>
      <trkpt lat="46.3604" lon="5.5825">
        <ele>594.59997558594</ele>
        <time>2026-08-27T07:25:05.000Z</time>
      </trkpt>
      <trkpt lat="46.36037" lon="5.58251">
        <ele>594.79998779297</ele>
        <time>2026-08-27T07:25:07.000Z</time>
      </trkpt>
      <trkpt lat="46.36031" lon="5.58255">
        <ele>595.20001220703</ele>
        <time>2026-08-27T07:25:13.000Z</time>
      </trkpt>
      <trkpt lat="46.36025" lon="5.58258">
        <ele>595.79998779297</ele>
        <time>2026-08-27T07:25:20.000Z</time>
      </trkpt>
      <trkpt lat="46.36024" lon="5.58259">
        <ele>595.79998779297</ele>
        <time>2026-08-27T07:25:21.000Z</time>
      </trkpt>
      <trkpt lat="46.36014" lon="5.58267">
        <ele>596.40002441406</ele>
        <time>2026-08-27T07:25:30.000Z</time>
      </trkpt>
      <trkpt lat="46.36011" lon="5.58273">
        <ele>596.79998779297</ele>
        <time>2026-08-27T07:25:35.000Z</time>
      </trkpt>
      <trkpt lat="46.3601" lon="5.58274">
        <ele>596.79998779297</ele>
        <time>2026-08-27T07:25:36.000Z</time>
      </trkpt>
      <trkpt lat="46.36007" lon="5.58278">
        <ele>597</ele>
        <time>2026-08-27T07:25:39.000Z</time>
      </trkpt>
      <trkpt lat="46.35997" lon="5.58286">
        <ele>597.20001220703</ele>
        <time>2026-08-27T07:25:49.000Z</time>
      </trkpt>
      <trkpt lat="46.35988" lon="5.58289">
        <ele>597.79998779297</ele>
        <time>2026-08-27T07:25:57.000Z</time>
      </trkpt>
      <trkpt lat="46.35987" lon="5.58289">
        <ele>597.79998779297</ele>
        <time>2026-08-27T07:25:58.000Z</time>
      </trkpt>
      <trkpt lat="46.35978" lon="5.58287">
        <ele>598.59997558594</ele>
        <time>2026-08-27T07:26:05.000Z</time>
      </trkpt>
      <trkpt lat="46.35975" lon="5.58286">
        <ele>598.79998779297</ele>
        <time>2026-08-27T07:26:08.000Z</time>
      </trkpt>
      <trkpt lat="46.35969" lon="5.58281">
        <ele>599.20001220703</ele>
        <time>2026-08-27T07:26:14.000Z</time>
      </trkpt>
      <trkpt lat="46.35961" lon="5.58272">
        <ele>600</ele>
        <time>2026-08-27T07:26:22.000Z</time>
      </trkpt>
      <trkpt lat="46.35959" lon="5.58269">
        <ele>600.20001220703</ele>
        <time>2026-08-27T07:26:25.000Z</time>
      </trkpt>
      <trkpt lat="46.35951" lon="5.58256">
        <ele>601</ele>
        <time>2026-08-27T07:26:34.000Z</time>
      </trkpt>
      <trkpt lat="46.3594" lon="5.5825">
        <ele>601.59997558594</ele>
        <time>2026-08-27T07:26:43.000Z</time>
      </trkpt>
      <trkpt lat="46.35936" lon="5.58246">
        <ele>601.79998779297</ele>
        <time>2026-08-27T07:26:48.000Z</time>
      </trkpt>
      <trkpt lat="46.35934" lon="5.58244">
        <ele>602</ele>
        <time>2026-08-27T07:26:51.000Z</time>
      </trkpt>
      <trkpt lat="46.35931" lon="5.58241">
        <ele>602.20001220703</ele>
        <time>2026-08-27T07:26:54.000Z</time>
      </trkpt>
      <trkpt lat="46.35923" lon="5.58233">
        <ele>603</ele>
        <time>2026-08-27T07:27:02.000Z</time>
      </trkpt>
      <trkpt lat="46.35923" lon="5.58233">
        <ele>603.20001220703</ele>
        <time>2026-08-27T07:27:03.000Z</time>
      </trkpt>
      <trkpt lat="46.35911" lon="5.58222">
        <ele>604</ele>
        <time>2026-08-27T07:27:14.000Z</time>
      </trkpt>
      <trkpt lat="46.35909" lon="5.58221">
        <ele>604.20001220703</ele>
        <time>2026-08-27T07:27:15.000Z</time>
      </trkpt>
      <trkpt lat="46.35897" lon="5.58215">
        <ele>604.59997558594</ele>
        <time>2026-08-27T07:27:26.000Z</time>
      </trkpt>
      <trkpt lat="46.35886" lon="5.5821">
        <ele>605</ele>
        <time>2026-08-27T07:27:36.000Z</time>
      </trkpt>
      <trkpt lat="46.35883" lon="5.58209">
        <ele>605.20001220703</ele>
        <time>2026-08-27T07:27:39.000Z</time>
      </trkpt>
      <trkpt lat="46.35874" lon="5.58206">
        <ele>605.59997558594</ele>
        <time>2026-08-27T07:27:45.000Z</time>
      </trkpt>
      <trkpt lat="46.35866" lon="5.58206">
        <ele>606.20001220703</ele>
        <time>2026-08-27T07:27:53.000Z</time>
      </trkpt>
      <trkpt lat="46.35855" lon="5.58206">
        <ele>607</ele>
        <time>2026-08-27T07:28:03.000Z</time>
      </trkpt>
      <trkpt lat="46.35854" lon="5.58206">
        <ele>607.20001220703</ele>
        <time>2026-08-27T07:28:04.000Z</time>
      </trkpt>
      <trkpt lat="46.35846" lon="5.58205">
        <ele>608.20001220703</ele>
        <time>2026-08-27T07:28:11.000Z</time>
      </trkpt>
      <trkpt lat="46.35845" lon="5.58205">
        <ele>608.20001220703</ele>
        <time>2026-08-27T07:28:12.000Z</time>
      </trkpt>
      <trkpt lat="46.35835" lon="5.58206">
        <ele>609.40002441406</ele>
        <time>2026-08-27T07:28:21.000Z</time>
      </trkpt>
      <trkpt lat="46.35824" lon="5.58203">
        <ele>610.40002441406</ele>
        <time>2026-08-27T07:28:30.000Z</time>
      </trkpt>
      <trkpt lat="46.35823" lon="5.58202">
        <ele>610.59997558594</ele>
        <time>2026-08-27T07:28:31.000Z</time>
      </trkpt>
      <trkpt lat="46.35817" lon="5.58197">
        <ele>611.20001220703</ele>
        <time>2026-08-27T07:28:37.000Z</time>
      </trkpt>
      <trkpt lat="46.35815" lon="5.58196">
        <ele>611.40002441406</ele>
        <time>2026-08-27T07:28:39.000Z</time>
      </trkpt>
      <trkpt lat="46.35814" lon="5.58196">
        <ele>611.59997558594</ele>
        <time>2026-08-27T07:28:40.000Z</time>
      </trkpt>
      <trkpt lat="46.35807" lon="5.58193">
        <ele>612.59997558594</ele>
        <time>2026-08-27T07:28:47.000Z</time>
      </trkpt>
      <trkpt lat="46.35805" lon="5.58193">
        <ele>612.79998779297</ele>
        <time>2026-08-27T07:28:49.000Z</time>
      </trkpt>
      <trkpt lat="46.35799" lon="5.58194">
        <ele>613.59997558594</ele>
        <time>2026-08-27T07:28:54.000Z</time>
      </trkpt>
      <trkpt lat="46.35794" lon="5.58196">
        <ele>614.20001220703</ele>
        <time>2026-08-27T07:28:59.000Z</time>
      </trkpt>
      <trkpt lat="46.35791" lon="5.58201">
        <ele>614.59997558594</ele>
        <time>2026-08-27T07:29:03.000Z</time>
      </trkpt>
      <trkpt lat="46.35788" lon="5.58209">
        <ele>615.40002441406</ele>
        <time>2026-08-27T07:29:08.000Z</time>
      </trkpt>
      <trkpt lat="46.35787" lon="5.58213">
        <ele>615.79998779297</ele>
        <time>2026-08-27T07:29:11.000Z</time>
      </trkpt>
      <trkpt lat="46.35784" lon="5.58228">
        <ele>616</ele>
        <time>2026-08-27T07:29:20.000Z</time>
      </trkpt>
      <trkpt lat="46.35782" lon="5.58248">
        <ele>616.59997558594</ele>
        <time>2026-08-27T07:29:31.000Z</time>
      </trkpt>
      <trkpt lat="46.35782" lon="5.58253">
        <ele>616.79998779297</ele>
        <time>2026-08-27T07:29:34.000Z</time>
      </trkpt>
      <trkpt lat="46.35781" lon="5.58266">
        <ele>617.40002441406</ele>
        <time>2026-08-27T07:29:42.000Z</time>
      </trkpt>
      <trkpt lat="46.3578" lon="5.5827">
        <ele>617.79998779297</ele>
        <time>2026-08-27T07:29:45.000Z</time>
      </trkpt>
      <trkpt lat="46.3578" lon="5.58275">
        <ele>618.20001220703</ele>
        <time>2026-08-27T07:29:51.000Z</time>
      </trkpt>
      <trkpt lat="46.3578" lon="5.58276">
        <ele>618.40002441406</ele>
        <time>2026-08-27T07:29:56.000Z</time>
      </trkpt>
      <trkpt lat="46.3578" lon="5.58275">
        <ele>618.40002441406</ele>
        <time>2026-08-27T07:29:59.000Z</time>
      </trkpt>
      <trkpt lat="46.3578" lon="5.58274">
        <ele>618.40002441406</ele>
        <time>2026-08-27T07:30:00.000Z</time>
      </trkpt>
      <trkpt lat="46.3578" lon="5.58275">
        <ele>618.40002441406</ele>
        <time>2026-08-27T07:30:01.000Z</time>
      </trkpt>
      <trkpt lat="46.35781" lon="5.58273">
        <ele>618.40002441406</ele>
        <time>2026-08-27T07:30:10.000Z</time>
      </trkpt>
      <trkpt lat="46.35781" lon="5.58274">
        <ele>618.40002441406</ele>
        <time>2026-08-27T07:30:15.000Z</time>
      </trkpt>
      <trkpt lat="46.3578" lon="5.58276">
        <ele>618.59997558594</ele>
        <time>2026-08-27T07:30:18.000Z</time>
      </trkpt>
      <trkpt lat="46.35778" lon="5.58276">
        <ele>618.40002441406</ele>
        <time>2026-08-27T07:30:26.000Z</time>
      </trkpt>
      <trkpt lat="46.35778" lon="5.58275">
        <ele>618.40002441406</ele>
        <time>2026-08-27T07:30:32.000Z</time>
      </trkpt>
      <trkpt lat="46.35778" lon="5.58275">
        <ele>618.59997558594</ele>
        <time>2026-08-27T07:30:35.000Z</time>
      </trkpt>
      <trkpt lat="46.35778" lon="5.58276">
        <ele>618.59997558594</ele>
        <time>2026-08-27T07:30:40.000Z</time>
      </trkpt>
      <trkpt lat="46.35778" lon="5.58277">
        <ele>618.59997558594</ele>
        <time>2026-08-27T07:30:43.000Z</time>
      </trkpt>
      <trkpt lat="46.35778" lon="5.58277">
        <ele>618.59997558594</ele>
        <time>2026-08-27T07:30:44.000Z</time>
      </trkpt>
      <trkpt lat="46.35778" lon="5.58277">
        <ele>618.59997558594</ele>
        <time>2026-08-27T07:30:45.000Z</time>
      </trkpt>
      <trkpt lat="46.35778" lon="5.58277">
        <ele>618.79998779297</ele>
        <time>2026-08-27T07:30:47.000Z</time>
      </trkpt>
      <trkpt lat="46.35778" lon="5.58277">
        <ele>618.79998779297</ele>
        <time>2026-08-27T07:30:49.000Z</time>
      </trkpt>
      <trkpt lat="46.35778" lon="5.58277">
        <ele>618.79998779297</ele>
        <time>2026-08-27T07:30:50.000Z</time>
      </trkpt>
      <trkpt lat="46.35778" lon="5.58276">
        <ele>618.79998779297</ele>
        <time>2026-08-27T07:30:51.000Z</time>
      </trkpt>
      <trkpt lat="46.35779" lon="5.58276">
        <ele>618.79998779297</ele>
        <time>2026-08-27T07:30:55.000Z</time>
      </trkpt>
      <trkpt lat="46.35778" lon="5.58275">
        <ele>618.79998779297</ele>
        <time>2026-08-27T07:31:00.000Z</time>
      </trkpt>
      <trkpt lat="46.35778" lon="5.58274">
        <ele>619</ele>
        <time>2026-08-27T07:31:08.000Z</time>
      </trkpt>
      <trkpt lat="46.35778" lon="5.58275">
        <ele>619</ele>
        <time>2026-08-27T07:31:22.000Z</time>
      </trkpt>
      <trkpt lat="46.35781" lon="5.58275">
        <ele>619</ele>
        <time>2026-08-27T07:31:30.000Z</time>
      </trkpt>
      <trkpt lat="46.35781" lon="5.58275">
        <ele>619.20001220703</ele>
        <time>2026-08-27T07:31:41.000Z</time>
      </trkpt>
      <trkpt lat="46.35782" lon="5.58277">
        <ele>619.20001220703</ele>
        <time>2026-08-27T07:31:47.000Z</time>
      </trkpt>
      <trkpt lat="46.35781" lon="5.58276">
        <ele>619</ele>
        <time>2026-08-27T07:31:57.000Z</time>
      </trkpt>
      <trkpt lat="46.35779" lon="5.58277">
        <ele>618.79998779297</ele>
        <time>2026-08-27T07:32:09.000Z</time>
      </trkpt>
      <trkpt lat="46.35779" lon="5.58279">
        <ele>619</ele>
        <time>2026-08-27T07:32:19.000Z</time>
      </trkpt>
      <trkpt lat="46.35781" lon="5.58278">
        <ele>619.20001220703</ele>
        <time>2026-08-27T07:32:36.000Z</time>
      </trkpt>
      <trkpt lat="46.35781" lon="5.58278">
        <ele>619.20001220703</ele>
        <time>2026-08-27T07:32:49.000Z</time>
      </trkpt>
      <trkpt lat="46.35781" lon="5.58278">
        <ele>619.20001220703</ele>
        <time>2026-08-27T07:33:13.000Z</time>
      </trkpt>
      <trkpt lat="46.35781" lon="5.58278">
        <ele>619.20001220703</ele>
        <time>2026-08-27T07:33:15.000Z</time>
      </trkpt>
      <trkpt lat="46.35779" lon="5.58278">
        <ele>619</ele>
        <time>2026-08-27T07:33:27.000Z</time>
      </trkpt>
      <trkpt lat="46.3578" lon="5.58283">
        <ele>619.20001220703</ele>
        <time>2026-08-27T07:33:34.000Z</time>
      </trkpt>
      <trkpt lat="46.35781" lon="5.58286">
        <ele>619.20001220703</ele>
        <time>2026-08-27T07:33:37.000Z</time>
      </trkpt>
      <trkpt lat="46.35784" lon="5.58294">
        <ele>619.20001220703</ele>
        <time>2026-08-27T07:33:45.000Z</time>
      </trkpt>
      <trkpt lat="46.35785" lon="5.58298">
        <ele>619.40002441406</ele>
        <time>2026-08-27T07:33:48.000Z</time>
      </trkpt>
      <trkpt lat="46.35788" lon="5.58308">
        <ele>619.59997558594</ele>
        <time>2026-08-27T07:33:55.000Z</time>
      </trkpt>
      <trkpt lat="46.35794" lon="5.58326">
        <ele>619.59997558594</ele>
        <time>2026-08-27T07:34:06.000Z</time>
      </trkpt>
      <trkpt lat="46.35799" lon="5.58337">
        <ele>619.79998779297</ele>
        <time>2026-08-27T07:34:13.000Z</time>
      </trkpt>
      <trkpt lat="46.35801" lon="5.58339">
        <ele>619.79998779297</ele>
        <time>2026-08-27T07:34:15.000Z</time>
      </trkpt>
      <trkpt lat="46.35809" lon="5.58353">
        <ele>620.20001220703</ele>
        <time>2026-08-27T07:34:26.000Z</time>
      </trkpt>
      <trkpt lat="46.35816" lon="5.58366">
        <ele>620.40002441406</ele>
        <time>2026-08-27T07:34:36.000Z</time>
      </trkpt>
      <trkpt lat="46.35824" lon="5.58376">
        <ele>620.79998779297</ele>
        <time>2026-08-27T07:34:46.000Z</time>
      </trkpt>
      <trkpt lat="46.35825" lon="5.58378">
        <ele>620.79998779297</ele>
        <time>2026-08-27T07:34:47.000Z</time>
      </trkpt>
      <trkpt lat="46.35831" lon="5.58384">
        <ele>621.20001220703</ele>
        <time>2026-08-27T07:34:53.000Z</time>
      </trkpt>
      <trkpt lat="46.35834" lon="5.58387">
        <ele>621.40002441406</ele>
        <time>2026-08-27T07:34:56.000Z</time>
      </trkpt>
      <trkpt lat="46.35841" lon="5.58395">
        <ele>621.79998779297</ele>
        <time>2026-08-27T07:35:05.000Z</time>
      </trkpt>
      <trkpt lat="46.35842" lon="5.58396">
        <ele>622</ele>
        <time>2026-08-27T07:35:06.000Z</time>
      </trkpt>
      <trkpt lat="46.35844" lon="5.58399">
        <ele>622</ele>
        <time>2026-08-27T07:35:08.000Z</time>
      </trkpt>
      <trkpt lat="46.35854" lon="5.58409">
        <ele>622.79998779297</ele>
        <time>2026-08-27T07:35:18.000Z</time>
      </trkpt>
      <trkpt lat="46.35856" lon="5.58411">
        <ele>623</ele>
        <time>2026-08-27T07:35:20.000Z</time>
      </trkpt>
      <trkpt lat="46.3586" lon="5.58415">
        <ele>623.59997558594</ele>
        <time>2026-08-27T07:35:26.000Z</time>
      </trkpt>
      <trkpt lat="46.35863" lon="5.58417">
        <ele>624</ele>
        <time>2026-08-27T07:35:31.000Z</time>
      </trkpt>
      <trkpt lat="46.35866" lon="5.58419">
        <ele>624.59997558594</ele>
        <time>2026-08-27T07:35:36.000Z</time>
      </trkpt>
      <trkpt lat="46.3587" lon="5.58423">
        <ele>625</ele>
        <time>2026-08-27T07:35:40.000Z</time>
      </trkpt>
      <trkpt lat="46.35874" lon="5.58428">
        <ele>625.59997558594</ele>
        <time>2026-08-27T07:35:46.000Z</time>
      </trkpt>
      <trkpt lat="46.35875" lon="5.58428">
        <ele>625.79998779297</ele>
        <time>2026-08-27T07:35:47.000Z</time>
      </trkpt>
      <trkpt lat="46.35878" lon="5.5843">
        <ele>626.20001220703</ele>
        <time>2026-08-27T07:35:50.000Z</time>
      </trkpt>
      <trkpt lat="46.35883" lon="5.58433">
        <ele>626.79998779297</ele>
        <time>2026-08-27T07:35:55.000Z</time>
      </trkpt>
      <trkpt lat="46.35891" lon="5.58439">
        <ele>627.20001220703</ele>
        <time>2026-08-27T07:36:03.000Z</time>
      </trkpt>
      <trkpt lat="46.35896" lon="5.58442">
        <ele>627.79998779297</ele>
        <time>2026-08-27T07:36:10.000Z</time>
      </trkpt>
      <trkpt lat="46.359" lon="5.58443">
        <ele>628.20001220703</ele>
        <time>2026-08-27T07:36:14.000Z</time>
      </trkpt>
      <trkpt lat="46.35904" lon="5.58446">
        <ele>628.59997558594</ele>
        <time>2026-08-27T07:36:17.000Z</time>
      </trkpt>
      <trkpt lat="46.3591" lon="5.5845">
        <ele>629.40002441406</ele>
        <time>2026-08-27T07:36:24.000Z</time>
      </trkpt>
      <trkpt lat="46.35918" lon="5.58456">
        <ele>630.40002441406</ele>
        <time>2026-08-27T07:36:33.000Z</time>
      </trkpt>
      <trkpt lat="46.35919" lon="5.58456">
        <ele>630.40002441406</ele>
        <time>2026-08-27T07:36:34.000Z</time>
      </trkpt>
      <trkpt lat="46.35923" lon="5.58457">
        <ele>631.20001220703</ele>
        <time>2026-08-27T07:36:39.000Z</time>
      </trkpt>
      <trkpt lat="46.35925" lon="5.58457">
        <ele>631.59997558594</ele>
        <time>2026-08-27T07:36:42.000Z</time>
      </trkpt>
      <trkpt lat="46.35931" lon="5.58456">
        <ele>632.79998779297</ele>
        <time>2026-08-27T07:36:49.000Z</time>
      </trkpt>
      <trkpt lat="46.35932" lon="5.58455">
        <ele>633</ele>
        <time>2026-08-27T07:36:51.000Z</time>
      </trkpt>
      <trkpt lat="46.35937" lon="5.58451">
        <ele>633.79998779297</ele>
        <time>2026-08-27T07:36:57.000Z</time>
      </trkpt>
      <trkpt lat="46.35938" lon="5.58451">
        <ele>634</ele>
        <time>2026-08-27T07:36:58.000Z</time>
      </trkpt>
      <trkpt lat="46.35943" lon="5.58445">
        <ele>634.79998779297</ele>
        <time>2026-08-27T07:37:05.000Z</time>
      </trkpt>
      <trkpt lat="46.35945" lon="5.58443">
        <ele>635.20001220703</ele>
        <time>2026-08-27T07:37:08.000Z</time>
      </trkpt>
      <trkpt lat="46.3595" lon="5.58436">
        <ele>636</ele>
        <time>2026-08-27T07:37:15.000Z</time>
      </trkpt>
      <trkpt lat="46.35951" lon="5.58435">
        <ele>636</ele>
        <time>2026-08-27T07:37:16.000Z</time>
      </trkpt>
      <trkpt lat="46.35958" lon="5.58427">
        <ele>636.59997558594</ele>
        <time>2026-08-27T07:37:24.000Z</time>
      </trkpt>
      <trkpt lat="46.3596" lon="5.58424">
        <ele>637</ele>
        <time>2026-08-27T07:37:27.000Z</time>
      </trkpt>
      <trkpt lat="46.35965" lon="5.58419">
        <ele>637.20001220703</ele>
        <time>2026-08-27T07:37:32.000Z</time>
      </trkpt>
      <trkpt lat="46.35975" lon="5.58411">
        <ele>638</ele>
        <time>2026-08-27T07:37:41.000Z</time>
      </trkpt>
      <trkpt lat="46.35976" lon="5.58411">
        <ele>638</ele>
        <time>2026-08-27T07:37:42.000Z</time>
      </trkpt>
      <trkpt lat="46.35984" lon="5.58412">
        <ele>639</ele>
        <time>2026-08-27T07:37:50.000Z</time>
      </trkpt>
      <trkpt lat="46.35985" lon="5.58412">
        <ele>639.20001220703</ele>
        <time>2026-08-27T07:37:51.000Z</time>
      </trkpt>
      <trkpt lat="46.35992" lon="5.58414">
        <ele>640.20001220703</ele>
        <time>2026-08-27T07:37:57.000Z</time>
      </trkpt>
      <trkpt lat="46.35996" lon="5.58416">
        <ele>640.79998779297</ele>
        <time>2026-08-27T07:38:01.000Z</time>
      </trkpt>
      <trkpt lat="46.36" lon="5.58417">
        <ele>641.40002441406</ele>
        <time>2026-08-27T07:38:06.000Z</time>
      </trkpt>
      <trkpt lat="46.36007" lon="5.5842">
        <ele>642.20001220703</ele>
        <time>2026-08-27T07:38:12.000Z</time>
      </trkpt>
      <trkpt lat="46.36009" lon="5.58422">
        <ele>642.40002441406</ele>
        <time>2026-08-27T07:38:14.000Z</time>
      </trkpt>
      <trkpt lat="46.36014" lon="5.58424">
        <ele>643</ele>
        <time>2026-08-27T07:38:19.000Z</time>
      </trkpt>
      <trkpt lat="46.36017" lon="5.58425">
        <ele>643.40002441406</ele>
        <time>2026-08-27T07:38:22.000Z</time>
      </trkpt>
      <trkpt lat="46.36022" lon="5.58427">
        <ele>644.20001220703</ele>
        <time>2026-08-27T07:38:27.000Z</time>
      </trkpt>
      <trkpt lat="46.36024" lon="5.58429">
        <ele>644.59997558594</ele>
        <time>2026-08-27T07:38:30.000Z</time>
      </trkpt>
      <trkpt lat="46.36028" lon="5.58431">
        <ele>645.20001220703</ele>
        <time>2026-08-27T07:38:34.000Z</time>
      </trkpt>
      <trkpt lat="46.36031" lon="5.58433">
        <ele>645.59997558594</ele>
        <time>2026-08-27T07:38:38.000Z</time>
      </trkpt>
      <trkpt lat="46.36037" lon="5.58438">
        <ele>646.59997558594</ele>
        <time>2026-08-27T07:38:44.000Z</time>
      </trkpt>
      <trkpt lat="46.36038" lon="5.58438">
        <ele>646.79998779297</ele>
        <time>2026-08-27T07:38:45.000Z</time>
      </trkpt>
      <trkpt lat="46.36044" lon="5.58443">
        <ele>647.59997558594</ele>
        <time>2026-08-27T07:38:52.000Z</time>
      </trkpt>
      <trkpt lat="46.36046" lon="5.58444">
        <ele>647.79998779297</ele>
        <time>2026-08-27T07:38:54.000Z</time>
      </trkpt>
      <trkpt lat="46.36052" lon="5.58447">
        <ele>648.40002441406</ele>
        <time>2026-08-27T07:39:01.000Z</time>
      </trkpt>
      <trkpt lat="46.36058" lon="5.58449">
        <ele>649</ele>
        <time>2026-08-27T07:39:07.000Z</time>
      </trkpt>
      <trkpt lat="46.3606" lon="5.58451">
        <ele>649.20001220703</ele>
        <time>2026-08-27T07:39:10.000Z</time>
      </trkpt>
      <trkpt lat="46.36068" lon="5.58454">
        <ele>650</ele>
        <time>2026-08-27T07:39:18.000Z</time>
      </trkpt>
      <trkpt lat="46.3607" lon="5.58454">
        <ele>650.20001220703</ele>
        <time>2026-08-27T07:39:19.000Z</time>
      </trkpt>
      <trkpt lat="46.36078" lon="5.58458">
        <ele>650.79998779297</ele>
        <time>2026-08-27T07:39:27.000Z</time>
      </trkpt>
      <trkpt lat="46.3608" lon="5.58459">
        <ele>651.20001220703</ele>
        <time>2026-08-27T07:39:29.000Z</time>
      </trkpt>
      <trkpt lat="46.36084" lon="5.5846">
        <ele>652</ele>
        <time>2026-08-27T07:39:35.000Z</time>
      </trkpt>
      <trkpt lat="46.36086" lon="5.58462">
        <ele>652.20001220703</ele>
        <time>2026-08-27T07:39:37.000Z</time>
      </trkpt>
      <trkpt lat="46.36094" lon="5.58469">
        <ele>653.20001220703</ele>
        <time>2026-08-27T07:39:43.000Z</time>
      </trkpt>
      <trkpt lat="46.36095" lon="5.5847">
        <ele>653.40002441406</ele>
        <time>2026-08-27T07:39:44.000Z</time>
      </trkpt>
      <trkpt lat="46.36098" lon="5.58478">
        <ele>654.20001220703</ele>
        <time>2026-08-27T07:39:50.000Z</time>
      </trkpt>
      <trkpt lat="46.36099" lon="5.5848">
        <ele>654.40002441406</ele>
        <time>2026-08-27T07:39:51.000Z</time>
      </trkpt>
      <trkpt lat="46.361" lon="5.58488">
        <ele>655.40002441406</ele>
        <time>2026-08-27T07:39:57.000Z</time>
      </trkpt>
      <trkpt lat="46.36099" lon="5.5849">
        <ele>655.79998779297</ele>
        <time>2026-08-27T07:39:59.000Z</time>
      </trkpt>
      <trkpt lat="46.36096" lon="5.58493">
        <ele>656.40002441406</ele>
        <time>2026-08-27T07:40:03.000Z</time>
      </trkpt>
      <trkpt lat="46.36093" lon="5.58496">
        <ele>657</ele>
        <time>2026-08-27T07:40:06.000Z</time>
      </trkpt>
      <trkpt lat="46.3609" lon="5.58498">
        <ele>657.59997558594</ele>
        <time>2026-08-27T07:40:09.000Z</time>
      </trkpt>
      <trkpt lat="46.36086" lon="5.58502">
        <ele>658.40002441406</ele>
        <time>2026-08-27T07:40:15.000Z</time>
      </trkpt>
      <trkpt lat="46.36086" lon="5.58502">
        <ele>658.59997558594</ele>
        <time>2026-08-27T07:40:16.000Z</time>
      </trkpt>
      <trkpt lat="46.3608" lon="5.58504">
        <ele>659.59997558594</ele>
        <time>2026-08-27T07:40:22.000Z</time>
      </trkpt>
      <trkpt lat="46.36075" lon="5.58506">
        <ele>660.20001220703</ele>
        <time>2026-08-27T07:40:25.000Z</time>
      </trkpt>
      <trkpt lat="46.36073" lon="5.58506">
        <ele>660.59997558594</ele>
        <time>2026-08-27T07:40:28.000Z</time>
      </trkpt>
      <trkpt lat="46.36069" lon="5.58509">
        <ele>661.59997558594</ele>
        <time>2026-08-27T07:40:34.000Z</time>
      </trkpt>
      <trkpt lat="46.36068" lon="5.5851">
        <ele>661.79998779297</ele>
        <time>2026-08-27T07:40:35.000Z</time>
      </trkpt>
      <trkpt lat="46.36063" lon="5.58512">
        <ele>663</ele>
        <time>2026-08-27T07:40:41.000Z</time>
      </trkpt>
      <trkpt lat="46.36061" lon="5.58512">
        <ele>663.20001220703</ele>
        <time>2026-08-27T07:40:43.000Z</time>
      </trkpt>
      <trkpt lat="46.36056" lon="5.58514">
        <ele>664</ele>
        <time>2026-08-27T07:40:48.000Z</time>
      </trkpt>
      <trkpt lat="46.36054" lon="5.58516">
        <ele>664.79998779297</ele>
        <time>2026-08-27T07:40:52.000Z</time>
      </trkpt>
      <trkpt lat="46.36053" lon="5.58517">
        <ele>665</ele>
        <time>2026-08-27T07:40:54.000Z</time>
      </trkpt>
      <trkpt lat="46.36049" lon="5.5852">
        <ele>666.20001220703</ele>
        <time>2026-08-27T07:41:00.000Z</time>
      </trkpt>
      <trkpt lat="46.36048" lon="5.5852">
        <ele>666.40002441406</ele>
        <time>2026-08-27T07:41:01.000Z</time>
      </trkpt>
      <trkpt lat="46.36042" lon="5.58524">
        <ele>667.40002441406</ele>
        <time>2026-08-27T07:41:07.000Z</time>
      </trkpt>
      <trkpt lat="46.3604" lon="5.58525">
        <ele>667.79998779297</ele>
        <time>2026-08-27T07:41:10.000Z</time>
      </trkpt>
      <trkpt lat="46.36038" lon="5.58526">
        <ele>668.40002441406</ele>
        <time>2026-08-27T07:41:13.000Z</time>
      </trkpt>
      <trkpt lat="46.36033" lon="5.58527">
        <ele>669.40002441406</ele>
        <time>2026-08-27T07:41:19.000Z</time>
      </trkpt>
      <trkpt lat="46.36027" lon="5.58529">
        <ele>670.40002441406</ele>
        <time>2026-08-27T07:41:25.000Z</time>
      </trkpt>
      <trkpt lat="46.36026" lon="5.58529">
        <ele>670.59997558594</ele>
        <time>2026-08-27T07:41:26.000Z</time>
      </trkpt>
      <trkpt lat="46.36022" lon="5.58531">
        <ele>671.59997558594</ele>
        <time>2026-08-27T07:41:32.000Z</time>
      </trkpt>
      <trkpt lat="46.3602" lon="5.58531">
        <ele>671.79998779297</ele>
        <time>2026-08-27T07:41:34.000Z</time>
      </trkpt>
      <trkpt lat="46.36016" lon="5.58532">
        <ele>672.59997558594</ele>
        <time>2026-08-27T07:41:38.000Z</time>
      </trkpt>
      <trkpt lat="46.36014" lon="5.58534">
        <ele>673</ele>
        <time>2026-08-27T07:41:41.000Z</time>
      </trkpt>
      <trkpt lat="46.36012" lon="5.58535">
        <ele>673</ele>
        <time>2026-08-27T07:41:42.000Z</time>
      </trkpt>
      <trkpt lat="46.3601" lon="5.58536">
        <ele>673.40002441406</ele>
        <time>2026-08-27T07:41:44.000Z</time>
      </trkpt>
      <trkpt lat="46.36009" lon="5.58537">
        <ele>673.59997558594</ele>
        <time>2026-08-27T07:41:46.000Z</time>
      </trkpt>
      <trkpt lat="46.36006" lon="5.58538">
        <ele>674.20001220703</ele>
        <time>2026-08-27T07:41:50.000Z</time>
      </trkpt>
      <trkpt lat="46.36004" lon="5.5854">
        <ele>674.59997558594</ele>
        <time>2026-08-27T07:41:53.000Z</time>
      </trkpt>
      <trkpt lat="46.36" lon="5.58544">
        <ele>675.59997558594</ele>
        <time>2026-08-27T07:41:59.000Z</time>
      </trkpt>
      <trkpt lat="46.35999" lon="5.58546">
        <ele>675.79998779297</ele>
        <time>2026-08-27T07:42:01.000Z</time>
      </trkpt>
      <trkpt lat="46.35994" lon="5.58552">
        <ele>676.79998779297</ele>
        <time>2026-08-27T07:42:07.000Z</time>
      </trkpt>
      <trkpt lat="46.35994" lon="5.58552">
        <ele>676.79998779297</ele>
        <time>2026-08-27T07:42:08.000Z</time>
      </trkpt>
      <trkpt lat="46.35988" lon="5.58556">
        <ele>677.59997558594</ele>
        <time>2026-08-27T07:42:14.000Z</time>
      </trkpt>
      <trkpt lat="46.35986" lon="5.58559">
        <ele>678</ele>
        <time>2026-08-27T07:42:18.000Z</time>
      </trkpt>
      <trkpt lat="46.35983" lon="5.58566">
        <ele>678.59997558594</ele>
        <time>2026-08-27T07:42:24.000Z</time>
      </trkpt>
      <trkpt lat="46.3598" lon="5.58569">
        <ele>679</ele>
        <time>2026-08-27T07:42:27.000Z</time>
      </trkpt>
      <trkpt lat="46.35975" lon="5.58576">
        <ele>679.79998779297</ele>
        <time>2026-08-27T07:42:33.000Z</time>
      </trkpt>
      <trkpt lat="46.35974" lon="5.58578">
        <ele>680</ele>
        <time>2026-08-27T07:42:35.000Z</time>
      </trkpt>
      <trkpt lat="46.35966" lon="5.58586">
        <ele>681</ele>
        <time>2026-08-27T07:42:43.000Z</time>
      </trkpt>
      <trkpt lat="46.35965" lon="5.58587">
        <ele>681.20001220703</ele>
        <time>2026-08-27T07:42:44.000Z</time>
      </trkpt>
      <trkpt lat="46.35959" lon="5.58592">
        <ele>682.20001220703</ele>
        <time>2026-08-27T07:42:50.000Z</time>
      </trkpt>
      <trkpt lat="46.35957" lon="5.58593">
        <ele>682.40002441406</ele>
        <time>2026-08-27T07:42:52.000Z</time>
      </trkpt>
      <trkpt lat="46.35953" lon="5.58598">
        <ele>683.40002441406</ele>
        <time>2026-08-27T07:42:57.000Z</time>
      </trkpt>
      <trkpt lat="46.35951" lon="5.58601">
        <ele>684</ele>
        <time>2026-08-27T07:43:01.000Z</time>
      </trkpt>
      <trkpt lat="46.35949" lon="5.58602">
        <ele>684.40002441406</ele>
        <time>2026-08-27T07:43:03.000Z</time>
      </trkpt>
      <trkpt lat="46.35945" lon="5.58605">
        <ele>685.59997558594</ele>
        <time>2026-08-27T07:43:08.000Z</time>
      </trkpt>
      <trkpt lat="46.35944" lon="5.58606">
        <ele>686</ele>
        <time>2026-08-27T07:43:10.000Z</time>
      </trkpt>
      <trkpt lat="46.3594" lon="5.58607">
        <ele>686.79998779297</ele>
        <time>2026-08-27T07:43:14.000Z</time>
      </trkpt>
      <trkpt lat="46.35936" lon="5.58608">
        <ele>687.40002441406</ele>
        <time>2026-08-27T07:43:18.000Z</time>
      </trkpt>
      <trkpt lat="46.35935" lon="5.58609">
        <ele>687.79998779297</ele>
        <time>2026-08-27T07:43:19.000Z</time>
      </trkpt>
      <trkpt lat="46.3593" lon="5.5861">
        <ele>688.79998779297</ele>
        <time>2026-08-27T07:43:24.000Z</time>
      </trkpt>
      <trkpt lat="46.35929" lon="5.5861">
        <ele>689.20001220703</ele>
        <time>2026-08-27T07:43:26.000Z</time>
      </trkpt>
      <trkpt lat="46.35925" lon="5.5861">
        <ele>690</ele>
        <time>2026-08-27T07:43:30.000Z</time>
      </trkpt>
      <trkpt lat="46.35921" lon="5.58608">
        <ele>691</ele>
        <time>2026-08-27T07:43:35.000Z</time>
      </trkpt>
      <trkpt lat="46.3592" lon="5.58608">
        <ele>691.20001220703</ele>
        <time>2026-08-27T07:43:36.000Z</time>
      </trkpt>
      <trkpt lat="46.35917" lon="5.58603">
        <ele>692</ele>
        <time>2026-08-27T07:43:41.000Z</time>
      </trkpt>
      <trkpt lat="46.35913" lon="5.586">
        <ele>692.59997558594</ele>
        <time>2026-08-27T07:43:45.000Z</time>
      </trkpt>
      <trkpt lat="46.35911" lon="5.58599">
        <ele>693.20001220703</ele>
        <time>2026-08-27T07:43:48.000Z</time>
      </trkpt>
      <trkpt lat="46.35906" lon="5.58597">
        <ele>694</ele>
        <time>2026-08-27T07:43:53.000Z</time>
      </trkpt>
      <trkpt lat="46.35905" lon="5.58596">
        <ele>694.20001220703</ele>
        <time>2026-08-27T07:43:54.000Z</time>
      </trkpt>
      <trkpt lat="46.35901" lon="5.58593">
        <ele>694.79998779297</ele>
        <time>2026-08-27T07:43:59.000Z</time>
      </trkpt>
      <trkpt lat="46.35898" lon="5.58592">
        <ele>695.20001220703</ele>
        <time>2026-08-27T07:44:02.000Z</time>
      </trkpt>
      <trkpt lat="46.35897" lon="5.5859">
        <ele>695.59997558594</ele>
        <time>2026-08-27T07:44:04.000Z</time>
      </trkpt>
      <trkpt lat="46.35896" lon="5.5859">
        <ele>695.79998779297</ele>
        <time>2026-08-27T07:44:05.000Z</time>
      </trkpt>
      <trkpt lat="46.35896" lon="5.5859">
        <ele>696</ele>
        <time>2026-08-27T07:44:06.000Z</time>
      </trkpt>
      <trkpt lat="46.35894" lon="5.58589">
        <ele>696.20001220703</ele>
        <time>2026-08-27T07:44:08.000Z</time>
      </trkpt>
      <trkpt lat="46.3589" lon="5.58585">
        <ele>697.20001220703</ele>
        <time>2026-08-27T07:44:14.000Z</time>
      </trkpt>
      <trkpt lat="46.35889" lon="5.58584">
        <ele>697.20001220703</ele>
        <time>2026-08-27T07:44:15.000Z</time>
      </trkpt>
      <trkpt lat="46.35887" lon="5.5858">
        <ele>697.79998779297</ele>
        <time>2026-08-27T07:44:20.000Z</time>
      </trkpt>
      <trkpt lat="46.35887" lon="5.5858">
        <ele>697.59997558594</ele>
        <time>2026-08-27T07:44:22.000Z</time>
      </trkpt>
      <trkpt lat="46.35887" lon="5.58579">
        <ele>697.59997558594</ele>
        <time>2026-08-27T07:44:30.000Z</time>
      </trkpt>
      <trkpt lat="46.35886" lon="5.58579">
        <ele>697.59997558594</ele>
        <time>2026-08-27T07:44:44.000Z</time>
      </trkpt>
      <trkpt lat="46.35886" lon="5.58578">
        <ele>697.59997558594</ele>
        <time>2026-08-27T07:44:53.000Z</time>
      </trkpt>
      <trkpt lat="46.35886" lon="5.58578">
        <ele>697.79998779297</ele>
        <time>2026-08-27T07:44:55.000Z</time>
      </trkpt>
      <trkpt lat="46.35886" lon="5.58578">
        <ele>697.79998779297</ele>
        <time>2026-08-27T07:44:57.000Z</time>
      </trkpt>
      <trkpt lat="46.35887" lon="5.58579">
        <ele>697.59997558594</ele>
        <time>2026-08-27T07:45:05.000Z</time>
      </trkpt>
      <trkpt lat="46.35886" lon="5.58578">
        <ele>697.79998779297</ele>
        <time>2026-08-27T07:45:11.000Z</time>
      </trkpt>
      <trkpt lat="46.35885" lon="5.58581">
        <ele>698.40002441406</ele>
        <time>2026-08-27T07:45:14.000Z</time>
      </trkpt>
      <trkpt lat="46.35883" lon="5.58585">
        <ele>699</ele>
        <time>2026-08-27T07:45:18.000Z</time>
      </trkpt>
      <trkpt lat="46.35878" lon="5.58586">
        <ele>699.20001220703</ele>
        <time>2026-08-27T07:45:22.000Z</time>
      </trkpt>
      <trkpt lat="46.35875" lon="5.58585">
        <ele>699.40002441406</ele>
        <time>2026-08-27T07:45:25.000Z</time>
      </trkpt>
      <trkpt lat="46.35874" lon="5.58586">
        <ele>699.59997558594</ele>
        <time>2026-08-27T07:45:26.000Z</time>
      </trkpt>
      <trkpt lat="46.35872" lon="5.58585">
        <ele>700.20001220703</ele>
        <time>2026-08-27T07:45:29.000Z</time>
      </trkpt>
      <trkpt lat="46.3587" lon="5.58585">
        <ele>700.59997558594</ele>
        <time>2026-08-27T07:45:31.000Z</time>
      </trkpt>
      <trkpt lat="46.35865" lon="5.58585">
        <ele>701.40002441406</ele>
        <time>2026-08-27T07:45:36.000Z</time>
      </trkpt>
      <trkpt lat="46.35862" lon="5.58585">
        <ele>701.59997558594</ele>
        <time>2026-08-27T07:45:38.000Z</time>
      </trkpt>
      <trkpt lat="46.35853" lon="5.58583">
        <ele>702.59997558594</ele>
        <time>2026-08-27T07:45:46.000Z</time>
      </trkpt>
      <trkpt lat="46.35846" lon="5.58582">
        <ele>703.79998779297</ele>
        <time>2026-08-27T07:45:52.000Z</time>
      </trkpt>
      <trkpt lat="46.35844" lon="5.58583">
        <ele>704.20001220703</ele>
        <time>2026-08-27T07:45:55.000Z</time>
      </trkpt>
      <trkpt lat="46.35839" lon="5.58585">
        <ele>704.79998779297</ele>
        <time>2026-08-27T07:46:00.000Z</time>
      </trkpt>
      <trkpt lat="46.35838" lon="5.58586">
        <ele>705.40002441406</ele>
        <time>2026-08-27T07:46:03.000Z</time>
      </trkpt>
      <trkpt lat="46.35836" lon="5.58587">
        <ele>705.79998779297</ele>
        <time>2026-08-27T07:46:05.000Z</time>
      </trkpt>
      <trkpt lat="46.35835" lon="5.58588">
        <ele>706</ele>
        <time>2026-08-27T07:46:06.000Z</time>
      </trkpt>
      <trkpt lat="46.3583" lon="5.5859">
        <ele>707</ele>
        <time>2026-08-27T07:46:11.000Z</time>
      </trkpt>
      <trkpt lat="46.3583" lon="5.58591">
        <ele>707</ele>
        <time>2026-08-27T07:46:12.000Z</time>
      </trkpt>
      <trkpt lat="46.35826" lon="5.58593">
        <ele>708.20001220703</ele>
        <time>2026-08-27T07:46:19.000Z</time>
      </trkpt>
      <trkpt lat="46.35825" lon="5.58594">
        <ele>708.59997558594</ele>
        <time>2026-08-27T07:46:21.000Z</time>
      </trkpt>
      <trkpt lat="46.35821" lon="5.58597">
        <ele>709.40002441406</ele>
        <time>2026-08-27T07:46:26.000Z</time>
      </trkpt>
      <trkpt lat="46.35818" lon="5.586">
        <ele>710.20001220703</ele>
        <time>2026-08-27T07:46:30.000Z</time>
      </trkpt>
      <trkpt lat="46.35817" lon="5.58601">
        <ele>710.59997558594</ele>
        <time>2026-08-27T07:46:32.000Z</time>
      </trkpt>
      <trkpt lat="46.35814" lon="5.58603">
        <ele>711.40002441406</ele>
        <time>2026-08-27T07:46:37.000Z</time>
      </trkpt>
      <trkpt lat="46.35812" lon="5.58605">
        <ele>711.79998779297</ele>
        <time>2026-08-27T07:46:39.000Z</time>
      </trkpt>
      <trkpt lat="46.35808" lon="5.58608">
        <ele>712.79998779297</ele>
        <time>2026-08-27T07:46:45.000Z</time>
      </trkpt>
      <trkpt lat="46.35807" lon="5.58608">
        <ele>713</ele>
        <time>2026-08-27T07:46:46.000Z</time>
      </trkpt>
      <trkpt lat="46.35807" lon="5.58609">
        <ele>713</ele>
        <time>2026-08-27T07:46:47.000Z</time>
      </trkpt>
      <trkpt lat="46.35802" lon="5.58614">
        <ele>714</ele>
        <time>2026-08-27T07:46:54.000Z</time>
      </trkpt>
      <trkpt lat="46.35801" lon="5.58615">
        <ele>714.20001220703</ele>
        <time>2026-08-27T07:46:55.000Z</time>
      </trkpt>
      <trkpt lat="46.35799" lon="5.58619">
        <ele>715.20001220703</ele>
        <time>2026-08-27T07:46:59.000Z</time>
      </trkpt>
      <trkpt lat="46.35796" lon="5.58623">
        <ele>715.79998779297</ele>
        <time>2026-08-27T07:47:03.000Z</time>
      </trkpt>
      <trkpt lat="46.35795" lon="5.58626">
        <ele>716.20001220703</ele>
        <time>2026-08-27T07:47:06.000Z</time>
      </trkpt>
      <trkpt lat="46.35793" lon="5.58635">
        <ele>717</ele>
        <time>2026-08-27T07:47:13.000Z</time>
      </trkpt>
      <trkpt lat="46.35792" lon="5.5864">
        <ele>717.20001220703</ele>
        <time>2026-08-27T07:47:17.000Z</time>
      </trkpt>
      <trkpt lat="46.35791" lon="5.58644">
        <ele>717.20001220703</ele>
        <time>2026-08-27T07:47:20.000Z</time>
      </trkpt>
      <trkpt lat="46.3579" lon="5.58658">
        <ele>717.79998779297</ele>
        <time>2026-08-27T07:47:31.000Z</time>
      </trkpt>
      <trkpt lat="46.35792" lon="5.58671">
        <ele>718.20001220703</ele>
        <time>2026-08-27T07:47:39.000Z</time>
      </trkpt>
      <trkpt lat="46.35798" lon="5.58682">
        <ele>719</ele>
        <time>2026-08-27T07:47:48.000Z</time>
      </trkpt>
      <trkpt lat="46.35801" lon="5.58684">
        <ele>719.20001220703</ele>
        <time>2026-08-27T07:47:51.000Z</time>
      </trkpt>
      <trkpt lat="46.35805" lon="5.58686">
        <ele>719.59997558594</ele>
        <time>2026-08-27T07:47:55.000Z</time>
      </trkpt>
      <trkpt lat="46.35812" lon="5.58686">
        <ele>720.20001220703</ele>
        <time>2026-08-27T07:48:02.000Z</time>
      </trkpt>
      <trkpt lat="46.35813" lon="5.58687">
        <ele>720.40002441406</ele>
        <time>2026-08-27T07:48:03.000Z</time>
      </trkpt>
      <trkpt lat="46.35819" lon="5.58688">
        <ele>721.20001220703</ele>
        <time>2026-08-27T07:48:10.000Z</time>
      </trkpt>
      <trkpt lat="46.3582" lon="5.58688">
        <ele>721.40002441406</ele>
        <time>2026-08-27T07:48:11.000Z</time>
      </trkpt>
      <trkpt lat="46.35828" lon="5.58689">
        <ele>722.20001220703</ele>
        <time>2026-08-27T07:48:19.000Z</time>
      </trkpt>
      <trkpt lat="46.3583" lon="5.5869">
        <ele>722.40002441406</ele>
        <time>2026-08-27T07:48:21.000Z</time>
      </trkpt>
      <trkpt lat="46.35841" lon="5.58694">
        <ele>723</ele>
        <time>2026-08-27T07:48:31.000Z</time>
      </trkpt>
      <trkpt lat="46.35851" lon="5.58696">
        <ele>723</ele>
        <time>2026-08-27T07:48:40.000Z</time>
      </trkpt>
      <trkpt lat="46.35859" lon="5.58699">
        <ele>723.20001220703</ele>
        <time>2026-08-27T07:48:46.000Z</time>
      </trkpt>
      <trkpt lat="46.35864" lon="5.58699">
        <ele>723.40002441406</ele>
        <time>2026-08-27T07:48:50.000Z</time>
      </trkpt>
      <trkpt lat="46.35866" lon="5.587">
        <ele>723.40002441406</ele>
        <time>2026-08-27T07:48:52.000Z</time>
      </trkpt>
      <trkpt lat="46.35871" lon="5.58701">
        <ele>723.40002441406</ele>
        <time>2026-08-27T07:48:58.000Z</time>
      </trkpt>
      <trkpt lat="46.35877" lon="5.58701">
        <ele>723.59997558594</ele>
        <time>2026-08-27T07:49:03.000Z</time>
      </trkpt>
      <trkpt lat="46.35881" lon="5.58701">
        <ele>724</ele>
        <time>2026-08-27T07:49:07.000Z</time>
      </trkpt>
      <trkpt lat="46.35889" lon="5.58701">
        <ele>724.40002441406</ele>
        <time>2026-08-27T07:49:15.000Z</time>
      </trkpt>
      <trkpt lat="46.35893" lon="5.587">
        <ele>725.40002441406</ele>
        <time>2026-08-27T07:49:20.000Z</time>
      </trkpt>
      <trkpt lat="46.35895" lon="5.58699">
        <ele>725.59997558594</ele>
        <time>2026-08-27T07:49:22.000Z</time>
      </trkpt>
      <trkpt lat="46.35902" lon="5.58699">
        <ele>726.79998779297</ele>
        <time>2026-08-27T07:49:29.000Z</time>
      </trkpt>
      <trkpt lat="46.35903" lon="5.58698">
        <ele>726.79998779297</ele>
        <time>2026-08-27T07:49:30.000Z</time>
      </trkpt>
      <trkpt lat="46.35909" lon="5.58698">
        <ele>727.59997558594</ele>
        <time>2026-08-27T07:49:36.000Z</time>
      </trkpt>
      <trkpt lat="46.3591" lon="5.58698">
        <ele>727.79998779297</ele>
        <time>2026-08-27T07:49:37.000Z</time>
      </trkpt>
      <trkpt lat="46.35911" lon="5.58698">
        <ele>727.79998779297</ele>
        <time>2026-08-27T07:49:38.000Z</time>
      </trkpt>
      <trkpt lat="46.35912" lon="5.58698">
        <ele>728</ele>
        <time>2026-08-27T07:49:39.000Z</time>
      </trkpt>
      <trkpt lat="46.35919" lon="5.58699">
        <ele>728.79998779297</ele>
        <time>2026-08-27T07:49:47.000Z</time>
      </trkpt>
      <trkpt lat="46.35927" lon="5.58699">
        <ele>729</ele>
        <time>2026-08-27T07:49:54.000Z</time>
      </trkpt>
      <trkpt lat="46.35937" lon="5.587">
        <ele>729.59997558594</ele>
        <time>2026-08-27T07:50:02.000Z</time>
      </trkpt>
      <trkpt lat="46.35939" lon="5.587">
        <ele>729.79998779297</ele>
        <time>2026-08-27T07:50:05.000Z</time>
      </trkpt>
      <trkpt lat="46.35944" lon="5.587">
        <ele>730.40002441406</ele>
        <time>2026-08-27T07:50:10.000Z</time>
      </trkpt>
      <trkpt lat="46.35949" lon="5.58699">
        <ele>730.79998779297</ele>
        <time>2026-08-27T07:50:14.000Z</time>
      </trkpt>
      <trkpt lat="46.35952" lon="5.58697">
        <ele>731.40002441406</ele>
        <time>2026-08-27T07:50:18.000Z</time>
      </trkpt>
      <trkpt lat="46.35957" lon="5.58696">
        <ele>732</ele>
        <time>2026-08-27T07:50:23.000Z</time>
      </trkpt>
      <trkpt lat="46.35961" lon="5.58695">
        <ele>732.59997558594</ele>
        <time>2026-08-27T07:50:26.000Z</time>
      </trkpt>
      <trkpt lat="46.35964" lon="5.58694">
        <ele>733</ele>
        <time>2026-08-27T07:50:30.000Z</time>
      </trkpt>
      <trkpt lat="46.35968" lon="5.58693">
        <ele>733.59997558594</ele>
        <time>2026-08-27T07:50:34.000Z</time>
      </trkpt>
      <trkpt lat="46.35971" lon="5.58693">
        <ele>734.20001220703</ele>
        <time>2026-08-27T07:50:37.000Z</time>
      </trkpt>
      <trkpt lat="46.35977" lon="5.58692">
        <ele>734.79998779297</ele>
        <time>2026-08-27T07:50:42.000Z</time>
      </trkpt>
      <trkpt lat="46.3598" lon="5.58692">
        <ele>735.20001220703</ele>
        <time>2026-08-27T07:50:45.000Z</time>
      </trkpt>
      <trkpt lat="46.35985" lon="5.58691">
        <ele>736</ele>
        <time>2026-08-27T07:50:50.000Z</time>
      </trkpt>
      <trkpt lat="46.3599" lon="5.58691">
        <ele>736.20001220703</ele>
        <time>2026-08-27T07:50:53.000Z</time>
      </trkpt>
      <trkpt lat="46.35995" lon="5.58691">
        <ele>736.79998779297</ele>
        <time>2026-08-27T07:50:58.000Z</time>
      </trkpt>
      <trkpt lat="46.36002" lon="5.5869">
        <ele>737.20001220703</ele>
        <time>2026-08-27T07:51:04.000Z</time>
      </trkpt>
      <trkpt lat="46.36007" lon="5.58691">
        <ele>737.79998779297</ele>
        <time>2026-08-27T07:51:08.000Z</time>
      </trkpt>
      <trkpt lat="46.36016" lon="5.58692">
        <ele>738.20001220703</ele>
        <time>2026-08-27T07:51:15.000Z</time>
      </trkpt>
      <trkpt lat="46.36018" lon="5.58691">
        <ele>738.40002441406</ele>
        <time>2026-08-27T07:51:16.000Z</time>
      </trkpt>
      <trkpt lat="46.36028" lon="5.5869">
        <ele>739</ele>
        <time>2026-08-27T07:51:25.000Z</time>
      </trkpt>
      <trkpt lat="46.36033" lon="5.5869">
        <ele>739.40002441406</ele>
        <time>2026-08-27T07:51:29.000Z</time>
      </trkpt>
      <trkpt lat="46.36039" lon="5.58688">
        <ele>740</ele>
        <time>2026-08-27T07:51:35.000Z</time>
      </trkpt>
      <trkpt lat="46.36043" lon="5.58688">
        <ele>740.40002441406</ele>
        <time>2026-08-27T07:51:38.000Z</time>
      </trkpt>
      <trkpt lat="46.36048" lon="5.58688">
        <ele>741</ele>
        <time>2026-08-27T07:51:44.000Z</time>
      </trkpt>
      <trkpt lat="46.36051" lon="5.58688">
        <ele>741.59997558594</ele>
        <time>2026-08-27T07:51:48.000Z</time>
      </trkpt>
      <trkpt lat="46.36057" lon="5.58687">
        <ele>742.20001220703</ele>
        <time>2026-08-27T07:51:55.000Z</time>
      </trkpt>
      <trkpt lat="46.36058" lon="5.58686">
        <ele>742.59997558594</ele>
        <time>2026-08-27T07:51:57.000Z</time>
      </trkpt>
      <trkpt lat="46.36063" lon="5.58686">
        <ele>743</ele>
        <time>2026-08-27T07:52:02.000Z</time>
      </trkpt>
      <trkpt lat="46.36068" lon="5.58685">
        <ele>743.59997558594</ele>
        <time>2026-08-27T07:52:07.000Z</time>
      </trkpt>
      <trkpt lat="46.36069" lon="5.58685">
        <ele>743.79998779297</ele>
        <time>2026-08-27T07:52:08.000Z</time>
      </trkpt>
      <trkpt lat="46.36076" lon="5.58687">
        <ele>744.40002441406</ele>
        <time>2026-08-27T07:52:15.000Z</time>
      </trkpt>
      <trkpt lat="46.36081" lon="5.58689">
        <ele>744.59997558594</ele>
        <time>2026-08-27T07:52:19.000Z</time>
      </trkpt>
      <trkpt lat="46.36084" lon="5.58691">
        <ele>745</ele>
        <time>2026-08-27T07:52:22.000Z</time>
      </trkpt>
      <trkpt lat="46.36089" lon="5.58695">
        <ele>745.59997558594</ele>
        <time>2026-08-27T07:52:29.000Z</time>
      </trkpt>
      <trkpt lat="46.36091" lon="5.58697">
        <ele>745.79998779297</ele>
        <time>2026-08-27T07:52:32.000Z</time>
      </trkpt>
      <trkpt lat="46.36099" lon="5.58707">
        <ele>746.40002441406</ele>
        <time>2026-08-27T07:52:41.000Z</time>
      </trkpt>
      <trkpt lat="46.36102" lon="5.5871">
        <ele>746.59997558594</ele>
        <time>2026-08-27T07:52:44.000Z</time>
      </trkpt>
      <trkpt lat="46.36102" lon="5.58712">
        <ele>746.79998779297</ele>
        <time>2026-08-27T07:52:45.000Z</time>
      </trkpt>
      <trkpt lat="46.36105" lon="5.58717">
        <ele>747.20001220703</ele>
        <time>2026-08-27T07:52:49.000Z</time>
      </trkpt>
      <trkpt lat="46.36112" lon="5.58728">
        <ele>747.20001220703</ele>
        <time>2026-08-27T07:52:58.000Z</time>
      </trkpt>
      <trkpt lat="46.36116" lon="5.58739">
        <ele>747.20001220703</ele>
        <time>2026-08-27T07:53:06.000Z</time>
      </trkpt>
      <trkpt lat="46.3612" lon="5.58744">
        <ele>747.40002441406</ele>
        <time>2026-08-27T07:53:13.000Z</time>
      </trkpt>
      <trkpt lat="46.36119" lon="5.58745">
        <ele>747.40002441406</ele>
        <time>2026-08-27T07:53:21.000Z</time>
      </trkpt>
      <trkpt lat="46.36119" lon="5.58744">
        <ele>747.40002441406</ele>
        <time>2026-08-27T07:53:23.000Z</time>
      </trkpt>
      <trkpt lat="46.36119" lon="5.58746">
        <ele>747.40002441406</ele>
        <time>2026-08-27T07:53:31.000Z</time>
      </trkpt>
      <trkpt lat="46.36117" lon="5.58747">
        <ele>747.40002441406</ele>
        <time>2026-08-27T07:53:38.000Z</time>
      </trkpt>
      <trkpt lat="46.36117" lon="5.58749">
        <ele>747.40002441406</ele>
        <time>2026-08-27T07:53:48.000Z</time>
      </trkpt>
      <trkpt lat="46.36118" lon="5.58748">
        <ele>747.59997558594</ele>
        <time>2026-08-27T07:53:55.000Z</time>
      </trkpt>
      <trkpt lat="46.36119" lon="5.58748">
        <ele>747.59997558594</ele>
        <time>2026-08-27T07:53:58.000Z</time>
      </trkpt>
      <trkpt lat="46.36122" lon="5.58749">
        <ele>747.59997558594</ele>
        <time>2026-08-27T07:54:03.000Z</time>
      </trkpt>
      <trkpt lat="46.36122" lon="5.58748">
        <ele>747.59997558594</ele>
        <time>2026-08-27T07:54:09.000Z</time>
      </trkpt>
      <trkpt lat="46.36122" lon="5.58748">
        <ele>747.59997558594</ele>
        <time>2026-08-27T07:54:10.000Z</time>
      </trkpt>
      <trkpt lat="46.36123" lon="5.58747">
        <ele>747.79998779297</ele>
        <time>2026-08-27T07:54:16.000Z</time>
      </trkpt>
      <trkpt lat="46.36122" lon="5.58747">
        <ele>747.79998779297</ele>
        <time>2026-08-27T07:54:18.000Z</time>
      </trkpt>
      <trkpt lat="46.36121" lon="5.58747">
        <ele>747.79998779297</ele>
        <time>2026-08-27T07:54:26.000Z</time>
      </trkpt>
      <trkpt lat="46.36121" lon="5.58747">
        <ele>748</ele>
        <time>2026-08-27T07:54:41.000Z</time>
      </trkpt>
      <trkpt lat="46.36123" lon="5.58752">
        <ele>748.20001220703</ele>
        <time>2026-08-27T07:54:51.000Z</time>
      </trkpt>
      <trkpt lat="46.36125" lon="5.58757">
        <ele>748.40002441406</ele>
        <time>2026-08-27T07:54:59.000Z</time>
      </trkpt>
      <trkpt lat="46.36127" lon="5.5876">
        <ele>748.79998779297</ele>
        <time>2026-08-27T07:55:04.000Z</time>
      </trkpt>
      <trkpt lat="46.36127" lon="5.58761">
        <ele>748.79998779297</ele>
        <time>2026-08-27T07:55:06.000Z</time>
      </trkpt>
      <trkpt lat="46.36131" lon="5.58773">
        <ele>749</ele>
        <time>2026-08-27T07:55:14.000Z</time>
      </trkpt>
      <trkpt lat="46.36135" lon="5.58785">
        <ele>749.40002441406</ele>
        <time>2026-08-27T07:55:23.000Z</time>
      </trkpt>
      <trkpt lat="46.36136" lon="5.58787">
        <ele>749.40002441406</ele>
        <time>2026-08-27T07:55:25.000Z</time>
      </trkpt>
      <trkpt lat="46.36139" lon="5.58792">
        <ele>749.20001220703</ele>
        <time>2026-08-27T07:55:29.000Z</time>
      </trkpt>
      <trkpt lat="46.36139" lon="5.58793">
        <ele>749.20001220703</ele>
        <time>2026-08-27T07:55:30.000Z</time>
      </trkpt>
      <trkpt lat="46.36144" lon="5.58799">
        <ele>748.79998779297</ele>
        <time>2026-08-27T07:55:38.000Z</time>
      </trkpt>
      <trkpt lat="46.36152" lon="5.58809">
        <ele>748.59997558594</ele>
        <time>2026-08-27T07:55:48.000Z</time>
      </trkpt>
      <trkpt lat="46.3616" lon="5.58819">
        <ele>748.59997558594</ele>
        <time>2026-08-27T07:55:55.000Z</time>
      </trkpt>
      <trkpt lat="46.36164" lon="5.58824">
        <ele>748.40002441406</ele>
        <time>2026-08-27T07:56:02.000Z</time>
      </trkpt>
      <trkpt lat="46.36164" lon="5.58826">
        <ele>748.20001220703</ele>
        <time>2026-08-27T07:56:04.000Z</time>
      </trkpt>
      <trkpt lat="46.36166" lon="5.58828">
        <ele>748.20001220703</ele>
        <time>2026-08-27T07:56:06.000Z</time>
      </trkpt>
      <trkpt lat="46.36169" lon="5.58833">
        <ele>748.59997558594</ele>
        <time>2026-08-27T07:56:13.000Z</time>
      </trkpt>
      <trkpt lat="46.36175" lon="5.58842">
        <ele>749</ele>
        <time>2026-08-27T07:56:21.000Z</time>
      </trkpt>
      <trkpt lat="46.36179" lon="5.58846">
        <ele>749.40002441406</ele>
        <time>2026-08-27T07:56:27.000Z</time>
      </trkpt>
      <trkpt lat="46.3618" lon="5.58849">
        <ele>749.59997558594</ele>
        <time>2026-08-27T07:56:29.000Z</time>
      </trkpt>
      <trkpt lat="46.36181" lon="5.5885">
        <ele>749.79998779297</ele>
        <time>2026-08-27T07:56:31.000Z</time>
      </trkpt>
      <trkpt lat="46.36182" lon="5.58851">
        <ele>750</ele>
        <time>2026-08-27T07:56:32.000Z</time>
      </trkpt>
      <trkpt lat="46.36192" lon="5.5886">
        <ele>749.59997558594</ele>
        <time>2026-08-27T07:56:43.000Z</time>
      </trkpt>
      <trkpt lat="46.362" lon="5.58866">
        <ele>749.59997558594</ele>
        <time>2026-08-27T07:56:54.000Z</time>
      </trkpt>
      <trkpt lat="46.36208" lon="5.58871">
        <ele>749.40002441406</ele>
        <time>2026-08-27T07:57:03.000Z</time>
      </trkpt>
      <trkpt lat="46.36211" lon="5.58873">
        <ele>749.59997558594</ele>
        <time>2026-08-27T07:57:07.000Z</time>
      </trkpt>
      <trkpt lat="46.36218" lon="5.58877">
        <ele>749.59997558594</ele>
        <time>2026-08-27T07:57:15.000Z</time>
      </trkpt>
      <trkpt lat="46.36228" lon="5.58883">
        <ele>749.40002441406</ele>
        <time>2026-08-27T07:57:26.000Z</time>
      </trkpt>
      <trkpt lat="46.36236" lon="5.58885">
        <ele>749.20001220703</ele>
        <time>2026-08-27T07:57:34.000Z</time>
      </trkpt>
      <trkpt lat="46.36238" lon="5.58886">
        <ele>749.20001220703</ele>
        <time>2026-08-27T07:57:35.000Z</time>
      </trkpt>
      <trkpt lat="46.36243" lon="5.58887">
        <ele>749.40002441406</ele>
        <time>2026-08-27T07:57:40.000Z</time>
      </trkpt>
      <trkpt lat="46.36245" lon="5.58886">
        <ele>749.40002441406</ele>
        <time>2026-08-27T07:57:44.000Z</time>
      </trkpt>
      <trkpt lat="46.36254" lon="5.58888">
        <ele>749.79998779297</ele>
        <time>2026-08-27T07:57:52.000Z</time>
      </trkpt>
      <trkpt lat="46.36263" lon="5.58888">
        <ele>750.20001220703</ele>
        <time>2026-08-27T07:58:00.000Z</time>
      </trkpt>
      <trkpt lat="46.36271" lon="5.5889">
        <ele>750.20001220703</ele>
        <time>2026-08-27T07:58:08.000Z</time>
      </trkpt>
      <trkpt lat="46.36272" lon="5.5889">
        <ele>750.20001220703</ele>
        <time>2026-08-27T07:58:10.000Z</time>
      </trkpt>
      <trkpt lat="46.3628" lon="5.58889">
        <ele>749.79998779297</ele>
        <time>2026-08-27T07:58:18.000Z</time>
      </trkpt>
      <trkpt lat="46.36282" lon="5.58887">
        <ele>749.59997558594</ele>
        <time>2026-08-27T07:58:22.000Z</time>
      </trkpt>
      <trkpt lat="46.36283" lon="5.58885">
        <ele>749.40002441406</ele>
        <time>2026-08-27T07:58:26.000Z</time>
      </trkpt>
      <trkpt lat="46.36284" lon="5.58885">
        <ele>749.40002441406</ele>
        <time>2026-08-27T07:58:27.000Z</time>
      </trkpt>
      <trkpt lat="46.36292" lon="5.58883">
        <ele>749.59997558594</ele>
        <time>2026-08-27T07:58:36.000Z</time>
      </trkpt>
      <trkpt lat="46.36303" lon="5.58886">
        <ele>749.59997558594</ele>
        <time>2026-08-27T07:58:45.000Z</time>
      </trkpt>
      <trkpt lat="46.36311" lon="5.58894">
        <ele>749.59997558594</ele>
        <time>2026-08-27T07:58:52.000Z</time>
      </trkpt>
      <trkpt lat="46.36317" lon="5.58902">
        <ele>749.79998779297</ele>
        <time>2026-08-27T07:59:00.000Z</time>
      </trkpt>
      <trkpt lat="46.36323" lon="5.5891">
        <ele>750.59997558594</ele>
        <time>2026-08-27T07:59:08.000Z</time>
      </trkpt>
      <trkpt lat="46.36326" lon="5.58913">
        <ele>751</ele>
        <time>2026-08-27T07:59:12.000Z</time>
      </trkpt>
      <trkpt lat="46.36332" lon="5.58918">
        <ele>751.79998779297</ele>
        <time>2026-08-27T07:59:17.000Z</time>
      </trkpt>
      <trkpt lat="46.36333" lon="5.58919">
        <ele>752</ele>
        <time>2026-08-27T07:59:19.000Z</time>
      </trkpt>
      <trkpt lat="46.36338" lon="5.58923">
        <ele>752.59997558594</ele>
        <time>2026-08-27T07:59:24.000Z</time>
      </trkpt>
      <trkpt lat="46.36341" lon="5.58927">
        <ele>753.20001220703</ele>
        <time>2026-08-27T07:59:29.000Z</time>
      </trkpt>
      <trkpt lat="46.36345" lon="5.58931">
        <ele>753.59997558594</ele>
        <time>2026-08-27T07:59:35.000Z</time>
      </trkpt>
      <trkpt lat="46.36349" lon="5.58934">
        <ele>754.20001220703</ele>
        <time>2026-08-27T07:59:40.000Z</time>
      </trkpt>
      <trkpt lat="46.3635" lon="5.58935">
        <ele>754.20001220703</ele>
        <time>2026-08-27T07:59:41.000Z</time>
      </trkpt>
      <trkpt lat="46.36358" lon="5.5894">
        <ele>755.20001220703</ele>
        <time>2026-08-27T07:59:49.000Z</time>
      </trkpt>
      <trkpt lat="46.36368" lon="5.58942">
        <ele>756.20001220703</ele>
        <time>2026-08-27T07:59:59.000Z</time>
      </trkpt>
      <trkpt lat="46.36369" lon="5.58942">
        <ele>756.40002441406</ele>
        <time>2026-08-27T08:00:01.000Z</time>
      </trkpt>
      <trkpt lat="46.36372" lon="5.58942">
        <ele>757</ele>
        <time>2026-08-27T08:00:07.000Z</time>
      </trkpt>
      <trkpt lat="46.36374" lon="5.58943">
        <ele>757.40002441406</ele>
        <time>2026-08-27T08:00:09.000Z</time>
      </trkpt>
      <trkpt lat="46.3638" lon="5.58944">
        <ele>758</ele>
        <time>2026-08-27T08:00:14.000Z</time>
      </trkpt>
      <trkpt lat="46.36384" lon="5.58947">
        <ele>758.40002441406</ele>
        <time>2026-08-27T08:00:19.000Z</time>
      </trkpt>
      <trkpt lat="46.36384" lon="5.58948">
        <ele>758.40002441406</ele>
        <time>2026-08-27T08:00:21.000Z</time>
      </trkpt>
      <trkpt lat="46.36385" lon="5.58946">
        <ele>758.59997558594</ele>
        <time>2026-08-27T08:00:27.000Z</time>
      </trkpt>
      <trkpt lat="46.36385" lon="5.58946">
        <ele>758.59997558594</ele>
        <time>2026-08-27T08:00:28.000Z</time>
      </trkpt>
      <trkpt lat="46.36386" lon="5.58946">
        <ele>758.79998779297</ele>
        <time>2026-08-27T08:00:32.000Z</time>
      </trkpt>
      <trkpt lat="46.36388" lon="5.58946">
        <ele>759</ele>
        <time>2026-08-27T08:00:36.000Z</time>
      </trkpt>
      <trkpt lat="46.36394" lon="5.58952">
        <ele>759.20001220703</ele>
        <time>2026-08-27T08:00:44.000Z</time>
      </trkpt>
      <trkpt lat="46.36395" lon="5.58953">
        <ele>759.40002441406</ele>
        <time>2026-08-27T08:00:46.000Z</time>
      </trkpt>
      <trkpt lat="46.364" lon="5.58957">
        <ele>760</ele>
        <time>2026-08-27T08:00:51.000Z</time>
      </trkpt>
      <trkpt lat="46.36406" lon="5.58964">
        <ele>760.40002441406</ele>
        <time>2026-08-27T08:00:56.000Z</time>
      </trkpt>
      <trkpt lat="46.36407" lon="5.58966">
        <ele>760.59997558594</ele>
        <time>2026-08-27T08:00:59.000Z</time>
      </trkpt>
      <trkpt lat="46.36414" lon="5.58973">
        <ele>761</ele>
        <time>2026-08-27T08:01:06.000Z</time>
      </trkpt>
      <trkpt lat="46.36424" lon="5.58983">
        <ele>760.79998779297</ele>
        <time>2026-08-27T08:01:15.000Z</time>
      </trkpt>
      <trkpt lat="46.36431" lon="5.58991">
        <ele>760.40002441406</ele>
        <time>2026-08-27T08:01:22.000Z</time>
      </trkpt>
      <trkpt lat="46.36432" lon="5.58993">
        <ele>760.40002441406</ele>
        <time>2026-08-27T08:01:24.000Z</time>
      </trkpt>
      <trkpt lat="46.36437" lon="5.58997">
        <ele>760</ele>
        <time>2026-08-27T08:01:31.000Z</time>
      </trkpt>
      <trkpt lat="46.36436" lon="5.58998">
        <ele>759.79998779297</ele>
        <time>2026-08-27T08:01:35.000Z</time>
      </trkpt>
      <trkpt lat="46.36436" lon="5.59">
        <ele>760</ele>
        <time>2026-08-27T08:01:38.000Z</time>
      </trkpt>
      <trkpt lat="46.36434" lon="5.58999">
        <ele>760.20001220703</ele>
        <time>2026-08-27T08:01:41.000Z</time>
      </trkpt>
      <trkpt lat="46.36434" lon="5.58999">
        <ele>760.20001220703</ele>
        <time>2026-08-27T08:01:43.000Z</time>
      </trkpt>
      <trkpt lat="46.36434" lon="5.58997">
        <ele>760</ele>
        <time>2026-08-27T08:01:49.000Z</time>
      </trkpt>
      <trkpt lat="46.36434" lon="5.59001">
        <ele>760</ele>
        <time>2026-08-27T08:01:56.000Z</time>
      </trkpt>
      <trkpt lat="46.36442" lon="5.59003">
        <ele>760</ele>
        <time>2026-08-27T08:02:02.000Z</time>
      </trkpt>
      <trkpt lat="46.36449" lon="5.59007">
        <ele>759.40002441406</ele>
        <time>2026-08-27T08:02:09.000Z</time>
      </trkpt>
      <trkpt lat="46.36455" lon="5.5901">
        <ele>759.40002441406</ele>
        <time>2026-08-27T08:02:13.000Z</time>
      </trkpt>
      <trkpt lat="46.3646" lon="5.59015">
        <ele>759.20001220703</ele>
        <time>2026-08-27T08:02:18.000Z</time>
      </trkpt>
      <trkpt lat="46.36466" lon="5.5902">
        <ele>758.59997558594</ele>
        <time>2026-08-27T08:02:25.000Z</time>
      </trkpt>
      <trkpt lat="46.36472" lon="5.59024">
        <ele>758.40002441406</ele>
        <time>2026-08-27T08:02:29.000Z</time>
      </trkpt>
      <trkpt lat="46.36475" lon="5.59027">
        <ele>758</ele>
        <time>2026-08-27T08:02:33.000Z</time>
      </trkpt>
      <trkpt lat="46.36484" lon="5.59032">
        <ele>757.59997558594</ele>
        <time>2026-08-27T08:02:40.000Z</time>
      </trkpt>
      <trkpt lat="46.36491" lon="5.59032">
        <ele>757.20001220703</ele>
        <time>2026-08-27T08:02:45.000Z</time>
      </trkpt>
      <trkpt lat="46.36494" lon="5.59032">
        <ele>757.40002441406</ele>
        <time>2026-08-27T08:02:48.000Z</time>
      </trkpt>
      <trkpt lat="46.36507" lon="5.59033">
        <ele>757.20001220703</ele>
        <time>2026-08-27T08:02:58.000Z</time>
      </trkpt>
      <trkpt lat="46.36517" lon="5.59038">
        <ele>757</ele>
        <time>2026-08-27T08:03:06.000Z</time>
      </trkpt>
      <trkpt lat="46.36527" lon="5.59047">
        <ele>756.59997558594</ele>
        <time>2026-08-27T08:03:14.000Z</time>
      </trkpt>
      <trkpt lat="46.36529" lon="5.59049">
        <ele>756.40002441406</ele>
        <time>2026-08-27T08:03:16.000Z</time>
      </trkpt>
      <trkpt lat="46.36532" lon="5.59051">
        <ele>756.20001220703</ele>
        <time>2026-08-27T08:03:18.000Z</time>
      </trkpt>
      <trkpt lat="46.36538" lon="5.59058">
        <ele>755.59997558594</ele>
        <time>2026-08-27T08:03:24.000Z</time>
      </trkpt>
      <trkpt lat="46.36544" lon="5.59065">
        <ele>755.20001220703</ele>
        <time>2026-08-27T08:03:32.000Z</time>
      </trkpt>
      <trkpt lat="46.36551" lon="5.59073">
        <ele>754.59997558594</ele>
        <time>2026-08-27T08:03:40.000Z</time>
      </trkpt>
      <trkpt lat="46.36555" lon="5.59078">
        <ele>754.40002441406</ele>
        <time>2026-08-27T08:03:45.000Z</time>
      </trkpt>
      <trkpt lat="46.36557" lon="5.5908">
        <ele>754.40002441406</ele>
        <time>2026-08-27T08:03:47.000Z</time>
      </trkpt>
      <trkpt lat="46.3656" lon="5.59082">
        <ele>754.20001220703</ele>
        <time>2026-08-27T08:03:51.000Z</time>
      </trkpt>
      <trkpt lat="46.36563" lon="5.59085">
        <ele>754</ele>
        <time>2026-08-27T08:03:54.000Z</time>
      </trkpt>
      <trkpt lat="46.36571" lon="5.59092">
        <ele>753.59997558594</ele>
        <time>2026-08-27T08:04:02.000Z</time>
      </trkpt>
      <trkpt lat="46.36579" lon="5.59097">
        <ele>753.40002441406</ele>
        <time>2026-08-27T08:04:12.000Z</time>
      </trkpt>
      <trkpt lat="46.36587" lon="5.59099">
        <ele>753.20001220703</ele>
        <time>2026-08-27T08:04:19.000Z</time>
      </trkpt>
      <trkpt lat="46.36595" lon="5.59104">
        <ele>753.20001220703</ele>
        <time>2026-08-27T08:04:28.000Z</time>
      </trkpt>
      <trkpt lat="46.36601" lon="5.59109">
        <ele>753.40002441406</ele>
        <time>2026-08-27T08:04:35.000Z</time>
      </trkpt>
      <trkpt lat="46.36606" lon="5.59116">
        <ele>753.40002441406</ele>
        <time>2026-08-27T08:04:40.000Z</time>
      </trkpt>
      <trkpt lat="46.36608" lon="5.59117">
        <ele>753.59997558594</ele>
        <time>2026-08-27T08:04:43.000Z</time>
      </trkpt>
      <trkpt lat="46.36615" lon="5.59128">
        <ele>753.59997558594</ele>
        <time>2026-08-27T08:04:52.000Z</time>
      </trkpt>
      <trkpt lat="46.36624" lon="5.59133">
        <ele>753.79998779297</ele>
        <time>2026-08-27T08:05:02.000Z</time>
      </trkpt>
      <trkpt lat="46.36631" lon="5.59138">
        <ele>754.20001220703</ele>
        <time>2026-08-27T08:05:10.000Z</time>
      </trkpt>
      <trkpt lat="46.36638" lon="5.59145">
        <ele>755.20001220703</ele>
        <time>2026-08-27T08:05:19.000Z</time>
      </trkpt>
      <trkpt lat="46.36641" lon="5.59146">
        <ele>755.59997558594</ele>
        <time>2026-08-27T08:05:23.000Z</time>
      </trkpt>
      <trkpt lat="46.36644" lon="5.59149">
        <ele>756.20001220703</ele>
        <time>2026-08-27T08:05:28.000Z</time>
      </trkpt>
      <trkpt lat="46.36645" lon="5.59149">
        <ele>756.40002441406</ele>
        <time>2026-08-27T08:05:29.000Z</time>
      </trkpt>
      <trkpt lat="46.3665" lon="5.59149">
        <ele>757.59997558594</ele>
        <time>2026-08-27T08:05:36.000Z</time>
      </trkpt>
      <trkpt lat="46.36651" lon="5.59149">
        <ele>757.59997558594</ele>
        <time>2026-08-27T08:05:37.000Z</time>
      </trkpt>
      <trkpt lat="46.36657" lon="5.59149">
        <ele>758.59997558594</ele>
        <time>2026-08-27T08:05:42.000Z</time>
      </trkpt>
      <trkpt lat="46.36662" lon="5.59148">
        <ele>759.20001220703</ele>
        <time>2026-08-27T08:05:46.000Z</time>
      </trkpt>
      <trkpt lat="46.36665" lon="5.59147">
        <ele>759.59997558594</ele>
        <time>2026-08-27T08:05:51.000Z</time>
      </trkpt>
      <trkpt lat="46.36669" lon="5.59144">
        <ele>760.20001220703</ele>
        <time>2026-08-27T08:05:55.000Z</time>
      </trkpt>
      <trkpt lat="46.3667" lon="5.59142">
        <ele>760.59997558594</ele>
        <time>2026-08-27T08:05:58.000Z</time>
      </trkpt>
      <trkpt lat="46.36671" lon="5.59141">
        <ele>760.79998779297</ele>
        <time>2026-08-27T08:05:59.000Z</time>
      </trkpt>
      <trkpt lat="46.36674" lon="5.59139">
        <ele>762</ele>
        <time>2026-08-27T08:06:05.000Z</time>
      </trkpt>
      <trkpt lat="46.3668" lon="5.59132">
        <ele>762.79998779297</ele>
        <time>2026-08-27T08:06:11.000Z</time>
      </trkpt>
      <trkpt lat="46.3668" lon="5.59132">
        <ele>763</ele>
        <time>2026-08-27T08:06:12.000Z</time>
      </trkpt>
      <trkpt lat="46.36683" lon="5.59127">
        <ele>763.79998779297</ele>
        <time>2026-08-27T08:06:18.000Z</time>
      </trkpt>
      <trkpt lat="46.36684" lon="5.59127">
        <ele>764</ele>
        <time>2026-08-27T08:06:20.000Z</time>
      </trkpt>
      <trkpt lat="46.36685" lon="5.59127">
        <ele>764.59997558594</ele>
        <time>2026-08-27T08:06:29.000Z</time>
      </trkpt>
      <trkpt lat="46.36685" lon="5.59123">
        <ele>765</ele>
        <time>2026-08-27T08:06:37.000Z</time>
      </trkpt>
      <trkpt lat="46.36685" lon="5.59122">
        <ele>765.20001220703</ele>
        <time>2026-08-27T08:06:38.000Z</time>
      </trkpt>
      <trkpt lat="46.36684" lon="5.59118">
        <ele>765.40002441406</ele>
        <time>2026-08-27T08:06:45.000Z</time>
      </trkpt>
      <trkpt lat="46.36681" lon="5.59116">
        <ele>765.20001220703</ele>
        <time>2026-08-27T08:06:53.000Z</time>
      </trkpt>
      <trkpt lat="46.36677" lon="5.59111">
        <ele>765.40002441406</ele>
        <time>2026-08-27T08:07:02.000Z</time>
      </trkpt>
      <trkpt lat="46.36675" lon="5.59107">
        <ele>765.79998779297</ele>
        <time>2026-08-27T08:07:08.000Z</time>
      </trkpt>
      <trkpt lat="46.36675" lon="5.59106">
        <ele>765.79998779297</ele>
        <time>2026-08-27T08:07:09.000Z</time>
      </trkpt>
      <trkpt lat="46.36673" lon="5.59105">
        <ele>766</ele>
        <time>2026-08-27T08:07:14.000Z</time>
      </trkpt>
      <trkpt lat="46.36672" lon="5.59105">
        <ele>766.20001220703</ele>
        <time>2026-08-27T08:07:17.000Z</time>
      </trkpt>
      <trkpt lat="46.36674" lon="5.59105">
        <ele>766.40002441406</ele>
        <time>2026-08-27T08:07:20.000Z</time>
      </trkpt>
      <trkpt lat="46.36674" lon="5.59105">
        <ele>766.40002441406</ele>
        <time>2026-08-27T08:07:23.000Z</time>
      </trkpt>
      <trkpt lat="46.36676" lon="5.59105">
        <ele>766.40002441406</ele>
        <time>2026-08-27T08:07:26.000Z</time>
      </trkpt>
      <trkpt lat="46.36676" lon="5.59105">
        <ele>766.40002441406</ele>
        <time>2026-08-27T08:07:28.000Z</time>
      </trkpt>
      <trkpt lat="46.36671" lon="5.59099">
        <ele>766.59997558594</ele>
        <time>2026-08-27T08:07:33.000Z</time>
      </trkpt>
      <trkpt lat="46.36669" lon="5.59097">
        <ele>766.59997558594</ele>
        <time>2026-08-27T08:07:34.000Z</time>
      </trkpt>
      <trkpt lat="46.36666" lon="5.59094">
        <ele>766.79998779297</ele>
        <time>2026-08-27T08:07:39.000Z</time>
      </trkpt>
      <trkpt lat="46.36663" lon="5.59089">
        <ele>766.59997558594</ele>
        <time>2026-08-27T08:07:44.000Z</time>
      </trkpt>
      <trkpt lat="46.36657" lon="5.59079">
        <ele>767</ele>
        <time>2026-08-27T08:07:53.000Z</time>
      </trkpt>
      <trkpt lat="46.36654" lon="5.59073">
        <ele>767.20001220703</ele>
        <time>2026-08-27T08:07:57.000Z</time>
      </trkpt>
      <trkpt lat="46.36648" lon="5.59068">
        <ele>767.79998779297</ele>
        <time>2026-08-27T08:08:02.000Z</time>
      </trkpt>
      <trkpt lat="46.36644" lon="5.59065">
        <ele>768.20001220703</ele>
        <time>2026-08-27T08:08:07.000Z</time>
      </trkpt>
      <trkpt lat="46.36643" lon="5.59064">
        <ele>768.40002441406</ele>
        <time>2026-08-27T08:08:08.000Z</time>
      </trkpt>
      <trkpt lat="46.36641" lon="5.5906">
        <ele>768.79998779297</ele>
        <time>2026-08-27T08:08:11.000Z</time>
      </trkpt>
      <trkpt lat="46.36637" lon="5.59056">
        <ele>769.40002441406</ele>
        <time>2026-08-27T08:08:16.000Z</time>
      </trkpt>
      <trkpt lat="46.36635" lon="5.59054">
        <ele>769.79998779297</ele>
        <time>2026-08-27T08:08:18.000Z</time>
      </trkpt>
      <trkpt lat="46.36632" lon="5.59052">
        <ele>770.40002441406</ele>
        <time>2026-08-27T08:08:21.000Z</time>
      </trkpt>
      <trkpt lat="46.36631" lon="5.59051">
        <ele>771</ele>
        <time>2026-08-27T08:08:23.000Z</time>
      </trkpt>
      <trkpt lat="46.3663" lon="5.59051">
        <ele>771.20001220703</ele>
        <time>2026-08-27T08:08:24.000Z</time>
      </trkpt>
      <trkpt lat="46.36628" lon="5.5905">
        <ele>771.59997558594</ele>
        <time>2026-08-27T08:08:26.000Z</time>
      </trkpt>
      <trkpt lat="46.36626" lon="5.5905">
        <ele>772</ele>
        <time>2026-08-27T08:08:28.000Z</time>
      </trkpt>
      <trkpt lat="46.36622" lon="5.5905">
        <ele>772.79998779297</ele>
        <time>2026-08-27T08:08:32.000Z</time>
      </trkpt>
      <trkpt lat="46.36621" lon="5.59049">
        <ele>773</ele>
        <time>2026-08-27T08:08:34.000Z</time>
      </trkpt>
      <trkpt lat="46.36615" lon="5.59045">
        <ele>773.79998779297</ele>
        <time>2026-08-27T08:08:39.000Z</time>
      </trkpt>
      <trkpt lat="46.36612" lon="5.59041">
        <ele>774</ele>
        <time>2026-08-27T08:08:42.000Z</time>
      </trkpt>
      <trkpt lat="46.36605" lon="5.59033">
        <ele>774.59997558594</ele>
        <time>2026-08-27T08:08:51.000Z</time>
      </trkpt>
      <trkpt lat="46.36603" lon="5.5903">
        <ele>774.79998779297</ele>
        <time>2026-08-27T08:08:54.000Z</time>
      </trkpt>
      <trkpt lat="46.36602" lon="5.5903">
        <ele>774.79998779297</ele>
        <time>2026-08-27T08:08:55.000Z</time>
      </trkpt>
      <trkpt lat="46.36601" lon="5.59029">
        <ele>774.79998779297</ele>
        <time>2026-08-27T08:08:56.000Z</time>
      </trkpt>
      <trkpt lat="46.36599" lon="5.59028">
        <ele>774.79998779297</ele>
        <time>2026-08-27T08:08:57.000Z</time>
      </trkpt>
      <trkpt lat="46.36595" lon="5.59026">
        <ele>775</ele>
        <time>2026-08-27T08:09:00.000Z</time>
      </trkpt>
      <trkpt lat="46.36588" lon="5.59022">
        <ele>776</ele>
        <time>2026-08-27T08:09:07.000Z</time>
      </trkpt>
      <trkpt lat="46.36584" lon="5.59017">
        <ele>776.79998779297</ele>
        <time>2026-08-27T08:09:12.000Z</time>
      </trkpt>
      <trkpt lat="46.36582" lon="5.59016">
        <ele>777</ele>
        <time>2026-08-27T08:09:14.000Z</time>
      </trkpt>
      <trkpt lat="46.36573" lon="5.59011">
        <ele>777.59997558594</ele>
        <time>2026-08-27T08:09:21.000Z</time>
      </trkpt>
      <trkpt lat="46.36566" lon="5.59007">
        <ele>778</ele>
        <time>2026-08-27T08:09:27.000Z</time>
      </trkpt>
      <trkpt lat="46.36564" lon="5.59004">
        <ele>778.20001220703</ele>
        <time>2026-08-27T08:09:29.000Z</time>
      </trkpt>
      <trkpt lat="46.36555" lon="5.58998">
        <ele>778.79998779297</ele>
        <time>2026-08-27T08:09:39.000Z</time>
      </trkpt>
      <trkpt lat="46.36551" lon="5.58997">
        <ele>779</ele>
        <time>2026-08-27T08:09:43.000Z</time>
      </trkpt>
      <trkpt lat="46.36549" lon="5.58997">
        <ele>779.20001220703</ele>
        <time>2026-08-27T08:09:45.000Z</time>
      </trkpt>
      <trkpt lat="46.36544" lon="5.58995">
        <ele>779.20001220703</ele>
        <time>2026-08-27T08:09:49.000Z</time>
      </trkpt>
      <trkpt lat="46.36541" lon="5.58993">
        <ele>779.59997558594</ele>
        <time>2026-08-27T08:09:52.000Z</time>
      </trkpt>
      <trkpt lat="46.36539" lon="5.58992">
        <ele>779.79998779297</ele>
        <time>2026-08-27T08:09:54.000Z</time>
      </trkpt>
      <trkpt lat="46.36536" lon="5.58988">
        <ele>780.20001220703</ele>
        <time>2026-08-27T08:09:59.000Z</time>
      </trkpt>
      <trkpt lat="46.36534" lon="5.58986">
        <ele>780.20001220703</ele>
        <time>2026-08-27T08:10:00.000Z</time>
      </trkpt>
      <trkpt lat="46.36526" lon="5.58983">
        <ele>780.59997558594</ele>
        <time>2026-08-27T08:10:08.000Z</time>
      </trkpt>
      <trkpt lat="46.36517" lon="5.58979">
        <ele>781</ele>
        <time>2026-08-27T08:10:16.000Z</time>
      </trkpt>
      <trkpt lat="46.36507" lon="5.58974">
        <ele>781</ele>
        <time>2026-08-27T08:10:27.000Z</time>
      </trkpt>
      <trkpt lat="46.36498" lon="5.58968">
        <ele>781.20001220703</ele>
        <time>2026-08-27T08:10:36.000Z</time>
      </trkpt>
      <trkpt lat="46.36493" lon="5.58964">
        <ele>781.40002441406</ele>
        <time>2026-08-27T08:10:40.000Z</time>
      </trkpt>
      <trkpt lat="46.36488" lon="5.5896">
        <ele>781.40002441406</ele>
        <time>2026-08-27T08:10:45.000Z</time>
      </trkpt>
      <trkpt lat="46.36479" lon="5.58953">
        <ele>782.40002441406</ele>
        <time>2026-08-27T08:10:53.000Z</time>
      </trkpt>
      <trkpt lat="46.36479" lon="5.58952">
        <ele>782.40002441406</ele>
        <time>2026-08-27T08:10:54.000Z</time>
      </trkpt>
      <trkpt lat="46.36474" lon="5.58944">
        <ele>783.40002441406</ele>
        <time>2026-08-27T08:11:02.000Z</time>
      </trkpt>
      <trkpt lat="46.36469" lon="5.58938">
        <ele>784.59997558594</ele>
        <time>2026-08-27T08:11:08.000Z</time>
      </trkpt>
      <trkpt lat="46.36466" lon="5.58932">
        <ele>785.20001220703</ele>
        <time>2026-08-27T08:11:12.000Z</time>
      </trkpt>
      <trkpt lat="46.36465" lon="5.58929">
        <ele>785.40002441406</ele>
        <time>2026-08-27T08:11:14.000Z</time>
      </trkpt>
      <trkpt lat="46.36464" lon="5.58928">
        <ele>785.59997558594</ele>
        <time>2026-08-27T08:11:15.000Z</time>
      </trkpt>
      <trkpt lat="46.36462" lon="5.58921">
        <ele>786.40002441406</ele>
        <time>2026-08-27T08:11:20.000Z</time>
      </trkpt>
      <trkpt lat="46.36461" lon="5.58918">
        <ele>786.59997558594</ele>
        <time>2026-08-27T08:11:22.000Z</time>
      </trkpt>
      <trkpt lat="46.36458" lon="5.58903">
        <ele>787.79998779297</ele>
        <time>2026-08-27T08:11:31.000Z</time>
      </trkpt>
      <trkpt lat="46.36458" lon="5.58901">
        <ele>787.59997558594</ele>
        <time>2026-08-27T08:11:38.000Z</time>
      </trkpt>
      <trkpt lat="46.36458" lon="5.58901">
        <ele>787.59997558594</ele>
        <time>2026-08-27T08:11:39.000Z</time>
      </trkpt>
      <trkpt lat="46.36458" lon="5.589">
        <ele>787.79998779297</ele>
        <time>2026-08-27T08:11:42.000Z</time>
      </trkpt>
      <trkpt lat="46.36458" lon="5.58901">
        <ele>787.79998779297</ele>
        <time>2026-08-27T08:11:44.000Z</time>
      </trkpt>
      <trkpt lat="46.36457" lon="5.58902">
        <ele>787.79998779297</ele>
        <time>2026-08-27T08:11:47.000Z</time>
      </trkpt>
      <trkpt lat="46.36458" lon="5.58903">
        <ele>787.59997558594</ele>
        <time>2026-08-27T08:11:57.000Z</time>
      </trkpt>
      <trkpt lat="46.36453" lon="5.58901">
        <ele>787.59997558594</ele>
        <time>2026-08-27T08:12:05.000Z</time>
      </trkpt>
      <trkpt lat="46.36446" lon="5.589">
        <ele>788</ele>
        <time>2026-08-27T08:12:13.000Z</time>
      </trkpt>
      <trkpt lat="46.36441" lon="5.58899">
        <ele>789</ele>
        <time>2026-08-27T08:12:18.000Z</time>
      </trkpt>
      <trkpt lat="46.36439" lon="5.58898">
        <ele>789.79998779297</ele>
        <time>2026-08-27T08:12:21.000Z</time>
      </trkpt>
      <trkpt lat="46.36438" lon="5.58896">
        <ele>790.20001220703</ele>
        <time>2026-08-27T08:12:23.000Z</time>
      </trkpt>
      <trkpt lat="46.36433" lon="5.58894">
        <ele>791.20001220703</ele>
        <time>2026-08-27T08:12:29.000Z</time>
      </trkpt>
      <trkpt lat="46.36431" lon="5.58894">
        <ele>791.20001220703</ele>
        <time>2026-08-27T08:12:31.000Z</time>
      </trkpt>
      <trkpt lat="46.36428" lon="5.58896">
        <ele>792.20001220703</ele>
        <time>2026-08-27T08:12:36.000Z</time>
      </trkpt>
      <trkpt lat="46.36427" lon="5.58896">
        <ele>793.20001220703</ele>
        <time>2026-08-27T08:12:39.000Z</time>
      </trkpt>
      <trkpt lat="46.36426" lon="5.58896">
        <ele>793.40002441406</ele>
        <time>2026-08-27T08:12:40.000Z</time>
      </trkpt>
      <trkpt lat="46.36424" lon="5.58896">
        <ele>794.59997558594</ele>
        <time>2026-08-27T08:12:44.000Z</time>
      </trkpt>
      <trkpt lat="46.36422" lon="5.58897">
        <ele>795.59997558594</ele>
        <time>2026-08-27T08:12:49.000Z</time>
      </trkpt>
      <trkpt lat="46.36418" lon="5.58899">
        <ele>794.59997558594</ele>
        <time>2026-08-27T08:12:58.000Z</time>
      </trkpt>
      <trkpt lat="46.36417" lon="5.58899">
        <ele>794.40002441406</ele>
        <time>2026-08-27T08:12:59.000Z</time>
      </trkpt>
      <trkpt lat="46.36417" lon="5.58898">
        <ele>794.40002441406</ele>
        <time>2026-08-27T08:13:04.000Z</time>
      </trkpt>
      <trkpt lat="46.36417" lon="5.58898">
        <ele>794.40002441406</ele>
        <time>2026-08-27T08:13:06.000Z</time>
      </trkpt>
      <trkpt lat="46.36417" lon="5.58899">
        <ele>794.20001220703</ele>
        <time>2026-08-27T08:13:09.000Z</time>
      </trkpt>
      <trkpt lat="46.36417" lon="5.58899">
        <ele>793.59997558594</ele>
        <time>2026-08-27T08:13:12.000Z</time>
      </trkpt>
      <trkpt lat="46.36414" lon="5.58903">
        <ele>792.59997558594</ele>
        <time>2026-08-27T08:13:16.000Z</time>
      </trkpt>
      <trkpt lat="46.36415" lon="5.58904">
        <ele>792.40002441406</ele>
        <time>2026-08-27T08:13:17.000Z</time>
      </trkpt>
      <trkpt lat="46.36415" lon="5.58905">
        <ele>792.59997558594</ele>
        <time>2026-08-27T08:13:22.000Z</time>
      </trkpt>
      <trkpt lat="46.36416" lon="5.58904">
        <ele>793</ele>
        <time>2026-08-27T08:13:27.000Z</time>
      </trkpt>
      <trkpt lat="46.36416" lon="5.58904">
        <ele>792.79998779297</ele>
        <time>2026-08-27T08:13:33.000Z</time>
      </trkpt>
      <trkpt lat="46.36415" lon="5.58904">
        <ele>792.59997558594</ele>
        <time>2026-08-27T08:13:44.000Z</time>
      </trkpt>
      <trkpt lat="46.36416" lon="5.58904">
        <ele>792.59997558594</ele>
        <time>2026-08-27T08:13:48.000Z</time>
      </trkpt>
      <trkpt lat="46.36416" lon="5.58904">
        <ele>792.59997558594</ele>
        <time>2026-08-27T08:13:49.000Z</time>
      </trkpt>
      <trkpt lat="46.36416" lon="5.58904">
        <ele>792.79998779297</ele>
        <time>2026-08-27T08:13:50.000Z</time>
      </trkpt>
      <trkpt lat="46.36416" lon="5.58904">
        <ele>792.79998779297</ele>
        <time>2026-08-27T08:13:51.000Z</time>
      </trkpt>
      <trkpt lat="46.36416" lon="5.58904">
        <ele>792.79998779297</ele>
        <time>2026-08-27T08:13:53.000Z</time>
      </trkpt>
      <trkpt lat="46.36416" lon="5.58904">
        <ele>792.59997558594</ele>
        <time>2026-08-27T08:14:03.000Z</time>
      </trkpt>
      <trkpt lat="46.36416" lon="5.58904">
        <ele>792.59997558594</ele>
        <time>2026-08-27T08:14:05.000Z</time>
      </trkpt>
      <trkpt lat="46.36414" lon="5.58904">
        <ele>792.59997558594</ele>
        <time>2026-08-27T08:14:17.000Z</time>
      </trkpt>
      <trkpt lat="46.36414" lon="5.58904">
        <ele>792.40002441406</ele>
        <time>2026-08-27T08:14:26.000Z</time>
      </trkpt>
      <trkpt lat="46.36412" lon="5.58902">
        <ele>792.20001220703</ele>
        <time>2026-08-27T08:14:36.000Z</time>
      </trkpt>
      <trkpt lat="46.36415" lon="5.58895">
        <ele>793.20001220703</ele>
        <time>2026-08-27T08:14:46.000Z</time>
      </trkpt>
      <trkpt lat="46.36415" lon="5.58894">
        <ele>793.59997558594</ele>
        <time>2026-08-27T08:14:48.000Z</time>
      </trkpt>
      <trkpt lat="46.36417" lon="5.5889">
        <ele>793.59997558594</ele>
        <time>2026-08-27T08:14:56.000Z</time>
      </trkpt>
      <trkpt lat="46.36417" lon="5.58895">
        <ele>794.20001220703</ele>
        <time>2026-08-27T08:15:08.000Z</time>
      </trkpt>
      <trkpt lat="46.36417" lon="5.58895">
        <ele>794.20001220703</ele>
        <time>2026-08-27T08:15:20.000Z</time>
      </trkpt>
      <trkpt lat="46.36418" lon="5.58896">
        <ele>794</ele>
        <time>2026-08-27T08:15:31.000Z</time>
      </trkpt>
      <trkpt lat="46.36419" lon="5.58896">
        <ele>794.79998779297</ele>
        <time>2026-08-27T08:15:39.000Z</time>
      </trkpt>
      <trkpt lat="46.3642" lon="5.58895">
        <ele>795</ele>
        <time>2026-08-27T08:15:40.000Z</time>
      </trkpt>
      <trkpt lat="46.36422" lon="5.58892">
        <ele>795</ele>
        <time>2026-08-27T08:15:49.000Z</time>
      </trkpt>
      <trkpt lat="46.36425" lon="5.58891">
        <ele>794</ele>
        <time>2026-08-27T08:15:57.000Z</time>
      </trkpt>
      <trkpt lat="46.36426" lon="5.58891">
        <ele>793.59997558594</ele>
        <time>2026-08-27T08:15:59.000Z</time>
      </trkpt>
      <trkpt lat="46.36428" lon="5.58891">
        <ele>792.59997558594</ele>
        <time>2026-08-27T08:16:04.000Z</time>
      </trkpt>
      <trkpt lat="46.36429" lon="5.5889">
        <ele>792.40002441406</ele>
        <time>2026-08-27T08:16:05.000Z</time>
      </trkpt>
      <trkpt lat="46.3643" lon="5.58889">
        <ele>791.79998779297</ele>
        <time>2026-08-27T08:16:07.000Z</time>
      </trkpt>
      <trkpt lat="46.36431" lon="5.58889">
        <ele>791.40002441406</ele>
        <time>2026-08-27T08:16:08.000Z</time>
      </trkpt>
      <trkpt lat="46.36436" lon="5.5889">
        <ele>790.59997558594</ele>
        <time>2026-08-27T08:16:13.000Z</time>
      </trkpt>
      <trkpt lat="46.36436" lon="5.5889">
        <ele>790.20001220703</ele>
        <time>2026-08-27T08:16:16.000Z</time>
      </trkpt>
      <trkpt lat="46.36439" lon="5.58891">
        <ele>789.20001220703</ele>
        <time>2026-08-27T08:16:20.000Z</time>
      </trkpt>
      <trkpt lat="46.36443" lon="5.58891">
        <ele>788</ele>
        <time>2026-08-27T08:16:24.000Z</time>
      </trkpt>
      <trkpt lat="46.36447" lon="5.58891">
        <ele>787.20001220703</ele>
        <time>2026-08-27T08:16:28.000Z</time>
      </trkpt>
      <trkpt lat="46.36453" lon="5.58892">
        <ele>787</ele>
        <time>2026-08-27T08:16:33.000Z</time>
      </trkpt>
      <trkpt lat="46.36458" lon="5.58894">
        <ele>787.20001220703</ele>
        <time>2026-08-27T08:16:38.000Z</time>
      </trkpt>
      <trkpt lat="46.36458" lon="5.58895">
        <ele>787.20001220703</ele>
        <time>2026-08-27T08:16:39.000Z</time>
      </trkpt>
      <trkpt lat="46.3646" lon="5.58905">
        <ele>787</ele>
        <time>2026-08-27T08:16:46.000Z</time>
      </trkpt>
      <trkpt lat="46.3646" lon="5.58906">
        <ele>786.79998779297</ele>
        <time>2026-08-27T08:16:47.000Z</time>
      </trkpt>
      <trkpt lat="46.36461" lon="5.58909">
        <ele>786.59997558594</ele>
        <time>2026-08-27T08:16:54.000Z</time>
      </trkpt>
      <trkpt lat="46.36462" lon="5.58911">
        <ele>786</ele>
        <time>2026-08-27T08:17:02.000Z</time>
      </trkpt>
      <trkpt lat="46.36464" lon="5.58913">
        <ele>785.79998779297</ele>
        <time>2026-08-27T08:17:07.000Z</time>
      </trkpt>
      <trkpt lat="46.36464" lon="5.58913">
        <ele>785.79998779297</ele>
        <time>2026-08-27T08:17:09.000Z</time>
      </trkpt>
      <trkpt lat="46.3646" lon="5.58914">
        <ele>785.79998779297</ele>
        <time>2026-08-27T08:17:16.000Z</time>
      </trkpt>
      <trkpt lat="46.36459" lon="5.58913">
        <ele>785.79998779297</ele>
        <time>2026-08-27T08:17:23.000Z</time>
      </trkpt>
      <trkpt lat="46.36461" lon="5.58914">
        <ele>785.79998779297</ele>
        <time>2026-08-27T08:17:34.000Z</time>
      </trkpt>
      <trkpt lat="46.36463" lon="5.58915">
        <ele>786</ele>
        <time>2026-08-27T08:17:44.000Z</time>
      </trkpt>
      <trkpt lat="46.36466" lon="5.5892">
        <ele>785.20001220703</ele>
        <time>2026-08-27T08:17:52.000Z</time>
      </trkpt>
      <trkpt lat="46.36468" lon="5.58926">
        <ele>784.79998779297</ele>
        <time>2026-08-27T08:17:57.000Z</time>
      </trkpt>
      <trkpt lat="46.36469" lon="5.58929">
        <ele>784.40002441406</ele>
        <time>2026-08-27T08:18:00.000Z</time>
      </trkpt>
      <trkpt lat="46.36471" lon="5.58933">
        <ele>783.79998779297</ele>
        <time>2026-08-27T08:18:03.000Z</time>
      </trkpt>
      <trkpt lat="46.36475" lon="5.58938">
        <ele>782.79998779297</ele>
        <time>2026-08-27T08:18:08.000Z</time>
      </trkpt>
      <trkpt lat="46.36475" lon="5.58939">
        <ele>782.59997558594</ele>
        <time>2026-08-27T08:18:09.000Z</time>
      </trkpt>
      <trkpt lat="46.36482" lon="5.58945">
        <ele>781.40002441406</ele>
        <time>2026-08-27T08:18:16.000Z</time>
      </trkpt>
      <trkpt lat="46.36486" lon="5.58949">
        <ele>780.59997558594</ele>
        <time>2026-08-27T08:18:24.000Z</time>
      </trkpt>
      <trkpt lat="46.36491" lon="5.58954">
        <ele>780.40002441406</ele>
        <time>2026-08-27T08:18:29.000Z</time>
      </trkpt>
      <trkpt lat="46.36494" lon="5.58957">
        <ele>780.40002441406</ele>
        <time>2026-08-27T08:18:32.000Z</time>
      </trkpt>
      <trkpt lat="46.36503" lon="5.58965">
        <ele>780</ele>
        <time>2026-08-27T08:18:42.000Z</time>
      </trkpt>
      <trkpt lat="46.36512" lon="5.58969">
        <ele>780.20001220703</ele>
        <time>2026-08-27T08:18:50.000Z</time>
      </trkpt>
      <trkpt lat="46.36518" lon="5.58972">
        <ele>780.40002441406</ele>
        <time>2026-08-27T08:18:56.000Z</time>
      </trkpt>
      <trkpt lat="46.3652" lon="5.58972">
        <ele>780.40002441406</ele>
        <time>2026-08-27T08:18:58.000Z</time>
      </trkpt>
      <trkpt lat="46.3653" lon="5.58976">
        <ele>780</ele>
        <time>2026-08-27T08:19:08.000Z</time>
      </trkpt>
      <trkpt lat="46.36539" lon="5.58982">
        <ele>779.59997558594</ele>
        <time>2026-08-27T08:19:16.000Z</time>
      </trkpt>
      <trkpt lat="46.36541" lon="5.58983">
        <ele>779.40002441406</ele>
        <time>2026-08-27T08:19:18.000Z</time>
      </trkpt>
      <trkpt lat="46.36549" lon="5.58987">
        <ele>778.79998779297</ele>
        <time>2026-08-27T08:19:26.000Z</time>
      </trkpt>
      <trkpt lat="46.36557" lon="5.58988">
        <ele>778.40002441406</ele>
        <time>2026-08-27T08:19:32.000Z</time>
      </trkpt>
      <trkpt lat="46.36559" lon="5.58991">
        <ele>778.20001220703</ele>
        <time>2026-08-27T08:19:35.000Z</time>
      </trkpt>
      <trkpt lat="46.36569" lon="5.58998">
        <ele>777.59997558594</ele>
        <time>2026-08-27T08:19:45.000Z</time>
      </trkpt>
      <trkpt lat="46.36571" lon="5.58998">
        <ele>777.40002441406</ele>
        <time>2026-08-27T08:19:47.000Z</time>
      </trkpt>
      <trkpt lat="46.36579" lon="5.59003">
        <ele>777</ele>
        <time>2026-08-27T08:19:54.000Z</time>
      </trkpt>
      <trkpt lat="46.36586" lon="5.59009">
        <ele>776.20001220703</ele>
        <time>2026-08-27T08:20:01.000Z</time>
      </trkpt>
      <trkpt lat="46.36587" lon="5.5901">
        <ele>775.79998779297</ele>
        <time>2026-08-27T08:20:03.000Z</time>
      </trkpt>
      <trkpt lat="46.36595" lon="5.59017">
        <ele>775</ele>
        <time>2026-08-27T08:20:10.000Z</time>
      </trkpt>
      <trkpt lat="46.36596" lon="5.59017">
        <ele>774.79998779297</ele>
        <time>2026-08-27T08:20:12.000Z</time>
      </trkpt>
      <trkpt lat="46.36606" lon="5.59026">
        <ele>774.59997558594</ele>
        <time>2026-08-27T08:20:21.000Z</time>
      </trkpt>
      <trkpt lat="46.36615" lon="5.59032">
        <ele>774</ele>
        <time>2026-08-27T08:20:29.000Z</time>
      </trkpt>
      <trkpt lat="46.36618" lon="5.59034">
        <ele>773.79998779297</ele>
        <time>2026-08-27T08:20:32.000Z</time>
      </trkpt>
      <trkpt lat="46.36625" lon="5.59035">
        <ele>773</ele>
        <time>2026-08-27T08:20:38.000Z</time>
      </trkpt>
      <trkpt lat="46.36627" lon="5.59037">
        <ele>772.59997558594</ele>
        <time>2026-08-27T08:20:41.000Z</time>
      </trkpt>
      <trkpt lat="46.36629" lon="5.5904">
        <ele>771.79998779297</ele>
        <time>2026-08-27T08:20:45.000Z</time>
      </trkpt>
      <trkpt lat="46.36632" lon="5.59042">
        <ele>771.20001220703</ele>
        <time>2026-08-27T08:20:48.000Z</time>
      </trkpt>
      <trkpt lat="46.36634" lon="5.59043">
        <ele>770.79998779297</ele>
        <time>2026-08-27T08:20:50.000Z</time>
      </trkpt>
      <trkpt lat="46.36635" lon="5.59046">
        <ele>769.79998779297</ele>
        <time>2026-08-27T08:20:55.000Z</time>
      </trkpt>
      <trkpt lat="46.36635" lon="5.59046">
        <ele>769.59997558594</ele>
        <time>2026-08-27T08:20:57.000Z</time>
      </trkpt>
      <trkpt lat="46.36633" lon="5.59043">
        <ele>769.59997558594</ele>
        <time>2026-08-27T08:21:00.000Z</time>
      </trkpt>
      <trkpt lat="46.36633" lon="5.59043">
        <ele>769.59997558594</ele>
        <time>2026-08-27T08:21:03.000Z</time>
      </trkpt>
      <trkpt lat="46.36634" lon="5.59044">
        <ele>769.59997558594</ele>
        <time>2026-08-27T08:21:04.000Z</time>
      </trkpt>
      <trkpt lat="46.36636" lon="5.59045">
        <ele>769.40002441406</ele>
        <time>2026-08-27T08:21:05.000Z</time>
      </trkpt>
      <trkpt lat="46.36646" lon="5.59054">
        <ele>768.79998779297</ele>
        <time>2026-08-27T08:21:13.000Z</time>
      </trkpt>
      <trkpt lat="46.36648" lon="5.59058">
        <ele>768.79998779297</ele>
        <time>2026-08-27T08:21:15.000Z</time>
      </trkpt>
      <trkpt lat="46.36653" lon="5.59067">
        <ele>768.59997558594</ele>
        <time>2026-08-27T08:21:19.000Z</time>
      </trkpt>
      <trkpt lat="46.36658" lon="5.59076">
        <ele>767.79998779297</ele>
        <time>2026-08-27T08:21:27.000Z</time>
      </trkpt>
      <trkpt lat="46.3666" lon="5.59079">
        <ele>767.79998779297</ele>
        <time>2026-08-27T08:21:28.000Z</time>
      </trkpt>
      <trkpt lat="46.36666" lon="5.59086">
        <ele>767.59997558594</ele>
        <time>2026-08-27T08:21:34.000Z</time>
      </trkpt>
      <trkpt lat="46.36674" lon="5.59097">
        <ele>767.20001220703</ele>
        <time>2026-08-27T08:21:45.000Z</time>
      </trkpt>
      <trkpt lat="46.36676" lon="5.59101">
        <ele>767</ele>
        <time>2026-08-27T08:21:48.000Z</time>
      </trkpt>
      <trkpt lat="46.36677" lon="5.59104">
        <ele>766.59997558594</ele>
        <time>2026-08-27T08:21:50.000Z</time>
      </trkpt>
      <trkpt lat="46.3668" lon="5.59106">
        <ele>766.40002441406</ele>
        <time>2026-08-27T08:21:53.000Z</time>
      </trkpt>
      <trkpt lat="46.36686" lon="5.59112">
        <ele>766.40002441406</ele>
        <time>2026-08-27T08:22:01.000Z</time>
      </trkpt>
      <trkpt lat="46.36688" lon="5.59111">
        <ele>766.59997558594</ele>
        <time>2026-08-27T08:22:04.000Z</time>
      </trkpt>
      <trkpt lat="46.36688" lon="5.59109">
        <ele>767</ele>
        <time>2026-08-27T08:22:08.000Z</time>
      </trkpt>
      <trkpt lat="46.36688" lon="5.59109">
        <ele>767</ele>
        <time>2026-08-27T08:22:09.000Z</time>
      </trkpt>
      <trkpt lat="46.36689" lon="5.59105">
        <ele>766.40002441406</ele>
        <time>2026-08-27T08:22:16.000Z</time>
      </trkpt>
      <trkpt lat="46.36688" lon="5.59105">
        <ele>766.40002441406</ele>
        <time>2026-08-27T08:22:26.000Z</time>
      </trkpt>
      <trkpt lat="46.36689" lon="5.59106">
        <ele>766</ele>
        <time>2026-08-27T08:22:34.000Z</time>
      </trkpt>
      <trkpt lat="46.36692" lon="5.59106">
        <ele>766.59997558594</ele>
        <time>2026-08-27T08:22:41.000Z</time>
      </trkpt>
      <trkpt lat="46.36693" lon="5.59108">
        <ele>767</ele>
        <time>2026-08-27T08:22:44.000Z</time>
      </trkpt>
      <trkpt lat="46.36694" lon="5.59112">
        <ele>767.20001220703</ele>
        <time>2026-08-27T08:22:49.000Z</time>
      </trkpt>
      <trkpt lat="46.36692" lon="5.5911">
        <ele>767.40002441406</ele>
        <time>2026-08-27T08:22:53.000Z</time>
      </trkpt>
      <trkpt lat="46.36691" lon="5.59109">
        <ele>767.59997558594</ele>
        <time>2026-08-27T08:22:55.000Z</time>
      </trkpt>
      <trkpt lat="46.36687" lon="5.59111">
        <ele>767.40002441406</ele>
        <time>2026-08-27T08:23:02.000Z</time>
      </trkpt>
      <trkpt lat="46.36687" lon="5.59115">
        <ele>767.59997558594</ele>
        <time>2026-08-27T08:23:12.000Z</time>
      </trkpt>
      <trkpt lat="46.36687" lon="5.59116">
        <ele>767.59997558594</ele>
        <time>2026-08-27T08:23:25.000Z</time>
      </trkpt>
      <trkpt lat="46.3669" lon="5.59118">
        <ele>767.40002441406</ele>
        <time>2026-08-27T08:23:33.000Z</time>
      </trkpt>
      <trkpt lat="46.36692" lon="5.59123">
        <ele>767.40002441406</ele>
        <time>2026-08-27T08:23:40.000Z</time>
      </trkpt>
      <trkpt lat="46.36693" lon="5.59124">
        <ele>767.40002441406</ele>
        <time>2026-08-27T08:23:41.000Z</time>
      </trkpt>
      <trkpt lat="46.36689" lon="5.5913">
        <ele>766.40002441406</ele>
        <time>2026-08-27T08:23:46.000Z</time>
      </trkpt>
      <trkpt lat="46.36688" lon="5.59131">
        <ele>766.20001220703</ele>
        <time>2026-08-27T08:23:47.000Z</time>
      </trkpt>
      <trkpt lat="46.36683" lon="5.59135">
        <ele>765.59997558594</ele>
        <time>2026-08-27T08:23:54.000Z</time>
      </trkpt>
      <trkpt lat="46.36681" lon="5.59135">
        <ele>765.20001220703</ele>
        <time>2026-08-27T08:23:56.000Z</time>
      </trkpt>
      <trkpt lat="46.36679" lon="5.59135">
        <ele>764.59997558594</ele>
        <time>2026-08-27T08:23:58.000Z</time>
      </trkpt>
      <trkpt lat="46.36678" lon="5.59136">
        <ele>764.59997558594</ele>
        <time>2026-08-27T08:23:59.000Z</time>
      </trkpt>
      <trkpt lat="46.36678" lon="5.59136">
        <ele>764.59997558594</ele>
        <time>2026-08-27T08:24:00.000Z</time>
      </trkpt>
      <trkpt lat="46.36678" lon="5.59136">
        <ele>764.59997558594</ele>
        <time>2026-08-27T08:24:04.000Z</time>
      </trkpt>
      <trkpt lat="46.36678" lon="5.59135">
        <ele>764.59997558594</ele>
        <time>2026-08-27T08:24:06.000Z</time>
      </trkpt>
      <trkpt lat="46.36678" lon="5.59135">
        <ele>764.59997558594</ele>
        <time>2026-08-27T08:24:10.000Z</time>
      </trkpt>
      <trkpt lat="46.36678" lon="5.59136">
        <ele>764.59997558594</ele>
        <time>2026-08-27T08:24:11.000Z</time>
      </trkpt>
      <trkpt lat="46.36678" lon="5.59136">
        <ele>764.59997558594</ele>
        <time>2026-08-27T08:24:12.000Z</time>
      </trkpt>
      <trkpt lat="46.36678" lon="5.59136">
        <ele>764.59997558594</ele>
        <time>2026-08-27T08:24:19.000Z</time>
      </trkpt>
      <trkpt lat="46.36679" lon="5.59137">
        <ele>764.59997558594</ele>
        <time>2026-08-27T08:24:22.000Z</time>
      </trkpt>
      <trkpt lat="46.36678" lon="5.59138">
        <ele>764.79998779297</ele>
        <time>2026-08-27T08:24:30.000Z</time>
      </trkpt>
      <trkpt lat="46.36684" lon="5.59127">
        <ele>765.59997558594</ele>
        <time>2026-08-27T08:24:37.000Z</time>
      </trkpt>
      <trkpt lat="46.36686" lon="5.59125">
        <ele>765.79998779297</ele>
        <time>2026-08-27T08:24:40.000Z</time>
      </trkpt>
      <trkpt lat="46.36688" lon="5.59124">
        <ele>766.40002441406</ele>
        <time>2026-08-27T08:24:44.000Z</time>
      </trkpt>
      <trkpt lat="46.36689" lon="5.59121">
        <ele>766.59997558594</ele>
        <time>2026-08-27T08:24:46.000Z</time>
      </trkpt>
      <trkpt lat="46.3669" lon="5.59119">
        <ele>766.79998779297</ele>
        <time>2026-08-27T08:24:48.000Z</time>
      </trkpt>
      <trkpt lat="46.3669" lon="5.59117">
        <ele>767.20001220703</ele>
        <time>2026-08-27T08:24:55.000Z</time>
      </trkpt>
      <trkpt lat="46.36691" lon="5.59115">
        <ele>767.40002441406</ele>
        <time>2026-08-27T08:25:06.000Z</time>
      </trkpt>
      <trkpt lat="46.36691" lon="5.59115">
        <ele>767.20001220703</ele>
        <time>2026-08-27T08:25:13.000Z</time>
      </trkpt>
      <trkpt lat="46.36689" lon="5.59116">
        <ele>767.40002441406</ele>
        <time>2026-08-27T08:25:16.000Z</time>
      </trkpt>
      <trkpt lat="46.3669" lon="5.59116">
        <ele>767.59997558594</ele>
        <time>2026-08-27T08:25:21.000Z</time>
      </trkpt>
      <trkpt lat="46.36688" lon="5.59117">
        <ele>767.40002441406</ele>
        <time>2026-08-27T08:25:27.000Z</time>
      </trkpt>
      <trkpt lat="46.36685" lon="5.59122">
        <ele>767</ele>
        <time>2026-08-27T08:25:34.000Z</time>
      </trkpt>
      <trkpt lat="46.36686" lon="5.59118">
        <ele>766.79998779297</ele>
        <time>2026-08-27T08:25:39.000Z</time>
      </trkpt>
      <trkpt lat="46.36686" lon="5.59116">
        <ele>767</ele>
        <time>2026-08-27T08:25:42.000Z</time>
      </trkpt>
      <trkpt lat="46.36686" lon="5.59115">
        <ele>767</ele>
        <time>2026-08-27T08:25:44.000Z</time>
      </trkpt>
      <trkpt lat="46.36689" lon="5.59114">
        <ele>767.40002441406</ele>
        <time>2026-08-27T08:25:51.000Z</time>
      </trkpt>
      <trkpt lat="46.36689" lon="5.59115">
        <ele>767.40002441406</ele>
        <time>2026-08-27T08:25:59.000Z</time>
      </trkpt>
      <trkpt lat="46.36688" lon="5.59115">
        <ele>767.20001220703</ele>
        <time>2026-08-27T08:26:05.000Z</time>
      </trkpt>
      <trkpt lat="46.36689" lon="5.59116">
        <ele>767</ele>
        <time>2026-08-27T08:26:08.000Z</time>
      </trkpt>
      <trkpt lat="46.36689" lon="5.59116">
        <ele>766.79998779297</ele>
        <time>2026-08-27T08:26:11.000Z</time>
      </trkpt>
      <trkpt lat="46.36689" lon="5.59116">
        <ele>767</ele>
        <time>2026-08-27T08:26:18.000Z</time>
      </trkpt>
      <trkpt lat="46.36689" lon="5.59118">
        <ele>767</ele>
        <time>2026-08-27T08:26:26.000Z</time>
      </trkpt>
      <trkpt lat="46.36688" lon="5.59121">
        <ele>766.79998779297</ele>
        <time>2026-08-27T08:26:37.000Z</time>
      </trkpt>
      <trkpt lat="46.36689" lon="5.5912">
        <ele>767.20001220703</ele>
        <time>2026-08-27T08:26:45.000Z</time>
      </trkpt>
      <trkpt lat="46.36694" lon="5.59122">
        <ele>767</ele>
        <time>2026-08-27T08:26:51.000Z</time>
      </trkpt>
      <trkpt lat="46.36698" lon="5.59116">
        <ele>767.20001220703</ele>
        <time>2026-08-27T08:26:56.000Z</time>
      </trkpt>
      <trkpt lat="46.36701" lon="5.59113">
        <ele>767.20001220703</ele>
        <time>2026-08-27T08:27:00.000Z</time>
      </trkpt>
      <trkpt lat="46.36707" lon="5.59106">
        <ele>766.59997558594</ele>
        <time>2026-08-27T08:27:08.000Z</time>
      </trkpt>
      <trkpt lat="46.36715" lon="5.59098">
        <ele>766.59997558594</ele>
        <time>2026-08-27T08:27:16.000Z</time>
      </trkpt>
      <trkpt lat="46.36722" lon="5.59093">
        <ele>766.79998779297</ele>
        <time>2026-08-27T08:27:23.000Z</time>
      </trkpt>
      <trkpt lat="46.3673" lon="5.59086">
        <ele>767</ele>
        <time>2026-08-27T08:27:30.000Z</time>
      </trkpt>
      <trkpt lat="46.36731" lon="5.59084">
        <ele>767</ele>
        <time>2026-08-27T08:27:31.000Z</time>
      </trkpt>
      <trkpt lat="46.36736" lon="5.59079">
        <ele>766.59997558594</ele>
        <time>2026-08-27T08:27:40.000Z</time>
      </trkpt>
      <trkpt lat="46.36736" lon="5.59079">
        <ele>766.59997558594</ele>
        <time>2026-08-27T08:27:41.000Z</time>
      </trkpt>
      <trkpt lat="46.36735" lon="5.5908">
        <ele>766.40002441406</ele>
        <time>2026-08-27T08:27:44.000Z</time>
      </trkpt>
      <trkpt lat="46.36736" lon="5.59083">
        <ele>766.40002441406</ele>
        <time>2026-08-27T08:27:50.000Z</time>
      </trkpt>
      <trkpt lat="46.3674" lon="5.59075">
        <ele>766.59997558594</ele>
        <time>2026-08-27T08:28:00.000Z</time>
      </trkpt>
      <trkpt lat="46.36748" lon="5.59071">
        <ele>766.59997558594</ele>
        <time>2026-08-27T08:28:07.000Z</time>
      </trkpt>
      <trkpt lat="46.36754" lon="5.59066">
        <ele>766.40002441406</ele>
        <time>2026-08-27T08:28:14.000Z</time>
      </trkpt>
      <trkpt lat="46.36759" lon="5.59059">
        <ele>766.40002441406</ele>
        <time>2026-08-27T08:28:20.000Z</time>
      </trkpt>
      <trkpt lat="46.36768" lon="5.59044">
        <ele>766.79998779297</ele>
        <time>2026-08-27T08:28:29.000Z</time>
      </trkpt>
      <trkpt lat="46.36771" lon="5.59048">
        <ele>767</ele>
        <time>2026-08-27T08:28:37.000Z</time>
      </trkpt>
      <trkpt lat="46.36771" lon="5.5905">
        <ele>767</ele>
        <time>2026-08-27T08:28:39.000Z</time>
      </trkpt>
      <trkpt lat="46.36771" lon="5.59053">
        <ele>767</ele>
        <time>2026-08-27T08:28:46.000Z</time>
      </trkpt>
      <trkpt lat="46.36774" lon="5.59043">
        <ele>767.20001220703</ele>
        <time>2026-08-27T08:28:55.000Z</time>
      </trkpt>
      <trkpt lat="46.36777" lon="5.59037">
        <ele>767.79998779297</ele>
        <time>2026-08-27T08:28:59.000Z</time>
      </trkpt>
      <trkpt lat="46.3678" lon="5.59029">
        <ele>768.20001220703</ele>
        <time>2026-08-27T08:29:03.000Z</time>
      </trkpt>
      <trkpt lat="46.36785" lon="5.5902">
        <ele>768.59997558594</ele>
        <time>2026-08-27T08:29:07.000Z</time>
      </trkpt>
      <trkpt lat="46.36785" lon="5.5902">
        <ele>768.79998779297</ele>
        <time>2026-08-27T08:29:08.000Z</time>
      </trkpt>
      <trkpt lat="46.36789" lon="5.59016">
        <ele>769.40002441406</ele>
        <time>2026-08-27T08:29:12.000Z</time>
      </trkpt>
      <trkpt lat="46.3679" lon="5.59013">
        <ele>769.79998779297</ele>
        <time>2026-08-27T08:29:14.000Z</time>
      </trkpt>
      <trkpt lat="46.36794" lon="5.59008">
        <ele>770.79998779297</ele>
        <time>2026-08-27T08:29:20.000Z</time>
      </trkpt>
      <trkpt lat="46.36801" lon="5.59004">
        <ele>771.79998779297</ele>
        <time>2026-08-27T08:29:27.000Z</time>
      </trkpt>
      <trkpt lat="46.36802" lon="5.59004">
        <ele>772</ele>
        <time>2026-08-27T08:29:28.000Z</time>
      </trkpt>
      <trkpt lat="46.36808" lon="5.59001">
        <ele>772.59997558594</ele>
        <time>2026-08-27T08:29:33.000Z</time>
      </trkpt>
      <trkpt lat="46.36812" lon="5.58999">
        <ele>773</ele>
        <time>2026-08-27T08:29:37.000Z</time>
      </trkpt>
      <trkpt lat="46.36814" lon="5.58997">
        <ele>773.40002441406</ele>
        <time>2026-08-27T08:29:40.000Z</time>
      </trkpt>
      <trkpt lat="46.36817" lon="5.58996">
        <ele>773.79998779297</ele>
        <time>2026-08-27T08:29:42.000Z</time>
      </trkpt>
      <trkpt lat="46.36819" lon="5.58995">
        <ele>774</ele>
        <time>2026-08-27T08:29:45.000Z</time>
      </trkpt>
      <trkpt lat="46.36826" lon="5.5899">
        <ele>774.59997558594</ele>
        <time>2026-08-27T08:29:51.000Z</time>
      </trkpt>
      <trkpt lat="46.36834" lon="5.58985">
        <ele>775</ele>
        <time>2026-08-27T08:29:59.000Z</time>
      </trkpt>
      <trkpt lat="46.36834" lon="5.58984">
        <ele>775</ele>
        <time>2026-08-27T08:30:00.000Z</time>
      </trkpt>
      <trkpt lat="46.36837" lon="5.58983">
        <ele>775.20001220703</ele>
        <time>2026-08-27T08:30:04.000Z</time>
      </trkpt>
      <trkpt lat="46.36842" lon="5.58982">
        <ele>775.20001220703</ele>
        <time>2026-08-27T08:30:07.000Z</time>
      </trkpt>
      <trkpt lat="46.36854" lon="5.5898">
        <ele>774.59997558594</ele>
        <time>2026-08-27T08:30:16.000Z</time>
      </trkpt>
      <trkpt lat="46.36864" lon="5.58977">
        <ele>774</ele>
        <time>2026-08-27T08:30:23.000Z</time>
      </trkpt>
      <trkpt lat="46.36865" lon="5.58977">
        <ele>773.79998779297</ele>
        <time>2026-08-27T08:30:25.000Z</time>
      </trkpt>
      <trkpt lat="46.36876" lon="5.58976">
        <ele>773.59997558594</ele>
        <time>2026-08-27T08:30:32.000Z</time>
      </trkpt>
      <trkpt lat="46.36876" lon="5.58976">
        <ele>773.59997558594</ele>
        <time>2026-08-27T08:30:33.000Z</time>
      </trkpt>
      <trkpt lat="46.36881" lon="5.58977">
        <ele>773.59997558594</ele>
        <time>2026-08-27T08:30:37.000Z</time>
      </trkpt>
      <trkpt lat="46.36887" lon="5.58973">
        <ele>773.40002441406</ele>
        <time>2026-08-27T08:30:41.000Z</time>
      </trkpt>
      <trkpt lat="46.36894" lon="5.58967">
        <ele>773.59997558594</ele>
        <time>2026-08-27T08:30:48.000Z</time>
      </trkpt>
      <trkpt lat="46.36896" lon="5.58966">
        <ele>773.59997558594</ele>
        <time>2026-08-27T08:30:51.000Z</time>
      </trkpt>
      <trkpt lat="46.36906" lon="5.58969">
        <ele>773.59997558594</ele>
        <time>2026-08-27T08:30:59.000Z</time>
      </trkpt>
      <trkpt lat="46.3691" lon="5.58969">
        <ele>773.59997558594</ele>
        <time>2026-08-27T08:31:02.000Z</time>
      </trkpt>
      <trkpt lat="46.36912" lon="5.58968">
        <ele>773.59997558594</ele>
        <time>2026-08-27T08:31:04.000Z</time>
      </trkpt>
      <trkpt lat="46.36916" lon="5.58967">
        <ele>773.59997558594</ele>
        <time>2026-08-27T08:31:07.000Z</time>
      </trkpt>
      <trkpt lat="46.36925" lon="5.58971">
        <ele>773.79998779297</ele>
        <time>2026-08-27T08:31:14.000Z</time>
      </trkpt>
      <trkpt lat="46.36934" lon="5.58974">
        <ele>774</ele>
        <time>2026-08-27T08:31:21.000Z</time>
      </trkpt>
      <trkpt lat="46.3694" lon="5.58976">
        <ele>774.59997558594</ele>
        <time>2026-08-27T08:31:27.000Z</time>
      </trkpt>
      <trkpt lat="46.36945" lon="5.58979">
        <ele>775</ele>
        <time>2026-08-27T08:31:30.000Z</time>
      </trkpt>
      <trkpt lat="46.36946" lon="5.58979">
        <ele>775.20001220703</ele>
        <time>2026-08-27T08:31:32.000Z</time>
      </trkpt>
      <trkpt lat="46.36952" lon="5.58979">
        <ele>775.59997558594</ele>
        <time>2026-08-27T08:31:38.000Z</time>
      </trkpt>
      <trkpt lat="46.36959" lon="5.58981">
        <ele>776.20001220703</ele>
        <time>2026-08-27T08:31:45.000Z</time>
      </trkpt>
      <trkpt lat="46.36961" lon="5.58981">
        <ele>776.40002441406</ele>
        <time>2026-08-27T08:31:47.000Z</time>
      </trkpt>
      <trkpt lat="46.36967" lon="5.58982">
        <ele>777.20001220703</ele>
        <time>2026-08-27T08:31:52.000Z</time>
      </trkpt>
      <trkpt lat="46.36971" lon="5.58983">
        <ele>777.59997558594</ele>
        <time>2026-08-27T08:31:55.000Z</time>
      </trkpt>
      <trkpt lat="46.36975" lon="5.58984">
        <ele>778.40002441406</ele>
        <time>2026-08-27T08:31:59.000Z</time>
      </trkpt>
      <trkpt lat="46.3698" lon="5.58988">
        <ele>778.79998779297</ele>
        <time>2026-08-27T08:32:03.000Z</time>
      </trkpt>
      <trkpt lat="46.36985" lon="5.5899">
        <ele>779.40002441406</ele>
        <time>2026-08-27T08:32:07.000Z</time>
      </trkpt>
      <trkpt lat="46.3699" lon="5.58991">
        <ele>779.79998779297</ele>
        <time>2026-08-27T08:32:11.000Z</time>
      </trkpt>
      <trkpt lat="46.36998" lon="5.58994">
        <ele>780.20001220703</ele>
        <time>2026-08-27T08:32:18.000Z</time>
      </trkpt>
      <trkpt lat="46.37" lon="5.58994">
        <ele>780.40002441406</ele>
        <time>2026-08-27T08:32:20.000Z</time>
      </trkpt>
      <trkpt lat="46.37007" lon="5.58995">
        <ele>780.79998779297</ele>
        <time>2026-08-27T08:32:25.000Z</time>
      </trkpt>
      <trkpt lat="46.37016" lon="5.58999">
        <ele>780.59997558594</ele>
        <time>2026-08-27T08:32:33.000Z</time>
      </trkpt>
      <trkpt lat="46.3702" lon="5.59001">
        <ele>780.40002441406</ele>
        <time>2026-08-27T08:32:36.000Z</time>
      </trkpt>
      <trkpt lat="46.37028" lon="5.59001">
        <ele>780.20001220703</ele>
        <time>2026-08-27T08:32:42.000Z</time>
      </trkpt>
      <trkpt lat="46.37038" lon="5.59">
        <ele>779.79998779297</ele>
        <time>2026-08-27T08:32:51.000Z</time>
      </trkpt>
      <trkpt lat="46.37042" lon="5.58999">
        <ele>779.40002441406</ele>
        <time>2026-08-27T08:32:55.000Z</time>
      </trkpt>
      <trkpt lat="46.37048" lon="5.59001">
        <ele>778.40002441406</ele>
        <time>2026-08-27T08:33:01.000Z</time>
      </trkpt>
      <trkpt lat="46.37049" lon="5.59001">
        <ele>778.20001220703</ele>
        <time>2026-08-27T08:33:02.000Z</time>
      </trkpt>
      <trkpt lat="46.37055" lon="5.59001">
        <ele>777.20001220703</ele>
        <time>2026-08-27T08:33:07.000Z</time>
      </trkpt>
      <trkpt lat="46.37055" lon="5.59001">
        <ele>777</ele>
        <time>2026-08-27T08:33:08.000Z</time>
      </trkpt>
      <trkpt lat="46.3706" lon="5.58998">
        <ele>776</ele>
        <time>2026-08-27T08:33:14.000Z</time>
      </trkpt>
      <trkpt lat="46.37061" lon="5.58998">
        <ele>775.59997558594</ele>
        <time>2026-08-27T08:33:18.000Z</time>
      </trkpt>
      <trkpt lat="46.37063" lon="5.58998">
        <ele>775.40002441406</ele>
        <time>2026-08-27T08:33:21.000Z</time>
      </trkpt>
      <trkpt lat="46.37067" lon="5.58995">
        <ele>775</ele>
        <time>2026-08-27T08:33:25.000Z</time>
      </trkpt>
      <trkpt lat="46.37068" lon="5.58995">
        <ele>775</ele>
        <time>2026-08-27T08:33:27.000Z</time>
      </trkpt>
      <trkpt lat="46.37069" lon="5.58994">
        <ele>774.79998779297</ele>
        <time>2026-08-27T08:33:28.000Z</time>
      </trkpt>
      <trkpt lat="46.3707" lon="5.58994">
        <ele>774.79998779297</ele>
        <time>2026-08-27T08:33:29.000Z</time>
      </trkpt>
      <trkpt lat="46.37071" lon="5.58993">
        <ele>774.79998779297</ele>
        <time>2026-08-27T08:33:31.000Z</time>
      </trkpt>
      <trkpt lat="46.37072" lon="5.58993">
        <ele>774.59997558594</ele>
        <time>2026-08-27T08:33:32.000Z</time>
      </trkpt>
      <trkpt lat="46.37073" lon="5.58992">
        <ele>774.40002441406</ele>
        <time>2026-08-27T08:33:34.000Z</time>
      </trkpt>
      <trkpt lat="46.37074" lon="5.58993">
        <ele>774</ele>
        <time>2026-08-27T08:33:36.000Z</time>
      </trkpt>
      <trkpt lat="46.37074" lon="5.58993">
        <ele>773.79998779297</ele>
        <time>2026-08-27T08:33:37.000Z</time>
      </trkpt>
      <trkpt lat="46.37077" lon="5.58989">
        <ele>773.40002441406</ele>
        <time>2026-08-27T08:33:43.000Z</time>
      </trkpt>
      <trkpt lat="46.37082" lon="5.58987">
        <ele>772.79998779297</ele>
        <time>2026-08-27T08:33:47.000Z</time>
      </trkpt>
      <trkpt lat="46.37085" lon="5.58984">
        <ele>772.20001220703</ele>
        <time>2026-08-27T08:33:51.000Z</time>
      </trkpt>
      <trkpt lat="46.37091" lon="5.58982">
        <ele>771.79998779297</ele>
        <time>2026-08-27T08:33:59.000Z</time>
      </trkpt>
      <trkpt lat="46.37098" lon="5.58976">
        <ele>770.79998779297</ele>
        <time>2026-08-27T08:34:08.000Z</time>
      </trkpt>
      <trkpt lat="46.37099" lon="5.58975">
        <ele>770.59997558594</ele>
        <time>2026-08-27T08:34:10.000Z</time>
      </trkpt>
      <trkpt lat="46.371" lon="5.58974">
        <ele>770.59997558594</ele>
        <time>2026-08-27T08:34:13.000Z</time>
      </trkpt>
      <trkpt lat="46.37102" lon="5.58974">
        <ele>770.40002441406</ele>
        <time>2026-08-27T08:34:15.000Z</time>
      </trkpt>
      <trkpt lat="46.3711" lon="5.58973">
        <ele>770</ele>
        <time>2026-08-27T08:34:22.000Z</time>
      </trkpt>
      <trkpt lat="46.37113" lon="5.58973">
        <ele>769.59997558594</ele>
        <time>2026-08-27T08:34:25.000Z</time>
      </trkpt>
      <trkpt lat="46.37119" lon="5.58972">
        <ele>768.79998779297</ele>
        <time>2026-08-27T08:34:31.000Z</time>
      </trkpt>
      <trkpt lat="46.37122" lon="5.58971">
        <ele>768.40002441406</ele>
        <time>2026-08-27T08:34:33.000Z</time>
      </trkpt>
      <trkpt lat="46.37127" lon="5.58971">
        <ele>767.40002441406</ele>
        <time>2026-08-27T08:34:38.000Z</time>
      </trkpt>
      <trkpt lat="46.37128" lon="5.5897">
        <ele>767.40002441406</ele>
        <time>2026-08-27T08:34:39.000Z</time>
      </trkpt>
      <trkpt lat="46.37135" lon="5.58966">
        <ele>766.20001220703</ele>
        <time>2026-08-27T08:34:45.000Z</time>
      </trkpt>
      <trkpt lat="46.37141" lon="5.58963">
        <ele>765</ele>
        <time>2026-08-27T08:34:51.000Z</time>
      </trkpt>
      <trkpt lat="46.37144" lon="5.58961">
        <ele>764.59997558594</ele>
        <time>2026-08-27T08:34:54.000Z</time>
      </trkpt>
      <trkpt lat="46.37148" lon="5.5896">
        <ele>764</ele>
        <time>2026-08-27T08:34:58.000Z</time>
      </trkpt>
      <trkpt lat="46.37153" lon="5.58956">
        <ele>763</ele>
        <time>2026-08-27T08:35:03.000Z</time>
      </trkpt>
      <trkpt lat="46.37154" lon="5.58956">
        <ele>762.79998779297</ele>
        <time>2026-08-27T08:35:04.000Z</time>
      </trkpt>
      <trkpt lat="46.3716" lon="5.5895">
        <ele>761.79998779297</ele>
        <time>2026-08-27T08:35:11.000Z</time>
      </trkpt>
      <trkpt lat="46.37161" lon="5.58949">
        <ele>761.79998779297</ele>
        <time>2026-08-27T08:35:12.000Z</time>
      </trkpt>
      <trkpt lat="46.37166" lon="5.58944">
        <ele>761</ele>
        <time>2026-08-27T08:35:17.000Z</time>
      </trkpt>
      <trkpt lat="46.37168" lon="5.58943">
        <ele>760.79998779297</ele>
        <time>2026-08-27T08:35:19.000Z</time>
      </trkpt>
      <trkpt lat="46.37171" lon="5.5894">
        <ele>760.59997558594</ele>
        <time>2026-08-27T08:35:22.000Z</time>
      </trkpt>
      <trkpt lat="46.37181" lon="5.58933">
        <ele>759.59997558594</ele>
        <time>2026-08-27T08:35:30.000Z</time>
      </trkpt>
      <trkpt lat="46.37185" lon="5.58934">
        <ele>759.20001220703</ele>
        <time>2026-08-27T08:35:34.000Z</time>
      </trkpt>
      <trkpt lat="46.3719" lon="5.58935">
        <ele>758.59997558594</ele>
        <time>2026-08-27T08:35:38.000Z</time>
      </trkpt>
      <trkpt lat="46.37192" lon="5.58935">
        <ele>758.40002441406</ele>
        <time>2026-08-27T08:35:39.000Z</time>
      </trkpt>
      <trkpt lat="46.37194" lon="5.58936">
        <ele>758.20001220703</ele>
        <time>2026-08-27T08:35:41.000Z</time>
      </trkpt>
      <trkpt lat="46.37196" lon="5.58937">
        <ele>757.79998779297</ele>
        <time>2026-08-27T08:35:43.000Z</time>
      </trkpt>
      <trkpt lat="46.37199" lon="5.58938">
        <ele>757.59997558594</ele>
        <time>2026-08-27T08:35:45.000Z</time>
      </trkpt>
      <trkpt lat="46.37203" lon="5.58938">
        <ele>757</ele>
        <time>2026-08-27T08:35:50.000Z</time>
      </trkpt>
      <trkpt lat="46.37211" lon="5.58937">
        <ele>756.40002441406</ele>
        <time>2026-08-27T08:35:57.000Z</time>
      </trkpt>
      <trkpt lat="46.37216" lon="5.58935">
        <ele>756.20001220703</ele>
        <time>2026-08-27T08:36:01.000Z</time>
      </trkpt>
      <trkpt lat="46.37219" lon="5.58933">
        <ele>755.79998779297</ele>
        <time>2026-08-27T08:36:04.000Z</time>
      </trkpt>
      <trkpt lat="46.37222" lon="5.5893">
        <ele>755.59997558594</ele>
        <time>2026-08-27T08:36:07.000Z</time>
      </trkpt>
      <trkpt lat="46.37223" lon="5.58928">
        <ele>755.40002441406</ele>
        <time>2026-08-27T08:36:08.000Z</time>
      </trkpt>
      <trkpt lat="46.37225" lon="5.58926">
        <ele>755.20001220703</ele>
        <time>2026-08-27T08:36:10.000Z</time>
      </trkpt>
      <trkpt lat="46.37232" lon="5.58916">
        <ele>754.40002441406</ele>
        <time>2026-08-27T08:36:18.000Z</time>
      </trkpt>
      <trkpt lat="46.37234" lon="5.58913">
        <ele>754</ele>
        <time>2026-08-27T08:36:21.000Z</time>
      </trkpt>
      <trkpt lat="46.37237" lon="5.58909">
        <ele>753.59997558594</ele>
        <time>2026-08-27T08:36:24.000Z</time>
      </trkpt>
      <trkpt lat="46.37238" lon="5.58908">
        <ele>753.59997558594</ele>
        <time>2026-08-27T08:36:25.000Z</time>
      </trkpt>
      <trkpt lat="46.37241" lon="5.58904">
        <ele>753.40002441406</ele>
        <time>2026-08-27T08:36:29.000Z</time>
      </trkpt>
      <trkpt lat="46.37243" lon="5.58901">
        <ele>753.20001220703</ele>
        <time>2026-08-27T08:36:31.000Z</time>
      </trkpt>
      <trkpt lat="46.3725" lon="5.58887">
        <ele>752.40002441406</ele>
        <time>2026-08-27T08:36:41.000Z</time>
      </trkpt>
      <trkpt lat="46.37251" lon="5.58885">
        <ele>752.20001220703</ele>
        <time>2026-08-27T08:36:42.000Z</time>
      </trkpt>
      <trkpt lat="46.37254" lon="5.58879">
        <ele>751.79998779297</ele>
        <time>2026-08-27T08:36:46.000Z</time>
      </trkpt>
      <trkpt lat="46.37258" lon="5.58869">
        <ele>751.40002441406</ele>
        <time>2026-08-27T08:36:52.000Z</time>
      </trkpt>
      <trkpt lat="46.37261" lon="5.58863">
        <ele>751.20001220703</ele>
        <time>2026-08-27T08:36:56.000Z</time>
      </trkpt>
      <trkpt lat="46.37264" lon="5.58849">
        <ele>750.79998779297</ele>
        <time>2026-08-27T08:37:05.000Z</time>
      </trkpt>
      <trkpt lat="46.37266" lon="5.58836">
        <ele>750.20001220703</ele>
        <time>2026-08-27T08:37:12.000Z</time>
      </trkpt>
      <trkpt lat="46.37266" lon="5.58834">
        <ele>750.20001220703</ele>
        <time>2026-08-27T08:37:13.000Z</time>
      </trkpt>
      <trkpt lat="46.3727" lon="5.58819">
        <ele>749.79998779297</ele>
        <time>2026-08-27T08:37:22.000Z</time>
      </trkpt>
      <trkpt lat="46.37274" lon="5.58803">
        <ele>749.40002441406</ele>
        <time>2026-08-27T08:37:31.000Z</time>
      </trkpt>
      <trkpt lat="46.37275" lon="5.58801">
        <ele>749.20001220703</ele>
        <time>2026-08-27T08:37:32.000Z</time>
      </trkpt>
      <trkpt lat="46.37278" lon="5.58797">
        <ele>749.20001220703</ele>
        <time>2026-08-27T08:37:36.000Z</time>
      </trkpt>
      <trkpt lat="46.3728" lon="5.58795">
        <ele>749</ele>
        <time>2026-08-27T08:37:38.000Z</time>
      </trkpt>
      <trkpt lat="46.37284" lon="5.58794">
        <ele>748.79998779297</ele>
        <time>2026-08-27T08:37:41.000Z</time>
      </trkpt>
      <trkpt lat="46.37292" lon="5.58795">
        <ele>748.20001220703</ele>
        <time>2026-08-27T08:37:47.000Z</time>
      </trkpt>
      <trkpt lat="46.37294" lon="5.58795">
        <ele>748</ele>
        <time>2026-08-27T08:37:49.000Z</time>
      </trkpt>
      <trkpt lat="46.37303" lon="5.588">
        <ele>747.20001220703</ele>
        <time>2026-08-27T08:37:56.000Z</time>
      </trkpt>
      <trkpt lat="46.37306" lon="5.58801">
        <ele>747</ele>
        <time>2026-08-27T08:37:58.000Z</time>
      </trkpt>
      <trkpt lat="46.37314" lon="5.58805">
        <ele>746.20001220703</ele>
        <time>2026-08-27T08:38:05.000Z</time>
      </trkpt>
      <trkpt lat="46.37318" lon="5.58808">
        <ele>745.79998779297</ele>
        <time>2026-08-27T08:38:08.000Z</time>
      </trkpt>
      <trkpt lat="46.37326" lon="5.58814">
        <ele>745.40002441406</ele>
        <time>2026-08-27T08:38:15.000Z</time>
      </trkpt>
      <trkpt lat="46.37337" lon="5.58823">
        <ele>745.20001220703</ele>
        <time>2026-08-27T08:38:25.000Z</time>
      </trkpt>
      <trkpt lat="46.37348" lon="5.58829">
        <ele>745.20001220703</ele>
        <time>2026-08-27T08:38:35.000Z</time>
      </trkpt>
      <trkpt lat="46.37363" lon="5.58839">
        <ele>745</ele>
        <time>2026-08-27T08:38:49.000Z</time>
      </trkpt>
      <trkpt lat="46.37374" lon="5.58845">
        <ele>744.79998779297</ele>
        <time>2026-08-27T08:38:58.000Z</time>
      </trkpt>
      <trkpt lat="46.37376" lon="5.58847">
        <ele>744.59997558594</ele>
        <time>2026-08-27T08:39:00.000Z</time>
      </trkpt>
      <trkpt lat="46.37386" lon="5.58853">
        <ele>744</ele>
        <time>2026-08-27T08:39:08.000Z</time>
      </trkpt>
      <trkpt lat="46.37391" lon="5.58856">
        <ele>743.79998779297</ele>
        <time>2026-08-27T08:39:11.000Z</time>
      </trkpt>
      <trkpt lat="46.37399" lon="5.5886">
        <ele>743.20001220703</ele>
        <time>2026-08-27T08:39:18.000Z</time>
      </trkpt>
      <trkpt lat="46.37406" lon="5.58863">
        <ele>742.79998779297</ele>
        <time>2026-08-27T08:39:23.000Z</time>
      </trkpt>
      <trkpt lat="46.37408" lon="5.58865">
        <ele>742.59997558594</ele>
        <time>2026-08-27T08:39:25.000Z</time>
      </trkpt>
      <trkpt lat="46.37411" lon="5.58866">
        <ele>742.40002441406</ele>
        <time>2026-08-27T08:39:27.000Z</time>
      </trkpt>
      <trkpt lat="46.3742" lon="5.58872">
        <ele>742</ele>
        <time>2026-08-27T08:39:36.000Z</time>
      </trkpt>
      <trkpt lat="46.37429" lon="5.58879">
        <ele>741.79998779297</ele>
        <time>2026-08-27T08:39:43.000Z</time>
      </trkpt>
      <trkpt lat="46.37431" lon="5.5888">
        <ele>741.79998779297</ele>
        <time>2026-08-27T08:39:44.000Z</time>
      </trkpt>
      <trkpt lat="46.37442" lon="5.58891">
        <ele>741.79998779297</ele>
        <time>2026-08-27T08:39:54.000Z</time>
      </trkpt>
      <trkpt lat="46.37446" lon="5.58897">
        <ele>741.79998779297</ele>
        <time>2026-08-27T08:39:59.000Z</time>
      </trkpt>
      <trkpt lat="46.37447" lon="5.58898">
        <ele>741.59997558594</ele>
        <time>2026-08-27T08:40:00.000Z</time>
      </trkpt>
      <trkpt lat="46.37449" lon="5.58902">
        <ele>741.40002441406</ele>
        <time>2026-08-27T08:40:03.000Z</time>
      </trkpt>
      <trkpt lat="46.37459" lon="5.5891">
        <ele>741.20001220703</ele>
        <time>2026-08-27T08:40:13.000Z</time>
      </trkpt>
      <trkpt lat="46.37465" lon="5.58914">
        <ele>740.59997558594</ele>
        <time>2026-08-27T08:40:18.000Z</time>
      </trkpt>
      <trkpt lat="46.3747" lon="5.58919">
        <ele>740.20001220703</ele>
        <time>2026-08-27T08:40:24.000Z</time>
      </trkpt>
      <trkpt lat="46.37476" lon="5.58925">
        <ele>739.59997558594</ele>
        <time>2026-08-27T08:40:30.000Z</time>
      </trkpt>
      <trkpt lat="46.37481" lon="5.58929">
        <ele>739.20001220703</ele>
        <time>2026-08-27T08:40:35.000Z</time>
      </trkpt>
      <trkpt lat="46.37488" lon="5.58933">
        <ele>738.40002441406</ele>
        <time>2026-08-27T08:40:42.000Z</time>
      </trkpt>
      <trkpt lat="46.37491" lon="5.58935">
        <ele>738.20001220703</ele>
        <time>2026-08-27T08:40:45.000Z</time>
      </trkpt>
      <trkpt lat="46.37495" lon="5.58937">
        <ele>737.79998779297</ele>
        <time>2026-08-27T08:40:49.000Z</time>
      </trkpt>
      <trkpt lat="46.37499" lon="5.58938">
        <ele>737.40002441406</ele>
        <time>2026-08-27T08:40:53.000Z</time>
      </trkpt>
      <trkpt lat="46.37501" lon="5.58939">
        <ele>737.20001220703</ele>
        <time>2026-08-27T08:40:55.000Z</time>
      </trkpt>
      <trkpt lat="46.37511" lon="5.58944">
        <ele>736.40002441406</ele>
        <time>2026-08-27T08:41:03.000Z</time>
      </trkpt>
      <trkpt lat="46.37514" lon="5.58946">
        <ele>736.20001220703</ele>
        <time>2026-08-27T08:41:06.000Z</time>
      </trkpt>
      <trkpt lat="46.37529" lon="5.58957">
        <ele>735.59997558594</ele>
        <time>2026-08-27T08:41:18.000Z</time>
      </trkpt>
      <trkpt lat="46.37538" lon="5.58964">
        <ele>735.40002441406</ele>
        <time>2026-08-27T08:41:26.000Z</time>
      </trkpt>
      <trkpt lat="46.3754" lon="5.58966">
        <ele>735.40002441406</ele>
        <time>2026-08-27T08:41:28.000Z</time>
      </trkpt>
      <trkpt lat="46.37548" lon="5.58976">
        <ele>735</ele>
        <time>2026-08-27T08:41:36.000Z</time>
      </trkpt>
      <trkpt lat="46.37552" lon="5.58985">
        <ele>735</ele>
        <time>2026-08-27T08:41:41.000Z</time>
      </trkpt>
      <trkpt lat="46.37555" lon="5.58992">
        <ele>734.79998779297</ele>
        <time>2026-08-27T08:41:46.000Z</time>
      </trkpt>
      <trkpt lat="46.37561" lon="5.59002">
        <ele>734.40002441406</ele>
        <time>2026-08-27T08:41:54.000Z</time>
      </trkpt>
      <trkpt lat="46.37561" lon="5.59004">
        <ele>734.40002441406</ele>
        <time>2026-08-27T08:41:55.000Z</time>
      </trkpt>
      <trkpt lat="46.3757" lon="5.59015">
        <ele>733.40002441406</ele>
        <time>2026-08-27T08:42:05.000Z</time>
      </trkpt>
      <trkpt lat="46.37571" lon="5.59016">
        <ele>733.40002441406</ele>
        <time>2026-08-27T08:42:06.000Z</time>
      </trkpt>
      <trkpt lat="46.37577" lon="5.59024">
        <ele>732.79998779297</ele>
        <time>2026-08-27T08:42:12.000Z</time>
      </trkpt>
      <trkpt lat="46.37579" lon="5.59029">
        <ele>732.59997558594</ele>
        <time>2026-08-27T08:42:15.000Z</time>
      </trkpt>
      <trkpt lat="46.37581" lon="5.59035">
        <ele>732.20001220703</ele>
        <time>2026-08-27T08:42:19.000Z</time>
      </trkpt>
      <trkpt lat="46.37587" lon="5.59043">
        <ele>731.79998779297</ele>
        <time>2026-08-27T08:42:26.000Z</time>
      </trkpt>
      <trkpt lat="46.37593" lon="5.59051">
        <ele>731.20001220703</ele>
        <time>2026-08-27T08:42:33.000Z</time>
      </trkpt>
      <trkpt lat="46.37595" lon="5.59053">
        <ele>730.79998779297</ele>
        <time>2026-08-27T08:42:35.000Z</time>
      </trkpt>
      <trkpt lat="46.37599" lon="5.59058">
        <ele>730</ele>
        <time>2026-08-27T08:42:40.000Z</time>
      </trkpt>
      <trkpt lat="46.37606" lon="5.59062">
        <ele>729.20001220703</ele>
        <time>2026-08-27T08:42:46.000Z</time>
      </trkpt>
      <trkpt lat="46.37608" lon="5.59064">
        <ele>728.79998779297</ele>
        <time>2026-08-27T08:42:48.000Z</time>
      </trkpt>
      <trkpt lat="46.37614" lon="5.59067">
        <ele>727.79998779297</ele>
        <time>2026-08-27T08:42:54.000Z</time>
      </trkpt>
      <trkpt lat="46.37618" lon="5.59068">
        <ele>727.40002441406</ele>
        <time>2026-08-27T08:42:57.000Z</time>
      </trkpt>
      <trkpt lat="46.37622" lon="5.59069">
        <ele>726.79998779297</ele>
        <time>2026-08-27T08:43:00.000Z</time>
      </trkpt>
      <trkpt lat="46.37624" lon="5.59071">
        <ele>726.20001220703</ele>
        <time>2026-08-27T08:43:03.000Z</time>
      </trkpt>
      <trkpt lat="46.37627" lon="5.59071">
        <ele>725.79998779297</ele>
        <time>2026-08-27T08:43:06.000Z</time>
      </trkpt>
      <trkpt lat="46.37628" lon="5.59071">
        <ele>725.59997558594</ele>
        <time>2026-08-27T08:43:07.000Z</time>
      </trkpt>
      <trkpt lat="46.37634" lon="5.59073">
        <ele>725</ele>
        <time>2026-08-27T08:43:12.000Z</time>
      </trkpt>
      <trkpt lat="46.37637" lon="5.59075">
        <ele>724.59997558594</ele>
        <time>2026-08-27T08:43:15.000Z</time>
      </trkpt>
      <trkpt lat="46.37643" lon="5.59079">
        <ele>723.79998779297</ele>
        <time>2026-08-27T08:43:21.000Z</time>
      </trkpt>
      <trkpt lat="46.3765" lon="5.59083">
        <ele>723.40002441406</ele>
        <time>2026-08-27T08:43:26.000Z</time>
      </trkpt>
      <trkpt lat="46.37653" lon="5.59086">
        <ele>723.20001220703</ele>
        <time>2026-08-27T08:43:29.000Z</time>
      </trkpt>
      <trkpt lat="46.37663" lon="5.59093">
        <ele>722.40002441406</ele>
        <time>2026-08-27T08:43:38.000Z</time>
      </trkpt>
      <trkpt lat="46.37665" lon="5.59094">
        <ele>722.20001220703</ele>
        <time>2026-08-27T08:43:40.000Z</time>
      </trkpt>
      <trkpt lat="46.37669" lon="5.59096">
        <ele>722</ele>
        <time>2026-08-27T08:43:44.000Z</time>
      </trkpt>
      <trkpt lat="46.37673" lon="5.59098">
        <ele>721.79998779297</ele>
        <time>2026-08-27T08:43:48.000Z</time>
      </trkpt>
      <trkpt lat="46.37682" lon="5.59101">
        <ele>721.40002441406</ele>
        <time>2026-08-27T08:43:55.000Z</time>
      </trkpt>
      <trkpt lat="46.37687" lon="5.59103">
        <ele>721.20001220703</ele>
        <time>2026-08-27T08:43:59.000Z</time>
      </trkpt>
      <trkpt lat="46.37697" lon="5.59098">
        <ele>720.59997558594</ele>
        <time>2026-08-27T08:44:07.000Z</time>
      </trkpt>
      <trkpt lat="46.37705" lon="5.5909">
        <ele>720.40002441406</ele>
        <time>2026-08-27T08:44:15.000Z</time>
      </trkpt>
      <trkpt lat="46.37712" lon="5.59081">
        <ele>720</ele>
        <time>2026-08-27T08:44:22.000Z</time>
      </trkpt>
      <trkpt lat="46.37714" lon="5.59078">
        <ele>719.79998779297</ele>
        <time>2026-08-27T08:44:24.000Z</time>
      </trkpt>
      <trkpt lat="46.37719" lon="5.59069">
        <ele>719.40002441406</ele>
        <time>2026-08-27T08:44:31.000Z</time>
      </trkpt>
      <trkpt lat="46.37721" lon="5.59066">
        <ele>719.20001220703</ele>
        <time>2026-08-27T08:44:33.000Z</time>
      </trkpt>
      <trkpt lat="46.37728" lon="5.59051">
        <ele>718.20001220703</ele>
        <time>2026-08-27T08:44:43.000Z</time>
      </trkpt>
      <trkpt lat="46.3773" lon="5.59048">
        <ele>718</ele>
        <time>2026-08-27T08:44:45.000Z</time>
      </trkpt>
      <trkpt lat="46.37732" lon="5.59041">
        <ele>717.40002441406</ele>
        <time>2026-08-27T08:44:50.000Z</time>
      </trkpt>
      <trkpt lat="46.37733" lon="5.59039">
        <ele>717.20001220703</ele>
        <time>2026-08-27T08:44:51.000Z</time>
      </trkpt>
      <trkpt lat="46.37734" lon="5.5903">
        <ele>716.40002441406</ele>
        <time>2026-08-27T08:44:56.000Z</time>
      </trkpt>
      <trkpt lat="46.37736" lon="5.59025">
        <ele>716</ele>
        <time>2026-08-27T08:44:59.000Z</time>
      </trkpt>
      <trkpt lat="46.37739" lon="5.59014">
        <ele>715</ele>
        <time>2026-08-27T08:45:05.000Z</time>
      </trkpt>
      <trkpt lat="46.37739" lon="5.59012">
        <ele>714.79998779297</ele>
        <time>2026-08-27T08:45:06.000Z</time>
      </trkpt>
      <trkpt lat="46.37742" lon="5.59004">
        <ele>713.79998779297</ele>
        <time>2026-08-27T08:45:12.000Z</time>
      </trkpt>
      <trkpt lat="46.37743" lon="5.59">
        <ele>713.40002441406</ele>
        <time>2026-08-27T08:45:14.000Z</time>
      </trkpt>
      <trkpt lat="46.37745" lon="5.58993">
        <ele>712.59997558594</ele>
        <time>2026-08-27T08:45:18.000Z</time>
      </trkpt>
      <trkpt lat="46.37749" lon="5.58981">
        <ele>711.59997558594</ele>
        <time>2026-08-27T08:45:24.000Z</time>
      </trkpt>
      <trkpt lat="46.37752" lon="5.58974">
        <ele>710.40002441406</ele>
        <time>2026-08-27T08:45:30.000Z</time>
      </trkpt>
      <trkpt lat="46.37756" lon="5.58965">
        <ele>709.40002441406</ele>
        <time>2026-08-27T08:45:36.000Z</time>
      </trkpt>
      <trkpt lat="46.37757" lon="5.58963">
        <ele>709.20001220703</ele>
        <time>2026-08-27T08:45:37.000Z</time>
      </trkpt>
      <trkpt lat="46.3776" lon="5.58953">
        <ele>708</ele>
        <time>2026-08-27T08:45:43.000Z</time>
      </trkpt>
      <trkpt lat="46.3776" lon="5.58952">
        <ele>708</ele>
        <time>2026-08-27T08:45:44.000Z</time>
      </trkpt>
      <trkpt lat="46.37762" lon="5.58945">
        <ele>707</ele>
        <time>2026-08-27T08:45:49.000Z</time>
      </trkpt>
      <trkpt lat="46.37765" lon="5.58941">
        <ele>706.59997558594</ele>
        <time>2026-08-27T08:45:52.000Z</time>
      </trkpt>
      <trkpt lat="46.37765" lon="5.5894">
        <ele>706.40002441406</ele>
        <time>2026-08-27T08:45:53.000Z</time>
      </trkpt>
      <trkpt lat="46.37766" lon="5.58937">
        <ele>706.20001220703</ele>
        <time>2026-08-27T08:46:01.000Z</time>
      </trkpt>
      <trkpt lat="46.37767" lon="5.5894">
        <ele>706.40002441406</ele>
        <time>2026-08-27T08:46:08.000Z</time>
      </trkpt>
      <trkpt lat="46.37767" lon="5.58941">
        <ele>706.40002441406</ele>
        <time>2026-08-27T08:46:10.000Z</time>
      </trkpt>
      <trkpt lat="46.3777" lon="5.58942">
        <ele>706.40002441406</ele>
        <time>2026-08-27T08:46:16.000Z</time>
      </trkpt>
      <trkpt lat="46.37768" lon="5.58945">
        <ele>706.20001220703</ele>
        <time>2026-08-27T08:46:20.000Z</time>
      </trkpt>
      <trkpt lat="46.37765" lon="5.58945">
        <ele>706.40002441406</ele>
        <time>2026-08-27T08:46:26.000Z</time>
      </trkpt>
      <trkpt lat="46.37764" lon="5.58947">
        <ele>706.40002441406</ele>
        <time>2026-08-27T08:46:33.000Z</time>
      </trkpt>
      <trkpt lat="46.37769" lon="5.58939">
        <ele>706</ele>
        <time>2026-08-27T08:46:40.000Z</time>
      </trkpt>
      <trkpt lat="46.37769" lon="5.58938">
        <ele>705.79998779297</ele>
        <time>2026-08-27T08:46:41.000Z</time>
      </trkpt>
      <trkpt lat="46.37773" lon="5.58927">
        <ele>704.79998779297</ele>
        <time>2026-08-27T08:46:47.000Z</time>
      </trkpt>
      <trkpt lat="46.37774" lon="5.58924">
        <ele>704.40002441406</ele>
        <time>2026-08-27T08:46:49.000Z</time>
      </trkpt>
      <trkpt lat="46.37778" lon="5.58916">
        <ele>703.59997558594</ele>
        <time>2026-08-27T08:46:54.000Z</time>
      </trkpt>
      <trkpt lat="46.37781" lon="5.58908">
        <ele>703</ele>
        <time>2026-08-27T08:46:58.000Z</time>
      </trkpt>
      <trkpt lat="46.37783" lon="5.58903">
        <ele>702.59997558594</ele>
        <time>2026-08-27T08:47:01.000Z</time>
      </trkpt>
      <trkpt lat="46.37787" lon="5.58895">
        <ele>701.40002441406</ele>
        <time>2026-08-27T08:47:08.000Z</time>
      </trkpt>
      <trkpt lat="46.37787" lon="5.58891">
        <ele>701.20001220703</ele>
        <time>2026-08-27T08:47:09.000Z</time>
      </trkpt>
      <trkpt lat="46.3779" lon="5.58883">
        <ele>700.40002441406</ele>
        <time>2026-08-27T08:47:15.000Z</time>
      </trkpt>
      <trkpt lat="46.37792" lon="5.58879">
        <ele>699.79998779297</ele>
        <time>2026-08-27T08:47:18.000Z</time>
      </trkpt>
      <trkpt lat="46.37794" lon="5.58875">
        <ele>699.20001220703</ele>
        <time>2026-08-27T08:47:21.000Z</time>
      </trkpt>
      <trkpt lat="46.37798" lon="5.58864">
        <ele>698.40002441406</ele>
        <time>2026-08-27T08:47:27.000Z</time>
      </trkpt>
      <trkpt lat="46.37798" lon="5.58862">
        <ele>698.20001220703</ele>
        <time>2026-08-27T08:47:28.000Z</time>
      </trkpt>
      <trkpt lat="46.37801" lon="5.58852">
        <ele>697.20001220703</ele>
        <time>2026-08-27T08:47:34.000Z</time>
      </trkpt>
      <trkpt lat="46.37802" lon="5.5885">
        <ele>697.20001220703</ele>
        <time>2026-08-27T08:47:35.000Z</time>
      </trkpt>
      <trkpt lat="46.37802" lon="5.58847">
        <ele>696.79998779297</ele>
        <time>2026-08-27T08:47:37.000Z</time>
      </trkpt>
      <trkpt lat="46.37805" lon="5.58839">
        <ele>696</ele>
        <time>2026-08-27T08:47:42.000Z</time>
      </trkpt>
      <trkpt lat="46.37808" lon="5.58831">
        <ele>695.40002441406</ele>
        <time>2026-08-27T08:47:47.000Z</time>
      </trkpt>
      <trkpt lat="46.3781" lon="5.58827">
        <ele>695</ele>
        <time>2026-08-27T08:47:49.000Z</time>
      </trkpt>
      <trkpt lat="46.37815" lon="5.58816">
        <ele>694</ele>
        <time>2026-08-27T08:47:56.000Z</time>
      </trkpt>
      <trkpt lat="46.37816" lon="5.58814">
        <ele>694</ele>
        <time>2026-08-27T08:47:57.000Z</time>
      </trkpt>
      <trkpt lat="46.37824" lon="5.58802">
        <ele>692.79998779297</ele>
        <time>2026-08-27T08:48:05.000Z</time>
      </trkpt>
      <trkpt lat="46.37832" lon="5.58791">
        <ele>692</ele>
        <time>2026-08-27T08:48:13.000Z</time>
      </trkpt>
      <trkpt lat="46.37834" lon="5.58788">
        <ele>691.79998779297</ele>
        <time>2026-08-27T08:48:15.000Z</time>
      </trkpt>
      <trkpt lat="46.37836" lon="5.58785">
        <ele>691.59997558594</ele>
        <time>2026-08-27T08:48:17.000Z</time>
      </trkpt>
      <trkpt lat="46.37842" lon="5.58779">
        <ele>691.20001220703</ele>
        <time>2026-08-27T08:48:23.000Z</time>
      </trkpt>
      <trkpt lat="46.37844" lon="5.58777">
        <ele>691</ele>
        <time>2026-08-27T08:48:25.000Z</time>
      </trkpt>
      <trkpt lat="46.37849" lon="5.58773">
        <ele>690.79998779297</ele>
        <time>2026-08-27T08:48:29.000Z</time>
      </trkpt>
      <trkpt lat="46.37853" lon="5.58768">
        <ele>690.79998779297</ele>
        <time>2026-08-27T08:48:32.000Z</time>
      </trkpt>
      <trkpt lat="46.37863" lon="5.58755">
        <ele>690.40002441406</ele>
        <time>2026-08-27T08:48:42.000Z</time>
      </trkpt>
      <trkpt lat="46.37871" lon="5.58743">
        <ele>690</ele>
        <time>2026-08-27T08:48:50.000Z</time>
      </trkpt>
      <trkpt lat="46.37872" lon="5.58741">
        <ele>690</ele>
        <time>2026-08-27T08:48:51.000Z</time>
      </trkpt>
      <trkpt lat="46.37873" lon="5.58738">
        <ele>689.79998779297</ele>
        <time>2026-08-27T08:48:53.000Z</time>
      </trkpt>
      <trkpt lat="46.37874" lon="5.58736">
        <ele>689.79998779297</ele>
        <time>2026-08-27T08:48:54.000Z</time>
      </trkpt>
      <trkpt lat="46.3788" lon="5.5872">
        <ele>689</ele>
        <time>2026-08-27T08:49:03.000Z</time>
      </trkpt>
      <trkpt lat="46.37881" lon="5.58717">
        <ele>688.59997558594</ele>
        <time>2026-08-27T08:49:05.000Z</time>
      </trkpt>
      <trkpt lat="46.37884" lon="5.58704">
        <ele>687.79998779297</ele>
        <time>2026-08-27T08:49:12.000Z</time>
      </trkpt>
      <trkpt lat="46.37885" lon="5.58702">
        <ele>687.59997558594</ele>
        <time>2026-08-27T08:49:13.000Z</time>
      </trkpt>
      <trkpt lat="46.37888" lon="5.58687">
        <ele>686.59997558594</ele>
        <time>2026-08-27T08:49:22.000Z</time>
      </trkpt>
      <trkpt lat="46.3789" lon="5.58676">
        <ele>686</ele>
        <time>2026-08-27T08:49:30.000Z</time>
      </trkpt>
      <trkpt lat="46.3789" lon="5.58674">
        <ele>686</ele>
        <time>2026-08-27T08:49:37.000Z</time>
      </trkpt>
      <trkpt lat="46.3789" lon="5.58673">
        <ele>686</ele>
        <time>2026-08-27T08:49:41.000Z</time>
      </trkpt>
      <trkpt lat="46.3789" lon="5.58673">
        <ele>686</ele>
        <time>2026-08-27T08:49:42.000Z</time>
      </trkpt>
      <trkpt lat="46.3789" lon="5.58673">
        <ele>686</ele>
        <time>2026-08-27T08:49:43.000Z</time>
      </trkpt>
      <trkpt lat="46.3789" lon="5.58673">
        <ele>685.79998779297</ele>
        <time>2026-08-27T08:49:48.000Z</time>
      </trkpt>
      <trkpt lat="46.37889" lon="5.58671">
        <ele>685.59997558594</ele>
        <time>2026-08-27T08:49:57.000Z</time>
      </trkpt>
      <trkpt lat="46.37892" lon="5.58663">
        <ele>685.40002441406</ele>
        <time>2026-08-27T08:50:06.000Z</time>
      </trkpt>
      <trkpt lat="46.37898" lon="5.58655">
        <ele>684.59997558594</ele>
        <time>2026-08-27T08:50:16.000Z</time>
      </trkpt>
      <trkpt lat="46.37899" lon="5.58655">
        <ele>684.40002441406</ele>
        <time>2026-08-27T08:50:18.000Z</time>
      </trkpt>
      <trkpt lat="46.37902" lon="5.58653">
        <ele>683.79998779297</ele>
        <time>2026-08-27T08:50:23.000Z</time>
      </trkpt>
      <trkpt lat="46.37904" lon="5.5865">
        <ele>683.40002441406</ele>
        <time>2026-08-27T08:50:26.000Z</time>
      </trkpt>
      <trkpt lat="46.3791" lon="5.58641">
        <ele>682.59997558594</ele>
        <time>2026-08-27T08:50:33.000Z</time>
      </trkpt>
      <trkpt lat="46.37914" lon="5.58638">
        <ele>682.40002441406</ele>
        <time>2026-08-27T08:50:37.000Z</time>
      </trkpt>
      <trkpt lat="46.37919" lon="5.58636">
        <ele>682.40002441406</ele>
        <time>2026-08-27T08:50:43.000Z</time>
      </trkpt>
      <trkpt lat="46.37928" lon="5.58632">
        <ele>682.40002441406</ele>
        <time>2026-08-27T08:50:53.000Z</time>
      </trkpt>
      <trkpt lat="46.37937" lon="5.58626">
        <ele>682.40002441406</ele>
        <time>2026-08-27T08:51:02.000Z</time>
      </trkpt>
      <trkpt lat="46.37945" lon="5.58618">
        <ele>682.40002441406</ele>
        <time>2026-08-27T08:51:11.000Z</time>
      </trkpt>
      <trkpt lat="46.37946" lon="5.58617">
        <ele>682.40002441406</ele>
        <time>2026-08-27T08:51:12.000Z</time>
      </trkpt>
      <trkpt lat="46.3795" lon="5.5861">
        <ele>682.59997558594</ele>
        <time>2026-08-27T08:51:19.000Z</time>
      </trkpt>
      <trkpt lat="46.37952" lon="5.58607">
        <ele>682.59997558594</ele>
        <time>2026-08-27T08:51:22.000Z</time>
      </trkpt>
      <trkpt lat="46.37957" lon="5.58603">
        <ele>682.79998779297</ele>
        <time>2026-08-27T08:51:27.000Z</time>
      </trkpt>
      <trkpt lat="46.37958" lon="5.58601">
        <ele>682.59997558594</ele>
        <time>2026-08-27T08:51:29.000Z</time>
      </trkpt>
      <trkpt lat="46.37965" lon="5.58588">
        <ele>682.79998779297</ele>
        <time>2026-08-27T08:51:39.000Z</time>
      </trkpt>
      <trkpt lat="46.37967" lon="5.58581">
        <ele>683.20001220703</ele>
        <time>2026-08-27T08:51:46.000Z</time>
      </trkpt>
      <trkpt lat="46.37969" lon="5.58576">
        <ele>683.20001220703</ele>
        <time>2026-08-27T08:51:49.000Z</time>
      </trkpt>
      <trkpt lat="46.3797" lon="5.58575">
        <ele>683.40002441406</ele>
        <time>2026-08-27T08:51:50.000Z</time>
      </trkpt>
      <trkpt lat="46.37975" lon="5.58562">
        <ele>683.59997558594</ele>
        <time>2026-08-27T08:51:59.000Z</time>
      </trkpt>
      <trkpt lat="46.3798" lon="5.58549">
        <ele>682.79998779297</ele>
        <time>2026-08-27T08:52:08.000Z</time>
      </trkpt>
      <trkpt lat="46.3798" lon="5.58543">
        <ele>682.40002441406</ele>
        <time>2026-08-27T08:52:11.000Z</time>
      </trkpt>
      <trkpt lat="46.37981" lon="5.58539">
        <ele>682</ele>
        <time>2026-08-27T08:52:14.000Z</time>
      </trkpt>
      <trkpt lat="46.3798" lon="5.5853">
        <ele>681.20001220703</ele>
        <time>2026-08-27T08:52:19.000Z</time>
      </trkpt>
      <trkpt lat="46.37982" lon="5.58522">
        <ele>680.59997558594</ele>
        <time>2026-08-27T08:52:24.000Z</time>
      </trkpt>
      <trkpt lat="46.37983" lon="5.5852">
        <ele>680.20001220703</ele>
        <time>2026-08-27T08:52:26.000Z</time>
      </trkpt>
      <trkpt lat="46.37982" lon="5.58516">
        <ele>679.79998779297</ele>
        <time>2026-08-27T08:52:31.000Z</time>
      </trkpt>
      <trkpt lat="46.37983" lon="5.58507">
        <ele>679</ele>
        <time>2026-08-27T08:52:37.000Z</time>
      </trkpt>
      <trkpt lat="46.37983" lon="5.58506">
        <ele>678.79998779297</ele>
        <time>2026-08-27T08:52:38.000Z</time>
      </trkpt>
      <trkpt lat="46.37983" lon="5.58498">
        <ele>678</ele>
        <time>2026-08-27T08:52:43.000Z</time>
      </trkpt>
      <trkpt lat="46.37983" lon="5.58495">
        <ele>677.59997558594</ele>
        <time>2026-08-27T08:52:45.000Z</time>
      </trkpt>
      <trkpt lat="46.37984" lon="5.5849">
        <ele>676.79998779297</ele>
        <time>2026-08-27T08:52:49.000Z</time>
      </trkpt>
      <trkpt lat="46.37985" lon="5.58484">
        <ele>675.79998779297</ele>
        <time>2026-08-27T08:52:54.000Z</time>
      </trkpt>
      <trkpt lat="46.37985" lon="5.58483">
        <ele>675.79998779297</ele>
        <time>2026-08-27T08:52:55.000Z</time>
      </trkpt>
      <trkpt lat="46.37986" lon="5.58475">
        <ele>674.79998779297</ele>
        <time>2026-08-27T08:53:01.000Z</time>
      </trkpt>
      <trkpt lat="46.37986" lon="5.58473">
        <ele>674.59997558594</ele>
        <time>2026-08-27T08:53:02.000Z</time>
      </trkpt>
      <trkpt lat="46.37987" lon="5.58467">
        <ele>673.79998779297</ele>
        <time>2026-08-27T08:53:06.000Z</time>
      </trkpt>
      <trkpt lat="46.37987" lon="5.58466">
        <ele>673.59997558594</ele>
        <time>2026-08-27T08:53:07.000Z</time>
      </trkpt>
      <trkpt lat="46.37989" lon="5.58463">
        <ele>673.20001220703</ele>
        <time>2026-08-27T08:53:10.000Z</time>
      </trkpt>
      <trkpt lat="46.3799" lon="5.5846">
        <ele>672.59997558594</ele>
        <time>2026-08-27T08:53:13.000Z</time>
      </trkpt>
      <trkpt lat="46.37991" lon="5.58455">
        <ele>672</ele>
        <time>2026-08-27T08:53:17.000Z</time>
      </trkpt>
      <trkpt lat="46.37993" lon="5.58453">
        <ele>671.59997558594</ele>
        <time>2026-08-27T08:53:19.000Z</time>
      </trkpt>
      <trkpt lat="46.37995" lon="5.58447">
        <ele>670.40002441406</ele>
        <time>2026-08-27T08:53:25.000Z</time>
      </trkpt>
      <trkpt lat="46.37995" lon="5.58446">
        <ele>670.20001220703</ele>
        <time>2026-08-27T08:53:26.000Z</time>
      </trkpt>
      <trkpt lat="46.37995" lon="5.58445">
        <ele>670.20001220703</ele>
        <time>2026-08-27T08:53:27.000Z</time>
      </trkpt>
      <trkpt lat="46.37996" lon="5.58441">
        <ele>669.59997558594</ele>
        <time>2026-08-27T08:53:29.000Z</time>
      </trkpt>
      <trkpt lat="46.37997" lon="5.58438">
        <ele>669.40002441406</ele>
        <time>2026-08-27T08:53:31.000Z</time>
      </trkpt>
      <trkpt lat="46.37998" lon="5.58434">
        <ele>669</ele>
        <time>2026-08-27T08:53:34.000Z</time>
      </trkpt>
      <trkpt lat="46.37999" lon="5.58431">
        <ele>668.40002441406</ele>
        <time>2026-08-27T08:53:37.000Z</time>
      </trkpt>
      <trkpt lat="46.37999" lon="5.58429">
        <ele>668.20001220703</ele>
        <time>2026-08-27T08:53:38.000Z</time>
      </trkpt>
      <trkpt lat="46.38001" lon="5.58426">
        <ele>667.79998779297</ele>
        <time>2026-08-27T08:53:40.000Z</time>
      </trkpt>
      <trkpt lat="46.38001" lon="5.58424">
        <ele>667.59997558594</ele>
        <time>2026-08-27T08:53:42.000Z</time>
      </trkpt>
      <trkpt lat="46.38002" lon="5.58421">
        <ele>667.20001220703</ele>
        <time>2026-08-27T08:53:45.000Z</time>
      </trkpt>
      <trkpt lat="46.38004" lon="5.58415">
        <ele>666.20001220703</ele>
        <time>2026-08-27T08:53:51.000Z</time>
      </trkpt>
      <trkpt lat="46.38005" lon="5.58414">
        <ele>666</ele>
        <time>2026-08-27T08:53:52.000Z</time>
      </trkpt>
      <trkpt lat="46.38006" lon="5.5841">
        <ele>665</ele>
        <time>2026-08-27T08:53:58.000Z</time>
      </trkpt>
      <trkpt lat="46.38006" lon="5.58409">
        <ele>664.79998779297</ele>
        <time>2026-08-27T08:54:00.000Z</time>
      </trkpt>
      <trkpt lat="46.38006" lon="5.58404">
        <ele>664</ele>
        <time>2026-08-27T08:54:04.000Z</time>
      </trkpt>
      <trkpt lat="46.38008" lon="5.58396">
        <ele>663</ele>
        <time>2026-08-27T08:54:10.000Z</time>
      </trkpt>
      <trkpt lat="46.38007" lon="5.58384">
        <ele>661.79998779297</ele>
        <time>2026-08-27T08:54:17.000Z</time>
      </trkpt>
      <trkpt lat="46.38007" lon="5.58383">
        <ele>661.59997558594</ele>
        <time>2026-08-27T08:54:18.000Z</time>
      </trkpt>
      <trkpt lat="46.38008" lon="5.58373">
        <ele>660.79998779297</ele>
        <time>2026-08-27T08:54:24.000Z</time>
      </trkpt>
      <trkpt lat="46.38009" lon="5.58371">
        <ele>660.40002441406</ele>
        <time>2026-08-27T08:54:26.000Z</time>
      </trkpt>
      <trkpt lat="46.3801" lon="5.58362">
        <ele>659.79998779297</ele>
        <time>2026-08-27T08:54:31.000Z</time>
      </trkpt>
      <trkpt lat="46.3801" lon="5.58357">
        <ele>659.20001220703</ele>
        <time>2026-08-27T08:54:34.000Z</time>
      </trkpt>
      <trkpt lat="46.3801" lon="5.58343">
        <ele>658.59997558594</ele>
        <time>2026-08-27T08:54:41.000Z</time>
      </trkpt>
      <trkpt lat="46.3801" lon="5.58339">
        <ele>658.20001220703</ele>
        <time>2026-08-27T08:54:44.000Z</time>
      </trkpt>
      <trkpt lat="46.38011" lon="5.58331">
        <ele>657.59997558594</ele>
        <time>2026-08-27T08:54:51.000Z</time>
      </trkpt>
      <trkpt lat="46.3801" lon="5.58327">
        <ele>657.20001220703</ele>
        <time>2026-08-27T08:54:53.000Z</time>
      </trkpt>
      <trkpt lat="46.38012" lon="5.58317">
        <ele>656.79998779297</ele>
        <time>2026-08-27T08:54:59.000Z</time>
      </trkpt>
      <trkpt lat="46.38012" lon="5.58316">
        <ele>656.59997558594</ele>
        <time>2026-08-27T08:55:00.000Z</time>
      </trkpt>
      <trkpt lat="46.38012" lon="5.58314">
        <ele>656.40002441406</ele>
        <time>2026-08-27T08:55:01.000Z</time>
      </trkpt>
      <trkpt lat="46.38012" lon="5.58307">
        <ele>655.40002441406</ele>
        <time>2026-08-27T08:55:09.000Z</time>
      </trkpt>
      <trkpt lat="46.38012" lon="5.58301">
        <ele>654.40002441406</ele>
        <time>2026-08-27T08:55:14.000Z</time>
      </trkpt>
      <trkpt lat="46.38012" lon="5.58298">
        <ele>653.20001220703</ele>
        <time>2026-08-27T08:55:19.000Z</time>
      </trkpt>
      <trkpt lat="46.38012" lon="5.58296">
        <ele>653</ele>
        <time>2026-08-27T08:55:20.000Z</time>
      </trkpt>
      <trkpt lat="46.38012" lon="5.58295">
        <ele>652.79998779297</ele>
        <time>2026-08-27T08:55:21.000Z</time>
      </trkpt>
      <trkpt lat="46.38013" lon="5.58291">
        <ele>652.20001220703</ele>
        <time>2026-08-27T08:55:24.000Z</time>
      </trkpt>
      <trkpt lat="46.38014" lon="5.58285">
        <ele>651.20001220703</ele>
        <time>2026-08-27T08:55:30.000Z</time>
      </trkpt>
      <trkpt lat="46.38014" lon="5.58283">
        <ele>651</ele>
        <time>2026-08-27T08:55:31.000Z</time>
      </trkpt>
      <trkpt lat="46.38014" lon="5.58283">
        <ele>650.79998779297</ele>
        <time>2026-08-27T08:55:32.000Z</time>
      </trkpt>
      <trkpt lat="46.38014" lon="5.58279">
        <ele>650</ele>
        <time>2026-08-27T08:55:36.000Z</time>
      </trkpt>
      <trkpt lat="46.38013" lon="5.58277">
        <ele>649.59997558594</ele>
        <time>2026-08-27T08:55:39.000Z</time>
      </trkpt>
      <trkpt lat="46.38013" lon="5.58276">
        <ele>649.20001220703</ele>
        <time>2026-08-27T08:55:41.000Z</time>
      </trkpt>
      <trkpt lat="46.38012" lon="5.58276">
        <ele>649</ele>
        <time>2026-08-27T08:55:42.000Z</time>
      </trkpt>
      <trkpt lat="46.38012" lon="5.58277">
        <ele>649</ele>
        <time>2026-08-27T08:55:50.000Z</time>
      </trkpt>
      <trkpt lat="46.38012" lon="5.58279">
        <ele>649.40002441406</ele>
        <time>2026-08-27T08:56:00.000Z</time>
      </trkpt>
      <trkpt lat="46.38012" lon="5.58279">
        <ele>649.20001220703</ele>
        <time>2026-08-27T08:56:05.000Z</time>
      </trkpt>
      <trkpt lat="46.38012" lon="5.58279">
        <ele>649</ele>
        <time>2026-08-27T08:56:25.000Z</time>
      </trkpt>
      <trkpt lat="46.3801" lon="5.58277">
        <ele>648.59997558594</ele>
        <time>2026-08-27T08:56:39.000Z</time>
      </trkpt>
      <trkpt lat="46.3801" lon="5.58273">
        <ele>649</ele>
        <time>2026-08-27T08:56:49.000Z</time>
      </trkpt>
      <trkpt lat="46.38011" lon="5.5827">
        <ele>649</ele>
        <time>2026-08-27T08:56:57.000Z</time>
      </trkpt>
      <trkpt lat="46.38011" lon="5.5827">
        <ele>649</ele>
        <time>2026-08-27T08:56:58.000Z</time>
      </trkpt>
      <trkpt lat="46.3801" lon="5.58272">
        <ele>648.79998779297</ele>
        <time>2026-08-27T08:57:03.000Z</time>
      </trkpt>
      <trkpt lat="46.38011" lon="5.58276">
        <ele>648.59997558594</ele>
        <time>2026-08-27T08:57:09.000Z</time>
      </trkpt>
      <trkpt lat="46.38012" lon="5.58277">
        <ele>648.59997558594</ele>
        <time>2026-08-27T08:57:19.000Z</time>
      </trkpt>
      <trkpt lat="46.38011" lon="5.58276">
        <ele>648.79998779297</ele>
        <time>2026-08-27T08:57:30.000Z</time>
      </trkpt>
      <trkpt lat="46.38011" lon="5.58276">
        <ele>648.79998779297</ele>
        <time>2026-08-27T08:57:31.000Z</time>
      </trkpt>
      <trkpt lat="46.38009" lon="5.58273">
        <ele>648.79998779297</ele>
        <time>2026-08-27T08:57:42.000Z</time>
      </trkpt>
      <trkpt lat="46.38009" lon="5.58273">
        <ele>648.59997558594</ele>
        <time>2026-08-27T08:57:44.000Z</time>
      </trkpt>
      <trkpt lat="46.38009" lon="5.58274">
        <ele>648.59997558594</ele>
        <time>2026-08-27T08:57:49.000Z</time>
      </trkpt>
      <trkpt lat="46.38009" lon="5.58274">
        <ele>648.59997558594</ele>
        <time>2026-08-27T08:57:51.000Z</time>
      </trkpt>
      <trkpt lat="46.3801" lon="5.58275">
        <ele>648.59997558594</ele>
        <time>2026-08-27T08:57:55.000Z</time>
      </trkpt>
      <trkpt lat="46.38008" lon="5.58274">
        <ele>648.59997558594</ele>
        <time>2026-08-27T08:58:07.000Z</time>
      </trkpt>
      <trkpt lat="46.38008" lon="5.58272">
        <ele>648</ele>
        <time>2026-08-27T08:58:10.000Z</time>
      </trkpt>
      <trkpt lat="46.38009" lon="5.58266">
        <ele>647</ele>
        <time>2026-08-27T08:58:15.000Z</time>
      </trkpt>
      <trkpt lat="46.3801" lon="5.58264">
        <ele>646.79998779297</ele>
        <time>2026-08-27T08:58:16.000Z</time>
      </trkpt>
      <trkpt lat="46.38011" lon="5.58263">
        <ele>646.40002441406</ele>
        <time>2026-08-27T08:58:18.000Z</time>
      </trkpt>
      <trkpt lat="46.38013" lon="5.58257">
        <ele>645.79998779297</ele>
        <time>2026-08-27T08:58:24.000Z</time>
      </trkpt>
      <trkpt lat="46.38014" lon="5.58255">
        <ele>645.59997558594</ele>
        <time>2026-08-27T08:58:25.000Z</time>
      </trkpt>
      <trkpt lat="46.38014" lon="5.58254">
        <ele>645.59997558594</ele>
        <time>2026-08-27T08:58:26.000Z</time>
      </trkpt>
      <trkpt lat="46.38019" lon="5.58249">
        <ele>644.79998779297</ele>
        <time>2026-08-27T08:58:32.000Z</time>
      </trkpt>
      <trkpt lat="46.38021" lon="5.58247">
        <ele>644.59997558594</ele>
        <time>2026-08-27T08:58:34.000Z</time>
      </trkpt>
      <trkpt lat="46.38023" lon="5.58243">
        <ele>643.79998779297</ele>
        <time>2026-08-27T08:58:38.000Z</time>
      </trkpt>
      <trkpt lat="46.38023" lon="5.58241">
        <ele>643.59997558594</ele>
        <time>2026-08-27T08:58:39.000Z</time>
      </trkpt>
      <trkpt lat="46.38026" lon="5.58235">
        <ele>642.59997558594</ele>
        <time>2026-08-27T08:58:45.000Z</time>
      </trkpt>
      <trkpt lat="46.38026" lon="5.58233">
        <ele>642.20001220703</ele>
        <time>2026-08-27T08:58:48.000Z</time>
      </trkpt>
      <trkpt lat="46.38028" lon="5.58226">
        <ele>641.40002441406</ele>
        <time>2026-08-27T08:58:56.000Z</time>
      </trkpt>
      <trkpt lat="46.38031" lon="5.58218">
        <ele>640.20001220703</ele>
        <time>2026-08-27T08:59:03.000Z</time>
      </trkpt>
      <trkpt lat="46.38031" lon="5.58217">
        <ele>640.20001220703</ele>
        <time>2026-08-27T08:59:04.000Z</time>
      </trkpt>
      <trkpt lat="46.38033" lon="5.58211">
        <ele>639.20001220703</ele>
        <time>2026-08-27T08:59:10.000Z</time>
      </trkpt>
      <trkpt lat="46.38033" lon="5.58209">
        <ele>638.79998779297</ele>
        <time>2026-08-27T08:59:12.000Z</time>
      </trkpt>
      <trkpt lat="46.38034" lon="5.58203">
        <ele>638</ele>
        <time>2026-08-27T08:59:17.000Z</time>
      </trkpt>
      <trkpt lat="46.38035" lon="5.58199">
        <ele>637.59997558594</ele>
        <time>2026-08-27T08:59:20.000Z</time>
      </trkpt>
      <trkpt lat="46.38036" lon="5.58194">
        <ele>637</ele>
        <time>2026-08-27T08:59:24.000Z</time>
      </trkpt>
      <trkpt lat="46.38037" lon="5.58186">
        <ele>635.79998779297</ele>
        <time>2026-08-27T08:59:31.000Z</time>
      </trkpt>
      <trkpt lat="46.38037" lon="5.58183">
        <ele>635.40002441406</ele>
        <time>2026-08-27T08:59:39.000Z</time>
      </trkpt>
      <trkpt lat="46.38039" lon="5.58177">
        <ele>634.79998779297</ele>
        <time>2026-08-27T08:59:45.000Z</time>
      </trkpt>
      <trkpt lat="46.38039" lon="5.58172">
        <ele>634.20001220703</ele>
        <time>2026-08-27T08:59:49.000Z</time>
      </trkpt>
      <trkpt lat="46.38041" lon="5.58167">
        <ele>633.59997558594</ele>
        <time>2026-08-27T08:59:53.000Z</time>
      </trkpt>
      <trkpt lat="46.38041" lon="5.58164">
        <ele>633.40002441406</ele>
        <time>2026-08-27T08:59:55.000Z</time>
      </trkpt>
      <trkpt lat="46.38044" lon="5.58153">
        <ele>632.59997558594</ele>
        <time>2026-08-27T09:00:05.000Z</time>
      </trkpt>
      <trkpt lat="46.38044" lon="5.58144">
        <ele>632</ele>
        <time>2026-08-27T09:00:13.000Z</time>
      </trkpt>
      <trkpt lat="46.38043" lon="5.5814">
        <ele>631.59997558594</ele>
        <time>2026-08-27T09:00:16.000Z</time>
      </trkpt>
      <trkpt lat="46.38044" lon="5.58131">
        <ele>630.59997558594</ele>
        <time>2026-08-27T09:00:23.000Z</time>
      </trkpt>
      <trkpt lat="46.38044" lon="5.58129">
        <ele>630.40002441406</ele>
        <time>2026-08-27T09:00:24.000Z</time>
      </trkpt>
      <trkpt lat="46.38045" lon="5.58126">
        <ele>630</ele>
        <time>2026-08-27T09:00:26.000Z</time>
      </trkpt>
      <trkpt lat="46.38045" lon="5.5812">
        <ele>629.40002441406</ele>
        <time>2026-08-27T09:00:31.000Z</time>
      </trkpt>
      <trkpt lat="46.38045" lon="5.58119">
        <ele>629.40002441406</ele>
        <time>2026-08-27T09:00:32.000Z</time>
      </trkpt>
      <trkpt lat="46.38046" lon="5.58118">
        <ele>629.20001220703</ele>
        <time>2026-08-27T09:00:33.000Z</time>
      </trkpt>
      <trkpt lat="46.38046" lon="5.58116">
        <ele>629</ele>
        <time>2026-08-27T09:00:35.000Z</time>
      </trkpt>
      <trkpt lat="46.38046" lon="5.58114">
        <ele>629</ele>
        <time>2026-08-27T09:00:36.000Z</time>
      </trkpt>
      <trkpt lat="46.38046" lon="5.58106">
        <ele>628.40002441406</ele>
        <time>2026-08-27T09:00:41.000Z</time>
      </trkpt>
      <trkpt lat="46.38046" lon="5.58103">
        <ele>628.40002441406</ele>
        <time>2026-08-27T09:00:43.000Z</time>
      </trkpt>
      <trkpt lat="46.38046" lon="5.58092">
        <ele>627.40002441406</ele>
        <time>2026-08-27T09:00:51.000Z</time>
      </trkpt>
      <trkpt lat="46.38047" lon="5.58089">
        <ele>627.20001220703</ele>
        <time>2026-08-27T09:00:53.000Z</time>
      </trkpt>
      <trkpt lat="46.38044" lon="5.58081">
        <ele>626.40002441406</ele>
        <time>2026-08-27T09:01:01.000Z</time>
      </trkpt>
      <trkpt lat="46.38044" lon="5.5808">
        <ele>626.20001220703</ele>
        <time>2026-08-27T09:01:02.000Z</time>
      </trkpt>
      <trkpt lat="46.38043" lon="5.58071">
        <ele>625.20001220703</ele>
        <time>2026-08-27T09:01:08.000Z</time>
      </trkpt>
      <trkpt lat="46.38042" lon="5.58068">
        <ele>625</ele>
        <time>2026-08-27T09:01:10.000Z</time>
      </trkpt>
      <trkpt lat="46.38042" lon="5.58063">
        <ele>624.59997558594</ele>
        <time>2026-08-27T09:01:12.000Z</time>
      </trkpt>
      <trkpt lat="46.38042" lon="5.58058">
        <ele>624.40002441406</ele>
        <time>2026-08-27T09:01:15.000Z</time>
      </trkpt>
      <trkpt lat="46.38042" lon="5.58057">
        <ele>624.20001220703</ele>
        <time>2026-08-27T09:01:16.000Z</time>
      </trkpt>
      <trkpt lat="46.38042" lon="5.58049">
        <ele>623.59997558594</ele>
        <time>2026-08-27T09:01:21.000Z</time>
      </trkpt>
      <trkpt lat="46.38042" lon="5.58046">
        <ele>623.20001220703</ele>
        <time>2026-08-27T09:01:24.000Z</time>
      </trkpt>
      <trkpt lat="46.38042" lon="5.58039">
        <ele>622.79998779297</ele>
        <time>2026-08-27T09:01:29.000Z</time>
      </trkpt>
      <trkpt lat="46.38044" lon="5.58032">
        <ele>622.20001220703</ele>
        <time>2026-08-27T09:01:34.000Z</time>
      </trkpt>
      <trkpt lat="46.38045" lon="5.58029">
        <ele>621.79998779297</ele>
        <time>2026-08-27T09:01:36.000Z</time>
      </trkpt>
      <trkpt lat="46.38048" lon="5.58023">
        <ele>621</ele>
        <time>2026-08-27T09:01:40.000Z</time>
      </trkpt>
      <trkpt lat="46.3805" lon="5.5802">
        <ele>620.40002441406</ele>
        <time>2026-08-27T09:01:43.000Z</time>
      </trkpt>
      <trkpt lat="46.38052" lon="5.58018">
        <ele>619.79998779297</ele>
        <time>2026-08-27T09:01:45.000Z</time>
      </trkpt>
      <trkpt lat="46.38054" lon="5.58013">
        <ele>618.79998779297</ele>
        <time>2026-08-27T09:01:50.000Z</time>
      </trkpt>
      <trkpt lat="46.38059" lon="5.58007">
        <ele>617.79998779297</ele>
        <time>2026-08-27T09:01:56.000Z</time>
      </trkpt>
      <trkpt lat="46.3806" lon="5.58007">
        <ele>617.79998779297</ele>
        <time>2026-08-27T09:01:57.000Z</time>
      </trkpt>
      <trkpt lat="46.38061" lon="5.58007">
        <ele>617.59997558594</ele>
        <time>2026-08-27T09:01:58.000Z</time>
      </trkpt>
      <trkpt lat="46.38062" lon="5.58005">
        <ele>617.40002441406</ele>
        <time>2026-08-27T09:02:05.000Z</time>
      </trkpt>
      <trkpt lat="46.38063" lon="5.58005">
        <ele>617</ele>
        <time>2026-08-27T09:02:10.000Z</time>
      </trkpt>
      <trkpt lat="46.38064" lon="5.58005">
        <ele>617</ele>
        <time>2026-08-27T09:02:12.000Z</time>
      </trkpt>
      <trkpt lat="46.38069" lon="5.58003">
        <ele>616.59997558594</ele>
        <time>2026-08-27T09:02:17.000Z</time>
      </trkpt>
      <trkpt lat="46.3807" lon="5.58002">
        <ele>616.59997558594</ele>
        <time>2026-08-27T09:02:18.000Z</time>
      </trkpt>
      <trkpt lat="46.3808" lon="5.57995">
        <ele>616.20001220703</ele>
        <time>2026-08-27T09:02:26.000Z</time>
      </trkpt>
      <trkpt lat="46.38083" lon="5.57995">
        <ele>616.59997558594</ele>
        <time>2026-08-27T09:02:29.000Z</time>
      </trkpt>
      <trkpt lat="46.38087" lon="5.57996">
        <ele>616.59997558594</ele>
        <time>2026-08-27T09:02:33.000Z</time>
      </trkpt>
      <trkpt lat="46.38091" lon="5.57992">
        <ele>615.59997558594</ele>
        <time>2026-08-27T09:02:40.000Z</time>
      </trkpt>
      <trkpt lat="46.38092" lon="5.57991">
        <ele>615.40002441406</ele>
        <time>2026-08-27T09:02:41.000Z</time>
      </trkpt>
      <trkpt lat="46.38099" lon="5.57983">
        <ele>614.59997558594</ele>
        <time>2026-08-27T09:02:50.000Z</time>
      </trkpt>
      <trkpt lat="46.38103" lon="5.5798">
        <ele>614.20001220703</ele>
        <time>2026-08-27T09:02:56.000Z</time>
      </trkpt>
      <trkpt lat="46.38104" lon="5.57979">
        <ele>613.79998779297</ele>
        <time>2026-08-27T09:02:59.000Z</time>
      </trkpt>
      <trkpt lat="46.38106" lon="5.57978">
        <ele>613.59997558594</ele>
        <time>2026-08-27T09:03:01.000Z</time>
      </trkpt>
      <trkpt lat="46.38109" lon="5.57975">
        <ele>612.40002441406</ele>
        <time>2026-08-27T09:03:07.000Z</time>
      </trkpt>
      <trkpt lat="46.38109" lon="5.57974">
        <ele>612.20001220703</ele>
        <time>2026-08-27T09:03:08.000Z</time>
      </trkpt>
      <trkpt lat="46.3811" lon="5.5797">
        <ele>611.79998779297</ele>
        <time>2026-08-27T09:03:17.000Z</time>
      </trkpt>
      <trkpt lat="46.38111" lon="5.57968">
        <ele>611.59997558594</ele>
        <time>2026-08-27T09:03:22.000Z</time>
      </trkpt>
      <trkpt lat="46.38111" lon="5.57968">
        <ele>611.59997558594</ele>
        <time>2026-08-27T09:03:26.000Z</time>
      </trkpt>
      <trkpt lat="46.38113" lon="5.5797">
        <ele>611.59997558594</ele>
        <time>2026-08-27T09:03:39.000Z</time>
      </trkpt>
      <trkpt lat="46.38113" lon="5.57972">
        <ele>612</ele>
        <time>2026-08-27T09:03:52.000Z</time>
      </trkpt>
      <trkpt lat="46.38111" lon="5.5797">
        <ele>611.79998779297</ele>
        <time>2026-08-27T09:04:07.000Z</time>
      </trkpt>
      <trkpt lat="46.38109" lon="5.57968">
        <ele>611.79998779297</ele>
        <time>2026-08-27T09:04:19.000Z</time>
      </trkpt>
      <trkpt lat="46.38112" lon="5.57971">
        <ele>611.79998779297</ele>
        <time>2026-08-27T09:04:34.000Z</time>
      </trkpt>
      <trkpt lat="46.38114" lon="5.57963">
        <ele>611.40002441406</ele>
        <time>2026-08-27T09:04:43.000Z</time>
      </trkpt>
      <trkpt lat="46.38115" lon="5.57962">
        <ele>611.40002441406</ele>
        <time>2026-08-27T09:04:44.000Z</time>
      </trkpt>
      <trkpt lat="46.38119" lon="5.57954">
        <ele>610.20001220703</ele>
        <time>2026-08-27T09:04:49.000Z</time>
      </trkpt>
      <trkpt lat="46.38121" lon="5.57949">
        <ele>609.79998779297</ele>
        <time>2026-08-27T09:04:53.000Z</time>
      </trkpt>
      <trkpt lat="46.38124" lon="5.57944">
        <ele>609</ele>
        <time>2026-08-27T09:04:57.000Z</time>
      </trkpt>
      <trkpt lat="46.38131" lon="5.57937">
        <ele>608.20001220703</ele>
        <time>2026-08-27T09:05:03.000Z</time>
      </trkpt>
      <trkpt lat="46.38132" lon="5.57935">
        <ele>608</ele>
        <time>2026-08-27T09:05:04.000Z</time>
      </trkpt>
      <trkpt lat="46.38137" lon="5.57926">
        <ele>607.40002441406</ele>
        <time>2026-08-27T09:05:11.000Z</time>
      </trkpt>
      <trkpt lat="46.38137" lon="5.57925">
        <ele>607.40002441406</ele>
        <time>2026-08-27T09:05:12.000Z</time>
      </trkpt>
      <trkpt lat="46.3814" lon="5.5792">
        <ele>607</ele>
        <time>2026-08-27T09:05:15.000Z</time>
      </trkpt>
      <trkpt lat="46.38144" lon="5.57912">
        <ele>606.40002441406</ele>
        <time>2026-08-27T09:05:21.000Z</time>
      </trkpt>
      <trkpt lat="46.38149" lon="5.57905">
        <ele>605.79998779297</ele>
        <time>2026-08-27T09:05:27.000Z</time>
      </trkpt>
      <trkpt lat="46.3815" lon="5.57902">
        <ele>605.59997558594</ele>
        <time>2026-08-27T09:05:29.000Z</time>
      </trkpt>
      <trkpt lat="46.38154" lon="5.57895">
        <ele>604.79998779297</ele>
        <time>2026-08-27T09:05:34.000Z</time>
      </trkpt>
      <trkpt lat="46.38156" lon="5.57891">
        <ele>604.40002441406</ele>
        <time>2026-08-27T09:05:37.000Z</time>
      </trkpt>
      <trkpt lat="46.38156" lon="5.5789">
        <ele>604.20001220703</ele>
        <time>2026-08-27T09:05:38.000Z</time>
      </trkpt>
      <trkpt lat="46.38159" lon="5.57887">
        <ele>603.59997558594</ele>
        <time>2026-08-27T09:05:41.000Z</time>
      </trkpt>
      <trkpt lat="46.38164" lon="5.57877">
        <ele>602.59997558594</ele>
        <time>2026-08-27T09:05:48.000Z</time>
      </trkpt>
      <trkpt lat="46.38164" lon="5.57875">
        <ele>602.40002441406</ele>
        <time>2026-08-27T09:05:49.000Z</time>
      </trkpt>
      <trkpt lat="46.38168" lon="5.57863">
        <ele>601.40002441406</ele>
        <time>2026-08-27T09:05:57.000Z</time>
      </trkpt>
      <trkpt lat="46.38169" lon="5.5786">
        <ele>601</ele>
        <time>2026-08-27T09:05:59.000Z</time>
      </trkpt>
      <trkpt lat="46.38171" lon="5.57854">
        <ele>600.20001220703</ele>
        <time>2026-08-27T09:06:03.000Z</time>
      </trkpt>
      <trkpt lat="46.38174" lon="5.57847">
        <ele>599.59997558594</ele>
        <time>2026-08-27T09:06:08.000Z</time>
      </trkpt>
      <trkpt lat="46.38176" lon="5.57845">
        <ele>599.20001220703</ele>
        <time>2026-08-27T09:06:10.000Z</time>
      </trkpt>
      <trkpt lat="46.38179" lon="5.57834">
        <ele>598.20001220703</ele>
        <time>2026-08-27T09:06:17.000Z</time>
      </trkpt>
      <trkpt lat="46.38183" lon="5.57822">
        <ele>597</ele>
        <time>2026-08-27T09:06:25.000Z</time>
      </trkpt>
      <trkpt lat="46.38184" lon="5.57821">
        <ele>597</ele>
        <time>2026-08-27T09:06:26.000Z</time>
      </trkpt>
      <trkpt lat="46.38191" lon="5.57814">
        <ele>596.20001220703</ele>
        <time>2026-08-27T09:06:34.000Z</time>
      </trkpt>
      <trkpt lat="46.38192" lon="5.57811">
        <ele>596</ele>
        <time>2026-08-27T09:06:36.000Z</time>
      </trkpt>
      <trkpt lat="46.38196" lon="5.57801">
        <ele>595</ele>
        <time>2026-08-27T09:06:43.000Z</time>
      </trkpt>
      <trkpt lat="46.38197" lon="5.57799">
        <ele>594.79998779297</ele>
        <time>2026-08-27T09:06:45.000Z</time>
      </trkpt>
      <trkpt lat="46.38197" lon="5.5779">
        <ele>594</ele>
        <time>2026-08-27T09:06:51.000Z</time>
      </trkpt>
      <trkpt lat="46.38198" lon="5.57786">
        <ele>593.59997558594</ele>
        <time>2026-08-27T09:06:53.000Z</time>
      </trkpt>
      <trkpt lat="46.382" lon="5.5778">
        <ele>593</ele>
        <time>2026-08-27T09:06:56.000Z</time>
      </trkpt>
      <trkpt lat="46.38203" lon="5.57775">
        <ele>592.59997558594</ele>
        <time>2026-08-27T09:07:00.000Z</time>
      </trkpt>
      <trkpt lat="46.38208" lon="5.57768">
        <ele>591.79998779297</ele>
        <time>2026-08-27T09:07:05.000Z</time>
      </trkpt>
      <trkpt lat="46.38212" lon="5.57762">
        <ele>591.20001220703</ele>
        <time>2026-08-27T09:07:10.000Z</time>
      </trkpt>
      <trkpt lat="46.38214" lon="5.57759">
        <ele>590.79998779297</ele>
        <time>2026-08-27T09:07:13.000Z</time>
      </trkpt>
      <trkpt lat="46.3822" lon="5.57751">
        <ele>590.20001220703</ele>
        <time>2026-08-27T09:07:20.000Z</time>
      </trkpt>
      <trkpt lat="46.38221" lon="5.57749">
        <ele>589.79998779297</ele>
        <time>2026-08-27T09:07:22.000Z</time>
      </trkpt>
      <trkpt lat="46.38228" lon="5.57735">
        <ele>588.79998779297</ele>
        <time>2026-08-27T09:07:31.000Z</time>
      </trkpt>
      <trkpt lat="46.38229" lon="5.57734">
        <ele>588.79998779297</ele>
        <time>2026-08-27T09:07:32.000Z</time>
      </trkpt>
      <trkpt lat="46.38237" lon="5.57725">
        <ele>587.79998779297</ele>
        <time>2026-08-27T09:07:41.000Z</time>
      </trkpt>
      <trkpt lat="46.38246" lon="5.57712">
        <ele>586.79998779297</ele>
        <time>2026-08-27T09:07:50.000Z</time>
      </trkpt>
      <trkpt lat="46.38247" lon="5.5771">
        <ele>586.59997558594</ele>
        <time>2026-08-27T09:07:51.000Z</time>
      </trkpt>
      <trkpt lat="46.38251" lon="5.57702">
        <ele>585.59997558594</ele>
        <time>2026-08-27T09:07:58.000Z</time>
      </trkpt>
      <trkpt lat="46.38252" lon="5.57701">
        <ele>585.40002441406</ele>
        <time>2026-08-27T09:07:59.000Z</time>
      </trkpt>
      <trkpt lat="46.38257" lon="5.57691">
        <ele>584.40002441406</ele>
        <time>2026-08-27T09:08:05.000Z</time>
      </trkpt>
      <trkpt lat="46.38258" lon="5.57689">
        <ele>584.40002441406</ele>
        <time>2026-08-27T09:08:07.000Z</time>
      </trkpt>
      <trkpt lat="46.38264" lon="5.57681">
        <ele>583.40002441406</ele>
        <time>2026-08-27T09:08:14.000Z</time>
      </trkpt>
      <trkpt lat="46.38267" lon="5.57678">
        <ele>583</ele>
        <time>2026-08-27T09:08:17.000Z</time>
      </trkpt>
      <trkpt lat="46.38271" lon="5.57673">
        <ele>582.40002441406</ele>
        <time>2026-08-27T09:08:22.000Z</time>
      </trkpt>
      <trkpt lat="46.38276" lon="5.57665">
        <ele>581.59997558594</ele>
        <time>2026-08-27T09:08:28.000Z</time>
      </trkpt>
      <trkpt lat="46.38278" lon="5.57662">
        <ele>581.20001220703</ele>
        <time>2026-08-27T09:08:30.000Z</time>
      </trkpt>
      <trkpt lat="46.38282" lon="5.57654">
        <ele>580.40002441406</ele>
        <time>2026-08-27T09:08:35.000Z</time>
      </trkpt>
      <trkpt lat="46.38283" lon="5.57653">
        <ele>580</ele>
        <time>2026-08-27T09:08:36.000Z</time>
      </trkpt>
      <trkpt lat="46.38285" lon="5.5765">
        <ele>579.59997558594</ele>
        <time>2026-08-27T09:08:38.000Z</time>
      </trkpt>
      <trkpt lat="46.38287" lon="5.57647">
        <ele>579</ele>
        <time>2026-08-27T09:08:41.000Z</time>
      </trkpt>
      <trkpt lat="46.38291" lon="5.57642">
        <ele>578</ele>
        <time>2026-08-27T09:08:47.000Z</time>
      </trkpt>
      <trkpt lat="46.38293" lon="5.5764">
        <ele>577.40002441406</ele>
        <time>2026-08-27T09:08:49.000Z</time>
      </trkpt>
      <trkpt lat="46.38296" lon="5.57636">
        <ele>576.59997558594</ele>
        <time>2026-08-27T09:08:53.000Z</time>
      </trkpt>
      <trkpt lat="46.383" lon="5.57632">
        <ele>575.59997558594</ele>
        <time>2026-08-27T09:08:57.000Z</time>
      </trkpt>
      <trkpt lat="46.38302" lon="5.57629">
        <ele>575.20001220703</ele>
        <time>2026-08-27T09:08:59.000Z</time>
      </trkpt>
      <trkpt lat="46.38304" lon="5.57627">
        <ele>574.59997558594</ele>
        <time>2026-08-27T09:09:01.000Z</time>
      </trkpt>
      <trkpt lat="46.38309" lon="5.5762">
        <ele>573.59997558594</ele>
        <time>2026-08-27T09:09:06.000Z</time>
      </trkpt>
      <trkpt lat="46.38313" lon="5.57616">
        <ele>573.40002441406</ele>
        <time>2026-08-27T09:09:09.000Z</time>
      </trkpt>
      <trkpt lat="46.38319" lon="5.57611">
        <ele>572.40002441406</ele>
        <time>2026-08-27T09:09:15.000Z</time>
      </trkpt>
      <trkpt lat="46.38322" lon="5.57608">
        <ele>571.59997558594</ele>
        <time>2026-08-27T09:09:19.000Z</time>
      </trkpt>
      <trkpt lat="46.38323" lon="5.57606">
        <ele>571.20001220703</ele>
        <time>2026-08-27T09:09:21.000Z</time>
      </trkpt>
      <trkpt lat="46.38327" lon="5.576">
        <ele>570</ele>
        <time>2026-08-27T09:09:27.000Z</time>
      </trkpt>
      <trkpt lat="46.38329" lon="5.57595">
        <ele>569.40002441406</ele>
        <time>2026-08-27T09:09:30.000Z</time>
      </trkpt>
      <trkpt lat="46.38331" lon="5.57592">
        <ele>569</ele>
        <time>2026-08-27T09:09:33.000Z</time>
      </trkpt>
      <trkpt lat="46.38335" lon="5.57585">
        <ele>568</ele>
        <time>2026-08-27T09:09:38.000Z</time>
      </trkpt>
      <trkpt lat="46.38336" lon="5.57584">
        <ele>567.79998779297</ele>
        <time>2026-08-27T09:09:39.000Z</time>
      </trkpt>
      <trkpt lat="46.38343" lon="5.5758">
        <ele>566.59997558594</ele>
        <time>2026-08-27T09:09:45.000Z</time>
      </trkpt>
      <trkpt lat="46.38345" lon="5.57579">
        <ele>566.40002441406</ele>
        <time>2026-08-27T09:09:47.000Z</time>
      </trkpt>
      <trkpt lat="46.38348" lon="5.57576">
        <ele>565.40002441406</ele>
        <time>2026-08-27T09:09:51.000Z</time>
      </trkpt>
      <trkpt lat="46.38352" lon="5.57571">
        <ele>564.40002441406</ele>
        <time>2026-08-27T09:09:56.000Z</time>
      </trkpt>
      <trkpt lat="46.38352" lon="5.5757">
        <ele>564.20001220703</ele>
        <time>2026-08-27T09:09:57.000Z</time>
      </trkpt>
      <trkpt lat="46.38355" lon="5.57564">
        <ele>563.20001220703</ele>
        <time>2026-08-27T09:10:02.000Z</time>
      </trkpt>
      <trkpt lat="46.3836" lon="5.57559">
        <ele>562.20001220703</ele>
        <time>2026-08-27T09:10:07.000Z</time>
      </trkpt>
      <trkpt lat="46.3836" lon="5.57558">
        <ele>562</ele>
        <time>2026-08-27T09:10:08.000Z</time>
      </trkpt>
      <trkpt lat="46.38363" lon="5.57553">
        <ele>561</ele>
        <time>2026-08-27T09:10:13.000Z</time>
      </trkpt>
      <trkpt lat="46.38365" lon="5.5755">
        <ele>560.20001220703</ele>
        <time>2026-08-27T09:10:17.000Z</time>
      </trkpt>
      <trkpt lat="46.38366" lon="5.57549">
        <ele>560</ele>
        <time>2026-08-27T09:10:18.000Z</time>
      </trkpt>
      <trkpt lat="46.3837" lon="5.5754">
        <ele>559</ele>
        <time>2026-08-27T09:10:24.000Z</time>
      </trkpt>
      <trkpt lat="46.38371" lon="5.57537">
        <ele>558.79998779297</ele>
        <time>2026-08-27T09:10:26.000Z</time>
      </trkpt>
      <trkpt lat="46.38374" lon="5.5753">
        <ele>558</ele>
        <time>2026-08-27T09:10:31.000Z</time>
      </trkpt>
      <trkpt lat="46.38377" lon="5.57525">
        <ele>557.59997558594</ele>
        <time>2026-08-27T09:10:35.000Z</time>
      </trkpt>
      <trkpt lat="46.38379" lon="5.57518">
        <ele>556.79998779297</ele>
        <time>2026-08-27T09:10:39.000Z</time>
      </trkpt>
      <trkpt lat="46.38383" lon="5.57511">
        <ele>556.20001220703</ele>
        <time>2026-08-27T09:10:44.000Z</time>
      </trkpt>
      <trkpt lat="46.38384" lon="5.5751">
        <ele>556</ele>
        <time>2026-08-27T09:10:45.000Z</time>
      </trkpt>
      <trkpt lat="46.38385" lon="5.57508">
        <ele>555.79998779297</ele>
        <time>2026-08-27T09:10:47.000Z</time>
      </trkpt>
      <trkpt lat="46.3839" lon="5.57504">
        <ele>554.79998779297</ele>
        <time>2026-08-27T09:10:52.000Z</time>
      </trkpt>
      <trkpt lat="46.38392" lon="5.57502">
        <ele>554.20001220703</ele>
        <time>2026-08-27T09:10:54.000Z</time>
      </trkpt>
      <trkpt lat="46.38394" lon="5.57497">
        <ele>553.79998779297</ele>
        <time>2026-08-27T09:10:58.000Z</time>
      </trkpt>
      <trkpt lat="46.38397" lon="5.57489">
        <ele>552.79998779297</ele>
        <time>2026-08-27T09:11:04.000Z</time>
      </trkpt>
      <trkpt lat="46.38397" lon="5.57488">
        <ele>552.59997558594</ele>
        <time>2026-08-27T09:11:05.000Z</time>
      </trkpt>
      <trkpt lat="46.38397" lon="5.57486">
        <ele>552.20001220703</ele>
        <time>2026-08-27T09:11:11.000Z</time>
      </trkpt>
      <trkpt lat="46.38395" lon="5.57486">
        <ele>552.20001220703</ele>
        <time>2026-08-27T09:11:18.000Z</time>
      </trkpt>
      <trkpt lat="46.38394" lon="5.57486">
        <ele>552</ele>
        <time>2026-08-27T09:11:27.000Z</time>
      </trkpt>
      <trkpt lat="46.38395" lon="5.57486">
        <ele>552</ele>
        <time>2026-08-27T09:11:30.000Z</time>
      </trkpt>
      <trkpt lat="46.38395" lon="5.57486">
        <ele>552</ele>
        <time>2026-08-27T09:11:36.000Z</time>
      </trkpt>
      <trkpt lat="46.38395" lon="5.57486">
        <ele>552</ele>
        <time>2026-08-27T09:11:39.000Z</time>
      </trkpt>
      <trkpt lat="46.38396" lon="5.57486">
        <ele>552</ele>
        <time>2026-08-27T09:11:49.000Z</time>
      </trkpt>
      <trkpt lat="46.38395" lon="5.57488">
        <ele>551.79998779297</ele>
        <time>2026-08-27T09:11:57.000Z</time>
      </trkpt>
      <trkpt lat="46.38397" lon="5.57489">
        <ele>551.79998779297</ele>
        <time>2026-08-27T09:12:04.000Z</time>
      </trkpt>
      <trkpt lat="46.38397" lon="5.57487">
        <ele>552</ele>
        <time>2026-08-27T09:12:13.000Z</time>
      </trkpt>
      <trkpt lat="46.38397" lon="5.57487">
        <ele>551.59997558594</ele>
        <time>2026-08-27T09:12:22.000Z</time>
      </trkpt>
      <trkpt lat="46.38399" lon="5.57487">
        <ele>552</ele>
        <time>2026-08-27T09:12:31.000Z</time>
      </trkpt>
      <trkpt lat="46.384" lon="5.57486">
        <ele>551.79998779297</ele>
        <time>2026-08-27T09:12:36.000Z</time>
      </trkpt>
      <trkpt lat="46.384" lon="5.57486">
        <ele>551.79998779297</ele>
        <time>2026-08-27T09:12:37.000Z</time>
      </trkpt>
      <trkpt lat="46.384" lon="5.57486">
        <ele>551.79998779297</ele>
        <time>2026-08-27T09:12:38.000Z</time>
      </trkpt>
      <trkpt lat="46.38399" lon="5.57486">
        <ele>551.79998779297</ele>
        <time>2026-08-27T09:12:39.000Z</time>
      </trkpt>
      <trkpt lat="46.38398" lon="5.57487">
        <ele>551.59997558594</ele>
        <time>2026-08-27T09:12:46.000Z</time>
      </trkpt>
      <trkpt lat="46.38398" lon="5.57487">
        <ele>551.40002441406</ele>
        <time>2026-08-27T09:12:48.000Z</time>
      </trkpt>
      <trkpt lat="46.38395" lon="5.57486">
        <ele>551.20001220703</ele>
        <time>2026-08-27T09:12:55.000Z</time>
      </trkpt>
      <trkpt lat="46.38392" lon="5.5749">
        <ele>551.59997558594</ele>
        <time>2026-08-27T09:13:02.000Z</time>
      </trkpt>
      <trkpt lat="46.38388" lon="5.57497">
        <ele>552.20001220703</ele>
        <time>2026-08-27T09:13:10.000Z</time>
      </trkpt>
      <trkpt lat="46.38385" lon="5.57501">
        <ele>552.59997558594</ele>
        <time>2026-08-27T09:13:14.000Z</time>
      </trkpt>
      <trkpt lat="46.38381" lon="5.57507">
        <ele>553.20001220703</ele>
        <time>2026-08-27T09:13:19.000Z</time>
      </trkpt>
      <trkpt lat="46.3838" lon="5.57511">
        <ele>553.79998779297</ele>
        <time>2026-08-27T09:13:23.000Z</time>
      </trkpt>
      <trkpt lat="46.38377" lon="5.57515">
        <ele>554.20001220703</ele>
        <time>2026-08-27T09:13:26.000Z</time>
      </trkpt>
      <trkpt lat="46.38373" lon="5.57519">
        <ele>554.79998779297</ele>
        <time>2026-08-27T09:13:31.000Z</time>
      </trkpt>
      <trkpt lat="46.38369" lon="5.57523">
        <ele>555.40002441406</ele>
        <time>2026-08-27T09:13:35.000Z</time>
      </trkpt>
      <trkpt lat="46.38366" lon="5.57526">
        <ele>555.79998779297</ele>
        <time>2026-08-27T09:13:38.000Z</time>
      </trkpt>
      <trkpt lat="46.38362" lon="5.57532">
        <ele>556.59997558594</ele>
        <time>2026-08-27T09:13:43.000Z</time>
      </trkpt>
      <trkpt lat="46.3836" lon="5.57535">
        <ele>557</ele>
        <time>2026-08-27T09:13:46.000Z</time>
      </trkpt>
      <trkpt lat="46.38355" lon="5.5754">
        <ele>557.79998779297</ele>
        <time>2026-08-27T09:13:52.000Z</time>
      </trkpt>
      <trkpt lat="46.38352" lon="5.57543">
        <ele>558</ele>
        <time>2026-08-27T09:13:54.000Z</time>
      </trkpt>
      <trkpt lat="46.38345" lon="5.57553">
        <ele>559</ele>
        <time>2026-08-27T09:14:02.000Z</time>
      </trkpt>
      <trkpt lat="46.38341" lon="5.57556">
        <ele>559.40002441406</ele>
        <time>2026-08-27T09:14:06.000Z</time>
      </trkpt>
      <trkpt lat="46.38336" lon="5.57561">
        <ele>560</ele>
        <time>2026-08-27T09:14:10.000Z</time>
      </trkpt>
      <trkpt lat="46.38328" lon="5.5757">
        <ele>561</ele>
        <time>2026-08-27T09:14:18.000Z</time>
      </trkpt>
      <trkpt lat="46.38327" lon="5.57572">
        <ele>561.20001220703</ele>
        <time>2026-08-27T09:14:19.000Z</time>
      </trkpt>
      <trkpt lat="46.38325" lon="5.57574">
        <ele>561.40002441406</ele>
        <time>2026-08-27T09:14:21.000Z</time>
      </trkpt>
      <trkpt lat="46.38319" lon="5.57579">
        <ele>562.20001220703</ele>
        <time>2026-08-27T09:14:26.000Z</time>
      </trkpt>
      <trkpt lat="46.38315" lon="5.57583">
        <ele>562.59997558594</ele>
        <time>2026-08-27T09:14:31.000Z</time>
      </trkpt>
      <trkpt lat="46.38311" lon="5.57587">
        <ele>563.20001220703</ele>
        <time>2026-08-27T09:14:35.000Z</time>
      </trkpt>
      <trkpt lat="46.38305" lon="5.57592">
        <ele>564</ele>
        <time>2026-08-27T09:14:41.000Z</time>
      </trkpt>
      <trkpt lat="46.38304" lon="5.57593">
        <ele>564.20001220703</ele>
        <time>2026-08-27T09:14:42.000Z</time>
      </trkpt>
      <trkpt lat="46.38294" lon="5.57598">
        <ele>565.40002441406</ele>
        <time>2026-08-27T09:14:51.000Z</time>
      </trkpt>
      <trkpt lat="46.38293" lon="5.57599">
        <ele>565.40002441406</ele>
        <time>2026-08-27T09:14:52.000Z</time>
      </trkpt>
      <trkpt lat="46.38283" lon="5.57602">
        <ele>566</ele>
        <time>2026-08-27T09:15:00.000Z</time>
      </trkpt>
      <trkpt lat="46.38277" lon="5.57599">
        <ele>564.59997558594</ele>
        <time>2026-08-27T09:15:08.000Z</time>
      </trkpt>
      <trkpt lat="46.38275" lon="5.57598">
        <ele>564.20001220703</ele>
        <time>2026-08-27T09:15:09.000Z</time>
      </trkpt>
      <trkpt lat="46.38272" lon="5.57595">
        <ele>563.59997558594</ele>
        <time>2026-08-27T09:15:11.000Z</time>
      </trkpt>
      <trkpt lat="46.3827" lon="5.57593">
        <ele>563</ele>
        <time>2026-08-27T09:15:13.000Z</time>
      </trkpt>
      <trkpt lat="46.38269" lon="5.57593">
        <ele>562.79998779297</ele>
        <time>2026-08-27T09:15:14.000Z</time>
      </trkpt>
      <trkpt lat="46.38268" lon="5.57592">
        <ele>562.59997558594</ele>
        <time>2026-08-27T09:15:15.000Z</time>
      </trkpt>
      <trkpt lat="46.38267" lon="5.57591">
        <ele>562.40002441406</ele>
        <time>2026-08-27T09:15:16.000Z</time>
      </trkpt>
      <trkpt lat="46.38265" lon="5.57589">
        <ele>562</ele>
        <time>2026-08-27T09:15:18.000Z</time>
      </trkpt>
      <trkpt lat="46.38262" lon="5.57585">
        <ele>561.40002441406</ele>
        <time>2026-08-27T09:15:22.000Z</time>
      </trkpt>
      <trkpt lat="46.38258" lon="5.57581">
        <ele>561</ele>
        <time>2026-08-27T09:15:25.000Z</time>
      </trkpt>
      <trkpt lat="46.38254" lon="5.57577">
        <ele>560</ele>
        <time>2026-08-27T09:15:30.000Z</time>
      </trkpt>
      <trkpt lat="46.38251" lon="5.57576">
        <ele>559.79998779297</ele>
        <time>2026-08-27T09:15:31.000Z</time>
      </trkpt>
      <trkpt lat="46.38244" lon="5.57573">
        <ele>559.20001220703</ele>
        <time>2026-08-27T09:15:38.000Z</time>
      </trkpt>
      <trkpt lat="46.38239" lon="5.5757">
        <ele>558.79998779297</ele>
        <time>2026-08-27T09:15:42.000Z</time>
      </trkpt>
      <trkpt lat="46.38232" lon="5.57567">
        <ele>558</ele>
        <time>2026-08-27T09:15:48.000Z</time>
      </trkpt>
      <trkpt lat="46.38231" lon="5.57567">
        <ele>557.79998779297</ele>
        <time>2026-08-27T09:15:49.000Z</time>
      </trkpt>
      <trkpt lat="46.38224" lon="5.5757">
        <ele>557.59997558594</ele>
        <time>2026-08-27T09:15:55.000Z</time>
      </trkpt>
      <trkpt lat="46.38224" lon="5.5757">
        <ele>557.59997558594</ele>
        <time>2026-08-27T09:15:56.000Z</time>
      </trkpt>
      <trkpt lat="46.38211" lon="5.57576">
        <ele>557.59997558594</ele>
        <time>2026-08-27T09:16:05.000Z</time>
      </trkpt>
      <trkpt lat="46.38204" lon="5.5758">
        <ele>557.20001220703</ele>
        <time>2026-08-27T09:16:12.000Z</time>
      </trkpt>
      <trkpt lat="46.38197" lon="5.57588">
        <ele>557.20001220703</ele>
        <time>2026-08-27T09:16:20.000Z</time>
      </trkpt>
      <trkpt lat="46.38196" lon="5.57589">
        <ele>557.20001220703</ele>
        <time>2026-08-27T09:16:22.000Z</time>
      </trkpt>
      <trkpt lat="46.38192" lon="5.57592">
        <ele>557</ele>
        <time>2026-08-27T09:16:25.000Z</time>
      </trkpt>
      <trkpt lat="46.38186" lon="5.57598">
        <ele>557.20001220703</ele>
        <time>2026-08-27T09:16:31.000Z</time>
      </trkpt>
      <trkpt lat="46.38177" lon="5.57605">
        <ele>558.20001220703</ele>
        <time>2026-08-27T09:16:39.000Z</time>
      </trkpt>
      <trkpt lat="46.38165" lon="5.5761">
        <ele>558.40002441406</ele>
        <time>2026-08-27T09:16:48.000Z</time>
      </trkpt>
      <trkpt lat="46.38152" lon="5.57614">
        <ele>557.79998779297</ele>
        <time>2026-08-27T09:16:58.000Z</time>
      </trkpt>
      <trkpt lat="46.38143" lon="5.57618">
        <ele>557.79998779297</ele>
        <time>2026-08-27T09:17:07.000Z</time>
      </trkpt>
      <trkpt lat="46.38129" lon="5.57623">
        <ele>558.40002441406</ele>
        <time>2026-08-27T09:17:18.000Z</time>
      </trkpt>
      <trkpt lat="46.38122" lon="5.57623">
        <ele>558.59997558594</ele>
        <time>2026-08-27T09:17:23.000Z</time>
      </trkpt>
      <trkpt lat="46.38119" lon="5.57622">
        <ele>558.79998779297</ele>
        <time>2026-08-27T09:17:25.000Z</time>
      </trkpt>
      <trkpt lat="46.38115" lon="5.57621">
        <ele>558.79998779297</ele>
        <time>2026-08-27T09:17:28.000Z</time>
      </trkpt>
      <trkpt lat="46.38102" lon="5.57618">
        <ele>559</ele>
        <time>2026-08-27T09:17:37.000Z</time>
      </trkpt>
      <trkpt lat="46.38091" lon="5.57612">
        <ele>558.79998779297</ele>
        <time>2026-08-27T09:17:46.000Z</time>
      </trkpt>
      <trkpt lat="46.38081" lon="5.57613">
        <ele>558.79998779297</ele>
        <time>2026-08-27T09:17:55.000Z</time>
      </trkpt>
      <trkpt lat="46.38069" lon="5.57619">
        <ele>559.40002441406</ele>
        <time>2026-08-27T09:18:04.000Z</time>
      </trkpt>
      <trkpt lat="46.38056" lon="5.57621">
        <ele>559</ele>
        <time>2026-08-27T09:18:14.000Z</time>
      </trkpt>
      <trkpt lat="46.38044" lon="5.57621">
        <ele>558.59997558594</ele>
        <time>2026-08-27T09:18:23.000Z</time>
      </trkpt>
      <trkpt lat="46.38029" lon="5.5762">
        <ele>559.20001220703</ele>
        <time>2026-08-27T09:18:35.000Z</time>
      </trkpt>
      <trkpt lat="46.38023" lon="5.57616">
        <ele>559.40002441406</ele>
        <time>2026-08-27T09:18:40.000Z</time>
      </trkpt>
      <trkpt lat="46.38021" lon="5.57613">
        <ele>559.59997558594</ele>
        <time>2026-08-27T09:18:43.000Z</time>
      </trkpt>
      <trkpt lat="46.38012" lon="5.57603">
        <ele>559.40002441406</ele>
        <time>2026-08-27T09:18:52.000Z</time>
      </trkpt>
      <trkpt lat="46.38008" lon="5.57596">
        <ele>559</ele>
        <time>2026-08-27T09:18:57.000Z</time>
      </trkpt>
      <trkpt lat="46.38005" lon="5.57589">
        <ele>558.59997558594</ele>
        <time>2026-08-27T09:19:01.000Z</time>
      </trkpt>
      <trkpt lat="46.38002" lon="5.57581">
        <ele>557.59997558594</ele>
        <time>2026-08-27T09:19:06.000Z</time>
      </trkpt>
      <trkpt lat="46.38001" lon="5.57575">
        <ele>557</ele>
        <time>2026-08-27T09:19:09.000Z</time>
      </trkpt>
      <trkpt lat="46.38001" lon="5.57573">
        <ele>556.79998779297</ele>
        <time>2026-08-27T09:19:10.000Z</time>
      </trkpt>
      <trkpt lat="46.38001" lon="5.57571">
        <ele>556.59997558594</ele>
        <time>2026-08-27T09:19:11.000Z</time>
      </trkpt>
      <trkpt lat="46.38" lon="5.57566">
        <ele>555.59997558594</ele>
        <time>2026-08-27T09:19:18.000Z</time>
      </trkpt>
      <trkpt lat="46.38" lon="5.57565">
        <ele>555.40002441406</ele>
        <time>2026-08-27T09:19:19.000Z</time>
      </trkpt>
      <trkpt lat="46.37999" lon="5.5756">
        <ele>554.40002441406</ele>
        <time>2026-08-27T09:19:23.000Z</time>
      </trkpt>
      <trkpt lat="46.37999" lon="5.57558">
        <ele>554.20001220703</ele>
        <time>2026-08-27T09:19:24.000Z</time>
      </trkpt>
      <trkpt lat="46.37997" lon="5.57553">
        <ele>553.40002441406</ele>
        <time>2026-08-27T09:19:28.000Z</time>
      </trkpt>
      <trkpt lat="46.37997" lon="5.57552">
        <ele>553.20001220703</ele>
        <time>2026-08-27T09:19:29.000Z</time>
      </trkpt>
      <trkpt lat="46.37993" lon="5.57544">
        <ele>552</ele>
        <time>2026-08-27T09:19:35.000Z</time>
      </trkpt>
      <trkpt lat="46.37991" lon="5.57542">
        <ele>551.59997558594</ele>
        <time>2026-08-27T09:19:37.000Z</time>
      </trkpt>
      <trkpt lat="46.37987" lon="5.57534">
        <ele>550.79998779297</ele>
        <time>2026-08-27T09:19:42.000Z</time>
      </trkpt>
      <trkpt lat="46.37986" lon="5.57528">
        <ele>549.59997558594</ele>
        <time>2026-08-27T09:19:46.000Z</time>
      </trkpt>
      <trkpt lat="46.37985" lon="5.57521">
        <ele>548.40002441406</ele>
        <time>2026-08-27T09:19:50.000Z</time>
      </trkpt>
      <trkpt lat="46.37986" lon="5.57514">
        <ele>547.20001220703</ele>
        <time>2026-08-27T09:19:54.000Z</time>
      </trkpt>
      <trkpt lat="46.37986" lon="5.57512">
        <ele>546.79998779297</ele>
        <time>2026-08-27T09:19:55.000Z</time>
      </trkpt>
      <trkpt lat="46.37986" lon="5.57507">
        <ele>546</ele>
        <time>2026-08-27T09:19:58.000Z</time>
      </trkpt>
      <trkpt lat="46.37986" lon="5.575">
        <ele>544.79998779297</ele>
        <time>2026-08-27T09:20:02.000Z</time>
      </trkpt>
      <trkpt lat="46.37985" lon="5.57494">
        <ele>543.79998779297</ele>
        <time>2026-08-27T09:20:06.000Z</time>
      </trkpt>
      <trkpt lat="46.37985" lon="5.57493">
        <ele>543.59997558594</ele>
        <time>2026-08-27T09:20:07.000Z</time>
      </trkpt>
      <trkpt lat="46.37985" lon="5.57487">
        <ele>542.40002441406</ele>
        <time>2026-08-27T09:20:11.000Z</time>
      </trkpt>
      <trkpt lat="46.37984" lon="5.57483">
        <ele>541.59997558594</ele>
        <time>2026-08-27T09:20:14.000Z</time>
      </trkpt>
      <trkpt lat="46.37984" lon="5.57482">
        <ele>541.40002441406</ele>
        <time>2026-08-27T09:20:15.000Z</time>
      </trkpt>
      <trkpt lat="46.37982" lon="5.57476">
        <ele>540.40002441406</ele>
        <time>2026-08-27T09:20:19.000Z</time>
      </trkpt>
      <trkpt lat="46.37977" lon="5.57469">
        <ele>539.79998779297</ele>
        <time>2026-08-27T09:20:25.000Z</time>
      </trkpt>
      <trkpt lat="46.37967" lon="5.57461">
        <ele>539.20001220703</ele>
        <time>2026-08-27T09:20:33.000Z</time>
      </trkpt>
      <trkpt lat="46.37965" lon="5.57457">
        <ele>538.59997558594</ele>
        <time>2026-08-27T09:20:36.000Z</time>
      </trkpt>
      <trkpt lat="46.37964" lon="5.57454">
        <ele>538.20001220703</ele>
        <time>2026-08-27T09:20:38.000Z</time>
      </trkpt>
      <trkpt lat="46.37964" lon="5.57448">
        <ele>537</ele>
        <time>2026-08-27T09:20:42.000Z</time>
      </trkpt>
      <trkpt lat="46.37965" lon="5.57441">
        <ele>536.40002441406</ele>
        <time>2026-08-27T09:20:45.000Z</time>
      </trkpt>
      <trkpt lat="46.37965" lon="5.57437">
        <ele>536</ele>
        <time>2026-08-27T09:20:47.000Z</time>
      </trkpt>
      <trkpt lat="46.37965" lon="5.57429">
        <ele>534.79998779297</ele>
        <time>2026-08-27T09:20:53.000Z</time>
      </trkpt>
      <trkpt lat="46.37965" lon="5.57425">
        <ele>534.40002441406</ele>
        <time>2026-08-27T09:20:55.000Z</time>
      </trkpt>
      <trkpt lat="46.37965" lon="5.57419">
        <ele>533.59997558594</ele>
        <time>2026-08-27T09:20:58.000Z</time>
      </trkpt>
      <trkpt lat="46.37965" lon="5.57409">
        <ele>532.79998779297</ele>
        <time>2026-08-27T09:21:03.000Z</time>
      </trkpt>
      <trkpt lat="46.37964" lon="5.57407">
        <ele>532.59997558594</ele>
        <time>2026-08-27T09:21:04.000Z</time>
      </trkpt>
      <trkpt lat="46.37965" lon="5.57398">
        <ele>531.40002441406</ele>
        <time>2026-08-27T09:21:09.000Z</time>
      </trkpt>
      <trkpt lat="46.37966" lon="5.57394">
        <ele>531</ele>
        <time>2026-08-27T09:21:11.000Z</time>
      </trkpt>
      <trkpt lat="46.37968" lon="5.57385">
        <ele>530.20001220703</ele>
        <time>2026-08-27T09:21:16.000Z</time>
      </trkpt>
      <trkpt lat="46.3797" lon="5.57375">
        <ele>529.40002441406</ele>
        <time>2026-08-27T09:21:22.000Z</time>
      </trkpt>
      <trkpt lat="46.3797" lon="5.57373">
        <ele>529.20001220703</ele>
        <time>2026-08-27T09:21:23.000Z</time>
      </trkpt>
      <trkpt lat="46.37971" lon="5.5736">
        <ele>528</ele>
        <time>2026-08-27T09:21:30.000Z</time>
      </trkpt>
      <trkpt lat="46.37972" lon="5.57357">
        <ele>527.79998779297</ele>
        <time>2026-08-27T09:21:32.000Z</time>
      </trkpt>
      <trkpt lat="46.37973" lon="5.57346">
        <ele>527</ele>
        <time>2026-08-27T09:21:38.000Z</time>
      </trkpt>
      <trkpt lat="46.37973" lon="5.57337">
        <ele>526.40002441406</ele>
        <time>2026-08-27T09:21:42.000Z</time>
      </trkpt>
      <trkpt lat="46.37973" lon="5.57331">
        <ele>526</ele>
        <time>2026-08-27T09:21:45.000Z</time>
      </trkpt>
      <trkpt lat="46.37973" lon="5.57317">
        <ele>524.79998779297</ele>
        <time>2026-08-27T09:21:53.000Z</time>
      </trkpt>
      <trkpt lat="46.37972" lon="5.57303">
        <ele>523.59997558594</ele>
        <time>2026-08-27T09:22:00.000Z</time>
      </trkpt>
      <trkpt lat="46.37971" lon="5.57298">
        <ele>523.20001220703</ele>
        <time>2026-08-27T09:22:03.000Z</time>
      </trkpt>
      <trkpt lat="46.37969" lon="5.5729">
        <ele>522.59997558594</ele>
        <time>2026-08-27T09:22:07.000Z</time>
      </trkpt>
      <trkpt lat="46.37968" lon="5.57282">
        <ele>521.79998779297</ele>
        <time>2026-08-27T09:22:12.000Z</time>
      </trkpt>
      <trkpt lat="46.37966" lon="5.57277">
        <ele>521.40002441406</ele>
        <time>2026-08-27T09:22:15.000Z</time>
      </trkpt>
      <trkpt lat="46.3796" lon="5.57265">
        <ele>520.79998779297</ele>
        <time>2026-08-27T09:22:23.000Z</time>
      </trkpt>
      <trkpt lat="46.37957" lon="5.57258">
        <ele>520.40002441406</ele>
        <time>2026-08-27T09:22:27.000Z</time>
      </trkpt>
      <trkpt lat="46.37952" lon="5.57249">
        <ele>519.59997558594</ele>
        <time>2026-08-27T09:22:33.000Z</time>
      </trkpt>
      <trkpt lat="46.3795" lon="5.57245">
        <ele>519.40002441406</ele>
        <time>2026-08-27T09:22:35.000Z</time>
      </trkpt>
      <trkpt lat="46.37948" lon="5.57232">
        <ele>519.20001220703</ele>
        <time>2026-08-27T09:22:41.000Z</time>
      </trkpt>
      <trkpt lat="46.37951" lon="5.57213">
        <ele>518.40002441406</ele>
        <time>2026-08-27T09:22:51.000Z</time>
      </trkpt>
      <trkpt lat="46.37952" lon="5.57207">
        <ele>518.20001220703</ele>
        <time>2026-08-27T09:22:54.000Z</time>
      </trkpt>
      <trkpt lat="46.37955" lon="5.57194">
        <ele>517.59997558594</ele>
        <time>2026-08-27T09:23:01.000Z</time>
      </trkpt>
      <trkpt lat="46.37957" lon="5.57185">
        <ele>517.20001220703</ele>
        <time>2026-08-27T09:23:06.000Z</time>
      </trkpt>
      <trkpt lat="46.37959" lon="5.57174">
        <ele>516.79998779297</ele>
        <time>2026-08-27T09:23:12.000Z</time>
      </trkpt>
      <trkpt lat="46.37961" lon="5.57164">
        <ele>516.20001220703</ele>
        <time>2026-08-27T09:23:17.000Z</time>
      </trkpt>
      <trkpt lat="46.37963" lon="5.57155">
        <ele>516</ele>
        <time>2026-08-27T09:23:22.000Z</time>
      </trkpt>
      <trkpt lat="46.37966" lon="5.57137">
        <ele>515.20001220703</ele>
        <time>2026-08-27T09:23:31.000Z</time>
      </trkpt>
      <trkpt lat="46.37968" lon="5.57132">
        <ele>515</ele>
        <time>2026-08-27T09:23:34.000Z</time>
      </trkpt>
      <trkpt lat="46.37971" lon="5.57121">
        <ele>514.40002441406</ele>
        <time>2026-08-27T09:23:40.000Z</time>
      </trkpt>
      <trkpt lat="46.37973" lon="5.57113">
        <ele>514.40002441406</ele>
        <time>2026-08-27T09:23:45.000Z</time>
      </trkpt>
      <trkpt lat="46.37974" lon="5.5711">
        <ele>514.20001220703</ele>
        <time>2026-08-27T09:23:47.000Z</time>
      </trkpt>
      <trkpt lat="46.3798" lon="5.57095">
        <ele>513</ele>
        <time>2026-08-27T09:23:56.000Z</time>
      </trkpt>
      <trkpt lat="46.37981" lon="5.57089">
        <ele>512.79998779297</ele>
        <time>2026-08-27T09:23:59.000Z</time>
      </trkpt>
      <trkpt lat="46.37988" lon="5.57073">
        <ele>512.20001220703</ele>
        <time>2026-08-27T09:24:08.000Z</time>
      </trkpt>
      <trkpt lat="46.37989" lon="5.57071">
        <ele>512</ele>
        <time>2026-08-27T09:24:09.000Z</time>
      </trkpt>
      <trkpt lat="46.37996" lon="5.57063">
        <ele>511.39999389648</ele>
        <time>2026-08-27T09:24:16.000Z</time>
      </trkpt>
      <trkpt lat="46.38004" lon="5.57056">
        <ele>511</ele>
        <time>2026-08-27T09:24:23.000Z</time>
      </trkpt>
      <trkpt lat="46.38009" lon="5.5705">
        <ele>510.39999389648</ele>
        <time>2026-08-27T09:24:28.000Z</time>
      </trkpt>
      <trkpt lat="46.38012" lon="5.57046">
        <ele>509.79998779297</ele>
        <time>2026-08-27T09:24:31.000Z</time>
      </trkpt>
      <trkpt lat="46.38018" lon="5.57038">
        <ele>508.79998779297</ele>
        <time>2026-08-27T09:24:38.000Z</time>
      </trkpt>
      <trkpt lat="46.38023" lon="5.57028">
        <ele>507.60000610352</ele>
        <time>2026-08-27T09:24:45.000Z</time>
      </trkpt>
      <trkpt lat="46.38025" lon="5.57023">
        <ele>507</ele>
        <time>2026-08-27T09:24:48.000Z</time>
      </trkpt>
      <trkpt lat="46.38027" lon="5.5702">
        <ele>506.60000610352</ele>
        <time>2026-08-27T09:24:50.000Z</time>
      </trkpt>
      <trkpt lat="46.3803" lon="5.5701">
        <ele>505.39999389648</ele>
        <time>2026-08-27T09:24:56.000Z</time>
      </trkpt>
      <trkpt lat="46.38031" lon="5.57006">
        <ele>505</ele>
        <time>2026-08-27T09:24:59.000Z</time>
      </trkpt>
      <trkpt lat="46.38033" lon="5.57">
        <ele>504.20001220703</ele>
        <time>2026-08-27T09:25:03.000Z</time>
      </trkpt>
      <trkpt lat="46.38034" lon="5.5699">
        <ele>503.20001220703</ele>
        <time>2026-08-27T09:25:08.000Z</time>
      </trkpt>
      <trkpt lat="46.38033" lon="5.56985">
        <ele>502.60000610352</ele>
        <time>2026-08-27T09:25:11.000Z</time>
      </trkpt>
      <trkpt lat="46.38033" lon="5.56981">
        <ele>502.20001220703</ele>
        <time>2026-08-27T09:25:13.000Z</time>
      </trkpt>
      <trkpt lat="46.3803" lon="5.56975">
        <ele>501.39999389648</ele>
        <time>2026-08-27T09:25:18.000Z</time>
      </trkpt>
      <trkpt lat="46.38029" lon="5.56972">
        <ele>501</ele>
        <time>2026-08-27T09:25:20.000Z</time>
      </trkpt>
      <trkpt lat="46.38028" lon="5.56971">
        <ele>500.79998779297</ele>
        <time>2026-08-27T09:25:21.000Z</time>
      </trkpt>
      <trkpt lat="46.38023" lon="5.56965">
        <ele>500</ele>
        <time>2026-08-27T09:25:26.000Z</time>
      </trkpt>
      <trkpt lat="46.3802" lon="5.56961">
        <ele>499.39999389648</ele>
        <time>2026-08-27T09:25:29.000Z</time>
      </trkpt>
      <trkpt lat="46.38018" lon="5.56958">
        <ele>498.79998779297</ele>
        <time>2026-08-27T09:25:32.000Z</time>
      </trkpt>
      <trkpt lat="46.38013" lon="5.56953">
        <ele>498</ele>
        <time>2026-08-27T09:25:37.000Z</time>
      </trkpt>
      <trkpt lat="46.38012" lon="5.56951">
        <ele>497.79998779297</ele>
        <time>2026-08-27T09:25:38.000Z</time>
      </trkpt>
      <trkpt lat="46.38007" lon="5.56945">
        <ele>497</ele>
        <time>2026-08-27T09:25:44.000Z</time>
      </trkpt>
      <trkpt lat="46.38005" lon="5.56943">
        <ele>496.79998779297</ele>
        <time>2026-08-27T09:25:46.000Z</time>
      </trkpt>
      <trkpt lat="46.37996" lon="5.56937">
        <ele>495.79998779297</ele>
        <time>2026-08-27T09:25:54.000Z</time>
      </trkpt>
      <trkpt lat="46.37987" lon="5.56934">
        <ele>494.79998779297</ele>
        <time>2026-08-27T09:26:01.000Z</time>
      </trkpt>
      <trkpt lat="46.37984" lon="5.56934">
        <ele>494.39999389648</ele>
        <time>2026-08-27T09:26:03.000Z</time>
      </trkpt>
      <trkpt lat="46.37976" lon="5.56934">
        <ele>493.60000610352</ele>
        <time>2026-08-27T09:26:09.000Z</time>
      </trkpt>
      <trkpt lat="46.37971" lon="5.56934">
        <ele>493</ele>
        <time>2026-08-27T09:26:13.000Z</time>
      </trkpt>
      <trkpt lat="46.3797" lon="5.56934">
        <ele>493</ele>
        <time>2026-08-27T09:26:14.000Z</time>
      </trkpt>
      <trkpt lat="46.37966" lon="5.56934">
        <ele>492.60000610352</ele>
        <time>2026-08-27T09:26:18.000Z</time>
      </trkpt>
      <trkpt lat="46.37957" lon="5.56932">
        <ele>491.60000610352</ele>
        <time>2026-08-27T09:26:25.000Z</time>
      </trkpt>
      <trkpt lat="46.37957" lon="5.56932">
        <ele>491.39999389648</ele>
        <time>2026-08-27T09:26:26.000Z</time>
      </trkpt>
      <trkpt lat="46.3795" lon="5.56934">
        <ele>491.20001220703</ele>
        <time>2026-08-27T09:26:33.000Z</time>
      </trkpt>
      <trkpt lat="46.37938" lon="5.56925">
        <ele>490.60000610352</ele>
        <time>2026-08-27T09:26:43.000Z</time>
      </trkpt>
      <trkpt lat="46.37935" lon="5.56919">
        <ele>490.39999389648</ele>
        <time>2026-08-27T09:26:47.000Z</time>
      </trkpt>
      <trkpt lat="46.37932" lon="5.56912">
        <ele>490.20001220703</ele>
        <time>2026-08-27T09:26:52.000Z</time>
      </trkpt>
      <trkpt lat="46.37931" lon="5.56897">
        <ele>489.60000610352</ele>
        <time>2026-08-27T09:27:00.000Z</time>
      </trkpt>
      <trkpt lat="46.37932" lon="5.56893">
        <ele>489.39999389648</ele>
        <time>2026-08-27T09:27:02.000Z</time>
      </trkpt>
      <trkpt lat="46.37934" lon="5.56879">
        <ele>488.39999389648</ele>
        <time>2026-08-27T09:27:11.000Z</time>
      </trkpt>
      <trkpt lat="46.37934" lon="5.56877">
        <ele>488.39999389648</ele>
        <time>2026-08-27T09:27:12.000Z</time>
      </trkpt>
      <trkpt lat="46.37936" lon="5.56861">
        <ele>487.60000610352</ele>
        <time>2026-08-27T09:27:21.000Z</time>
      </trkpt>
      <trkpt lat="46.37937" lon="5.56856">
        <ele>487.20001220703</ele>
        <time>2026-08-27T09:27:24.000Z</time>
      </trkpt>
      <trkpt lat="46.37936" lon="5.56844">
        <ele>486.39999389648</ele>
        <time>2026-08-27T09:27:31.000Z</time>
      </trkpt>
      <trkpt lat="46.37935" lon="5.56839">
        <ele>486.20001220703</ele>
        <time>2026-08-27T09:27:34.000Z</time>
      </trkpt>
      <trkpt lat="46.37935" lon="5.56828">
        <ele>485.20001220703</ele>
        <time>2026-08-27T09:27:41.000Z</time>
      </trkpt>
      <trkpt lat="46.37935" lon="5.56831">
        <ele>485.39999389648</ele>
        <time>2026-08-27T09:27:50.000Z</time>
      </trkpt>
      <trkpt lat="46.37934" lon="5.56834">
        <ele>485.39999389648</ele>
        <time>2026-08-27T09:27:55.000Z</time>
      </trkpt>
      <trkpt lat="46.37934" lon="5.56831">
        <ele>485.20001220703</ele>
        <time>2026-08-27T09:28:01.000Z</time>
      </trkpt>
      <trkpt lat="46.37934" lon="5.56829">
        <ele>485</ele>
        <time>2026-08-27T09:28:03.000Z</time>
      </trkpt>
      <trkpt lat="46.37932" lon="5.56821">
        <ele>484.60000610352</ele>
        <time>2026-08-27T09:28:08.000Z</time>
      </trkpt>
      <trkpt lat="46.37929" lon="5.56811">
        <ele>484</ele>
        <time>2026-08-27T09:28:14.000Z</time>
      </trkpt>
      <trkpt lat="46.37927" lon="5.56807">
        <ele>483.60000610352</ele>
        <time>2026-08-27T09:28:17.000Z</time>
      </trkpt>
      <trkpt lat="46.37923" lon="5.56804">
        <ele>483</ele>
        <time>2026-08-27T09:28:25.000Z</time>
      </trkpt>
      <trkpt lat="46.37921" lon="5.56803">
        <ele>482.79998779297</ele>
        <time>2026-08-27T09:28:27.000Z</time>
      </trkpt>
      <trkpt lat="46.37915" lon="5.568">
        <ele>482.60000610352</ele>
        <time>2026-08-27T09:28:35.000Z</time>
      </trkpt>
      <trkpt lat="46.37911" lon="5.56796">
        <ele>482.60000610352</ele>
        <time>2026-08-27T09:28:41.000Z</time>
      </trkpt>
      <trkpt lat="46.37908" lon="5.56794">
        <ele>482.39999389648</ele>
        <time>2026-08-27T09:28:44.000Z</time>
      </trkpt>
      <trkpt lat="46.37903" lon="5.56793">
        <ele>482.39999389648</ele>
        <time>2026-08-27T09:28:52.000Z</time>
      </trkpt>
      <trkpt lat="46.37899" lon="5.56792">
        <ele>481.79998779297</ele>
        <time>2026-08-27T09:28:56.000Z</time>
      </trkpt>
      <trkpt lat="46.37895" lon="5.56789">
        <ele>481.60000610352</ele>
        <time>2026-08-27T09:29:00.000Z</time>
      </trkpt>
      <trkpt lat="46.37893" lon="5.56788">
        <ele>481.20001220703</ele>
        <time>2026-08-27T09:29:06.000Z</time>
      </trkpt>
      <trkpt lat="46.37892" lon="5.56788">
        <ele>481</ele>
        <time>2026-08-27T09:29:18.000Z</time>
      </trkpt>
      <trkpt lat="46.37892" lon="5.56785">
        <ele>480.79998779297</ele>
        <time>2026-08-27T09:29:31.000Z</time>
      </trkpt>
      <trkpt lat="46.37888" lon="5.56784">
        <ele>480.39999389648</ele>
        <time>2026-08-27T09:29:38.000Z</time>
      </trkpt>
      <trkpt lat="46.3788" lon="5.5678">
        <ele>479.79998779297</ele>
        <time>2026-08-27T09:29:45.000Z</time>
      </trkpt>
      <trkpt lat="46.37877" lon="5.56779">
        <ele>479.60000610352</ele>
        <time>2026-08-27T09:29:48.000Z</time>
      </trkpt>
      <trkpt lat="46.37868" lon="5.56775">
        <ele>478.79998779297</ele>
        <time>2026-08-27T09:29:57.000Z</time>
      </trkpt>
      <trkpt lat="46.37867" lon="5.56775">
        <ele>478.60000610352</ele>
        <time>2026-08-27T09:29:58.000Z</time>
      </trkpt>
      <trkpt lat="46.37856" lon="5.5677">
        <ele>477.79998779297</ele>
        <time>2026-08-27T09:30:07.000Z</time>
      </trkpt>
      <trkpt lat="46.37856" lon="5.56769">
        <ele>477.60000610352</ele>
        <time>2026-08-27T09:30:08.000Z</time>
      </trkpt>
      <trkpt lat="46.37854" lon="5.56764">
        <ele>477.60000610352</ele>
        <time>2026-08-27T09:30:14.000Z</time>
      </trkpt>
      <trkpt lat="46.37857" lon="5.56765">
        <ele>477.39999389648</ele>
        <time>2026-08-27T09:30:23.000Z</time>
      </trkpt>
      <trkpt lat="46.37855" lon="5.56766">
        <ele>477.39999389648</ele>
        <time>2026-08-27T09:30:28.000Z</time>
      </trkpt>
      <trkpt lat="46.37855" lon="5.56767">
        <ele>477.39999389648</ele>
        <time>2026-08-27T09:30:29.000Z</time>
      </trkpt>
      <trkpt lat="46.37855" lon="5.56767">
        <ele>477.39999389648</ele>
        <time>2026-08-27T09:30:30.000Z</time>
      </trkpt>
      <trkpt lat="46.37855" lon="5.56767">
        <ele>477.39999389648</ele>
        <time>2026-08-27T09:30:31.000Z</time>
      </trkpt>
      <trkpt lat="46.37852" lon="5.56768">
        <ele>477.20001220703</ele>
        <time>2026-08-27T09:30:42.000Z</time>
      </trkpt>
      <trkpt lat="46.3785" lon="5.56767">
        <ele>477</ele>
        <time>2026-08-27T09:30:51.000Z</time>
      </trkpt>
      <trkpt lat="46.3785" lon="5.56768">
        <ele>477.20001220703</ele>
        <time>2026-08-27T09:31:01.000Z</time>
      </trkpt>
      <trkpt lat="46.3785" lon="5.56768">
        <ele>477.20001220703</ele>
        <time>2026-08-27T09:31:04.000Z</time>
      </trkpt>
      <trkpt lat="46.3785" lon="5.56769">
        <ele>477.20001220703</ele>
        <time>2026-08-27T09:31:05.000Z</time>
      </trkpt>
      <trkpt lat="46.3785" lon="5.56769">
        <ele>477</ele>
        <time>2026-08-27T09:31:12.000Z</time>
      </trkpt>
      <trkpt lat="46.37849" lon="5.56769">
        <ele>476.79998779297</ele>
        <time>2026-08-27T09:31:21.000Z</time>
      </trkpt>
      <trkpt lat="46.37849" lon="5.56769">
        <ele>476.60000610352</ele>
        <time>2026-08-27T09:31:25.000Z</time>
      </trkpt>
      <trkpt lat="46.37848" lon="5.56767">
        <ele>477</ele>
        <time>2026-08-27T09:31:37.000Z</time>
      </trkpt>
      <trkpt lat="46.37846" lon="5.56768">
        <ele>476.79998779297</ele>
        <time>2026-08-27T09:31:50.000Z</time>
      </trkpt>
      <trkpt lat="46.37847" lon="5.56765">
        <ele>476.60000610352</ele>
        <time>2026-08-27T09:31:57.000Z</time>
      </trkpt>
      <trkpt lat="46.37847" lon="5.56764">
        <ele>476.60000610352</ele>
        <time>2026-08-27T09:32:01.000Z</time>
      </trkpt>
      <trkpt lat="46.3785" lon="5.56761">
        <ele>476.60000610352</ele>
        <time>2026-08-27T09:32:05.000Z</time>
      </trkpt>
      <trkpt lat="46.3785" lon="5.56761">
        <ele>476.79998779297</ele>
        <time>2026-08-27T09:32:07.000Z</time>
      </trkpt>
      <trkpt lat="46.37849" lon="5.56761">
        <ele>477</ele>
        <time>2026-08-27T09:32:16.000Z</time>
      </trkpt>
      <trkpt lat="46.37848" lon="5.56763">
        <ele>476.79998779297</ele>
        <time>2026-08-27T09:32:27.000Z</time>
      </trkpt>
      <trkpt lat="46.37845" lon="5.5676">
        <ele>476.79998779297</ele>
        <time>2026-08-27T09:32:31.000Z</time>
      </trkpt>
      <trkpt lat="46.37843" lon="5.56758">
        <ele>476.79998779297</ele>
        <time>2026-08-27T09:32:34.000Z</time>
      </trkpt>
      <trkpt lat="46.37836" lon="5.56745">
        <ele>475.79998779297</ele>
        <time>2026-08-27T09:32:44.000Z</time>
      </trkpt>
      <trkpt lat="46.37835" lon="5.56742">
        <ele>475.60000610352</ele>
        <time>2026-08-27T09:32:46.000Z</time>
      </trkpt>
      <trkpt lat="46.37831" lon="5.56732">
        <ele>475</ele>
        <time>2026-08-27T09:32:53.000Z</time>
      </trkpt>
      <trkpt lat="46.37829" lon="5.56724">
        <ele>474.39999389648</ele>
        <time>2026-08-27T09:32:59.000Z</time>
      </trkpt>
      <trkpt lat="46.37828" lon="5.56722">
        <ele>474.39999389648</ele>
        <time>2026-08-27T09:33:00.000Z</time>
      </trkpt>
      <trkpt lat="46.37827" lon="5.56713">
        <ele>473.79998779297</ele>
        <time>2026-08-27T09:33:05.000Z</time>
      </trkpt>
      <trkpt lat="46.37826" lon="5.56707">
        <ele>473.60000610352</ele>
        <time>2026-08-27T09:33:08.000Z</time>
      </trkpt>
      <trkpt lat="46.37825" lon="5.56706">
        <ele>473.60000610352</ele>
        <time>2026-08-27T09:33:09.000Z</time>
      </trkpt>
      <trkpt lat="46.37825" lon="5.56702">
        <ele>473.39999389648</ele>
        <time>2026-08-27T09:33:11.000Z</time>
      </trkpt>
      <trkpt lat="46.37823" lon="5.56692">
        <ele>472.79998779297</ele>
        <time>2026-08-27T09:33:16.000Z</time>
      </trkpt>
      <trkpt lat="46.37822" lon="5.56679">
        <ele>472.39999389648</ele>
        <time>2026-08-27T09:33:24.000Z</time>
      </trkpt>
      <trkpt lat="46.37821" lon="5.56667">
        <ele>472</ele>
        <time>2026-08-27T09:33:30.000Z</time>
      </trkpt>
      <trkpt lat="46.37819" lon="5.56653">
        <ele>471.20001220703</ele>
        <time>2026-08-27T09:33:39.000Z</time>
      </trkpt>
      <trkpt lat="46.37818" lon="5.56645">
        <ele>470.79998779297</ele>
        <time>2026-08-27T09:33:44.000Z</time>
      </trkpt>
      <trkpt lat="46.37816" lon="5.56633">
        <ele>470.20001220703</ele>
        <time>2026-08-27T09:33:51.000Z</time>
      </trkpt>
      <trkpt lat="46.37815" lon="5.5662">
        <ele>469.39999389648</ele>
        <time>2026-08-27T09:33:59.000Z</time>
      </trkpt>
      <trkpt lat="46.37814" lon="5.56611">
        <ele>469</ele>
        <time>2026-08-27T09:34:05.000Z</time>
      </trkpt>
      <trkpt lat="46.37813" lon="5.56597">
        <ele>468.79998779297</ele>
        <time>2026-08-27T09:34:13.000Z</time>
      </trkpt>
      <trkpt lat="46.37813" lon="5.56583">
        <ele>468</ele>
        <time>2026-08-27T09:34:21.000Z</time>
      </trkpt>
      <trkpt lat="46.37813" lon="5.56571">
        <ele>467.39999389648</ele>
        <time>2026-08-27T09:34:29.000Z</time>
      </trkpt>
      <trkpt lat="46.37814" lon="5.56565">
        <ele>467</ele>
        <time>2026-08-27T09:34:33.000Z</time>
      </trkpt>
      <trkpt lat="46.37815" lon="5.56564">
        <ele>467</ele>
        <time>2026-08-27T09:34:37.000Z</time>
      </trkpt>
      <trkpt lat="46.37815" lon="5.56564">
        <ele>467</ele>
        <time>2026-08-27T09:34:48.000Z</time>
      </trkpt>
      <trkpt lat="46.37815" lon="5.56562">
        <ele>466.79998779297</ele>
        <time>2026-08-27T09:35:05.000Z</time>
      </trkpt>
      <trkpt lat="46.37813" lon="5.56562">
        <ele>466.79998779297</ele>
        <time>2026-08-27T09:35:19.000Z</time>
      </trkpt>
      <trkpt lat="46.37814" lon="5.56556">
        <ele>466.20001220703</ele>
        <time>2026-08-27T09:35:29.000Z</time>
      </trkpt>
      <trkpt lat="46.37815" lon="5.56554">
        <ele>466.20001220703</ele>
        <time>2026-08-27T09:35:31.000Z</time>
      </trkpt>
      <trkpt lat="46.37818" lon="5.56548">
        <ele>466</ele>
        <time>2026-08-27T09:35:36.000Z</time>
      </trkpt>
      <trkpt lat="46.37819" lon="5.56547">
        <ele>465.79998779297</ele>
        <time>2026-08-27T09:35:37.000Z</time>
      </trkpt>
      <trkpt lat="46.37825" lon="5.56535">
        <ele>465.20001220703</ele>
        <time>2026-08-27T09:35:47.000Z</time>
      </trkpt>
      <trkpt lat="46.37826" lon="5.56532">
        <ele>465</ele>
        <time>2026-08-27T09:35:49.000Z</time>
      </trkpt>
      <trkpt lat="46.37828" lon="5.56529">
        <ele>465</ele>
        <time>2026-08-27T09:35:51.000Z</time>
      </trkpt>
      <trkpt lat="46.37829" lon="5.56528">
        <ele>464.79998779297</ele>
        <time>2026-08-27T09:35:52.000Z</time>
      </trkpt>
      <trkpt lat="46.37831" lon="5.56524">
        <ele>464.60000610352</ele>
        <time>2026-08-27T09:35:55.000Z</time>
      </trkpt>
      <trkpt lat="46.37837" lon="5.56511">
        <ele>464</ele>
        <time>2026-08-27T09:36:05.000Z</time>
      </trkpt>
      <trkpt lat="46.37838" lon="5.56509">
        <ele>463.79998779297</ele>
        <time>2026-08-27T09:36:07.000Z</time>
      </trkpt>
      <trkpt lat="46.37843" lon="5.56497">
        <ele>463.20001220703</ele>
        <time>2026-08-27T09:36:16.000Z</time>
      </trkpt>
      <trkpt lat="46.37847" lon="5.5649">
        <ele>463</ele>
        <time>2026-08-27T09:36:21.000Z</time>
      </trkpt>
      <trkpt lat="46.3785" lon="5.56486">
        <ele>462.79998779297</ele>
        <time>2026-08-27T09:36:24.000Z</time>
      </trkpt>
      <trkpt lat="46.37854" lon="5.56478">
        <ele>462.79998779297</ele>
        <time>2026-08-27T09:36:30.000Z</time>
      </trkpt>
      <trkpt lat="46.37855" lon="5.56477">
        <ele>462.79998779297</ele>
        <time>2026-08-27T09:36:31.000Z</time>
      </trkpt>
      <trkpt lat="46.37857" lon="5.56473">
        <ele>462.39999389648</ele>
        <time>2026-08-27T09:36:34.000Z</time>
      </trkpt>
      <trkpt lat="46.37861" lon="5.56464">
        <ele>462.20001220703</ele>
        <time>2026-08-27T09:36:39.000Z</time>
      </trkpt>
      <trkpt lat="46.37867" lon="5.56452">
        <ele>462</ele>
        <time>2026-08-27T09:36:47.000Z</time>
      </trkpt>
      <trkpt lat="46.37872" lon="5.56445">
        <ele>461.60000610352</ele>
        <time>2026-08-27T09:36:52.000Z</time>
      </trkpt>
      <trkpt lat="46.37874" lon="5.5644">
        <ele>461.39999389648</ele>
        <time>2026-08-27T09:36:55.000Z</time>
      </trkpt>
      <trkpt lat="46.37877" lon="5.56434">
        <ele>461.20001220703</ele>
        <time>2026-08-27T09:36:59.000Z</time>
      </trkpt>
      <trkpt lat="46.37878" lon="5.5643">
        <ele>461</ele>
        <time>2026-08-27T09:37:02.000Z</time>
      </trkpt>
      <trkpt lat="46.3788" lon="5.56424">
        <ele>461</ele>
        <time>2026-08-27T09:37:05.000Z</time>
      </trkpt>
      <trkpt lat="46.37883" lon="5.56413">
        <ele>460.60000610352</ele>
        <time>2026-08-27T09:37:12.000Z</time>
      </trkpt>
      <trkpt lat="46.37883" lon="5.56412">
        <ele>460.60000610352</ele>
        <time>2026-08-27T09:37:13.000Z</time>
      </trkpt>
      <trkpt lat="46.37887" lon="5.56396">
        <ele>460</ele>
        <time>2026-08-27T09:37:23.000Z</time>
      </trkpt>
      <trkpt lat="46.37889" lon="5.56385">
        <ele>459.60000610352</ele>
        <time>2026-08-27T09:37:29.000Z</time>
      </trkpt>
      <trkpt lat="46.3789" lon="5.5638">
        <ele>459.39999389648</ele>
        <time>2026-08-27T09:37:32.000Z</time>
      </trkpt>
      <trkpt lat="46.37894" lon="5.56363">
        <ele>458.79998779297</ele>
        <time>2026-08-27T09:37:42.000Z</time>
      </trkpt>
      <trkpt lat="46.37896" lon="5.56358">
        <ele>458.60000610352</ele>
        <time>2026-08-27T09:37:46.000Z</time>
      </trkpt>
      <trkpt lat="46.37896" lon="5.56356">
        <ele>458.60000610352</ele>
        <time>2026-08-27T09:37:49.000Z</time>
      </trkpt>
      <trkpt lat="46.37896" lon="5.56352">
        <ele>458</ele>
        <time>2026-08-27T09:37:56.000Z</time>
      </trkpt>
      <trkpt lat="46.37899" lon="5.5634">
        <ele>458.20001220703</ele>
        <time>2026-08-27T09:38:03.000Z</time>
      </trkpt>
      <trkpt lat="46.37904" lon="5.5632">
        <ele>457.79998779297</ele>
        <time>2026-08-27T09:38:14.000Z</time>
      </trkpt>
      <trkpt lat="46.37906" lon="5.56314">
        <ele>457.60000610352</ele>
        <time>2026-08-27T09:38:18.000Z</time>
      </trkpt>
      <trkpt lat="46.37908" lon="5.56307">
        <ele>457.39999389648</ele>
        <time>2026-08-27T09:38:23.000Z</time>
      </trkpt>
      <trkpt lat="46.37913" lon="5.56292">
        <ele>456.79998779297</ele>
        <time>2026-08-27T09:38:32.000Z</time>
      </trkpt>
      <trkpt lat="46.37915" lon="5.56285">
        <ele>456.60000610352</ele>
        <time>2026-08-27T09:38:36.000Z</time>
      </trkpt>
      <trkpt lat="46.37918" lon="5.56278">
        <ele>456.20001220703</ele>
        <time>2026-08-27T09:38:41.000Z</time>
      </trkpt>
      <trkpt lat="46.3792" lon="5.56265">
        <ele>455.60000610352</ele>
        <time>2026-08-27T09:38:47.000Z</time>
      </trkpt>
      <trkpt lat="46.3792" lon="5.56262">
        <ele>455.39999389648</ele>
        <time>2026-08-27T09:38:49.000Z</time>
      </trkpt>
      <trkpt lat="46.37922" lon="5.56249">
        <ele>454.60000610352</ele>
        <time>2026-08-27T09:38:56.000Z</time>
      </trkpt>
      <trkpt lat="46.37922" lon="5.56246">
        <ele>454.20001220703</ele>
        <time>2026-08-27T09:38:58.000Z</time>
      </trkpt>
      <trkpt lat="46.3792" lon="5.56235">
        <ele>453.60000610352</ele>
        <time>2026-08-27T09:39:03.000Z</time>
      </trkpt>
      <trkpt lat="46.3792" lon="5.56233">
        <ele>453.39999389648</ele>
        <time>2026-08-27T09:39:04.000Z</time>
      </trkpt>
      <trkpt lat="46.37914" lon="5.56218">
        <ele>452.39999389648</ele>
        <time>2026-08-27T09:39:14.000Z</time>
      </trkpt>
      <trkpt lat="46.37913" lon="5.56216">
        <ele>452.39999389648</ele>
        <time>2026-08-27T09:39:15.000Z</time>
      </trkpt>
      <trkpt lat="46.3791" lon="5.5621">
        <ele>451.79998779297</ele>
        <time>2026-08-27T09:39:20.000Z</time>
      </trkpt>
      <trkpt lat="46.37908" lon="5.56207">
        <ele>451.39999389648</ele>
        <time>2026-08-27T09:39:23.000Z</time>
      </trkpt>
      <trkpt lat="46.37907" lon="5.56205">
        <ele>451.39999389648</ele>
        <time>2026-08-27T09:39:24.000Z</time>
      </trkpt>
      <trkpt lat="46.37905" lon="5.562">
        <ele>450.60000610352</ele>
        <time>2026-08-27T09:39:32.000Z</time>
      </trkpt>
      <trkpt lat="46.37901" lon="5.56195">
        <ele>450.39999389648</ele>
        <time>2026-08-27T09:39:40.000Z</time>
      </trkpt>
      <trkpt lat="46.37901" lon="5.56193">
        <ele>450.39999389648</ele>
        <time>2026-08-27T09:39:41.000Z</time>
      </trkpt>
      <trkpt lat="46.37896" lon="5.5618">
        <ele>449.39999389648</ele>
        <time>2026-08-27T09:39:51.000Z</time>
      </trkpt>
      <trkpt lat="46.37896" lon="5.5618">
        <ele>449.39999389648</ele>
        <time>2026-08-27T09:39:52.000Z</time>
      </trkpt>
      <trkpt lat="46.37889" lon="5.56169">
        <ele>448.60000610352</ele>
        <time>2026-08-27T09:40:01.000Z</time>
      </trkpt>
      <trkpt lat="46.37887" lon="5.56165">
        <ele>448.20001220703</ele>
        <time>2026-08-27T09:40:04.000Z</time>
      </trkpt>
      <trkpt lat="46.37883" lon="5.56158">
        <ele>447.79998779297</ele>
        <time>2026-08-27T09:40:10.000Z</time>
      </trkpt>
      <trkpt lat="46.37876" lon="5.56145">
        <ele>447.20001220703</ele>
        <time>2026-08-27T09:40:20.000Z</time>
      </trkpt>
      <trkpt lat="46.37875" lon="5.56144">
        <ele>447.20001220703</ele>
        <time>2026-08-27T09:40:21.000Z</time>
      </trkpt>
      <trkpt lat="46.37868" lon="5.56131">
        <ele>446.60000610352</ele>
        <time>2026-08-27T09:40:30.000Z</time>
      </trkpt>
      <trkpt lat="46.3786" lon="5.56116">
        <ele>446.39999389648</ele>
        <time>2026-08-27T09:40:40.000Z</time>
      </trkpt>
      <trkpt lat="46.37857" lon="5.5611">
        <ele>446.20001220703</ele>
        <time>2026-08-27T09:40:44.000Z</time>
      </trkpt>
      <trkpt lat="46.37851" lon="5.56097">
        <ele>445.79998779297</ele>
        <time>2026-08-27T09:40:53.000Z</time>
      </trkpt>
      <trkpt lat="46.37845" lon="5.56087">
        <ele>445.39999389648</ele>
        <time>2026-08-27T09:41:01.000Z</time>
      </trkpt>
      <trkpt lat="46.37843" lon="5.56082">
        <ele>445.39999389648</ele>
        <time>2026-08-27T09:41:04.000Z</time>
      </trkpt>
      <trkpt lat="46.37834" lon="5.56066">
        <ele>445.39999389648</ele>
        <time>2026-08-27T09:41:15.000Z</time>
      </trkpt>
      <trkpt lat="46.37828" lon="5.56053">
        <ele>445.20001220703</ele>
        <time>2026-08-27T09:41:22.000Z</time>
      </trkpt>
      <trkpt lat="46.37826" lon="5.56046">
        <ele>445.20001220703</ele>
        <time>2026-08-27T09:41:26.000Z</time>
      </trkpt>
      <trkpt lat="46.37823" lon="5.56031">
        <ele>444.60000610352</ele>
        <time>2026-08-27T09:41:35.000Z</time>
      </trkpt>
      <trkpt lat="46.37825" lon="5.56017">
        <ele>444.60000610352</ele>
        <time>2026-08-27T09:41:43.000Z</time>
      </trkpt>
      <trkpt lat="46.37825" lon="5.56006">
        <ele>444.20001220703</ele>
        <time>2026-08-27T09:41:50.000Z</time>
      </trkpt>
      <trkpt lat="46.37828" lon="5.5599">
        <ele>444.20001220703</ele>
        <time>2026-08-27T09:41:59.000Z</time>
      </trkpt>
      <trkpt lat="46.37828" lon="5.55986">
        <ele>444</ele>
        <time>2026-08-27T09:42:01.000Z</time>
      </trkpt>
      <trkpt lat="46.37833" lon="5.55967">
        <ele>443.39999389648</ele>
        <time>2026-08-27T09:42:13.000Z</time>
      </trkpt>
      <trkpt lat="46.37834" lon="5.55956">
        <ele>443</ele>
        <time>2026-08-27T09:42:19.000Z</time>
      </trkpt>
      <trkpt lat="46.37835" lon="5.55951">
        <ele>443</ele>
        <time>2026-08-27T09:42:22.000Z</time>
      </trkpt>
      <trkpt lat="46.3784" lon="5.5593">
        <ele>442</ele>
        <time>2026-08-27T09:42:34.000Z</time>
      </trkpt>
      <trkpt lat="46.37841" lon="5.55929">
        <ele>441.79998779297</ele>
        <time>2026-08-27T09:42:35.000Z</time>
      </trkpt>
      <trkpt lat="46.37852" lon="5.55916">
        <ele>441.79998779297</ele>
        <time>2026-08-27T09:42:46.000Z</time>
      </trkpt>
      <trkpt lat="46.37868" lon="5.55909">
        <ele>441.39999389648</ele>
        <time>2026-08-27T09:42:59.000Z</time>
      </trkpt>
      <trkpt lat="46.37876" lon="5.55906">
        <ele>441</ele>
        <time>2026-08-27T09:43:05.000Z</time>
      </trkpt>
      <trkpt lat="46.37877" lon="5.55905">
        <ele>440.79998779297</ele>
        <time>2026-08-27T09:43:06.000Z</time>
      </trkpt>
      <trkpt lat="46.3788" lon="5.55905">
        <ele>440.79998779297</ele>
        <time>2026-08-27T09:43:08.000Z</time>
      </trkpt>
      <trkpt lat="46.37889" lon="5.55897">
        <ele>440.39999389648</ele>
        <time>2026-08-27T09:43:17.000Z</time>
      </trkpt>
      <trkpt lat="46.37892" lon="5.55895">
        <ele>440.20001220703</ele>
        <time>2026-08-27T09:43:19.000Z</time>
      </trkpt>
      <trkpt lat="46.37897" lon="5.55889">
        <ele>439.79998779297</ele>
        <time>2026-08-27T09:43:24.000Z</time>
      </trkpt>
      <trkpt lat="46.37901" lon="5.55883">
        <ele>439.20001220703</ele>
        <time>2026-08-27T09:43:29.000Z</time>
      </trkpt>
      <trkpt lat="46.37907" lon="5.55873">
        <ele>438.60000610352</ele>
        <time>2026-08-27T09:43:36.000Z</time>
      </trkpt>
      <trkpt lat="46.37908" lon="5.55871">
        <ele>438.60000610352</ele>
        <time>2026-08-27T09:43:37.000Z</time>
      </trkpt>
      <trkpt lat="46.37909" lon="5.55868">
        <ele>438.60000610352</ele>
        <time>2026-08-27T09:43:39.000Z</time>
      </trkpt>
      <trkpt lat="46.37914" lon="5.55858">
        <ele>438.39999389648</ele>
        <time>2026-08-27T09:43:46.000Z</time>
      </trkpt>
      <trkpt lat="46.37922" lon="5.55845">
        <ele>437.60000610352</ele>
        <time>2026-08-27T09:43:55.000Z</time>
      </trkpt>
      <trkpt lat="46.37924" lon="5.5584">
        <ele>437.39999389648</ele>
        <time>2026-08-27T09:43:58.000Z</time>
      </trkpt>
      <trkpt lat="46.37934" lon="5.55817">
        <ele>436.79998779297</ele>
        <time>2026-08-27T09:44:12.000Z</time>
      </trkpt>
      <trkpt lat="46.37934" lon="5.55816">
        <ele>436.60000610352</ele>
        <time>2026-08-27T09:44:13.000Z</time>
      </trkpt>
      <trkpt lat="46.37935" lon="5.55814">
        <ele>436.60000610352</ele>
        <time>2026-08-27T09:44:14.000Z</time>
      </trkpt>
      <trkpt lat="46.3794" lon="5.55802">
        <ele>436</ele>
        <time>2026-08-27T09:44:22.000Z</time>
      </trkpt>
      <trkpt lat="46.37941" lon="5.55797">
        <ele>435.60000610352</ele>
        <time>2026-08-27T09:44:25.000Z</time>
      </trkpt>
      <trkpt lat="46.37942" lon="5.55796">
        <ele>435.60000610352</ele>
        <time>2026-08-27T09:44:26.000Z</time>
      </trkpt>
      <trkpt lat="46.37947" lon="5.55781">
        <ele>435</ele>
        <time>2026-08-27T09:44:35.000Z</time>
      </trkpt>
      <trkpt lat="46.37954" lon="5.55765">
        <ele>434.60000610352</ele>
        <time>2026-08-27T09:44:45.000Z</time>
      </trkpt>
      <trkpt lat="46.37955" lon="5.55761">
        <ele>434.39999389648</ele>
        <time>2026-08-27T09:44:47.000Z</time>
      </trkpt>
      <trkpt lat="46.37956" lon="5.55756">
        <ele>434.20001220703</ele>
        <time>2026-08-27T09:44:50.000Z</time>
      </trkpt>
      <trkpt lat="46.37958" lon="5.55752">
        <ele>434.20001220703</ele>
        <time>2026-08-27T09:44:53.000Z</time>
      </trkpt>
      <trkpt lat="46.3796" lon="5.55745">
        <ele>434</ele>
        <time>2026-08-27T09:44:57.000Z</time>
      </trkpt>
      <trkpt lat="46.37965" lon="5.55731">
        <ele>433.60000610352</ele>
        <time>2026-08-27T09:45:05.000Z</time>
      </trkpt>
      <trkpt lat="46.37966" lon="5.55727">
        <ele>433.39999389648</ele>
        <time>2026-08-27T09:45:07.000Z</time>
      </trkpt>
      <trkpt lat="46.37968" lon="5.55722">
        <ele>433.20001220703</ele>
        <time>2026-08-27T09:45:10.000Z</time>
      </trkpt>
      <trkpt lat="46.37969" lon="5.55716">
        <ele>433</ele>
        <time>2026-08-27T09:45:13.000Z</time>
      </trkpt>
      <trkpt lat="46.37973" lon="5.55703">
        <ele>432.39999389648</ele>
        <time>2026-08-27T09:45:21.000Z</time>
      </trkpt>
      <trkpt lat="46.37974" lon="5.55701">
        <ele>432.39999389648</ele>
        <time>2026-08-27T09:45:22.000Z</time>
      </trkpt>
      <trkpt lat="46.3798" lon="5.55679">
        <ele>431.79998779297</ele>
        <time>2026-08-27T09:45:35.000Z</time>
      </trkpt>
      <trkpt lat="46.37985" lon="5.55664">
        <ele>431.39999389648</ele>
        <time>2026-08-27T09:45:43.000Z</time>
      </trkpt>
      <trkpt lat="46.37985" lon="5.55662">
        <ele>431.20001220703</ele>
        <time>2026-08-27T09:45:44.000Z</time>
      </trkpt>
      <trkpt lat="46.37992" lon="5.55643">
        <ele>430.79998779297</ele>
        <time>2026-08-27T09:45:56.000Z</time>
      </trkpt>
      <trkpt lat="46.37996" lon="5.55621">
        <ele>430.39999389648</ele>
        <time>2026-08-27T09:46:08.000Z</time>
      </trkpt>
      <trkpt lat="46.37998" lon="5.55604">
        <ele>430.39999389648</ele>
        <time>2026-08-27T09:46:17.000Z</time>
      </trkpt>
      <trkpt lat="46.37999" lon="5.55596">
        <ele>430.39999389648</ele>
        <time>2026-08-27T09:46:22.000Z</time>
      </trkpt>
      <trkpt lat="46.38002" lon="5.55572">
        <ele>430.39999389648</ele>
        <time>2026-08-27T09:46:35.000Z</time>
      </trkpt>
      <trkpt lat="46.38005" lon="5.55556">
        <ele>430</ele>
        <time>2026-08-27T09:46:44.000Z</time>
      </trkpt>
      <trkpt lat="46.38007" lon="5.55531">
        <ele>430.39999389648</ele>
        <time>2026-08-27T09:46:58.000Z</time>
      </trkpt>
      <trkpt lat="46.3801" lon="5.55511">
        <ele>430.79998779297</ele>
        <time>2026-08-27T09:47:09.000Z</time>
      </trkpt>
      <trkpt lat="46.38012" lon="5.55488">
        <ele>431</ele>
        <time>2026-08-27T09:47:21.000Z</time>
      </trkpt>
      <trkpt lat="46.38015" lon="5.55464">
        <ele>431</ele>
        <time>2026-08-27T09:47:35.000Z</time>
      </trkpt>
      <trkpt lat="46.38017" lon="5.55446">
        <ele>431</ele>
        <time>2026-08-27T09:47:45.000Z</time>
      </trkpt>
      <trkpt lat="46.3802" lon="5.55428">
        <ele>431.60000610352</ele>
        <time>2026-08-27T09:47:56.000Z</time>
      </trkpt>
      <trkpt lat="46.38021" lon="5.55427">
        <ele>431.60000610352</ele>
        <time>2026-08-27T09:47:57.000Z</time>
      </trkpt>
      <trkpt lat="46.38021" lon="5.55415">
        <ele>431.60000610352</ele>
        <time>2026-08-27T09:48:05.000Z</time>
      </trkpt>
      <trkpt lat="46.38022" lon="5.55413">
        <ele>431.60000610352</ele>
        <time>2026-08-27T09:48:06.000Z</time>
      </trkpt>
      <trkpt lat="46.38024" lon="5.55403">
        <ele>431.39999389648</ele>
        <time>2026-08-27T09:48:12.000Z</time>
      </trkpt>
      <trkpt lat="46.38025" lon="5.55397">
        <ele>431.39999389648</ele>
        <time>2026-08-27T09:48:16.000Z</time>
      </trkpt>
      <trkpt lat="46.38027" lon="5.55387">
        <ele>431.39999389648</ele>
        <time>2026-08-27T09:48:22.000Z</time>
      </trkpt>
      <trkpt lat="46.38027" lon="5.55386">
        <ele>431.20001220703</ele>
        <time>2026-08-27T09:48:23.000Z</time>
      </trkpt>
      <trkpt lat="46.38028" lon="5.55381">
        <ele>431.20001220703</ele>
        <time>2026-08-27T09:48:26.000Z</time>
      </trkpt>
      <trkpt lat="46.38031" lon="5.5537">
        <ele>431</ele>
        <time>2026-08-27T09:48:33.000Z</time>
      </trkpt>
      <trkpt lat="46.38033" lon="5.55355">
        <ele>431.20001220703</ele>
        <time>2026-08-27T09:48:40.000Z</time>
      </trkpt>
      <trkpt lat="46.38037" lon="5.55341">
        <ele>430.60000610352</ele>
        <time>2026-08-27T09:48:47.000Z</time>
      </trkpt>
      <trkpt lat="46.38038" lon="5.55337">
        <ele>430.39999389648</ele>
        <time>2026-08-27T09:48:49.000Z</time>
      </trkpt>
      <trkpt lat="46.38041" lon="5.55323">
        <ele>429.79998779297</ele>
        <time>2026-08-27T09:48:56.000Z</time>
      </trkpt>
      <trkpt lat="46.38041" lon="5.55319">
        <ele>429.39999389648</ele>
        <time>2026-08-27T09:48:58.000Z</time>
      </trkpt>
      <trkpt lat="46.38046" lon="5.55304">
        <ele>428.60000610352</ele>
        <time>2026-08-27T09:49:06.000Z</time>
      </trkpt>
      <trkpt lat="46.38046" lon="5.55302">
        <ele>428.39999389648</ele>
        <time>2026-08-27T09:49:07.000Z</time>
      </trkpt>
      <trkpt lat="46.38051" lon="5.55287">
        <ele>427.79998779297</ele>
        <time>2026-08-27T09:49:17.000Z</time>
      </trkpt>
      <trkpt lat="46.38053" lon="5.55276">
        <ele>427.39999389648</ele>
        <time>2026-08-27T09:49:23.000Z</time>
      </trkpt>
      <trkpt lat="46.38056" lon="5.55264">
        <ele>427</ele>
        <time>2026-08-27T09:49:28.000Z</time>
      </trkpt>
      <trkpt lat="46.38059" lon="5.55255">
        <ele>426.60000610352</ele>
        <time>2026-08-27T09:49:33.000Z</time>
      </trkpt>
      <trkpt lat="46.38061" lon="5.55248">
        <ele>426.20001220703</ele>
        <time>2026-08-27T09:49:37.000Z</time>
      </trkpt>
      <trkpt lat="46.38062" lon="5.55243">
        <ele>426</ele>
        <time>2026-08-27T09:49:40.000Z</time>
      </trkpt>
      <trkpt lat="46.38065" lon="5.5523">
        <ele>425.20001220703</ele>
        <time>2026-08-27T09:49:46.000Z</time>
      </trkpt>
      <trkpt lat="46.38067" lon="5.55219">
        <ele>424.60000610352</ele>
        <time>2026-08-27T09:49:52.000Z</time>
      </trkpt>
      <trkpt lat="46.38071" lon="5.55201">
        <ele>424</ele>
        <time>2026-08-27T09:50:01.000Z</time>
      </trkpt>
      <trkpt lat="46.38073" lon="5.55195">
        <ele>423.60000610352</ele>
        <time>2026-08-27T09:50:04.000Z</time>
      </trkpt>
      <trkpt lat="46.38078" lon="5.55174">
        <ele>423.20001220703</ele>
        <time>2026-08-27T09:50:15.000Z</time>
      </trkpt>
      <trkpt lat="46.38079" lon="5.55171">
        <ele>423</ele>
        <time>2026-08-27T09:50:17.000Z</time>
      </trkpt>
      <trkpt lat="46.38083" lon="5.55153">
        <ele>422.60000610352</ele>
        <time>2026-08-27T09:50:26.000Z</time>
      </trkpt>
      <trkpt lat="46.38087" lon="5.5514">
        <ele>422</ele>
        <time>2026-08-27T09:50:33.000Z</time>
      </trkpt>
      <trkpt lat="46.38089" lon="5.5513">
        <ele>421.60000610352</ele>
        <time>2026-08-27T09:50:38.000Z</time>
      </trkpt>
      <trkpt lat="46.38093" lon="5.55115">
        <ele>421.39999389648</ele>
        <time>2026-08-27T09:50:46.000Z</time>
      </trkpt>
      <trkpt lat="46.38095" lon="5.55108">
        <ele>421</ele>
        <time>2026-08-27T09:50:50.000Z</time>
      </trkpt>
      <trkpt lat="46.38096" lon="5.55104">
        <ele>421</ele>
        <time>2026-08-27T09:50:52.000Z</time>
      </trkpt>
      <trkpt lat="46.38097" lon="5.55101">
        <ele>421</ele>
        <time>2026-08-27T09:50:54.000Z</time>
      </trkpt>
      <trkpt lat="46.381" lon="5.55088">
        <ele>420.79998779297</ele>
        <time>2026-08-27T09:51:01.000Z</time>
      </trkpt>
      <trkpt lat="46.38101" lon="5.55084">
        <ele>420.60000610352</ele>
        <time>2026-08-27T09:51:03.000Z</time>
      </trkpt>
      <trkpt lat="46.38104" lon="5.55069">
        <ele>419.79998779297</ele>
        <time>2026-08-27T09:51:11.000Z</time>
      </trkpt>
      <trkpt lat="46.38106" lon="5.55064">
        <ele>419.60000610352</ele>
        <time>2026-08-27T09:51:14.000Z</time>
      </trkpt>
      <trkpt lat="46.3811" lon="5.55045">
        <ele>419.39999389648</ele>
        <time>2026-08-27T09:51:24.000Z</time>
      </trkpt>
      <trkpt lat="46.38115" lon="5.55028">
        <ele>419</ele>
        <time>2026-08-27T09:51:33.000Z</time>
      </trkpt>
      <trkpt lat="46.38116" lon="5.55025">
        <ele>418.79998779297</ele>
        <time>2026-08-27T09:51:35.000Z</time>
      </trkpt>
      <trkpt lat="46.38121" lon="5.55011">
        <ele>418.20001220703</ele>
        <time>2026-08-27T09:51:43.000Z</time>
      </trkpt>
      <trkpt lat="46.38126" lon="5.54992">
        <ele>417.79998779297</ele>
        <time>2026-08-27T09:51:53.000Z</time>
      </trkpt>
      <trkpt lat="46.38128" lon="5.54987">
        <ele>417.60000610352</ele>
        <time>2026-08-27T09:51:56.000Z</time>
      </trkpt>
      <trkpt lat="46.38133" lon="5.54969">
        <ele>416.79998779297</ele>
        <time>2026-08-27T09:52:06.000Z</time>
      </trkpt>
      <trkpt lat="46.38134" lon="5.54963">
        <ele>416.39999389648</ele>
        <time>2026-08-27T09:52:09.000Z</time>
      </trkpt>
      <trkpt lat="46.3814" lon="5.54944">
        <ele>415.60000610352</ele>
        <time>2026-08-27T09:52:19.000Z</time>
      </trkpt>
      <trkpt lat="46.38141" lon="5.5494">
        <ele>415.60000610352</ele>
        <time>2026-08-27T09:52:21.000Z</time>
      </trkpt>
      <trkpt lat="46.38146" lon="5.54924">
        <ele>414.60000610352</ele>
        <time>2026-08-27T09:52:30.000Z</time>
      </trkpt>
      <trkpt lat="46.38148" lon="5.54919">
        <ele>414.39999389648</ele>
        <time>2026-08-27T09:52:33.000Z</time>
      </trkpt>
      <trkpt lat="46.38157" lon="5.54898">
        <ele>413.79998779297</ele>
        <time>2026-08-27T09:52:46.000Z</time>
      </trkpt>
      <trkpt lat="46.38159" lon="5.54893">
        <ele>413.60000610352</ele>
        <time>2026-08-27T09:52:49.000Z</time>
      </trkpt>
      <trkpt lat="46.38167" lon="5.54879">
        <ele>413.20001220703</ele>
        <time>2026-08-27T09:52:58.000Z</time>
      </trkpt>
      <trkpt lat="46.38172" lon="5.54871">
        <ele>412.60000610352</ele>
        <time>2026-08-27T09:53:04.000Z</time>
      </trkpt>
      <trkpt lat="46.38177" lon="5.54861">
        <ele>412.20001220703</ele>
        <time>2026-08-27T09:53:10.000Z</time>
      </trkpt>
      <trkpt lat="46.38188" lon="5.54839">
        <ele>411.60000610352</ele>
        <time>2026-08-27T09:53:24.000Z</time>
      </trkpt>
      <trkpt lat="46.38189" lon="5.54835">
        <ele>411.60000610352</ele>
        <time>2026-08-27T09:53:26.000Z</time>
      </trkpt>
      <trkpt lat="46.38193" lon="5.54822">
        <ele>410.60000610352</ele>
        <time>2026-08-27T09:53:34.000Z</time>
      </trkpt>
      <trkpt lat="46.38194" lon="5.5482">
        <ele>410.39999389648</ele>
        <time>2026-08-27T09:53:35.000Z</time>
      </trkpt>
      <trkpt lat="46.382" lon="5.54808">
        <ele>410</ele>
        <time>2026-08-27T09:53:43.000Z</time>
      </trkpt>
      <trkpt lat="46.3821" lon="5.54791">
        <ele>409.39999389648</ele>
        <time>2026-08-27T09:53:55.000Z</time>
      </trkpt>
      <trkpt lat="46.38211" lon="5.54788">
        <ele>409.20001220703</ele>
        <time>2026-08-27T09:53:57.000Z</time>
      </trkpt>
      <trkpt lat="46.38222" lon="5.5477">
        <ele>408.39999389648</ele>
        <time>2026-08-27T09:54:09.000Z</time>
      </trkpt>
      <trkpt lat="46.38222" lon="5.54768">
        <ele>408.39999389648</ele>
        <time>2026-08-27T09:54:10.000Z</time>
      </trkpt>
      <trkpt lat="46.38232" lon="5.54752">
        <ele>407.60000610352</ele>
        <time>2026-08-27T09:54:21.000Z</time>
      </trkpt>
      <trkpt lat="46.38237" lon="5.54743">
        <ele>407.39999389648</ele>
        <time>2026-08-27T09:54:28.000Z</time>
      </trkpt>
      <trkpt lat="46.3824" lon="5.54739">
        <ele>407.60000610352</ele>
        <time>2026-08-27T09:54:33.000Z</time>
      </trkpt>
      <trkpt lat="46.38241" lon="5.54739">
        <ele>407.39999389648</ele>
        <time>2026-08-27T09:54:40.000Z</time>
      </trkpt>
      <trkpt lat="46.38242" lon="5.54737">
        <ele>407.39999389648</ele>
        <time>2026-08-27T09:54:41.000Z</time>
      </trkpt>
      <trkpt lat="46.38243" lon="5.54732">
        <ele>407.39999389648</ele>
        <time>2026-08-27T09:54:47.000Z</time>
      </trkpt>
      <trkpt lat="46.38244" lon="5.54732">
        <ele>407.60000610352</ele>
        <time>2026-08-27T09:54:53.000Z</time>
      </trkpt>
      <trkpt lat="46.38244" lon="5.54734">
        <ele>407.79998779297</ele>
        <time>2026-08-27T09:55:10.000Z</time>
      </trkpt>
      <trkpt lat="46.38244" lon="5.54732">
        <ele>407.39999389648</ele>
        <time>2026-08-27T09:55:19.000Z</time>
      </trkpt>
      <trkpt lat="46.38244" lon="5.54734">
        <ele>407.79998779297</ele>
        <time>2026-08-27T09:55:36.000Z</time>
      </trkpt>
      <trkpt lat="46.38244" lon="5.54734">
        <ele>406.79998779297</ele>
        <time>2026-08-27T09:55:45.000Z</time>
      </trkpt>
      <trkpt lat="46.38244" lon="5.54734">
        <ele>407.39999389648</ele>
        <time>2026-08-27T09:55:49.000Z</time>
      </trkpt>
      <trkpt lat="46.38244" lon="5.54734">
        <ele>407.60000610352</ele>
        <time>2026-08-27T09:55:53.000Z</time>
      </trkpt>
      <trkpt lat="46.38243" lon="5.54735">
        <ele>407.39999389648</ele>
        <time>2026-08-27T09:56:04.000Z</time>
      </trkpt>
      <trkpt lat="46.38244" lon="5.54734">
        <ele>407.39999389648</ele>
        <time>2026-08-27T09:56:14.000Z</time>
      </trkpt>
      <trkpt lat="46.38244" lon="5.54734">
        <ele>407.39999389648</ele>
        <time>2026-08-27T09:56:15.000Z</time>
      </trkpt>
      <trkpt lat="46.38244" lon="5.54734">
        <ele>407.39999389648</ele>
        <time>2026-08-27T09:56:26.000Z</time>
      </trkpt>
      <trkpt lat="46.38242" lon="5.54734">
        <ele>407.20001220703</ele>
        <time>2026-08-27T09:56:34.000Z</time>
      </trkpt>
      <trkpt lat="46.38242" lon="5.54735">
        <ele>407.39999389648</ele>
        <time>2026-08-27T09:56:37.000Z</time>
      </trkpt>
      <trkpt lat="46.38242" lon="5.54736">
        <ele>407.39999389648</ele>
        <time>2026-08-27T09:56:44.000Z</time>
      </trkpt>
      <trkpt lat="46.38242" lon="5.54735">
        <ele>407.60000610352</ele>
        <time>2026-08-27T09:56:56.000Z</time>
      </trkpt>
      <trkpt lat="46.38242" lon="5.54735">
        <ele>407.39999389648</ele>
        <time>2026-08-27T09:57:11.000Z</time>
      </trkpt>
      <trkpt lat="46.38242" lon="5.54735">
        <ele>407.39999389648</ele>
        <time>2026-08-27T09:57:21.000Z</time>
      </trkpt>
      <trkpt lat="46.38242" lon="5.54735">
        <ele>407.20001220703</ele>
        <time>2026-08-27T09:57:27.000Z</time>
      </trkpt>
      <trkpt lat="46.38242" lon="5.54735">
        <ele>407.20001220703</ele>
        <time>2026-08-27T09:57:29.000Z</time>
      </trkpt>
      <trkpt lat="46.38246" lon="5.54729">
        <ele>406.79998779297</ele>
        <time>2026-08-27T09:57:38.000Z</time>
      </trkpt>
      <trkpt lat="46.38254" lon="5.54716">
        <ele>407</ele>
        <time>2026-08-27T09:57:49.000Z</time>
      </trkpt>
      <trkpt lat="46.38262" lon="5.54703">
        <ele>407.20001220703</ele>
        <time>2026-08-27T09:58:01.000Z</time>
      </trkpt>
      <trkpt lat="46.38267" lon="5.54693">
        <ele>406.79998779297</ele>
        <time>2026-08-27T09:58:10.000Z</time>
      </trkpt>
      <trkpt lat="46.38273" lon="5.54683">
        <ele>406.79998779297</ele>
        <time>2026-08-27T09:58:18.000Z</time>
      </trkpt>
      <trkpt lat="46.3828" lon="5.54674">
        <ele>406.20001220703</ele>
        <time>2026-08-27T09:58:27.000Z</time>
      </trkpt>
      <trkpt lat="46.38281" lon="5.54674">
        <ele>406.20001220703</ele>
        <time>2026-08-27T09:58:28.000Z</time>
      </trkpt>
      <trkpt lat="46.38293" lon="5.54669">
        <ele>405.79998779297</ele>
        <time>2026-08-27T09:58:39.000Z</time>
      </trkpt>
      <trkpt lat="46.38301" lon="5.54667">
        <ele>405.39999389648</ele>
        <time>2026-08-27T09:58:47.000Z</time>
      </trkpt>
      <trkpt lat="46.38303" lon="5.54666">
        <ele>405.20001220703</ele>
        <time>2026-08-27T09:58:49.000Z</time>
      </trkpt>
      <trkpt lat="46.38312" lon="5.54664">
        <ele>405</ele>
        <time>2026-08-27T09:58:57.000Z</time>
      </trkpt>
      <trkpt lat="46.38322" lon="5.54664">
        <ele>404.60000610352</ele>
        <time>2026-08-27T09:59:07.000Z</time>
      </trkpt>
      <trkpt lat="46.3833" lon="5.54663">
        <ele>404.60000610352</ele>
        <time>2026-08-27T09:59:15.000Z</time>
      </trkpt>
      <trkpt lat="46.38338" lon="5.54661">
        <ele>404.39999389648</ele>
        <time>2026-08-27T09:59:25.000Z</time>
      </trkpt>
      <trkpt lat="46.38343" lon="5.5466">
        <ele>404.39999389648</ele>
        <time>2026-08-27T09:59:30.000Z</time>
      </trkpt>
      <trkpt lat="46.38345" lon="5.54661">
        <ele>404.39999389648</ele>
        <time>2026-08-27T09:59:31.000Z</time>
      </trkpt>
      <trkpt lat="46.38349" lon="5.54666">
        <ele>404.39999389648</ele>
        <time>2026-08-27T09:59:38.000Z</time>
      </trkpt>
      <trkpt lat="46.38351" lon="5.54667">
        <ele>404.39999389648</ele>
        <time>2026-08-27T09:59:40.000Z</time>
      </trkpt>
      <trkpt lat="46.38361" lon="5.54674">
        <ele>404.39999389648</ele>
        <time>2026-08-27T09:59:50.000Z</time>
      </trkpt>
      <trkpt lat="46.38365" lon="5.54677">
        <ele>404.39999389648</ele>
        <time>2026-08-27T09:59:54.000Z</time>
      </trkpt>
      <trkpt lat="46.38369" lon="5.54679">
        <ele>404.20001220703</ele>
        <time>2026-08-27T09:59:58.000Z</time>
      </trkpt>
      <trkpt lat="46.3837" lon="5.5468">
        <ele>404.20001220703</ele>
        <time>2026-08-27T09:59:59.000Z</time>
      </trkpt>
      <trkpt lat="46.38381" lon="5.54687">
        <ele>404.39999389648</ele>
        <time>2026-08-27T10:00:08.000Z</time>
      </trkpt>
      <trkpt lat="46.38389" lon="5.54693">
        <ele>404.79998779297</ele>
        <time>2026-08-27T10:00:17.000Z</time>
      </trkpt>
      <trkpt lat="46.38399" lon="5.54701">
        <ele>405.20001220703</ele>
        <time>2026-08-27T10:00:27.000Z</time>
      </trkpt>
      <trkpt lat="46.38409" lon="5.54708">
        <ele>405.20001220703</ele>
        <time>2026-08-27T10:00:37.000Z</time>
      </trkpt>
      <trkpt lat="46.38419" lon="5.54713">
        <ele>405.20001220703</ele>
        <time>2026-08-27T10:00:47.000Z</time>
      </trkpt>
      <trkpt lat="46.38422" lon="5.54713">
        <ele>405</ele>
        <time>2026-08-27T10:00:50.000Z</time>
      </trkpt>
      <trkpt lat="46.38426" lon="5.5471">
        <ele>404.60000610352</ele>
        <time>2026-08-27T10:00:54.000Z</time>
      </trkpt>
      <trkpt lat="46.3843" lon="5.547">
        <ele>404.20001220703</ele>
        <time>2026-08-27T10:01:02.000Z</time>
      </trkpt>
      <trkpt lat="46.38433" lon="5.54689">
        <ele>403.60000610352</ele>
        <time>2026-08-27T10:01:10.000Z</time>
      </trkpt>
      <trkpt lat="46.38435" lon="5.54673">
        <ele>403.39999389648</ele>
        <time>2026-08-27T10:01:20.000Z</time>
      </trkpt>
      <trkpt lat="46.38435" lon="5.54666">
        <ele>403.20001220703</ele>
        <time>2026-08-27T10:01:24.000Z</time>
      </trkpt>
      <trkpt lat="46.38435" lon="5.54662">
        <ele>403.20001220703</ele>
        <time>2026-08-27T10:01:27.000Z</time>
      </trkpt>
      <trkpt lat="46.38435" lon="5.5466">
        <ele>403.20001220703</ele>
        <time>2026-08-27T10:01:28.000Z</time>
      </trkpt>
      <trkpt lat="46.38435" lon="5.54649">
        <ele>403.20001220703</ele>
        <time>2026-08-27T10:01:36.000Z</time>
      </trkpt>
      <trkpt lat="46.38436" lon="5.5464">
        <ele>403.20001220703</ele>
        <time>2026-08-27T10:01:41.000Z</time>
      </trkpt>
      <trkpt lat="46.38437" lon="5.54635">
        <ele>403</ele>
        <time>2026-08-27T10:01:44.000Z</time>
      </trkpt>
      <trkpt lat="46.38438" lon="5.54627">
        <ele>402.79998779297</ele>
        <time>2026-08-27T10:01:48.000Z</time>
      </trkpt>
      <trkpt lat="46.38438" lon="5.54626">
        <ele>402.79998779297</ele>
        <time>2026-08-27T10:01:53.000Z</time>
      </trkpt>
      <trkpt lat="46.38438" lon="5.54625">
        <ele>403</ele>
        <time>2026-08-27T10:01:59.000Z</time>
      </trkpt>
      <trkpt lat="46.38438" lon="5.54625">
        <ele>403</ele>
        <time>2026-08-27T10:02:09.000Z</time>
      </trkpt>
      <trkpt lat="46.38439" lon="5.5462">
        <ele>403</ele>
        <time>2026-08-27T10:02:27.000Z</time>
      </trkpt>
      <trkpt lat="46.3844" lon="5.54623">
        <ele>403</ele>
        <time>2026-08-27T10:02:35.000Z</time>
      </trkpt>
      <trkpt lat="46.38441" lon="5.54624">
        <ele>403</ele>
        <time>2026-08-27T10:02:36.000Z</time>
      </trkpt>
      <trkpt lat="46.38439" lon="5.54631">
        <ele>403</ele>
        <time>2026-08-27T10:02:48.000Z</time>
      </trkpt>
      <trkpt lat="46.38439" lon="5.54633">
        <ele>402.79998779297</ele>
        <time>2026-08-27T10:02:59.000Z</time>
      </trkpt>
      <trkpt lat="46.38439" lon="5.54632">
        <ele>402.79998779297</ele>
        <time>2026-08-27T10:03:10.000Z</time>
      </trkpt>
      <trkpt lat="46.38439" lon="5.5463">
        <ele>402.60000610352</ele>
        <time>2026-08-27T10:03:22.000Z</time>
      </trkpt>
      <trkpt lat="46.3844" lon="5.5463">
        <ele>402.39999389648</ele>
        <time>2026-08-27T10:03:34.000Z</time>
      </trkpt>
      <trkpt lat="46.3844" lon="5.54629">
        <ele>402.39999389648</ele>
        <time>2026-08-27T10:03:46.000Z</time>
      </trkpt>
      <trkpt lat="46.38442" lon="5.5463">
        <ele>402.60000610352</ele>
        <time>2026-08-27T10:03:56.000Z</time>
      </trkpt>
      <trkpt lat="46.38443" lon="5.54631">
        <ele>402.39999389648</ele>
        <time>2026-08-27T10:04:08.000Z</time>
      </trkpt>
      <trkpt lat="46.38442" lon="5.54629">
        <ele>402.39999389648</ele>
        <time>2026-08-27T10:04:17.000Z</time>
      </trkpt>
      <trkpt lat="46.38442" lon="5.54629">
        <ele>402.20001220703</ele>
        <time>2026-08-27T10:04:29.000Z</time>
      </trkpt>
      <trkpt lat="46.38443" lon="5.54628">
        <ele>402</ele>
        <time>2026-08-27T10:04:31.000Z</time>
      </trkpt>
      <trkpt lat="46.38443" lon="5.54629">
        <ele>402</ele>
        <time>2026-08-27T10:04:41.000Z</time>
      </trkpt>
      <trkpt lat="46.38442" lon="5.54634">
        <ele>402.20001220703</ele>
        <time>2026-08-27T10:04:49.000Z</time>
      </trkpt>
      <trkpt lat="46.38442" lon="5.54639">
        <ele>402.39999389648</ele>
        <time>2026-08-27T10:04:54.000Z</time>
      </trkpt>
      <trkpt lat="46.38442" lon="5.54642">
        <ele>402.39999389648</ele>
        <time>2026-08-27T10:04:57.000Z</time>
      </trkpt>
      <trkpt lat="46.38444" lon="5.54647">
        <ele>402.20001220703</ele>
        <time>2026-08-27T10:05:07.000Z</time>
      </trkpt>
      <trkpt lat="46.38446" lon="5.54656">
        <ele>402</ele>
        <time>2026-08-27T10:05:14.000Z</time>
      </trkpt>
      <trkpt lat="46.38448" lon="5.54661">
        <ele>401.79998779297</ele>
        <time>2026-08-27T10:05:18.000Z</time>
      </trkpt>
      <trkpt lat="46.3845" lon="5.54665">
        <ele>402</ele>
        <time>2026-08-27T10:05:23.000Z</time>
      </trkpt>
      <trkpt lat="46.38451" lon="5.54671">
        <ele>402.20001220703</ele>
        <time>2026-08-27T10:05:30.000Z</time>
      </trkpt>
      <trkpt lat="46.38452" lon="5.54672">
        <ele>402.20001220703</ele>
        <time>2026-08-27T10:05:31.000Z</time>
      </trkpt>
      <trkpt lat="46.38455" lon="5.54674">
        <ele>401.79998779297</ele>
        <time>2026-08-27T10:05:37.000Z</time>
      </trkpt>
      <trkpt lat="46.38458" lon="5.54674">
        <ele>401.60000610352</ele>
        <time>2026-08-27T10:05:43.000Z</time>
      </trkpt>
      <trkpt lat="46.38459" lon="5.54676">
        <ele>401.60000610352</ele>
        <time>2026-08-27T10:05:45.000Z</time>
      </trkpt>
      <trkpt lat="46.38461" lon="5.54678">
        <ele>401.79998779297</ele>
        <time>2026-08-27T10:05:49.000Z</time>
      </trkpt>
      <trkpt lat="46.38463" lon="5.54681">
        <ele>401</ele>
        <time>2026-08-27T10:05:53.000Z</time>
      </trkpt>
      <trkpt lat="46.38464" lon="5.54681">
        <ele>400.79998779297</ele>
        <time>2026-08-27T10:05:54.000Z</time>
      </trkpt>
      <trkpt lat="46.38468" lon="5.54684">
        <ele>400</ele>
        <time>2026-08-27T10:05:58.000Z</time>
      </trkpt>
      <trkpt lat="46.38472" lon="5.54687">
        <ele>399.79998779297</ele>
        <time>2026-08-27T10:06:02.000Z</time>
      </trkpt>
      <trkpt lat="46.38475" lon="5.5469">
        <ele>399.79998779297</ele>
        <time>2026-08-27T10:06:07.000Z</time>
      </trkpt>
      <trkpt lat="46.38478" lon="5.5469">
        <ele>399.39999389648</ele>
        <time>2026-08-27T10:06:11.000Z</time>
      </trkpt>
      <trkpt lat="46.38484" lon="5.54694">
        <ele>399</ele>
        <time>2026-08-27T10:06:20.000Z</time>
      </trkpt>
      <trkpt lat="46.38485" lon="5.54695">
        <ele>399</ele>
        <time>2026-08-27T10:06:23.000Z</time>
      </trkpt>
      <trkpt lat="46.38484" lon="5.54695">
        <ele>399</ele>
        <time>2026-08-27T10:06:26.000Z</time>
      </trkpt>
      <trkpt lat="46.38484" lon="5.54695">
        <ele>399</ele>
        <time>2026-08-27T10:06:28.000Z</time>
      </trkpt>
      <trkpt lat="46.38485" lon="5.54695">
        <ele>399.39999389648</ele>
        <time>2026-08-27T10:06:34.000Z</time>
      </trkpt>
      <trkpt lat="46.38485" lon="5.54696">
        <ele>399.39999389648</ele>
        <time>2026-08-27T10:06:35.000Z</time>
      </trkpt>
      <trkpt lat="46.38487" lon="5.54698">
        <ele>399.20001220703</ele>
        <time>2026-08-27T10:06:41.000Z</time>
      </trkpt>
      <trkpt lat="46.38488" lon="5.54698">
        <ele>399.39999389648</ele>
        <time>2026-08-27T10:06:50.000Z</time>
      </trkpt>
      <trkpt lat="46.38488" lon="5.54697">
        <ele>399.39999389648</ele>
        <time>2026-08-27T10:06:52.000Z</time>
      </trkpt>
      <trkpt lat="46.38488" lon="5.54697">
        <ele>399.20001220703</ele>
        <time>2026-08-27T10:06:57.000Z</time>
      </trkpt>
      <trkpt lat="46.38487" lon="5.54697">
        <ele>399</ele>
        <time>2026-08-27T10:07:01.000Z</time>
      </trkpt>
      <trkpt lat="46.38486" lon="5.54696">
        <ele>398.79998779297</ele>
        <time>2026-08-27T10:07:06.000Z</time>
      </trkpt>
      <trkpt lat="46.38487" lon="5.54696">
        <ele>399</ele>
        <time>2026-08-27T10:07:13.000Z</time>
      </trkpt>
      <trkpt lat="46.38486" lon="5.54697">
        <ele>399</ele>
        <time>2026-08-27T10:07:21.000Z</time>
      </trkpt>
      <trkpt lat="46.38487" lon="5.54698">
        <ele>399.20001220703</ele>
        <time>2026-08-27T10:07:30.000Z</time>
      </trkpt>
      <trkpt lat="46.38484" lon="5.547">
        <ele>399.20001220703</ele>
        <time>2026-08-27T10:07:36.000Z</time>
      </trkpt>
      <trkpt lat="46.38484" lon="5.54701">
        <ele>399.20001220703</ele>
        <time>2026-08-27T10:07:38.000Z</time>
      </trkpt>
      <trkpt lat="46.38485" lon="5.54702">
        <ele>399</ele>
        <time>2026-08-27T10:07:44.000Z</time>
      </trkpt>
      <trkpt lat="46.38485" lon="5.54701">
        <ele>399.20001220703</ele>
        <time>2026-08-27T10:07:49.000Z</time>
      </trkpt>
      <trkpt lat="46.38486" lon="5.54701">
        <ele>399</ele>
        <time>2026-08-27T10:07:58.000Z</time>
      </trkpt>
      <trkpt lat="46.38485" lon="5.54702">
        <ele>399.20001220703</ele>
        <time>2026-08-27T10:08:04.000Z</time>
      </trkpt>
      <trkpt lat="46.38485" lon="5.54702">
        <ele>399.20001220703</ele>
        <time>2026-08-27T10:08:05.000Z</time>
      </trkpt>
      <trkpt lat="46.38485" lon="5.54702">
        <ele>399.20001220703</ele>
        <time>2026-08-27T10:08:06.000Z</time>
      </trkpt>
      <trkpt lat="46.38485" lon="5.54702">
        <ele>399.20001220703</ele>
        <time>2026-08-27T10:08:09.000Z</time>
      </trkpt>
      <trkpt lat="46.38485" lon="5.54703">
        <ele>399.39999389648</ele>
        <time>2026-08-27T10:08:18.000Z</time>
      </trkpt>
      <trkpt lat="46.38485" lon="5.54703">
        <ele>399.39999389648</ele>
        <time>2026-08-27T10:08:20.000Z</time>
      </trkpt>
      <trkpt lat="46.38485" lon="5.54703">
        <ele>399.39999389648</ele>
        <time>2026-08-27T10:08:22.000Z</time>
      </trkpt>
      <trkpt lat="46.38485" lon="5.54702">
        <ele>399.20001220703</ele>
        <time>2026-08-27T10:08:24.000Z</time>
      </trkpt>
      <trkpt lat="46.38485" lon="5.54702">
        <ele>399.20001220703</ele>
        <time>2026-08-27T10:08:28.000Z</time>
      </trkpt>
      <trkpt lat="46.38486" lon="5.54702">
        <ele>399.39999389648</ele>
        <time>2026-08-27T10:08:37.000Z</time>
      </trkpt>
      <trkpt lat="46.38486" lon="5.54702">
        <ele>399.20001220703</ele>
        <time>2026-08-27T10:08:41.000Z</time>
      </trkpt>
      <trkpt lat="46.38485" lon="5.54702">
        <ele>399.20001220703</ele>
        <time>2026-08-27T10:08:51.000Z</time>
      </trkpt>
      <trkpt lat="46.38483" lon="5.54702">
        <ele>399</ele>
        <time>2026-08-27T10:08:58.000Z</time>
      </trkpt>
      <trkpt lat="46.38485" lon="5.54702">
        <ele>399</ele>
        <time>2026-08-27T10:09:06.000Z</time>
      </trkpt>
      <trkpt lat="46.38484" lon="5.54702">
        <ele>399.20001220703</ele>
        <time>2026-08-27T10:09:11.000Z</time>
      </trkpt>
      <trkpt lat="46.38485" lon="5.54702">
        <ele>399.20001220703</ele>
        <time>2026-08-27T10:09:13.000Z</time>
      </trkpt>
      <trkpt lat="46.38486" lon="5.54702">
        <ele>399</ele>
        <time>2026-08-27T10:09:19.000Z</time>
      </trkpt>
      <trkpt lat="46.38486" lon="5.54702">
        <ele>399</ele>
        <time>2026-08-27T10:09:20.000Z</time>
      </trkpt>
      <trkpt lat="46.38486" lon="5.54702">
        <ele>399</ele>
        <time>2026-08-27T10:09:22.000Z</time>
      </trkpt>
      <trkpt lat="46.38483" lon="5.54703">
        <ele>398.79998779297</ele>
        <time>2026-08-27T10:09:29.000Z</time>
      </trkpt>
      <trkpt lat="46.38483" lon="5.54702">
        <ele>398.60000610352</ele>
        <time>2026-08-27T10:09:36.000Z</time>
      </trkpt>
      <trkpt lat="46.38483" lon="5.54702">
        <ele>398.60000610352</ele>
        <time>2026-08-27T10:09:47.000Z</time>
      </trkpt>
      <trkpt lat="46.38482" lon="5.54703">
        <ele>398.39999389648</ele>
        <time>2026-08-27T10:09:54.000Z</time>
      </trkpt>
      <trkpt lat="46.38482" lon="5.54703">
        <ele>398.39999389648</ele>
        <time>2026-08-27T10:09:55.000Z</time>
      </trkpt>
      <trkpt lat="46.38484" lon="5.54702">
        <ele>398.39999389648</ele>
        <time>2026-08-27T10:10:04.000Z</time>
      </trkpt>
      <trkpt lat="46.38482" lon="5.54702">
        <ele>398.39999389648</ele>
        <time>2026-08-27T10:10:15.000Z</time>
      </trkpt>
      <trkpt lat="46.38483" lon="5.547">
        <ele>398.60000610352</ele>
        <time>2026-08-27T10:10:27.000Z</time>
      </trkpt>
      <trkpt lat="46.38482" lon="5.54702">
        <ele>398.79998779297</ele>
        <time>2026-08-27T10:10:39.000Z</time>
      </trkpt>
      <trkpt lat="46.38482" lon="5.54701">
        <ele>398.60000610352</ele>
        <time>2026-08-27T10:10:55.000Z</time>
      </trkpt>
      <trkpt lat="46.38483" lon="5.54699">
        <ele>398.79998779297</ele>
        <time>2026-08-27T10:11:03.000Z</time>
      </trkpt>
      <trkpt lat="46.38483" lon="5.54699">
        <ele>399</ele>
        <time>2026-08-27T10:11:20.000Z</time>
      </trkpt>
      <trkpt lat="46.38484" lon="5.54701">
        <ele>398.79998779297</ele>
        <time>2026-08-27T10:11:30.000Z</time>
      </trkpt>
      <trkpt lat="46.38483" lon="5.54702">
        <ele>398.79998779297</ele>
        <time>2026-08-27T10:11:34.000Z</time>
      </trkpt>
      <trkpt lat="46.38483" lon="5.54702">
        <ele>398.79998779297</ele>
        <time>2026-08-27T10:11:38.000Z</time>
      </trkpt>
      <trkpt lat="46.38483" lon="5.54701">
        <ele>398.79998779297</ele>
        <time>2026-08-27T10:11:40.000Z</time>
      </trkpt>
      <trkpt lat="46.38482" lon="5.54701">
        <ele>398.60000610352</ele>
        <time>2026-08-27T10:11:47.000Z</time>
      </trkpt>
      <trkpt lat="46.38482" lon="5.54701">
        <ele>398.60000610352</ele>
        <time>2026-08-27T10:11:49.000Z</time>
      </trkpt>
      <trkpt lat="46.38483" lon="5.54702">
        <ele>398.60000610352</ele>
        <time>2026-08-27T10:11:54.000Z</time>
      </trkpt>
      <trkpt lat="46.38484" lon="5.54703">
        <ele>398.60000610352</ele>
        <time>2026-08-27T10:12:00.000Z</time>
      </trkpt>
      <trkpt lat="46.38483" lon="5.54702">
        <ele>398.39999389648</ele>
        <time>2026-08-27T10:12:07.000Z</time>
      </trkpt>
      <trkpt lat="46.38482" lon="5.54701">
        <ele>398.39999389648</ele>
        <time>2026-08-27T10:12:10.000Z</time>
      </trkpt>
      <trkpt lat="46.38483" lon="5.54702">
        <ele>398.79998779297</ele>
        <time>2026-08-27T10:12:18.000Z</time>
      </trkpt>
      <trkpt lat="46.38485" lon="5.54703">
        <ele>398.79998779297</ele>
        <time>2026-08-27T10:12:31.000Z</time>
      </trkpt>
      <trkpt lat="46.38485" lon="5.54703">
        <ele>398.79998779297</ele>
        <time>2026-08-27T10:12:40.000Z</time>
      </trkpt>
      <trkpt lat="46.38485" lon="5.54703">
        <ele>398.79998779297</ele>
        <time>2026-08-27T10:12:49.000Z</time>
      </trkpt>
      <trkpt lat="46.38485" lon="5.54703">
        <ele>399.20001220703</ele>
        <time>2026-08-27T10:13:01.000Z</time>
      </trkpt>
      <trkpt lat="46.38483" lon="5.54706">
        <ele>399</ele>
        <time>2026-08-27T10:13:14.000Z</time>
      </trkpt>
      <trkpt lat="46.38482" lon="5.54702">
        <ele>399</ele>
        <time>2026-08-27T10:13:21.000Z</time>
      </trkpt>
      <trkpt lat="46.38482" lon="5.54702">
        <ele>399</ele>
        <time>2026-08-27T10:13:25.000Z</time>
      </trkpt>
      <trkpt lat="46.38482" lon="5.54702">
        <ele>398.79998779297</ele>
        <time>2026-08-27T10:13:30.000Z</time>
      </trkpt>
      <trkpt lat="46.38482" lon="5.54701">
        <ele>399</ele>
        <time>2026-08-27T10:13:36.000Z</time>
      </trkpt>
      <trkpt lat="46.38484" lon="5.54702">
        <ele>399</ele>
        <time>2026-08-27T10:13:49.000Z</time>
      </trkpt>
      <trkpt lat="46.38483" lon="5.54702">
        <ele>399.20001220703</ele>
        <time>2026-08-27T10:14:00.000Z</time>
      </trkpt>
      <trkpt lat="46.38483" lon="5.54704">
        <ele>399.20001220703</ele>
        <time>2026-08-27T10:14:15.000Z</time>
      </trkpt>
      <trkpt lat="46.38483" lon="5.547">
        <ele>399.60000610352</ele>
        <time>2026-08-27T10:14:26.000Z</time>
      </trkpt>
      <trkpt lat="46.38482" lon="5.54701">
        <ele>399.60000610352</ele>
        <time>2026-08-27T10:14:30.000Z</time>
      </trkpt>
      <trkpt lat="46.38483" lon="5.54703">
        <ele>399.39999389648</ele>
        <time>2026-08-27T10:14:36.000Z</time>
      </trkpt>
      <trkpt lat="46.38481" lon="5.54702">
        <ele>399.20001220703</ele>
        <time>2026-08-27T10:14:47.000Z</time>
      </trkpt>
      <trkpt lat="46.38481" lon="5.54701">
        <ele>399.39999389648</ele>
        <time>2026-08-27T10:14:48.000Z</time>
      </trkpt>
      <trkpt lat="46.38481" lon="5.54704">
        <ele>399.79998779297</ele>
        <time>2026-08-27T10:14:58.000Z</time>
      </trkpt>
      <trkpt lat="46.3848" lon="5.54705">
        <ele>399.79998779297</ele>
        <time>2026-08-27T10:15:07.000Z</time>
      </trkpt>
      <trkpt lat="46.38482" lon="5.54701">
        <ele>399.60000610352</ele>
        <time>2026-08-27T10:15:17.000Z</time>
      </trkpt>
      <trkpt lat="46.38481" lon="5.54701">
        <ele>399.60000610352</ele>
        <time>2026-08-27T10:15:19.000Z</time>
      </trkpt>
      <trkpt lat="46.38481" lon="5.547">
        <ele>399.79998779297</ele>
        <time>2026-08-27T10:15:29.000Z</time>
      </trkpt>
      <trkpt lat="46.38481" lon="5.547">
        <ele>399.79998779297</ele>
        <time>2026-08-27T10:15:34.000Z</time>
      </trkpt>
      <trkpt lat="46.38481" lon="5.547">
        <ele>400</ele>
        <time>2026-08-27T10:15:36.000Z</time>
      </trkpt>
      <trkpt lat="46.38481" lon="5.54701">
        <ele>399.79998779297</ele>
        <time>2026-08-27T10:15:48.000Z</time>
      </trkpt>
      <trkpt lat="46.38484" lon="5.54702">
        <ele>399.79998779297</ele>
        <time>2026-08-27T10:15:59.000Z</time>
      </trkpt>
      <trkpt lat="46.38485" lon="5.54702">
        <ele>400</ele>
        <time>2026-08-27T10:16:09.000Z</time>
      </trkpt>
      <trkpt lat="46.38484" lon="5.54701">
        <ele>400</ele>
        <time>2026-08-27T10:16:17.000Z</time>
      </trkpt>
      <trkpt lat="46.38484" lon="5.54702">
        <ele>400.20001220703</ele>
        <time>2026-08-27T10:16:22.000Z</time>
      </trkpt>
      <trkpt lat="46.38483" lon="5.547">
        <ele>400.20001220703</ele>
        <time>2026-08-27T10:16:33.000Z</time>
      </trkpt>
      <trkpt lat="46.38483" lon="5.547">
        <ele>400.60000610352</ele>
        <time>2026-08-27T10:16:52.000Z</time>
      </trkpt>
      <trkpt lat="46.38483" lon="5.547">
        <ele>400.39999389648</ele>
        <time>2026-08-27T10:17:04.000Z</time>
      </trkpt>
      <trkpt lat="46.38484" lon="5.54701">
        <ele>400.39999389648</ele>
        <time>2026-08-27T10:17:28.000Z</time>
      </trkpt>
      <trkpt lat="46.38482" lon="5.54703">
        <ele>400.79998779297</ele>
        <time>2026-08-27T10:17:40.000Z</time>
      </trkpt>
      <trkpt lat="46.38482" lon="5.54702">
        <ele>400.60000610352</ele>
        <time>2026-08-27T10:17:59.000Z</time>
      </trkpt>
      <trkpt lat="46.38483" lon="5.54702">
        <ele>400.60000610352</ele>
        <time>2026-08-27T10:18:11.000Z</time>
      </trkpt>
      <trkpt lat="46.38482" lon="5.54702">
        <ele>400.79998779297</ele>
        <time>2026-08-27T10:18:24.000Z</time>
      </trkpt>
      <trkpt lat="46.38484" lon="5.54699">
        <ele>400.79998779297</ele>
        <time>2026-08-27T10:18:42.000Z</time>
      </trkpt>
      <trkpt lat="46.38484" lon="5.547">
        <ele>401</ele>
        <time>2026-08-27T10:18:46.000Z</time>
      </trkpt>
      <trkpt lat="46.38484" lon="5.54703">
        <ele>401</ele>
        <time>2026-08-27T10:18:52.000Z</time>
      </trkpt>
      <trkpt lat="46.38484" lon="5.54701">
        <ele>400.60000610352</ele>
        <time>2026-08-27T10:19:06.000Z</time>
      </trkpt>
      <trkpt lat="46.38484" lon="5.54699">
        <ele>400.79998779297</ele>
        <time>2026-08-27T10:19:16.000Z</time>
      </trkpt>
      <trkpt lat="46.38483" lon="5.54702">
        <ele>401</ele>
        <time>2026-08-27T10:19:26.000Z</time>
      </trkpt>
      <trkpt lat="46.38482" lon="5.54699">
        <ele>400.79998779297</ele>
        <time>2026-08-27T10:19:32.000Z</time>
      </trkpt>
      <trkpt lat="46.38484" lon="5.54699">
        <ele>400.60000610352</ele>
        <time>2026-08-27T10:19:37.000Z</time>
      </trkpt>
      <trkpt lat="46.38484" lon="5.54698">
        <ele>400.79998779297</ele>
        <time>2026-08-27T10:19:50.000Z</time>
      </trkpt>
      <trkpt lat="46.38483" lon="5.54701">
        <ele>401</ele>
        <time>2026-08-27T10:20:04.000Z</time>
      </trkpt>
      <trkpt lat="46.38483" lon="5.54701">
        <ele>401</ele>
        <time>2026-08-27T10:20:06.000Z</time>
      </trkpt>
      <trkpt lat="46.38483" lon="5.54701">
        <ele>401</ele>
        <time>2026-08-27T10:20:15.000Z</time>
      </trkpt>
      <trkpt lat="46.38483" lon="5.54701">
        <ele>400.79998779297</ele>
        <time>2026-08-27T10:20:28.000Z</time>
      </trkpt>
      <trkpt lat="46.38483" lon="5.54701">
        <ele>401</ele>
        <time>2026-08-27T10:20:45.000Z</time>
      </trkpt>
      <trkpt lat="46.38483" lon="5.54701">
        <ele>401</ele>
        <time>2026-08-27T10:20:57.000Z</time>
      </trkpt>
      <trkpt lat="46.38483" lon="5.54701">
        <ele>400.79998779297</ele>
        <time>2026-08-27T10:21:11.000Z</time>
      </trkpt>
      <trkpt lat="46.38483" lon="5.54699">
        <ele>400.79998779297</ele>
        <time>2026-08-27T10:21:33.000Z</time>
      </trkpt>
      <trkpt lat="46.38482" lon="5.54698">
        <ele>400.79998779297</ele>
        <time>2026-08-27T10:21:35.000Z</time>
      </trkpt>
      <trkpt lat="46.38483" lon="5.547">
        <ele>400.79998779297</ele>
        <time>2026-08-27T10:21:44.000Z</time>
      </trkpt>
      <trkpt lat="46.38483" lon="5.54699">
        <ele>400.79998779297</ele>
        <time>2026-08-27T10:21:49.000Z</time>
      </trkpt>
      <trkpt lat="46.38483" lon="5.54701">
        <ele>400.79998779297</ele>
        <time>2026-08-27T10:21:53.000Z</time>
      </trkpt>
      <trkpt lat="46.38483" lon="5.54701">
        <ele>400.79998779297</ele>
        <time>2026-08-27T10:21:58.000Z</time>
      </trkpt>
      <trkpt lat="46.38484" lon="5.54702">
        <ele>400.79998779297</ele>
        <time>2026-08-27T10:22:10.000Z</time>
      </trkpt>
      <trkpt lat="46.38483" lon="5.54701">
        <ele>400.60000610352</ele>
        <time>2026-08-27T10:22:16.000Z</time>
      </trkpt>
      <trkpt lat="46.38484" lon="5.54702">
        <ele>400.79998779297</ele>
        <time>2026-08-27T10:22:31.000Z</time>
      </trkpt>
      <trkpt lat="46.38484" lon="5.547">
        <ele>400.60000610352</ele>
        <time>2026-08-27T10:22:35.000Z</time>
      </trkpt>
      <trkpt lat="46.38483" lon="5.54701">
        <ele>401</ele>
        <time>2026-08-27T10:22:48.000Z</time>
      </trkpt>
      <trkpt lat="46.38483" lon="5.54701">
        <ele>401</ele>
        <time>2026-08-27T10:23:09.000Z</time>
      </trkpt>
      <trkpt lat="46.38483" lon="5.54702">
        <ele>401</ele>
        <time>2026-08-27T10:23:11.000Z</time>
      </trkpt>
      <trkpt lat="46.38483" lon="5.54702">
        <ele>401</ele>
        <time>2026-08-27T10:23:12.000Z</time>
      </trkpt>
      <trkpt lat="46.38484" lon="5.54701">
        <ele>401</ele>
        <time>2026-08-27T10:23:21.000Z</time>
      </trkpt>
      <trkpt lat="46.38484" lon="5.54701">
        <ele>401</ele>
        <time>2026-08-27T10:23:30.000Z</time>
      </trkpt>
      <trkpt lat="46.38482" lon="5.54699">
        <ele>401</ele>
        <time>2026-08-27T10:23:39.000Z</time>
      </trkpt>
      <trkpt lat="46.38482" lon="5.54701">
        <ele>401</ele>
        <time>2026-08-27T10:23:44.000Z</time>
      </trkpt>
      <trkpt lat="46.38483" lon="5.54702">
        <ele>401</ele>
        <time>2026-08-27T10:23:55.000Z</time>
      </trkpt>
      <trkpt lat="46.38483" lon="5.547">
        <ele>401.20001220703</ele>
        <time>2026-08-27T10:24:10.000Z</time>
      </trkpt>
      <trkpt lat="46.38483" lon="5.547">
        <ele>401</ele>
        <time>2026-08-27T10:24:22.000Z</time>
      </trkpt>
      <trkpt lat="46.38484" lon="5.54704">
        <ele>401.20001220703</ele>
        <time>2026-08-27T10:24:33.000Z</time>
      </trkpt>
      <trkpt lat="46.38483" lon="5.54701">
        <ele>401.20001220703</ele>
        <time>2026-08-27T10:24:46.000Z</time>
      </trkpt>
      <trkpt lat="46.38483" lon="5.54701">
        <ele>401</ele>
        <time>2026-08-27T10:24:52.000Z</time>
      </trkpt>
      <trkpt lat="46.38483" lon="5.54701">
        <ele>401</ele>
        <time>2026-08-27T10:24:55.000Z</time>
      </trkpt>
      <trkpt lat="46.38483" lon="5.54701">
        <ele>401.20001220703</ele>
        <time>2026-08-27T10:24:59.000Z</time>
      </trkpt>
      <trkpt lat="46.38483" lon="5.54701">
        <ele>401.39999389648</ele>
        <time>2026-08-27T10:25:07.000Z</time>
      </trkpt>
      <trkpt lat="46.38484" lon="5.54702">
        <ele>401.39999389648</ele>
        <time>2026-08-27T10:25:23.000Z</time>
      </trkpt>
      <trkpt lat="46.38484" lon="5.54703">
        <ele>401.39999389648</ele>
        <time>2026-08-27T10:25:27.000Z</time>
      </trkpt>
      <trkpt lat="46.38484" lon="5.54704">
        <ele>401.39999389648</ele>
        <time>2026-08-27T10:25:32.000Z</time>
      </trkpt>
      <trkpt lat="46.38484" lon="5.54703">
        <ele>401.39999389648</ele>
        <time>2026-08-27T10:25:34.000Z</time>
      </trkpt>
      <trkpt lat="46.38484" lon="5.54701">
        <ele>401.20001220703</ele>
        <time>2026-08-27T10:25:41.000Z</time>
      </trkpt>
      <trkpt lat="46.38484" lon="5.54701">
        <ele>401.39999389648</ele>
        <time>2026-08-27T10:25:43.000Z</time>
      </trkpt>
      <trkpt lat="46.38483" lon="5.54699">
        <ele>401.39999389648</ele>
        <time>2026-08-27T10:25:49.000Z</time>
      </trkpt>
      <trkpt lat="46.38482" lon="5.54698">
        <ele>401.39999389648</ele>
        <time>2026-08-27T10:25:53.000Z</time>
      </trkpt>
      <trkpt lat="46.38484" lon="5.54701">
        <ele>401.20001220703</ele>
        <time>2026-08-27T10:26:04.000Z</time>
      </trkpt>
      <trkpt lat="46.38483" lon="5.54702">
        <ele>401.39999389648</ele>
        <time>2026-08-27T10:26:16.000Z</time>
      </trkpt>
      <trkpt lat="46.38482" lon="5.54704">
        <ele>401.60000610352</ele>
        <time>2026-08-27T10:26:30.000Z</time>
      </trkpt>
      <trkpt lat="46.38482" lon="5.54704">
        <ele>401.79998779297</ele>
        <time>2026-08-27T10:26:46.000Z</time>
      </trkpt>
      <trkpt lat="46.38482" lon="5.54704">
        <ele>401.79998779297</ele>
        <time>2026-08-27T10:26:51.000Z</time>
      </trkpt>
      <trkpt lat="46.38482" lon="5.54704">
        <ele>401.79998779297</ele>
        <time>2026-08-27T10:27:04.000Z</time>
      </trkpt>
      <trkpt lat="46.38482" lon="5.54704">
        <ele>401.60000610352</ele>
        <time>2026-08-27T10:27:36.000Z</time>
      </trkpt>
      <trkpt lat="46.38482" lon="5.54704">
        <ele>401.60000610352</ele>
        <time>2026-08-27T10:27:46.000Z</time>
      </trkpt>
      <trkpt lat="46.38482" lon="5.54704">
        <ele>401.79998779297</ele>
        <time>2026-08-27T10:28:02.000Z</time>
      </trkpt>
      <trkpt lat="46.38483" lon="5.54701">
        <ele>401.60000610352</ele>
        <time>2026-08-27T10:28:10.000Z</time>
      </trkpt>
      <trkpt lat="46.38483" lon="5.547">
        <ele>401.60000610352</ele>
        <time>2026-08-27T10:28:13.000Z</time>
      </trkpt>
      <trkpt lat="46.38485" lon="5.54702">
        <ele>401.79998779297</ele>
        <time>2026-08-27T10:28:21.000Z</time>
      </trkpt>
      <trkpt lat="46.38484" lon="5.54702">
        <ele>401.60000610352</ele>
        <time>2026-08-27T10:28:31.000Z</time>
      </trkpt>
      <trkpt lat="46.38484" lon="5.54702">
        <ele>401.60000610352</ele>
        <time>2026-08-27T10:28:36.000Z</time>
      </trkpt>
      <trkpt lat="46.38484" lon="5.54702">
        <ele>401.79998779297</ele>
        <time>2026-08-27T10:28:54.000Z</time>
      </trkpt>
      <trkpt lat="46.38484" lon="5.54702">
        <ele>401.60000610352</ele>
        <time>2026-08-27T10:29:02.000Z</time>
      </trkpt>
      <trkpt lat="46.38485" lon="5.54701">
        <ele>401.39999389648</ele>
        <time>2026-08-27T10:29:05.000Z</time>
      </trkpt>
      <trkpt lat="46.38484" lon="5.54702">
        <ele>401.39999389648</ele>
        <time>2026-08-27T10:29:10.000Z</time>
      </trkpt>
      <trkpt lat="46.38484" lon="5.54702">
        <ele>401.20001220703</ele>
        <time>2026-08-27T10:29:27.000Z</time>
      </trkpt>
      <trkpt lat="46.38483" lon="5.54702">
        <ele>401.20001220703</ele>
        <time>2026-08-27T10:29:37.000Z</time>
      </trkpt>
      <trkpt lat="46.38483" lon="5.54703">
        <ele>401</ele>
        <time>2026-08-27T10:30:00.000Z</time>
      </trkpt>
      <trkpt lat="46.38483" lon="5.54703">
        <ele>401</ele>
        <time>2026-08-27T10:30:09.000Z</time>
      </trkpt>
      <trkpt lat="46.38483" lon="5.54703">
        <ele>401</ele>
        <time>2026-08-27T10:30:14.000Z</time>
      </trkpt>
      <trkpt lat="46.38483" lon="5.54703">
        <ele>401</ele>
        <time>2026-08-27T10:30:17.000Z</time>
      </trkpt>
      <trkpt lat="46.38483" lon="5.54703">
        <ele>401</ele>
        <time>2026-08-27T10:30:19.000Z</time>
      </trkpt>
      <trkpt lat="46.38483" lon="5.54703">
        <ele>400.79998779297</ele>
        <time>2026-08-27T10:30:28.000Z</time>
      </trkpt>
      <trkpt lat="46.38482" lon="5.54703">
        <ele>400.79998779297</ele>
        <time>2026-08-27T10:30:30.000Z</time>
      </trkpt>
      <trkpt lat="46.38484" lon="5.54702">
        <ele>400.79998779297</ele>
        <time>2026-08-27T10:30:40.000Z</time>
      </trkpt>
      <trkpt lat="46.38483" lon="5.54701">
        <ele>400.79998779297</ele>
        <time>2026-08-27T10:30:49.000Z</time>
      </trkpt>
      <trkpt lat="46.38483" lon="5.54702">
        <ele>401</ele>
        <time>2026-08-27T10:30:58.000Z</time>
      </trkpt>
      <trkpt lat="46.38484" lon="5.54702">
        <ele>401</ele>
        <time>2026-08-27T10:31:01.000Z</time>
      </trkpt>
      <trkpt lat="46.38484" lon="5.54702">
        <ele>400.79998779297</ele>
        <time>2026-08-27T10:31:11.000Z</time>
      </trkpt>
      <trkpt lat="46.38483" lon="5.54702">
        <ele>400.79998779297</ele>
        <time>2026-08-27T10:31:20.000Z</time>
      </trkpt>
      <trkpt lat="46.38484" lon="5.54702">
        <ele>400.79998779297</ele>
        <time>2026-08-27T10:31:39.000Z</time>
      </trkpt>
      <trkpt lat="46.38483" lon="5.54702">
        <ele>400.79998779297</ele>
        <time>2026-08-27T10:31:58.000Z</time>
      </trkpt>
      <trkpt lat="46.38481" lon="5.54702">
        <ele>400.79998779297</ele>
        <time>2026-08-27T10:32:10.000Z</time>
      </trkpt>
      <trkpt lat="46.38481" lon="5.54702">
        <ele>400.79998779297</ele>
        <time>2026-08-27T10:32:11.000Z</time>
      </trkpt>
      <trkpt lat="46.38481" lon="5.54702">
        <ele>400.79998779297</ele>
        <time>2026-08-27T10:32:14.000Z</time>
      </trkpt>
      <trkpt lat="46.38481" lon="5.54702">
        <ele>401</ele>
        <time>2026-08-27T10:32:22.000Z</time>
      </trkpt>
      <trkpt lat="46.38481" lon="5.54702">
        <ele>400.79998779297</ele>
        <time>2026-08-27T10:32:23.000Z</time>
      </trkpt>
      <trkpt lat="46.38481" lon="5.54702">
        <ele>400.79998779297</ele>
        <time>2026-08-27T10:32:25.000Z</time>
      </trkpt>
      <trkpt lat="46.38481" lon="5.54702">
        <ele>401</ele>
        <time>2026-08-27T10:32:37.000Z</time>
      </trkpt>
      <trkpt lat="46.38482" lon="5.547">
        <ele>400.79998779297</ele>
        <time>2026-08-27T10:32:47.000Z</time>
      </trkpt>
      <trkpt lat="46.38483" lon="5.54702">
        <ele>400.79998779297</ele>
        <time>2026-08-27T10:32:56.000Z</time>
      </trkpt>
      <trkpt lat="46.38483" lon="5.54702">
        <ele>400.60000610352</ele>
        <time>2026-08-27T10:32:59.000Z</time>
      </trkpt>
      <trkpt lat="46.38481" lon="5.54702">
        <ele>400.60000610352</ele>
        <time>2026-08-27T10:33:09.000Z</time>
      </trkpt>
      <trkpt lat="46.38483" lon="5.54702">
        <ele>400.60000610352</ele>
        <time>2026-08-27T10:33:25.000Z</time>
      </trkpt>
      <trkpt lat="46.38484" lon="5.54701">
        <ele>400.39999389648</ele>
        <time>2026-08-27T10:33:37.000Z</time>
      </trkpt>
      <trkpt lat="46.38481" lon="5.54699">
        <ele>400.39999389648</ele>
        <time>2026-08-27T10:33:50.000Z</time>
      </trkpt>
      <trkpt lat="46.38481" lon="5.54699">
        <ele>400.20001220703</ele>
        <time>2026-08-27T10:33:58.000Z</time>
      </trkpt>
      <trkpt lat="46.38482" lon="5.547">
        <ele>400.39999389648</ele>
        <time>2026-08-27T10:34:03.000Z</time>
      </trkpt>
      <trkpt lat="46.38483" lon="5.547">
        <ele>400.60000610352</ele>
        <time>2026-08-27T10:34:06.000Z</time>
      </trkpt>
      <trkpt lat="46.38484" lon="5.54698">
        <ele>400.20001220703</ele>
        <time>2026-08-27T10:34:13.000Z</time>
      </trkpt>
      <trkpt lat="46.38485" lon="5.54698">
        <ele>400.60000610352</ele>
        <time>2026-08-27T10:34:24.000Z</time>
      </trkpt>
      <trkpt lat="46.38484" lon="5.54697">
        <ele>400.79998779297</ele>
        <time>2026-08-27T10:34:36.000Z</time>
      </trkpt>
      <trkpt lat="46.38485" lon="5.54693">
        <ele>400.79998779297</ele>
        <time>2026-08-27T10:34:45.000Z</time>
      </trkpt>
      <trkpt lat="46.38487" lon="5.54691">
        <ele>400.79998779297</ele>
        <time>2026-08-27T10:34:54.000Z</time>
      </trkpt>
      <trkpt lat="46.38489" lon="5.54692">
        <ele>400.79998779297</ele>
        <time>2026-08-27T10:34:58.000Z</time>
      </trkpt>
      <trkpt lat="46.38492" lon="5.54697">
        <ele>401</ele>
        <time>2026-08-27T10:35:07.000Z</time>
      </trkpt>
      <trkpt lat="46.38486" lon="5.54697">
        <ele>400.79998779297</ele>
        <time>2026-08-27T10:35:16.000Z</time>
      </trkpt>
      <trkpt lat="46.38486" lon="5.54698">
        <ele>400.79998779297</ele>
        <time>2026-08-27T10:35:17.000Z</time>
      </trkpt>
      <trkpt lat="46.38485" lon="5.54699">
        <ele>401</ele>
        <time>2026-08-27T10:35:19.000Z</time>
      </trkpt>
      <trkpt lat="46.38484" lon="5.547">
        <ele>400.60000610352</ele>
        <time>2026-08-27T10:35:25.000Z</time>
      </trkpt>
      <trkpt lat="46.38485" lon="5.54701">
        <ele>400.60000610352</ele>
        <time>2026-08-27T10:35:34.000Z</time>
      </trkpt>
      <trkpt lat="46.38484" lon="5.547">
        <ele>400.39999389648</ele>
        <time>2026-08-27T10:35:43.000Z</time>
      </trkpt>
      <trkpt lat="46.38485" lon="5.54699">
        <ele>400.20001220703</ele>
        <time>2026-08-27T10:35:53.000Z</time>
      </trkpt>
      <trkpt lat="46.38486" lon="5.54699">
        <ele>400</ele>
        <time>2026-08-27T10:36:05.000Z</time>
      </trkpt>
      <trkpt lat="46.38486" lon="5.54702">
        <ele>400.20001220703</ele>
        <time>2026-08-27T10:36:15.000Z</time>
      </trkpt>
      <trkpt lat="46.38487" lon="5.54701">
        <ele>399.79998779297</ele>
        <time>2026-08-27T10:36:20.000Z</time>
      </trkpt>
      <trkpt lat="46.38486" lon="5.547">
        <ele>400.39999389648</ele>
        <time>2026-08-27T10:36:26.000Z</time>
      </trkpt>
      <trkpt lat="46.38486" lon="5.547">
        <ele>400.60000610352</ele>
        <time>2026-08-27T10:36:27.000Z</time>
      </trkpt>
      <trkpt lat="46.38486" lon="5.54701">
        <ele>400.60000610352</ele>
        <time>2026-08-27T10:36:31.000Z</time>
      </trkpt>
      <trkpt lat="46.38488" lon="5.54702">
        <ele>400.79998779297</ele>
        <time>2026-08-27T10:36:37.000Z</time>
      </trkpt>
      <trkpt lat="46.38489" lon="5.54702">
        <ele>400.39999389648</ele>
        <time>2026-08-27T10:36:46.000Z</time>
      </trkpt>
      <trkpt lat="46.38486" lon="5.54702">
        <ele>400.39999389648</ele>
        <time>2026-08-27T10:36:55.000Z</time>
      </trkpt>
      <trkpt lat="46.38487" lon="5.54704">
        <ele>400.39999389648</ele>
        <time>2026-08-27T10:37:04.000Z</time>
      </trkpt>
      <trkpt lat="46.38486" lon="5.54704">
        <ele>400.79998779297</ele>
        <time>2026-08-27T10:37:14.000Z</time>
      </trkpt>
      <trkpt lat="46.38486" lon="5.54705">
        <ele>400.79998779297</ele>
        <time>2026-08-27T10:37:16.000Z</time>
      </trkpt>
      <trkpt lat="46.38487" lon="5.54705">
        <ele>400.79998779297</ele>
        <time>2026-08-27T10:37:17.000Z</time>
      </trkpt>
      <trkpt lat="46.38487" lon="5.54705">
        <ele>400.79998779297</ele>
        <time>2026-08-27T10:37:18.000Z</time>
      </trkpt>
      <trkpt lat="46.38488" lon="5.54705">
        <ele>400.79998779297</ele>
        <time>2026-08-27T10:37:22.000Z</time>
      </trkpt>
      <trkpt lat="46.38488" lon="5.54705">
        <ele>401</ele>
        <time>2026-08-27T10:37:23.000Z</time>
      </trkpt>
      <trkpt lat="46.38487" lon="5.54705">
        <ele>401</ele>
        <time>2026-08-27T10:37:25.000Z</time>
      </trkpt>
      <trkpt lat="46.38487" lon="5.54705">
        <ele>401.20001220703</ele>
        <time>2026-08-27T10:37:26.000Z</time>
      </trkpt>
      <trkpt lat="46.38487" lon="5.54705">
        <ele>401.20001220703</ele>
        <time>2026-08-27T10:37:27.000Z</time>
      </trkpt>
      <trkpt lat="46.38487" lon="5.54704">
        <ele>401.20001220703</ele>
        <time>2026-08-27T10:37:28.000Z</time>
      </trkpt>
      <trkpt lat="46.38487" lon="5.54704">
        <ele>401</ele>
        <time>2026-08-27T10:37:32.000Z</time>
      </trkpt>
      <trkpt lat="46.38486" lon="5.54705">
        <ele>400.79998779297</ele>
        <time>2026-08-27T10:37:42.000Z</time>
      </trkpt>
      <trkpt lat="46.38487" lon="5.54701">
        <ele>400.79998779297</ele>
        <time>2026-08-27T10:37:51.000Z</time>
      </trkpt>
      <trkpt lat="46.38488" lon="5.547">
        <ele>400.60000610352</ele>
        <time>2026-08-27T10:37:54.000Z</time>
      </trkpt>
      <trkpt lat="46.38489" lon="5.54699">
        <ele>400.79998779297</ele>
        <time>2026-08-27T10:37:57.000Z</time>
      </trkpt>
      <trkpt lat="46.38489" lon="5.54699">
        <ele>400.79998779297</ele>
        <time>2026-08-27T10:38:01.000Z</time>
      </trkpt>
      <trkpt lat="46.38488" lon="5.547">
        <ele>400.79998779297</ele>
        <time>2026-08-27T10:38:09.000Z</time>
      </trkpt>
      <trkpt lat="46.38488" lon="5.547">
        <ele>400.79998779297</ele>
        <time>2026-08-27T10:38:11.000Z</time>
      </trkpt>
      <trkpt lat="46.38487" lon="5.54698">
        <ele>400.39999389648</ele>
        <time>2026-08-27T10:38:21.000Z</time>
      </trkpt>
      <trkpt lat="46.38486" lon="5.54699">
        <ele>400.60000610352</ele>
        <time>2026-08-27T10:38:25.000Z</time>
      </trkpt>
      <trkpt lat="46.38487" lon="5.54699">
        <ele>400.60000610352</ele>
        <time>2026-08-27T10:38:34.000Z</time>
      </trkpt>
      <trkpt lat="46.38487" lon="5.54699">
        <ele>400.20001220703</ele>
        <time>2026-08-27T10:38:38.000Z</time>
      </trkpt>
      <trkpt lat="46.38486" lon="5.547">
        <ele>400.20001220703</ele>
        <time>2026-08-27T10:38:40.000Z</time>
      </trkpt>
      <trkpt lat="46.38486" lon="5.54701">
        <ele>400.20001220703</ele>
        <time>2026-08-27T10:38:42.000Z</time>
      </trkpt>
      <trkpt lat="46.38486" lon="5.54698">
        <ele>400.20001220703</ele>
        <time>2026-08-27T10:38:50.000Z</time>
      </trkpt>
      <trkpt lat="46.38486" lon="5.54699">
        <ele>400.39999389648</ele>
        <time>2026-08-27T10:38:58.000Z</time>
      </trkpt>
      <trkpt lat="46.38486" lon="5.547">
        <ele>400.39999389648</ele>
        <time>2026-08-27T10:38:59.000Z</time>
      </trkpt>
      <trkpt lat="46.38486" lon="5.547">
        <ele>400.20001220703</ele>
        <time>2026-08-27T10:39:08.000Z</time>
      </trkpt>
      <trkpt lat="46.38486" lon="5.547">
        <ele>400.20001220703</ele>
        <time>2026-08-27T10:39:17.000Z</time>
      </trkpt>
      <trkpt lat="46.38486" lon="5.54699">
        <ele>400.20001220703</ele>
        <time>2026-08-27T10:39:22.000Z</time>
      </trkpt>
      <trkpt lat="46.38488" lon="5.547">
        <ele>400.39999389648</ele>
        <time>2026-08-27T10:39:29.000Z</time>
      </trkpt>
      <trkpt lat="46.38487" lon="5.54701">
        <ele>400.20001220703</ele>
        <time>2026-08-27T10:39:33.000Z</time>
      </trkpt>
      <trkpt lat="46.38487" lon="5.54701">
        <ele>400.20001220703</ele>
        <time>2026-08-27T10:39:37.000Z</time>
      </trkpt>
      <trkpt lat="46.38487" lon="5.54697">
        <ele>400.20001220703</ele>
        <time>2026-08-27T10:39:44.000Z</time>
      </trkpt>
      <trkpt lat="46.38487" lon="5.54695">
        <ele>400.20001220703</ele>
        <time>2026-08-27T10:39:48.000Z</time>
      </trkpt>
      <trkpt lat="46.38487" lon="5.54695">
        <ele>400</ele>
        <time>2026-08-27T10:39:57.000Z</time>
      </trkpt>
      <trkpt lat="46.38488" lon="5.54699">
        <ele>400.60000610352</ele>
        <time>2026-08-27T10:40:13.000Z</time>
      </trkpt>
      <trkpt lat="46.38487" lon="5.54699">
        <ele>400.20001220703</ele>
        <time>2026-08-27T10:40:28.000Z</time>
      </trkpt>
      <trkpt lat="46.38486" lon="5.54701">
        <ele>400</ele>
        <time>2026-08-27T10:40:36.000Z</time>
      </trkpt>
      <trkpt lat="46.38487" lon="5.54703">
        <ele>400</ele>
        <time>2026-08-27T10:40:43.000Z</time>
      </trkpt>
      <trkpt lat="46.38488" lon="5.54703">
        <ele>400.20001220703</ele>
        <time>2026-08-27T10:40:54.000Z</time>
      </trkpt>
      <trkpt lat="46.38489" lon="5.54702">
        <ele>400.39999389648</ele>
        <time>2026-08-27T10:41:04.000Z</time>
      </trkpt>
      <trkpt lat="46.38487" lon="5.54701">
        <ele>400.39999389648</ele>
        <time>2026-08-27T10:41:11.000Z</time>
      </trkpt>
      <trkpt lat="46.38487" lon="5.54701">
        <ele>400.39999389648</ele>
        <time>2026-08-27T10:41:12.000Z</time>
      </trkpt>
      <trkpt lat="46.38484" lon="5.54702">
        <ele>400.20001220703</ele>
        <time>2026-08-27T10:41:20.000Z</time>
      </trkpt>
      <trkpt lat="46.38484" lon="5.54701">
        <ele>399.79998779297</ele>
        <time>2026-08-27T10:41:23.000Z</time>
      </trkpt>
      <trkpt lat="46.38483" lon="5.54699">
        <ele>399.79998779297</ele>
        <time>2026-08-27T10:41:28.000Z</time>
      </trkpt>
      <trkpt lat="46.38485" lon="5.54699">
        <ele>400</ele>
        <time>2026-08-27T10:41:34.000Z</time>
      </trkpt>
      <trkpt lat="46.38487" lon="5.54701">
        <ele>400</ele>
        <time>2026-08-27T10:41:41.000Z</time>
      </trkpt>
      <trkpt lat="46.38488" lon="5.54703">
        <ele>400.20001220703</ele>
        <time>2026-08-27T10:41:49.000Z</time>
      </trkpt>
      <trkpt lat="46.38487" lon="5.54704">
        <ele>400.20001220703</ele>
        <time>2026-08-27T10:41:57.000Z</time>
      </trkpt>
      <trkpt lat="46.38487" lon="5.54704">
        <ele>399.79998779297</ele>
        <time>2026-08-27T10:42:06.000Z</time>
      </trkpt>
      <trkpt lat="46.38487" lon="5.54705">
        <ele>399.79998779297</ele>
        <time>2026-08-27T10:42:08.000Z</time>
      </trkpt>
      <trkpt lat="46.38488" lon="5.54703">
        <ele>400</ele>
        <time>2026-08-27T10:42:14.000Z</time>
      </trkpt>
      <trkpt lat="46.38488" lon="5.54703">
        <ele>400</ele>
        <time>2026-08-27T10:42:15.000Z</time>
      </trkpt>
      <trkpt lat="46.3849" lon="5.54702">
        <ele>400.20001220703</ele>
        <time>2026-08-27T10:42:23.000Z</time>
      </trkpt>
      <trkpt lat="46.38489" lon="5.54702">
        <ele>400.20001220703</ele>
        <time>2026-08-27T10:42:32.000Z</time>
      </trkpt>
      <trkpt lat="46.38489" lon="5.54703">
        <ele>400.20001220703</ele>
        <time>2026-08-27T10:42:44.000Z</time>
      </trkpt>
      <trkpt lat="46.38489" lon="5.54703">
        <ele>400.20001220703</ele>
        <time>2026-08-27T10:42:48.000Z</time>
      </trkpt>
      <trkpt lat="46.38489" lon="5.54703">
        <ele>400.20001220703</ele>
        <time>2026-08-27T10:42:50.000Z</time>
      </trkpt>
      <trkpt lat="46.38489" lon="5.54703">
        <ele>400</ele>
        <time>2026-08-27T10:42:56.000Z</time>
      </trkpt>
      <trkpt lat="46.38486" lon="5.54703">
        <ele>399.79998779297</ele>
        <time>2026-08-27T10:43:00.000Z</time>
      </trkpt>
      <trkpt lat="46.38484" lon="5.54702">
        <ele>399.79998779297</ele>
        <time>2026-08-27T10:43:04.000Z</time>
      </trkpt>
      <trkpt lat="46.38483" lon="5.54702">
        <ele>400</ele>
        <time>2026-08-27T10:43:11.000Z</time>
      </trkpt>
      <trkpt lat="46.38483" lon="5.54701">
        <ele>400</ele>
        <time>2026-08-27T10:43:13.000Z</time>
      </trkpt>
      <trkpt lat="46.38484" lon="5.547">
        <ele>400</ele>
        <time>2026-08-27T10:43:17.000Z</time>
      </trkpt>
      <trkpt lat="46.38485" lon="5.547">
        <ele>399.79998779297</ele>
        <time>2026-08-27T10:43:20.000Z</time>
      </trkpt>
      <trkpt lat="46.38485" lon="5.54701">
        <ele>399.79998779297</ele>
        <time>2026-08-27T10:43:26.000Z</time>
      </trkpt>
      <trkpt lat="46.38485" lon="5.54701">
        <ele>399.60000610352</ele>
        <time>2026-08-27T10:43:33.000Z</time>
      </trkpt>
      <trkpt lat="46.38485" lon="5.54702">
        <ele>399.60000610352</ele>
        <time>2026-08-27T10:43:34.000Z</time>
      </trkpt>
      <trkpt lat="46.38483" lon="5.54704">
        <ele>399.39999389648</ele>
        <time>2026-08-27T10:43:43.000Z</time>
      </trkpt>
      <trkpt lat="46.38483" lon="5.54702">
        <ele>399.60000610352</ele>
        <time>2026-08-27T10:43:45.000Z</time>
      </trkpt>
      <trkpt lat="46.38483" lon="5.54702">
        <ele>399.79998779297</ele>
        <time>2026-08-27T10:43:46.000Z</time>
      </trkpt>
      <trkpt lat="46.38483" lon="5.54701">
        <ele>399.79998779297</ele>
        <time>2026-08-27T10:43:47.000Z</time>
      </trkpt>
      <trkpt lat="46.38483" lon="5.54701">
        <ele>399.79998779297</ele>
        <time>2026-08-27T10:43:49.000Z</time>
      </trkpt>
      <trkpt lat="46.38482" lon="5.547">
        <ele>399.79998779297</ele>
        <time>2026-08-27T10:43:57.000Z</time>
      </trkpt>
      <trkpt lat="46.38482" lon="5.54699">
        <ele>399.79998779297</ele>
        <time>2026-08-27T10:43:58.000Z</time>
      </trkpt>
      <trkpt lat="46.38482" lon="5.547">
        <ele>399.39999389648</ele>
        <time>2026-08-27T10:44:05.000Z</time>
      </trkpt>
      <trkpt lat="46.38483" lon="5.547">
        <ele>399.20001220703</ele>
        <time>2026-08-27T10:44:06.000Z</time>
      </trkpt>
      <trkpt lat="46.38484" lon="5.54702">
        <ele>399.20001220703</ele>
        <time>2026-08-27T10:44:13.000Z</time>
      </trkpt>
      <trkpt lat="46.38484" lon="5.54701">
        <ele>399.20001220703</ele>
        <time>2026-08-27T10:44:14.000Z</time>
      </trkpt>
      <trkpt lat="46.38484" lon="5.54701">
        <ele>399.20001220703</ele>
        <time>2026-08-27T10:44:15.000Z</time>
      </trkpt>
      <trkpt lat="46.38484" lon="5.54701">
        <ele>399.20001220703</ele>
        <time>2026-08-27T10:44:16.000Z</time>
      </trkpt>
      <trkpt lat="46.38484" lon="5.54702">
        <ele>399.20001220703</ele>
        <time>2026-08-27T10:44:17.000Z</time>
      </trkpt>
      <trkpt lat="46.38484" lon="5.54702">
        <ele>399.20001220703</ele>
        <time>2026-08-27T10:44:19.000Z</time>
      </trkpt>
      <trkpt lat="46.38483" lon="5.54701">
        <ele>399</ele>
        <time>2026-08-27T10:44:21.000Z</time>
      </trkpt>
      <trkpt lat="46.38483" lon="5.54701">
        <ele>399</ele>
        <time>2026-08-27T10:44:24.000Z</time>
      </trkpt>
      <trkpt lat="46.38484" lon="5.54701">
        <ele>399</ele>
        <time>2026-08-27T10:44:26.000Z</time>
      </trkpt>
      <trkpt lat="46.38484" lon="5.54701">
        <ele>399</ele>
        <time>2026-08-27T10:44:27.000Z</time>
      </trkpt>
      <trkpt lat="46.38483" lon="5.54701">
        <ele>399</ele>
        <time>2026-08-27T10:44:34.000Z</time>
      </trkpt>
      <trkpt lat="46.38484" lon="5.54703">
        <ele>398.79998779297</ele>
        <time>2026-08-27T10:44:46.000Z</time>
      </trkpt>
      <trkpt lat="46.38483" lon="5.54703">
        <ele>398.79998779297</ele>
        <time>2026-08-27T10:44:48.000Z</time>
      </trkpt>
      <trkpt lat="46.38484" lon="5.54701">
        <ele>399</ele>
        <time>2026-08-27T10:44:59.000Z</time>
      </trkpt>
      <trkpt lat="46.38484" lon="5.54702">
        <ele>399.20001220703</ele>
        <time>2026-08-27T10:45:07.000Z</time>
      </trkpt>
      <trkpt lat="46.38484" lon="5.54702">
        <ele>399.60000610352</ele>
        <time>2026-08-27T10:45:16.000Z</time>
      </trkpt>
      <trkpt lat="46.38484" lon="5.54701">
        <ele>399.39999389648</ele>
        <time>2026-08-27T10:45:20.000Z</time>
      </trkpt>
      <trkpt lat="46.38484" lon="5.54701">
        <ele>399.20001220703</ele>
        <time>2026-08-27T10:45:22.000Z</time>
      </trkpt>
      <trkpt lat="46.38485" lon="5.54702">
        <ele>399.20001220703</ele>
        <time>2026-08-27T10:45:24.000Z</time>
      </trkpt>
      <trkpt lat="46.38485" lon="5.54703">
        <ele>399.39999389648</ele>
        <time>2026-08-27T10:45:32.000Z</time>
      </trkpt>
      <trkpt lat="46.38485" lon="5.54702">
        <ele>399.39999389648</ele>
        <time>2026-08-27T10:45:39.000Z</time>
      </trkpt>
      <trkpt lat="46.38484" lon="5.547">
        <ele>399.20001220703</ele>
        <time>2026-08-27T10:45:47.000Z</time>
      </trkpt>
      <trkpt lat="46.38484" lon="5.547">
        <ele>399.39999389648</ele>
        <time>2026-08-27T10:45:49.000Z</time>
      </trkpt>
      <trkpt lat="46.38483" lon="5.547">
        <ele>399.79998779297</ele>
        <time>2026-08-27T10:45:53.000Z</time>
      </trkpt>
      <trkpt lat="46.38483" lon="5.547">
        <ele>399.79998779297</ele>
        <time>2026-08-27T10:45:56.000Z</time>
      </trkpt>
      <trkpt lat="46.38484" lon="5.54699">
        <ele>400.20001220703</ele>
        <time>2026-08-27T10:46:05.000Z</time>
      </trkpt>
      <trkpt lat="46.38485" lon="5.54698">
        <ele>400</ele>
        <time>2026-08-27T10:46:13.000Z</time>
      </trkpt>
      <trkpt lat="46.38485" lon="5.54699">
        <ele>400</ele>
        <time>2026-08-27T10:46:16.000Z</time>
      </trkpt>
      <trkpt lat="46.38485" lon="5.54699">
        <ele>400</ele>
        <time>2026-08-27T10:46:17.000Z</time>
      </trkpt>
      <trkpt lat="46.38485" lon="5.54699">
        <ele>400</ele>
        <time>2026-08-27T10:46:18.000Z</time>
      </trkpt>
      <trkpt lat="46.38485" lon="5.54699">
        <ele>400</ele>
        <time>2026-08-27T10:46:19.000Z</time>
      </trkpt>
      <trkpt lat="46.38487" lon="5.547">
        <ele>399.79998779297</ele>
        <time>2026-08-27T10:46:27.000Z</time>
      </trkpt>
      <trkpt lat="46.38487" lon="5.547">
        <ele>400</ele>
        <time>2026-08-27T10:46:28.000Z</time>
      </trkpt>
      <trkpt lat="46.38487" lon="5.54701">
        <ele>400</ele>
        <time>2026-08-27T10:46:29.000Z</time>
      </trkpt>
      <trkpt lat="46.38486" lon="5.54698">
        <ele>400</ele>
        <time>2026-08-27T10:46:36.000Z</time>
      </trkpt>
      <trkpt lat="46.38486" lon="5.54697">
        <ele>400</ele>
        <time>2026-08-27T10:46:37.000Z</time>
      </trkpt>
      <trkpt lat="46.38486" lon="5.54698">
        <ele>400</ele>
        <time>2026-08-27T10:46:38.000Z</time>
      </trkpt>
      <trkpt lat="46.38486" lon="5.54699">
        <ele>400</ele>
        <time>2026-08-27T10:46:41.000Z</time>
      </trkpt>
      <trkpt lat="46.38486" lon="5.54699">
        <ele>400</ele>
        <time>2026-08-27T10:46:42.000Z</time>
      </trkpt>
      <trkpt lat="46.38485" lon="5.547">
        <ele>400</ele>
        <time>2026-08-27T10:46:45.000Z</time>
      </trkpt>
      <trkpt lat="46.38487" lon="5.54699">
        <ele>399.79998779297</ele>
        <time>2026-08-27T10:46:54.000Z</time>
      </trkpt>
      <trkpt lat="46.38485" lon="5.54699">
        <ele>400.20001220703</ele>
        <time>2026-08-27T10:47:05.000Z</time>
      </trkpt>
      <trkpt lat="46.38485" lon="5.54698">
        <ele>400</ele>
        <time>2026-08-27T10:47:12.000Z</time>
      </trkpt>
      <trkpt lat="46.38485" lon="5.54696">
        <ele>400.20001220703</ele>
        <time>2026-08-27T10:47:14.000Z</time>
      </trkpt>
      <trkpt lat="46.38485" lon="5.54697">
        <ele>400.39999389648</ele>
        <time>2026-08-27T10:47:20.000Z</time>
      </trkpt>
      <trkpt lat="46.38485" lon="5.54697">
        <ele>400.39999389648</ele>
        <time>2026-08-27T10:47:21.000Z</time>
      </trkpt>
      <trkpt lat="46.38485" lon="5.54697">
        <ele>400.60000610352</ele>
        <time>2026-08-27T10:47:26.000Z</time>
      </trkpt>
      <trkpt lat="46.38485" lon="5.54697">
        <ele>400.60000610352</ele>
        <time>2026-08-27T10:47:30.000Z</time>
      </trkpt>
      <trkpt lat="46.38485" lon="5.54696">
        <ele>400.20001220703</ele>
        <time>2026-08-27T10:47:40.000Z</time>
      </trkpt>
      <trkpt lat="46.38483" lon="5.54693">
        <ele>399.79998779297</ele>
        <time>2026-08-27T10:47:47.000Z</time>
      </trkpt>
      <trkpt lat="46.38482" lon="5.54684">
        <ele>399.39999389648</ele>
        <time>2026-08-27T10:47:56.000Z</time>
      </trkpt>
      <trkpt lat="46.38477" lon="5.54681">
        <ele>399.39999389648</ele>
        <time>2026-08-27T10:48:03.000Z</time>
      </trkpt>
      <trkpt lat="46.3847" lon="5.54679">
        <ele>399.79998779297</ele>
        <time>2026-08-27T10:48:10.000Z</time>
      </trkpt>
      <trkpt lat="46.38468" lon="5.54678">
        <ele>400.20001220703</ele>
        <time>2026-08-27T10:48:12.000Z</time>
      </trkpt>
      <trkpt lat="46.38466" lon="5.54677">
        <ele>400.60000610352</ele>
        <time>2026-08-27T10:48:15.000Z</time>
      </trkpt>
      <trkpt lat="46.38464" lon="5.54676">
        <ele>400.79998779297</ele>
        <time>2026-08-27T10:48:17.000Z</time>
      </trkpt>
      <trkpt lat="46.38463" lon="5.54675">
        <ele>401.20001220703</ele>
        <time>2026-08-27T10:48:19.000Z</time>
      </trkpt>
      <trkpt lat="46.38458" lon="5.54674">
        <ele>402</ele>
        <time>2026-08-27T10:48:24.000Z</time>
      </trkpt>
      <trkpt lat="46.38456" lon="5.54672">
        <ele>402.20001220703</ele>
        <time>2026-08-27T10:48:27.000Z</time>
      </trkpt>
      <trkpt lat="46.38451" lon="5.54669">
        <ele>402.39999389648</ele>
        <time>2026-08-27T10:48:35.000Z</time>
      </trkpt>
      <trkpt lat="46.3845" lon="5.54666">
        <ele>402.39999389648</ele>
        <time>2026-08-27T10:48:38.000Z</time>
      </trkpt>
      <trkpt lat="46.38448" lon="5.54662">
        <ele>402.39999389648</ele>
        <time>2026-08-27T10:48:41.000Z</time>
      </trkpt>
      <trkpt lat="46.38446" lon="5.54659">
        <ele>402.20001220703</ele>
        <time>2026-08-27T10:48:43.000Z</time>
      </trkpt>
      <trkpt lat="46.38446" lon="5.54659">
        <ele>402.20001220703</ele>
        <time>2026-08-27T10:48:44.000Z</time>
      </trkpt>
      <trkpt lat="46.38444" lon="5.54657">
        <ele>402.39999389648</ele>
        <time>2026-08-27T10:48:46.000Z</time>
      </trkpt>
      <trkpt lat="46.38444" lon="5.54654">
        <ele>402.39999389648</ele>
        <time>2026-08-27T10:48:49.000Z</time>
      </trkpt>
      <trkpt lat="46.38443" lon="5.54652">
        <ele>402.39999389648</ele>
        <time>2026-08-27T10:48:50.000Z</time>
      </trkpt>
      <trkpt lat="46.38441" lon="5.54649">
        <ele>402.79998779297</ele>
        <time>2026-08-27T10:48:54.000Z</time>
      </trkpt>
      <trkpt lat="46.38439" lon="5.54643">
        <ele>402.79998779297</ele>
        <time>2026-08-27T10:48:59.000Z</time>
      </trkpt>
      <trkpt lat="46.38439" lon="5.54628">
        <ele>402.79998779297</ele>
        <time>2026-08-27T10:49:08.000Z</time>
      </trkpt>
      <trkpt lat="46.3844" lon="5.54622">
        <ele>402.60000610352</ele>
        <time>2026-08-27T10:49:12.000Z</time>
      </trkpt>
      <trkpt lat="46.38441" lon="5.54613">
        <ele>402.20001220703</ele>
        <time>2026-08-27T10:49:18.000Z</time>
      </trkpt>
      <trkpt lat="46.38442" lon="5.5461">
        <ele>401.79998779297</ele>
        <time>2026-08-27T10:49:21.000Z</time>
      </trkpt>
      <trkpt lat="46.38442" lon="5.54607">
        <ele>401.39999389648</ele>
        <time>2026-08-27T10:49:23.000Z</time>
      </trkpt>
      <trkpt lat="46.38443" lon="5.54604">
        <ele>401</ele>
        <time>2026-08-27T10:49:25.000Z</time>
      </trkpt>
      <trkpt lat="46.38443" lon="5.54601">
        <ele>400.79998779297</ele>
        <time>2026-08-27T10:49:27.000Z</time>
      </trkpt>
      <trkpt lat="46.38447" lon="5.54588">
        <ele>399.79998779297</ele>
        <time>2026-08-27T10:49:37.000Z</time>
      </trkpt>
      <trkpt lat="46.38448" lon="5.5458">
        <ele>398.60000610352</ele>
        <time>2026-08-27T10:49:44.000Z</time>
      </trkpt>
      <trkpt lat="46.38447" lon="5.54579">
        <ele>398.60000610352</ele>
        <time>2026-08-27T10:49:45.000Z</time>
      </trkpt>
      <trkpt lat="46.38443" lon="5.54568">
        <ele>397.60000610352</ele>
        <time>2026-08-27T10:49:52.000Z</time>
      </trkpt>
      <trkpt lat="46.38443" lon="5.54567">
        <ele>397.39999389648</ele>
        <time>2026-08-27T10:49:53.000Z</time>
      </trkpt>
      <trkpt lat="46.3844" lon="5.54556">
        <ele>396.39999389648</ele>
        <time>2026-08-27T10:50:01.000Z</time>
      </trkpt>
      <trkpt lat="46.38439" lon="5.54552">
        <ele>396.20001220703</ele>
        <time>2026-08-27T10:50:03.000Z</time>
      </trkpt>
      <trkpt lat="46.38438" lon="5.54544">
        <ele>395.79998779297</ele>
        <time>2026-08-27T10:50:08.000Z</time>
      </trkpt>
      <trkpt lat="46.38437" lon="5.5454">
        <ele>395.39999389648</ele>
        <time>2026-08-27T10:50:11.000Z</time>
      </trkpt>
      <trkpt lat="46.38436" lon="5.54539">
        <ele>395.39999389648</ele>
        <time>2026-08-27T10:50:12.000Z</time>
      </trkpt>
      <trkpt lat="46.38434" lon="5.5453">
        <ele>394.39999389648</ele>
        <time>2026-08-27T10:50:18.000Z</time>
      </trkpt>
      <trkpt lat="46.38432" lon="5.54526">
        <ele>394</ele>
        <time>2026-08-27T10:50:21.000Z</time>
      </trkpt>
      <trkpt lat="46.38431" lon="5.5452">
        <ele>393.39999389648</ele>
        <time>2026-08-27T10:50:26.000Z</time>
      </trkpt>
      <trkpt lat="46.38429" lon="5.54514">
        <ele>393</ele>
        <time>2026-08-27T10:50:30.000Z</time>
      </trkpt>
      <trkpt lat="46.38425" lon="5.54508">
        <ele>392.20001220703</ele>
        <time>2026-08-27T10:50:36.000Z</time>
      </trkpt>
      <trkpt lat="46.38425" lon="5.54505">
        <ele>392</ele>
        <time>2026-08-27T10:50:38.000Z</time>
      </trkpt>
      <trkpt lat="46.38422" lon="5.54496">
        <ele>391.20001220703</ele>
        <time>2026-08-27T10:50:44.000Z</time>
      </trkpt>
      <trkpt lat="46.3842" lon="5.54488">
        <ele>391</ele>
        <time>2026-08-27T10:50:48.000Z</time>
      </trkpt>
      <trkpt lat="46.38415" lon="5.54479">
        <ele>390.60000610352</ele>
        <time>2026-08-27T10:50:55.000Z</time>
      </trkpt>
      <trkpt lat="46.38411" lon="5.54472">
        <ele>390.60000610352</ele>
        <time>2026-08-27T10:51:01.000Z</time>
      </trkpt>
      <trkpt lat="46.38408" lon="5.5447">
        <ele>390.60000610352</ele>
        <time>2026-08-27T10:51:03.000Z</time>
      </trkpt>
      <trkpt lat="46.38407" lon="5.54468">
        <ele>390.79998779297</ele>
        <time>2026-08-27T10:51:05.000Z</time>
      </trkpt>
      <trkpt lat="46.38405" lon="5.54465">
        <ele>390.79998779297</ele>
        <time>2026-08-27T10:51:07.000Z</time>
      </trkpt>
      <trkpt lat="46.38401" lon="5.54459">
        <ele>391.20001220703</ele>
        <time>2026-08-27T10:51:11.000Z</time>
      </trkpt>
      <trkpt lat="46.38397" lon="5.54447">
        <ele>392</ele>
        <time>2026-08-27T10:51:19.000Z</time>
      </trkpt>
      <trkpt lat="46.38393" lon="5.54437">
        <ele>392</ele>
        <time>2026-08-27T10:51:25.000Z</time>
      </trkpt>
      <trkpt lat="46.38392" lon="5.54436">
        <ele>391.79998779297</ele>
        <time>2026-08-27T10:51:26.000Z</time>
      </trkpt>
      <trkpt lat="46.3839" lon="5.5443">
        <ele>391.79998779297</ele>
        <time>2026-08-27T10:51:30.000Z</time>
      </trkpt>
      <trkpt lat="46.38389" lon="5.54423">
        <ele>391.60000610352</ele>
        <time>2026-08-27T10:51:34.000Z</time>
      </trkpt>
      <trkpt lat="46.38388" lon="5.54421">
        <ele>391.60000610352</ele>
        <time>2026-08-27T10:51:35.000Z</time>
      </trkpt>
      <trkpt lat="46.38387" lon="5.54408">
        <ele>391.20001220703</ele>
        <time>2026-08-27T10:51:43.000Z</time>
      </trkpt>
      <trkpt lat="46.38383" lon="5.54396">
        <ele>391</ele>
        <time>2026-08-27T10:51:50.000Z</time>
      </trkpt>
      <trkpt lat="46.38379" lon="5.54385">
        <ele>390.39999389648</ele>
        <time>2026-08-27T10:51:57.000Z</time>
      </trkpt>
      <trkpt lat="46.38377" lon="5.54382">
        <ele>390.20001220703</ele>
        <time>2026-08-27T10:51:59.000Z</time>
      </trkpt>
      <trkpt lat="46.38375" lon="5.5437">
        <ele>389</ele>
        <time>2026-08-27T10:52:06.000Z</time>
      </trkpt>
      <trkpt lat="46.38375" lon="5.54368">
        <ele>389</ele>
        <time>2026-08-27T10:52:07.000Z</time>
      </trkpt>
      <trkpt lat="46.38371" lon="5.54357">
        <ele>388</ele>
        <time>2026-08-27T10:52:14.000Z</time>
      </trkpt>
      <trkpt lat="46.3837" lon="5.54355">
        <ele>387.79998779297</ele>
        <time>2026-08-27T10:52:16.000Z</time>
      </trkpt>
      <trkpt lat="46.38368" lon="5.54347">
        <ele>387</ele>
        <time>2026-08-27T10:52:21.000Z</time>
      </trkpt>
      <trkpt lat="46.38367" lon="5.54345">
        <ele>386.60000610352</ele>
        <time>2026-08-27T10:52:23.000Z</time>
      </trkpt>
      <trkpt lat="46.38365" lon="5.5434">
        <ele>385.79998779297</ele>
        <time>2026-08-27T10:52:27.000Z</time>
      </trkpt>
      <trkpt lat="46.3836" lon="5.54331">
        <ele>385</ele>
        <time>2026-08-27T10:52:33.000Z</time>
      </trkpt>
      <trkpt lat="46.38358" lon="5.54328">
        <ele>384.60000610352</ele>
        <time>2026-08-27T10:52:35.000Z</time>
      </trkpt>
      <trkpt lat="46.38357" lon="5.54325">
        <ele>384.39999389648</ele>
        <time>2026-08-27T10:52:37.000Z</time>
      </trkpt>
      <trkpt lat="46.38355" lon="5.54318">
        <ele>383.60000610352</ele>
        <time>2026-08-27T10:52:42.000Z</time>
      </trkpt>
      <trkpt lat="46.38354" lon="5.54316">
        <ele>383.39999389648</ele>
        <time>2026-08-27T10:52:43.000Z</time>
      </trkpt>
      <trkpt lat="46.38352" lon="5.5431">
        <ele>382.60000610352</ele>
        <time>2026-08-27T10:52:49.000Z</time>
      </trkpt>
      <trkpt lat="46.3835" lon="5.54305">
        <ele>382.20001220703</ele>
        <time>2026-08-27T10:52:52.000Z</time>
      </trkpt>
      <trkpt lat="46.38346" lon="5.54299">
        <ele>381.39999389648</ele>
        <time>2026-08-27T10:52:57.000Z</time>
      </trkpt>
      <trkpt lat="46.38341" lon="5.54294">
        <ele>380.39999389648</ele>
        <time>2026-08-27T10:53:02.000Z</time>
      </trkpt>
      <trkpt lat="46.38336" lon="5.54289">
        <ele>379.39999389648</ele>
        <time>2026-08-27T10:53:07.000Z</time>
      </trkpt>
      <trkpt lat="46.38332" lon="5.54287">
        <ele>378.39999389648</ele>
        <time>2026-08-27T10:53:12.000Z</time>
      </trkpt>
      <trkpt lat="46.38331" lon="5.54286">
        <ele>378.39999389648</ele>
        <time>2026-08-27T10:53:20.000Z</time>
      </trkpt>
      <trkpt lat="46.38332" lon="5.54286">
        <ele>379</ele>
        <time>2026-08-27T10:53:31.000Z</time>
      </trkpt>
      <trkpt lat="46.38331" lon="5.54287">
        <ele>378.79998779297</ele>
        <time>2026-08-27T10:53:41.000Z</time>
      </trkpt>
      <trkpt lat="46.38333" lon="5.54284">
        <ele>379</ele>
        <time>2026-08-27T10:53:54.000Z</time>
      </trkpt>
      <trkpt lat="46.38332" lon="5.54288">
        <ele>379</ele>
        <time>2026-08-27T10:54:04.000Z</time>
      </trkpt>
      <trkpt lat="46.38331" lon="5.54289">
        <ele>379</ele>
        <time>2026-08-27T10:54:15.000Z</time>
      </trkpt>
      <trkpt lat="46.3833" lon="5.54286">
        <ele>379</ele>
        <time>2026-08-27T10:54:26.000Z</time>
      </trkpt>
      <trkpt lat="46.38325" lon="5.54279">
        <ele>377.79998779297</ele>
        <time>2026-08-27T10:54:34.000Z</time>
      </trkpt>
      <trkpt lat="46.38322" lon="5.54278">
        <ele>377.20001220703</ele>
        <time>2026-08-27T10:54:37.000Z</time>
      </trkpt>
      <trkpt lat="46.38319" lon="5.54274">
        <ele>376</ele>
        <time>2026-08-27T10:54:41.000Z</time>
      </trkpt>
      <trkpt lat="46.38318" lon="5.54273">
        <ele>375.79998779297</ele>
        <time>2026-08-27T10:54:42.000Z</time>
      </trkpt>
      <trkpt lat="46.38315" lon="5.54272">
        <ele>375</ele>
        <time>2026-08-27T10:54:46.000Z</time>
      </trkpt>
      <trkpt lat="46.38312" lon="5.5427">
        <ele>374</ele>
        <time>2026-08-27T10:54:50.000Z</time>
      </trkpt>
      <trkpt lat="46.38311" lon="5.54269">
        <ele>373.79998779297</ele>
        <time>2026-08-27T10:54:51.000Z</time>
      </trkpt>
      <trkpt lat="46.38306" lon="5.54264">
        <ele>372.79998779297</ele>
        <time>2026-08-27T10:54:56.000Z</time>
      </trkpt>
      <trkpt lat="46.38303" lon="5.54264">
        <ele>372.39999389648</ele>
        <time>2026-08-27T10:54:58.000Z</time>
      </trkpt>
      <trkpt lat="46.38296" lon="5.54263">
        <ele>371.60000610352</ele>
        <time>2026-08-27T10:55:03.000Z</time>
      </trkpt>
      <trkpt lat="46.38294" lon="5.54265">
        <ele>371.39999389648</ele>
        <time>2026-08-27T10:55:05.000Z</time>
      </trkpt>
      <trkpt lat="46.38287" lon="5.54272">
        <ele>371.20001220703</ele>
        <time>2026-08-27T10:55:14.000Z</time>
      </trkpt>
      <trkpt lat="46.3828" lon="5.54274">
        <ele>371</ele>
        <time>2026-08-27T10:55:21.000Z</time>
      </trkpt>
      <trkpt lat="46.38276" lon="5.54275">
        <ele>370.79998779297</ele>
        <time>2026-08-27T10:55:29.000Z</time>
      </trkpt>
      <trkpt lat="46.38266" lon="5.54279">
        <ele>371</ele>
        <time>2026-08-27T10:55:38.000Z</time>
      </trkpt>
      <trkpt lat="46.38257" lon="5.5428">
        <ele>371</ele>
        <time>2026-08-27T10:55:44.000Z</time>
      </trkpt>
      <trkpt lat="46.38256" lon="5.54279">
        <ele>371</ele>
        <time>2026-08-27T10:55:46.000Z</time>
      </trkpt>
      <trkpt lat="46.3825" lon="5.5428">
        <ele>371</ele>
        <time>2026-08-27T10:55:50.000Z</time>
      </trkpt>
      <trkpt lat="46.38244" lon="5.54281">
        <ele>371.20001220703</ele>
        <time>2026-08-27T10:55:55.000Z</time>
      </trkpt>
      <trkpt lat="46.38235" lon="5.54282">
        <ele>371</ele>
        <time>2026-08-27T10:56:03.000Z</time>
      </trkpt>
      <trkpt lat="46.38227" lon="5.54284">
        <ele>370.79998779297</ele>
        <time>2026-08-27T10:56:10.000Z</time>
      </trkpt>
      <trkpt lat="46.38217" lon="5.54286">
        <ele>370.79998779297</ele>
        <time>2026-08-27T10:56:19.000Z</time>
      </trkpt>
      <trkpt lat="46.38213" lon="5.54287">
        <ele>370.60000610352</ele>
        <time>2026-08-27T10:56:22.000Z</time>
      </trkpt>
      <trkpt lat="46.38205" lon="5.54288">
        <ele>370.20001220703</ele>
        <time>2026-08-27T10:56:28.000Z</time>
      </trkpt>
      <trkpt lat="46.382" lon="5.54285">
        <ele>369.60000610352</ele>
        <time>2026-08-27T10:56:32.000Z</time>
      </trkpt>
      <trkpt lat="46.38199" lon="5.54279">
        <ele>368.79998779297</ele>
        <time>2026-08-27T10:56:35.000Z</time>
      </trkpt>
      <trkpt lat="46.38199" lon="5.54277">
        <ele>368.60000610352</ele>
        <time>2026-08-27T10:56:36.000Z</time>
      </trkpt>
      <trkpt lat="46.38203" lon="5.54269">
        <ele>367.39999389648</ele>
        <time>2026-08-27T10:56:41.000Z</time>
      </trkpt>
      <trkpt lat="46.38211" lon="5.54265">
        <ele>367</ele>
        <time>2026-08-27T10:56:48.000Z</time>
      </trkpt>
      <trkpt lat="46.38223" lon="5.5426">
        <ele>366.39999389648</ele>
        <time>2026-08-27T10:56:57.000Z</time>
      </trkpt>
      <trkpt lat="46.38224" lon="5.5426">
        <ele>366.39999389648</ele>
        <time>2026-08-27T10:56:58.000Z</time>
      </trkpt>
      <trkpt lat="46.38232" lon="5.54257">
        <ele>365.39999389648</ele>
        <time>2026-08-27T10:57:05.000Z</time>
      </trkpt>
      <trkpt lat="46.38233" lon="5.54256">
        <ele>365.39999389648</ele>
        <time>2026-08-27T10:57:06.000Z</time>
      </trkpt>
      <trkpt lat="46.38241" lon="5.54251">
        <ele>364.60000610352</ele>
        <time>2026-08-27T10:57:13.000Z</time>
      </trkpt>
      <trkpt lat="46.38242" lon="5.54251">
        <ele>364.39999389648</ele>
        <time>2026-08-27T10:57:14.000Z</time>
      </trkpt>
      <trkpt lat="46.38244" lon="5.5425">
        <ele>364.20001220703</ele>
        <time>2026-08-27T10:57:16.000Z</time>
      </trkpt>
      <trkpt lat="46.38249" lon="5.54248">
        <ele>363.60000610352</ele>
        <time>2026-08-27T10:57:21.000Z</time>
      </trkpt>
      <trkpt lat="46.38252" lon="5.54247">
        <ele>363.20001220703</ele>
        <time>2026-08-27T10:57:23.000Z</time>
      </trkpt>
      <trkpt lat="46.3826" lon="5.54243">
        <ele>362.20001220703</ele>
        <time>2026-08-27T10:57:30.000Z</time>
      </trkpt>
      <trkpt lat="46.3826" lon="5.54242">
        <ele>361.79998779297</ele>
        <time>2026-08-27T10:57:31.000Z</time>
      </trkpt>
      <trkpt lat="46.38265" lon="5.5424">
        <ele>361.20001220703</ele>
        <time>2026-08-27T10:57:35.000Z</time>
      </trkpt>
      <trkpt lat="46.38268" lon="5.54239">
        <ele>360.60000610352</ele>
        <time>2026-08-27T10:57:38.000Z</time>
      </trkpt>
      <trkpt lat="46.38273" lon="5.54236">
        <ele>360</ele>
        <time>2026-08-27T10:57:42.000Z</time>
      </trkpt>
      <trkpt lat="46.38278" lon="5.54233">
        <ele>359.20001220703</ele>
        <time>2026-08-27T10:57:47.000Z</time>
      </trkpt>
      <trkpt lat="46.3828" lon="5.54231">
        <ele>359</ele>
        <time>2026-08-27T10:57:49.000Z</time>
      </trkpt>
      <trkpt lat="46.38285" lon="5.54228">
        <ele>358.20001220703</ele>
        <time>2026-08-27T10:57:54.000Z</time>
      </trkpt>
      <trkpt lat="46.38288" lon="5.54226">
        <ele>357.79998779297</ele>
        <time>2026-08-27T10:57:57.000Z</time>
      </trkpt>
      <trkpt lat="46.38295" lon="5.54222">
        <ele>357</ele>
        <time>2026-08-27T10:58:03.000Z</time>
      </trkpt>
      <trkpt lat="46.38296" lon="5.54222">
        <ele>356.79998779297</ele>
        <time>2026-08-27T10:58:04.000Z</time>
      </trkpt>
      <trkpt lat="46.38304" lon="5.54219">
        <ele>355.79998779297</ele>
        <time>2026-08-27T10:58:11.000Z</time>
      </trkpt>
      <trkpt lat="46.38306" lon="5.54218">
        <ele>355.60000610352</ele>
        <time>2026-08-27T10:58:12.000Z</time>
      </trkpt>
      <trkpt lat="46.38311" lon="5.54216">
        <ele>354.60000610352</ele>
        <time>2026-08-27T10:58:16.000Z</time>
      </trkpt>
      <trkpt lat="46.38317" lon="5.54213">
        <ele>353.79998779297</ele>
        <time>2026-08-27T10:58:21.000Z</time>
      </trkpt>
      <trkpt lat="46.38318" lon="5.54213">
        <ele>353.60000610352</ele>
        <time>2026-08-27T10:58:22.000Z</time>
      </trkpt>
      <trkpt lat="46.38323" lon="5.54211">
        <ele>352.39999389648</ele>
        <time>2026-08-27T10:58:27.000Z</time>
      </trkpt>
      <trkpt lat="46.38327" lon="5.54209">
        <ele>351.60000610352</ele>
        <time>2026-08-27T10:58:30.000Z</time>
      </trkpt>
      <trkpt lat="46.38329" lon="5.54208">
        <ele>351.20001220703</ele>
        <time>2026-08-27T10:58:32.000Z</time>
      </trkpt>
      <trkpt lat="46.38335" lon="5.54207">
        <ele>350</ele>
        <time>2026-08-27T10:58:37.000Z</time>
      </trkpt>
      <trkpt lat="46.38339" lon="5.54208">
        <ele>349.39999389648</ele>
        <time>2026-08-27T10:58:40.000Z</time>
      </trkpt>
      <trkpt lat="46.38343" lon="5.54209">
        <ele>349</ele>
        <time>2026-08-27T10:58:43.000Z</time>
      </trkpt>
      <trkpt lat="46.38348" lon="5.54211">
        <ele>348.20001220703</ele>
        <time>2026-08-27T10:58:47.000Z</time>
      </trkpt>
      <trkpt lat="46.38352" lon="5.54214">
        <ele>348</ele>
        <time>2026-08-27T10:58:50.000Z</time>
      </trkpt>
      <trkpt lat="46.38359" lon="5.5422">
        <ele>347.39999389648</ele>
        <time>2026-08-27T10:58:57.000Z</time>
      </trkpt>
      <trkpt lat="46.38365" lon="5.54225">
        <ele>346.79998779297</ele>
        <time>2026-08-27T10:59:03.000Z</time>
      </trkpt>
      <trkpt lat="46.38369" lon="5.54231">
        <ele>346.20001220703</ele>
        <time>2026-08-27T10:59:09.000Z</time>
      </trkpt>
      <trkpt lat="46.3837" lon="5.54233">
        <ele>345.79998779297</ele>
        <time>2026-08-27T10:59:11.000Z</time>
      </trkpt>
      <trkpt lat="46.38373" lon="5.54233">
        <ele>344.60000610352</ele>
        <time>2026-08-27T10:59:15.000Z</time>
      </trkpt>
      <trkpt lat="46.38376" lon="5.5423">
        <ele>344.20001220703</ele>
        <time>2026-08-27T10:59:17.000Z</time>
      </trkpt>
      <trkpt lat="46.38376" lon="5.54223">
        <ele>344.20001220703</ele>
        <time>2026-08-27T10:59:24.000Z</time>
      </trkpt>
      <trkpt lat="46.38373" lon="5.54213">
        <ele>344.20001220703</ele>
        <time>2026-08-27T10:59:32.000Z</time>
      </trkpt>
      <trkpt lat="46.38374" lon="5.5421">
        <ele>344.20001220703</ele>
        <time>2026-08-27T10:59:34.000Z</time>
      </trkpt>
      <trkpt lat="46.38376" lon="5.54206">
        <ele>344.39999389648</ele>
        <time>2026-08-27T10:59:38.000Z</time>
      </trkpt>
      <trkpt lat="46.38377" lon="5.54208">
        <ele>344.79998779297</ele>
        <time>2026-08-27T10:59:46.000Z</time>
      </trkpt>
      <trkpt lat="46.38377" lon="5.54209">
        <ele>345</ele>
        <time>2026-08-27T10:59:56.000Z</time>
      </trkpt>
      <trkpt lat="46.38377" lon="5.54206">
        <ele>345.20001220703</ele>
        <time>2026-08-27T11:00:04.000Z</time>
      </trkpt>
      <trkpt lat="46.38375" lon="5.5421">
        <ele>344.79998779297</ele>
        <time>2026-08-27T11:00:13.000Z</time>
      </trkpt>
      <trkpt lat="46.38377" lon="5.54209">
        <ele>345</ele>
        <time>2026-08-27T11:00:22.000Z</time>
      </trkpt>
      <trkpt lat="46.38378" lon="5.54211">
        <ele>345</ele>
        <time>2026-08-27T11:00:29.000Z</time>
      </trkpt>
      <trkpt lat="46.38379" lon="5.54212">
        <ele>345</ele>
        <time>2026-08-27T11:00:36.000Z</time>
      </trkpt>
      <trkpt lat="46.38379" lon="5.54211">
        <ele>344.79998779297</ele>
        <time>2026-08-27T11:00:39.000Z</time>
      </trkpt>
      <trkpt lat="46.3838" lon="5.54209">
        <ele>344.60000610352</ele>
        <time>2026-08-27T11:00:46.000Z</time>
      </trkpt>
      <trkpt lat="46.38381" lon="5.5421">
        <ele>344.60000610352</ele>
        <time>2026-08-27T11:00:54.000Z</time>
      </trkpt>
      <trkpt lat="46.38378" lon="5.54212">
        <ele>344.60000610352</ele>
        <time>2026-08-27T11:01:03.000Z</time>
      </trkpt>
      <trkpt lat="46.38377" lon="5.54212">
        <ele>345</ele>
        <time>2026-08-27T11:01:09.000Z</time>
      </trkpt>
      <trkpt lat="46.38377" lon="5.54209">
        <ele>345</ele>
        <time>2026-08-27T11:01:11.000Z</time>
      </trkpt>
      <trkpt lat="46.38378" lon="5.54198">
        <ele>344.39999389648</ele>
        <time>2026-08-27T11:01:19.000Z</time>
      </trkpt>
      <trkpt lat="46.38378" lon="5.54194">
        <ele>343.79998779297</ele>
        <time>2026-08-27T11:01:26.000Z</time>
      </trkpt>
      <trkpt lat="46.38379" lon="5.54194">
        <ele>344</ele>
        <time>2026-08-27T11:01:28.000Z</time>
      </trkpt>
      <trkpt lat="46.38377" lon="5.54192">
        <ele>343.60000610352</ele>
        <time>2026-08-27T11:01:36.000Z</time>
      </trkpt>
      <trkpt lat="46.38378" lon="5.54191">
        <ele>343.20001220703</ele>
        <time>2026-08-27T11:01:44.000Z</time>
      </trkpt>
      <trkpt lat="46.38379" lon="5.54189">
        <ele>343.79998779297</ele>
        <time>2026-08-27T11:01:50.000Z</time>
      </trkpt>
      <trkpt lat="46.38379" lon="5.54189">
        <ele>344.20001220703</ele>
        <time>2026-08-27T11:01:51.000Z</time>
      </trkpt>
      <trkpt lat="46.38379" lon="5.54188">
        <ele>344.79998779297</ele>
        <time>2026-08-27T11:01:54.000Z</time>
      </trkpt>
      <trkpt lat="46.38378" lon="5.54184">
        <ele>344.60000610352</ele>
        <time>2026-08-27T11:01:58.000Z</time>
      </trkpt>
      <trkpt lat="46.38376" lon="5.54179">
        <ele>344.39999389648</ele>
        <time>2026-08-27T11:02:05.000Z</time>
      </trkpt>
      <trkpt lat="46.38376" lon="5.54176">
        <ele>344.39999389648</ele>
        <time>2026-08-27T11:02:10.000Z</time>
      </trkpt>
      <trkpt lat="46.38376" lon="5.54173">
        <ele>344.39999389648</ele>
        <time>2026-08-27T11:02:13.000Z</time>
      </trkpt>
      <trkpt lat="46.38374" lon="5.54168">
        <ele>344.79998779297</ele>
        <time>2026-08-27T11:02:19.000Z</time>
      </trkpt>
      <trkpt lat="46.38373" lon="5.54165">
        <ele>344.79998779297</ele>
        <time>2026-08-27T11:02:22.000Z</time>
      </trkpt>
      <trkpt lat="46.38373" lon="5.54163">
        <ele>345</ele>
        <time>2026-08-27T11:02:27.000Z</time>
      </trkpt>
      <trkpt lat="46.38372" lon="5.54163">
        <ele>345</ele>
        <time>2026-08-27T11:02:28.000Z</time>
      </trkpt>
      <trkpt lat="46.38373" lon="5.54164">
        <ele>344.79998779297</ele>
        <time>2026-08-27T11:02:29.000Z</time>
      </trkpt>
      <trkpt lat="46.38372" lon="5.54162">
        <ele>344.79998779297</ele>
        <time>2026-08-27T11:02:32.000Z</time>
      </trkpt>
      <trkpt lat="46.38371" lon="5.54155">
        <ele>345.60000610352</ele>
        <time>2026-08-27T11:02:40.000Z</time>
      </trkpt>
      <trkpt lat="46.38371" lon="5.54156">
        <ele>345.39999389648</ele>
        <time>2026-08-27T11:02:49.000Z</time>
      </trkpt>
      <trkpt lat="46.38369" lon="5.54158">
        <ele>345</ele>
        <time>2026-08-27T11:03:00.000Z</time>
      </trkpt>
      <trkpt lat="46.38361" lon="5.54156">
        <ele>345</ele>
        <time>2026-08-27T11:03:07.000Z</time>
      </trkpt>
      <trkpt lat="46.38354" lon="5.54151">
        <ele>345</ele>
        <time>2026-08-27T11:03:15.000Z</time>
      </trkpt>
      <trkpt lat="46.38348" lon="5.54145">
        <ele>345.20001220703</ele>
        <time>2026-08-27T11:03:23.000Z</time>
      </trkpt>
      <trkpt lat="46.38346" lon="5.54144">
        <ele>345.20001220703</ele>
        <time>2026-08-27T11:03:30.000Z</time>
      </trkpt>
      <trkpt lat="46.38346" lon="5.54144">
        <ele>345.20001220703</ele>
        <time>2026-08-27T11:03:32.000Z</time>
      </trkpt>
      <trkpt lat="46.38344" lon="5.54145">
        <ele>345</ele>
        <time>2026-08-27T11:03:39.000Z</time>
      </trkpt>
      <trkpt lat="46.38344" lon="5.54145">
        <ele>344.79998779297</ele>
        <time>2026-08-27T11:03:41.000Z</time>
      </trkpt>
      <trkpt lat="46.38341" lon="5.54151">
        <ele>344.60000610352</ele>
        <time>2026-08-27T11:03:51.000Z</time>
      </trkpt>
      <trkpt lat="46.38338" lon="5.54149">
        <ele>344.79998779297</ele>
        <time>2026-08-27T11:03:57.000Z</time>
      </trkpt>
      <trkpt lat="46.38337" lon="5.54145">
        <ele>345</ele>
        <time>2026-08-27T11:04:00.000Z</time>
      </trkpt>
      <trkpt lat="46.38338" lon="5.54141">
        <ele>345</ele>
        <time>2026-08-27T11:04:05.000Z</time>
      </trkpt>
      <trkpt lat="46.38338" lon="5.54141">
        <ele>344.79998779297</ele>
        <time>2026-08-27T11:04:08.000Z</time>
      </trkpt>
      <trkpt lat="46.38337" lon="5.54143">
        <ele>345</ele>
        <time>2026-08-27T11:04:16.000Z</time>
      </trkpt>
      <trkpt lat="46.38338" lon="5.54143">
        <ele>345</ele>
        <time>2026-08-27T11:04:18.000Z</time>
      </trkpt>
      <trkpt lat="46.3834" lon="5.54144">
        <ele>345</ele>
        <time>2026-08-27T11:04:22.000Z</time>
      </trkpt>
      <trkpt lat="46.38346" lon="5.54144">
        <ele>345</ele>
        <time>2026-08-27T11:04:28.000Z</time>
      </trkpt>
      <trkpt lat="46.3835" lon="5.54146">
        <ele>345</ele>
        <time>2026-08-27T11:04:35.000Z</time>
      </trkpt>
      <trkpt lat="46.38353" lon="5.54148">
        <ele>344.79998779297</ele>
        <time>2026-08-27T11:04:38.000Z</time>
      </trkpt>
      <trkpt lat="46.38356" lon="5.54147">
        <ele>344.79998779297</ele>
        <time>2026-08-27T11:04:45.000Z</time>
      </trkpt>
      <trkpt lat="46.38362" lon="5.5415">
        <ele>344.79998779297</ele>
        <time>2026-08-27T11:04:52.000Z</time>
      </trkpt>
      <trkpt lat="46.38363" lon="5.5415">
        <ele>344.79998779297</ele>
        <time>2026-08-27T11:04:53.000Z</time>
      </trkpt>
      <trkpt lat="46.38371" lon="5.54155">
        <ele>345.20001220703</ele>
        <time>2026-08-27T11:05:04.000Z</time>
      </trkpt>
      <trkpt lat="46.38373" lon="5.54158">
        <ele>345.60000610352</ele>
        <time>2026-08-27T11:05:07.000Z</time>
      </trkpt>
      <trkpt lat="46.38374" lon="5.54161">
        <ele>345.60000610352</ele>
        <time>2026-08-27T11:05:10.000Z</time>
      </trkpt>
      <trkpt lat="46.38375" lon="5.54163">
        <ele>345.60000610352</ele>
        <time>2026-08-27T11:05:12.000Z</time>
      </trkpt>
      <trkpt lat="46.38379" lon="5.54172">
        <ele>345.20001220703</ele>
        <time>2026-08-27T11:05:20.000Z</time>
      </trkpt>
      <trkpt lat="46.38382" lon="5.54174">
        <ele>345</ele>
        <time>2026-08-27T11:05:28.000Z</time>
      </trkpt>
      <trkpt lat="46.38381" lon="5.54177">
        <ele>345.20001220703</ele>
        <time>2026-08-27T11:05:32.000Z</time>
      </trkpt>
      <trkpt lat="46.3838" lon="5.54179">
        <ele>345.20001220703</ele>
        <time>2026-08-27T11:05:35.000Z</time>
      </trkpt>
      <trkpt lat="46.38379" lon="5.54179">
        <ele>345.20001220703</ele>
        <time>2026-08-27T11:05:36.000Z</time>
      </trkpt>
      <trkpt lat="46.38379" lon="5.5418">
        <ele>345.20001220703</ele>
        <time>2026-08-27T11:05:42.000Z</time>
      </trkpt>
      <trkpt lat="46.38378" lon="5.54181">
        <ele>345.20001220703</ele>
        <time>2026-08-27T11:05:45.000Z</time>
      </trkpt>
      <trkpt lat="46.38376" lon="5.54185">
        <ele>345.39999389648</ele>
        <time>2026-08-27T11:05:58.000Z</time>
      </trkpt>
      <trkpt lat="46.38374" lon="5.54187">
        <ele>345.39999389648</ele>
        <time>2026-08-27T11:06:08.000Z</time>
      </trkpt>
      <trkpt lat="46.38372" lon="5.54187">
        <ele>345.39999389648</ele>
        <time>2026-08-27T11:06:14.000Z</time>
      </trkpt>
      <trkpt lat="46.38375" lon="5.54186">
        <ele>345.39999389648</ele>
        <time>2026-08-27T11:06:17.000Z</time>
      </trkpt>
      <trkpt lat="46.38379" lon="5.54192">
        <ele>345.39999389648</ele>
        <time>2026-08-27T11:06:25.000Z</time>
      </trkpt>
      <trkpt lat="46.38379" lon="5.54203">
        <ele>345.60000610352</ele>
        <time>2026-08-27T11:06:33.000Z</time>
      </trkpt>
      <trkpt lat="46.38378" lon="5.54214">
        <ele>345.60000610352</ele>
        <time>2026-08-27T11:06:40.000Z</time>
      </trkpt>
      <trkpt lat="46.38378" lon="5.5422">
        <ele>345.39999389648</ele>
        <time>2026-08-27T11:06:43.000Z</time>
      </trkpt>
      <trkpt lat="46.38378" lon="5.54225">
        <ele>345.39999389648</ele>
        <time>2026-08-27T11:06:46.000Z</time>
      </trkpt>
      <trkpt lat="46.38378" lon="5.54229">
        <ele>345.60000610352</ele>
        <time>2026-08-27T11:06:49.000Z</time>
      </trkpt>
      <trkpt lat="46.38376" lon="5.54235">
        <ele>345.79998779297</ele>
        <time>2026-08-27T11:06:54.000Z</time>
      </trkpt>
      <trkpt lat="46.38374" lon="5.54237">
        <ele>346</ele>
        <time>2026-08-27T11:06:57.000Z</time>
      </trkpt>
      <trkpt lat="46.3837" lon="5.54239">
        <ele>346.79998779297</ele>
        <time>2026-08-27T11:07:05.000Z</time>
      </trkpt>
      <trkpt lat="46.3837" lon="5.54237">
        <ele>346.60000610352</ele>
        <time>2026-08-27T11:07:14.000Z</time>
      </trkpt>
      <trkpt lat="46.38368" lon="5.54234">
        <ele>347</ele>
        <time>2026-08-27T11:07:19.000Z</time>
      </trkpt>
      <trkpt lat="46.38367" lon="5.54234">
        <ele>347.20001220703</ele>
        <time>2026-08-27T11:07:20.000Z</time>
      </trkpt>
      <trkpt lat="46.38361" lon="5.54227">
        <ele>348.20001220703</ele>
        <time>2026-08-27T11:07:27.000Z</time>
      </trkpt>
      <trkpt lat="46.3836" lon="5.54226">
        <ele>348.20001220703</ele>
        <time>2026-08-27T11:07:28.000Z</time>
      </trkpt>
      <trkpt lat="46.38351" lon="5.54219">
        <ele>349</ele>
        <time>2026-08-27T11:07:36.000Z</time>
      </trkpt>
      <trkpt lat="46.38351" lon="5.54219">
        <ele>349</ele>
        <time>2026-08-27T11:07:37.000Z</time>
      </trkpt>
      <trkpt lat="46.38351" lon="5.54218">
        <ele>349.20001220703</ele>
        <time>2026-08-27T11:07:38.000Z</time>
      </trkpt>
      <trkpt lat="46.38349" lon="5.54215">
        <ele>349.60000610352</ele>
        <time>2026-08-27T11:07:41.000Z</time>
      </trkpt>
      <trkpt lat="46.38346" lon="5.54213">
        <ele>350</ele>
        <time>2026-08-27T11:07:44.000Z</time>
      </trkpt>
      <trkpt lat="46.38345" lon="5.54212">
        <ele>350.20001220703</ele>
        <time>2026-08-27T11:07:45.000Z</time>
      </trkpt>
      <trkpt lat="46.38341" lon="5.54212">
        <ele>350.79998779297</ele>
        <time>2026-08-27T11:07:50.000Z</time>
      </trkpt>
      <trkpt lat="46.3834" lon="5.54212">
        <ele>351</ele>
        <time>2026-08-27T11:07:51.000Z</time>
      </trkpt>
      <trkpt lat="46.38337" lon="5.54212">
        <ele>351.39999389648</ele>
        <time>2026-08-27T11:07:54.000Z</time>
      </trkpt>
      <trkpt lat="46.38333" lon="5.54212">
        <ele>352.20001220703</ele>
        <time>2026-08-27T11:07:59.000Z</time>
      </trkpt>
      <trkpt lat="46.38331" lon="5.54213">
        <ele>352.60000610352</ele>
        <time>2026-08-27T11:08:01.000Z</time>
      </trkpt>
      <trkpt lat="46.38328" lon="5.54213">
        <ele>353.20001220703</ele>
        <time>2026-08-27T11:08:05.000Z</time>
      </trkpt>
      <trkpt lat="46.38324" lon="5.54215">
        <ele>353.60000610352</ele>
        <time>2026-08-27T11:08:09.000Z</time>
      </trkpt>
      <trkpt lat="46.38321" lon="5.54215">
        <ele>354.20001220703</ele>
        <time>2026-08-27T11:08:12.000Z</time>
      </trkpt>
      <trkpt lat="46.38318" lon="5.54217">
        <ele>354.79998779297</ele>
        <time>2026-08-27T11:08:16.000Z</time>
      </trkpt>
      <trkpt lat="46.38315" lon="5.54219">
        <ele>355.60000610352</ele>
        <time>2026-08-27T11:08:19.000Z</time>
      </trkpt>
      <trkpt lat="46.38314" lon="5.5422">
        <ele>356</ele>
        <time>2026-08-27T11:08:21.000Z</time>
      </trkpt>
      <trkpt lat="46.38309" lon="5.54222">
        <ele>356.60000610352</ele>
        <time>2026-08-27T11:08:26.000Z</time>
      </trkpt>
      <trkpt lat="46.38305" lon="5.54224">
        <ele>357.20001220703</ele>
        <time>2026-08-27T11:08:30.000Z</time>
      </trkpt>
      <trkpt lat="46.383" lon="5.54227">
        <ele>358</ele>
        <time>2026-08-27T11:08:36.000Z</time>
      </trkpt>
      <trkpt lat="46.38297" lon="5.54227">
        <ele>358</ele>
        <time>2026-08-27T11:08:43.000Z</time>
      </trkpt>
      <trkpt lat="46.38295" lon="5.54227">
        <ele>358</ele>
        <time>2026-08-27T11:08:47.000Z</time>
      </trkpt>
      <trkpt lat="46.38296" lon="5.54228">
        <ele>358</ele>
        <time>2026-08-27T11:08:48.000Z</time>
      </trkpt>
      <trkpt lat="46.38295" lon="5.54228">
        <ele>358</ele>
        <time>2026-08-27T11:08:51.000Z</time>
      </trkpt>
      <trkpt lat="46.38293" lon="5.5423">
        <ele>358.20001220703</ele>
        <time>2026-08-27T11:08:55.000Z</time>
      </trkpt>
      <trkpt lat="46.3829" lon="5.54231">
        <ele>358.60000610352</ele>
        <time>2026-08-27T11:08:58.000Z</time>
      </trkpt>
      <trkpt lat="46.38288" lon="5.54232">
        <ele>358.79998779297</ele>
        <time>2026-08-27T11:09:00.000Z</time>
      </trkpt>
      <trkpt lat="46.38285" lon="5.54233">
        <ele>359.39999389648</ele>
        <time>2026-08-27T11:09:04.000Z</time>
      </trkpt>
      <trkpt lat="46.38282" lon="5.54234">
        <ele>359.60000610352</ele>
        <time>2026-08-27T11:09:07.000Z</time>
      </trkpt>
      <trkpt lat="46.38277" lon="5.54238">
        <ele>360.60000610352</ele>
        <time>2026-08-27T11:09:13.000Z</time>
      </trkpt>
      <trkpt lat="46.38275" lon="5.54238">
        <ele>360.79998779297</ele>
        <time>2026-08-27T11:09:15.000Z</time>
      </trkpt>
      <trkpt lat="46.38267" lon="5.54242">
        <ele>361.60000610352</ele>
        <time>2026-08-27T11:09:22.000Z</time>
      </trkpt>
      <trkpt lat="46.38262" lon="5.54244">
        <ele>362.20001220703</ele>
        <time>2026-08-27T11:09:27.000Z</time>
      </trkpt>
      <trkpt lat="46.3826" lon="5.54245">
        <ele>362.60000610352</ele>
        <time>2026-08-27T11:09:29.000Z</time>
      </trkpt>
      <trkpt lat="46.3826" lon="5.54244">
        <ele>362.60000610352</ele>
        <time>2026-08-27T11:09:30.000Z</time>
      </trkpt>
      <trkpt lat="46.38255" lon="5.54247">
        <ele>363.39999389648</ele>
        <time>2026-08-27T11:09:35.000Z</time>
      </trkpt>
      <trkpt lat="46.38253" lon="5.54249">
        <ele>363.79998779297</ele>
        <time>2026-08-27T11:09:38.000Z</time>
      </trkpt>
      <trkpt lat="46.38246" lon="5.54252">
        <ele>364.60000610352</ele>
        <time>2026-08-27T11:09:45.000Z</time>
      </trkpt>
      <trkpt lat="46.38245" lon="5.54253">
        <ele>364.79998779297</ele>
        <time>2026-08-27T11:09:46.000Z</time>
      </trkpt>
      <trkpt lat="46.38237" lon="5.54258">
        <ele>365.39999389648</ele>
        <time>2026-08-27T11:09:53.000Z</time>
      </trkpt>
      <trkpt lat="46.38233" lon="5.54262">
        <ele>365.79998779297</ele>
        <time>2026-08-27T11:09:58.000Z</time>
      </trkpt>
      <trkpt lat="46.3823" lon="5.54262">
        <ele>366</ele>
        <time>2026-08-27T11:10:00.000Z</time>
      </trkpt>
      <trkpt lat="46.38221" lon="5.54266">
        <ele>366.60000610352</ele>
        <time>2026-08-27T11:10:07.000Z</time>
      </trkpt>
      <trkpt lat="46.38219" lon="5.54266">
        <ele>366.79998779297</ele>
        <time>2026-08-27T11:10:10.000Z</time>
      </trkpt>
      <trkpt lat="46.38212" lon="5.54269">
        <ele>367.20001220703</ele>
        <time>2026-08-27T11:10:15.000Z</time>
      </trkpt>
      <trkpt lat="46.38205" lon="5.54272">
        <ele>367.79998779297</ele>
        <time>2026-08-27T11:10:23.000Z</time>
      </trkpt>
      <trkpt lat="46.38203" lon="5.54273">
        <ele>368.20001220703</ele>
        <time>2026-08-27T11:10:25.000Z</time>
      </trkpt>
      <trkpt lat="46.38201" lon="5.54278">
        <ele>369</ele>
        <time>2026-08-27T11:10:31.000Z</time>
      </trkpt>
      <trkpt lat="46.38201" lon="5.54281">
        <ele>369.20001220703</ele>
        <time>2026-08-27T11:10:33.000Z</time>
      </trkpt>
      <trkpt lat="46.38203" lon="5.54282">
        <ele>369.60000610352</ele>
        <time>2026-08-27T11:10:35.000Z</time>
      </trkpt>
      <trkpt lat="46.38204" lon="5.54282">
        <ele>369.79998779297</ele>
        <time>2026-08-27T11:10:37.000Z</time>
      </trkpt>
      <trkpt lat="46.38205" lon="5.54281">
        <ele>370</ele>
        <time>2026-08-27T11:10:38.000Z</time>
      </trkpt>
      <trkpt lat="46.38206" lon="5.54281">
        <ele>370</ele>
        <time>2026-08-27T11:10:39.000Z</time>
      </trkpt>
      <trkpt lat="46.38214" lon="5.5428">
        <ele>370.79998779297</ele>
        <time>2026-08-27T11:10:47.000Z</time>
      </trkpt>
      <trkpt lat="46.38223" lon="5.54279">
        <ele>371</ele>
        <time>2026-08-27T11:10:55.000Z</time>
      </trkpt>
      <trkpt lat="46.38224" lon="5.54279">
        <ele>371</ele>
        <time>2026-08-27T11:10:56.000Z</time>
      </trkpt>
      <trkpt lat="46.38228" lon="5.5428">
        <ele>371</ele>
        <time>2026-08-27T11:11:01.000Z</time>
      </trkpt>
      <trkpt lat="46.38228" lon="5.54278">
        <ele>371</ele>
        <time>2026-08-27T11:11:12.000Z</time>
      </trkpt>
      <trkpt lat="46.38229" lon="5.54279">
        <ele>371.20001220703</ele>
        <time>2026-08-27T11:11:19.000Z</time>
      </trkpt>
      <trkpt lat="46.38229" lon="5.54279">
        <ele>371.20001220703</ele>
        <time>2026-08-27T11:11:23.000Z</time>
      </trkpt>
      <trkpt lat="46.38234" lon="5.54276">
        <ele>371.20001220703</ele>
        <time>2026-08-27T11:11:30.000Z</time>
      </trkpt>
      <trkpt lat="46.38242" lon="5.54277">
        <ele>371.60000610352</ele>
        <time>2026-08-27T11:11:39.000Z</time>
      </trkpt>
      <trkpt lat="46.38247" lon="5.54275">
        <ele>371.60000610352</ele>
        <time>2026-08-27T11:11:44.000Z</time>
      </trkpt>
      <trkpt lat="46.3825" lon="5.54275">
        <ele>371.39999389648</ele>
        <time>2026-08-27T11:11:47.000Z</time>
      </trkpt>
      <trkpt lat="46.38262" lon="5.54273">
        <ele>371.60000610352</ele>
        <time>2026-08-27T11:11:58.000Z</time>
      </trkpt>
      <trkpt lat="46.38273" lon="5.54271">
        <ele>371.79998779297</ele>
        <time>2026-08-27T11:12:08.000Z</time>
      </trkpt>
      <trkpt lat="46.38281" lon="5.54269">
        <ele>371.79998779297</ele>
        <time>2026-08-27T11:12:17.000Z</time>
      </trkpt>
      <trkpt lat="46.38282" lon="5.54268">
        <ele>372</ele>
        <time>2026-08-27T11:12:19.000Z</time>
      </trkpt>
      <trkpt lat="46.38288" lon="5.54265">
        <ele>372</ele>
        <time>2026-08-27T11:12:25.000Z</time>
      </trkpt>
      <trkpt lat="46.38296" lon="5.54261">
        <ele>372.39999389648</ele>
        <time>2026-08-27T11:12:33.000Z</time>
      </trkpt>
      <trkpt lat="46.38304" lon="5.54262">
        <ele>373.20001220703</ele>
        <time>2026-08-27T11:12:41.000Z</time>
      </trkpt>
      <trkpt lat="46.38305" lon="5.54262">
        <ele>373.39999389648</ele>
        <time>2026-08-27T11:12:42.000Z</time>
      </trkpt>
      <trkpt lat="46.38309" lon="5.54265">
        <ele>374.20001220703</ele>
        <time>2026-08-27T11:12:47.000Z</time>
      </trkpt>
      <trkpt lat="46.38312" lon="5.54266">
        <ele>374.60000610352</ele>
        <time>2026-08-27T11:12:50.000Z</time>
      </trkpt>
      <trkpt lat="46.38316" lon="5.54267">
        <ele>375.20001220703</ele>
        <time>2026-08-27T11:12:54.000Z</time>
      </trkpt>
      <trkpt lat="46.38317" lon="5.54267">
        <ele>375.39999389648</ele>
        <time>2026-08-27T11:12:55.000Z</time>
      </trkpt>
      <trkpt lat="46.38319" lon="5.54269">
        <ele>376.39999389648</ele>
        <time>2026-08-27T11:13:00.000Z</time>
      </trkpt>
      <trkpt lat="46.38324" lon="5.54274">
        <ele>377.39999389648</ele>
        <time>2026-08-27T11:13:07.000Z</time>
      </trkpt>
      <trkpt lat="46.38325" lon="5.54275">
        <ele>377.60000610352</ele>
        <time>2026-08-27T11:13:08.000Z</time>
      </trkpt>
      <trkpt lat="46.38325" lon="5.54275">
        <ele>377.79998779297</ele>
        <time>2026-08-27T11:13:09.000Z</time>
      </trkpt>
      <trkpt lat="46.38328" lon="5.54277">
        <ele>378.20001220703</ele>
        <time>2026-08-27T11:13:13.000Z</time>
      </trkpt>
      <trkpt lat="46.3833" lon="5.5428">
        <ele>378.60000610352</ele>
        <time>2026-08-27T11:13:16.000Z</time>
      </trkpt>
      <trkpt lat="46.3833" lon="5.54283">
        <ele>379.20001220703</ele>
        <time>2026-08-27T11:13:19.000Z</time>
      </trkpt>
      <trkpt lat="46.38329" lon="5.54285">
        <ele>379.39999389648</ele>
        <time>2026-08-27T11:13:21.000Z</time>
      </trkpt>
      <trkpt lat="46.38325" lon="5.54286">
        <ele>379.79998779297</ele>
        <time>2026-08-27T11:13:27.000Z</time>
      </trkpt>
      <trkpt lat="46.38318" lon="5.54284">
        <ele>380.79998779297</ele>
        <time>2026-08-27T11:13:34.000Z</time>
      </trkpt>
      <trkpt lat="46.38311" lon="5.54283">
        <ele>380.79998779297</ele>
        <time>2026-08-27T11:13:40.000Z</time>
      </trkpt>
      <trkpt lat="46.3831" lon="5.54283">
        <ele>381</ele>
        <time>2026-08-27T11:13:42.000Z</time>
      </trkpt>
      <trkpt lat="46.38303" lon="5.54285">
        <ele>381.39999389648</ele>
        <time>2026-08-27T11:13:50.000Z</time>
      </trkpt>
      <trkpt lat="46.38293" lon="5.54284">
        <ele>381.79998779297</ele>
        <time>2026-08-27T11:14:01.000Z</time>
      </trkpt>
      <trkpt lat="46.38284" lon="5.54286">
        <ele>382</ele>
        <time>2026-08-27T11:14:08.000Z</time>
      </trkpt>
      <trkpt lat="46.38282" lon="5.54287">
        <ele>382</ele>
        <time>2026-08-27T11:14:10.000Z</time>
      </trkpt>
      <trkpt lat="46.38275" lon="5.54288">
        <ele>382.39999389648</ele>
        <time>2026-08-27T11:14:18.000Z</time>
      </trkpt>
      <trkpt lat="46.38265" lon="5.54291">
        <ele>382.79998779297</ele>
        <time>2026-08-27T11:14:27.000Z</time>
      </trkpt>
      <trkpt lat="46.3826" lon="5.54293">
        <ele>383</ele>
        <time>2026-08-27T11:14:32.000Z</time>
      </trkpt>
      <trkpt lat="46.38257" lon="5.54296">
        <ele>383.20001220703</ele>
        <time>2026-08-27T11:14:36.000Z</time>
      </trkpt>
      <trkpt lat="46.38254" lon="5.54297">
        <ele>383.20001220703</ele>
        <time>2026-08-27T11:14:39.000Z</time>
      </trkpt>
      <trkpt lat="46.3825" lon="5.54299">
        <ele>383.39999389648</ele>
        <time>2026-08-27T11:14:43.000Z</time>
      </trkpt>
      <trkpt lat="46.38242" lon="5.543">
        <ele>383.60000610352</ele>
        <time>2026-08-27T11:14:49.000Z</time>
      </trkpt>
      <trkpt lat="46.3824" lon="5.543">
        <ele>383.79998779297</ele>
        <time>2026-08-27T11:14:51.000Z</time>
      </trkpt>
      <trkpt lat="46.38233" lon="5.54304">
        <ele>384</ele>
        <time>2026-08-27T11:14:58.000Z</time>
      </trkpt>
      <trkpt lat="46.38232" lon="5.54304">
        <ele>384.20001220703</ele>
        <time>2026-08-27T11:14:59.000Z</time>
      </trkpt>
      <trkpt lat="46.38225" lon="5.54307">
        <ele>384.39999389648</ele>
        <time>2026-08-27T11:15:06.000Z</time>
      </trkpt>
      <trkpt lat="46.38215" lon="5.54312">
        <ele>384.79998779297</ele>
        <time>2026-08-27T11:15:15.000Z</time>
      </trkpt>
      <trkpt lat="46.38211" lon="5.54314">
        <ele>385.39999389648</ele>
        <time>2026-08-27T11:15:19.000Z</time>
      </trkpt>
      <trkpt lat="46.38207" lon="5.54315">
        <ele>385.39999389648</ele>
        <time>2026-08-27T11:15:23.000Z</time>
      </trkpt>
      <trkpt lat="46.38199" lon="5.54319">
        <ele>385.60000610352</ele>
        <time>2026-08-27T11:15:30.000Z</time>
      </trkpt>
      <trkpt lat="46.38189" lon="5.54323">
        <ele>386.39999389648</ele>
        <time>2026-08-27T11:15:39.000Z</time>
      </trkpt>
      <trkpt lat="46.38182" lon="5.54327">
        <ele>386.60000610352</ele>
        <time>2026-08-27T11:15:47.000Z</time>
      </trkpt>
      <trkpt lat="46.38172" lon="5.5433">
        <ele>387.20001220703</ele>
        <time>2026-08-27T11:15:56.000Z</time>
      </trkpt>
      <trkpt lat="46.3817" lon="5.54332">
        <ele>387.20001220703</ele>
        <time>2026-08-27T11:15:59.000Z</time>
      </trkpt>
      <trkpt lat="46.38169" lon="5.54333">
        <ele>387.20001220703</ele>
        <time>2026-08-27T11:16:00.000Z</time>
      </trkpt>
      <trkpt lat="46.38168" lon="5.54333">
        <ele>387.20001220703</ele>
        <time>2026-08-27T11:16:01.000Z</time>
      </trkpt>
      <trkpt lat="46.38164" lon="5.54334">
        <ele>387.39999389648</ele>
        <time>2026-08-27T11:16:04.000Z</time>
      </trkpt>
      <trkpt lat="46.38162" lon="5.54336">
        <ele>387.60000610352</ele>
        <time>2026-08-27T11:16:06.000Z</time>
      </trkpt>
      <trkpt lat="46.38152" lon="5.54339">
        <ele>388</ele>
        <time>2026-08-27T11:16:15.000Z</time>
      </trkpt>
      <trkpt lat="46.38145" lon="5.54341">
        <ele>388.60000610352</ele>
        <time>2026-08-27T11:16:21.000Z</time>
      </trkpt>
      <trkpt lat="46.38143" lon="5.54342">
        <ele>388.39999389648</ele>
        <time>2026-08-27T11:16:23.000Z</time>
      </trkpt>
      <trkpt lat="46.38136" lon="5.54344">
        <ele>388.39999389648</ele>
        <time>2026-08-27T11:16:32.000Z</time>
      </trkpt>
      <trkpt lat="46.38134" lon="5.54346">
        <ele>388.39999389648</ele>
        <time>2026-08-27T11:16:36.000Z</time>
      </trkpt>
      <trkpt lat="46.38129" lon="5.54347">
        <ele>389</ele>
        <time>2026-08-27T11:16:41.000Z</time>
      </trkpt>
      <trkpt lat="46.38128" lon="5.54347">
        <ele>389</ele>
        <time>2026-08-27T11:16:42.000Z</time>
      </trkpt>
      <trkpt lat="46.38119" lon="5.54348">
        <ele>389.60000610352</ele>
        <time>2026-08-27T11:16:51.000Z</time>
      </trkpt>
      <trkpt lat="46.38118" lon="5.54348">
        <ele>389.60000610352</ele>
        <time>2026-08-27T11:16:52.000Z</time>
      </trkpt>
      <trkpt lat="46.38107" lon="5.54349">
        <ele>389.79998779297</ele>
        <time>2026-08-27T11:17:01.000Z</time>
      </trkpt>
      <trkpt lat="46.38096" lon="5.5435">
        <ele>389.79998779297</ele>
        <time>2026-08-27T11:17:09.000Z</time>
      </trkpt>
      <trkpt lat="46.38094" lon="5.5435">
        <ele>389.79998779297</ele>
        <time>2026-08-27T11:17:10.000Z</time>
      </trkpt>
      <trkpt lat="46.38086" lon="5.54347">
        <ele>390</ele>
        <time>2026-08-27T11:17:19.000Z</time>
      </trkpt>
      <trkpt lat="46.38075" lon="5.54346">
        <ele>390.20001220703</ele>
        <time>2026-08-27T11:17:29.000Z</time>
      </trkpt>
      <trkpt lat="46.38064" lon="5.54342">
        <ele>390.20001220703</ele>
        <time>2026-08-27T11:17:39.000Z</time>
      </trkpt>
      <trkpt lat="46.38054" lon="5.5434">
        <ele>390.60000610352</ele>
        <time>2026-08-27T11:17:48.000Z</time>
      </trkpt>
      <trkpt lat="46.38053" lon="5.5434">
        <ele>390.60000610352</ele>
        <time>2026-08-27T11:17:49.000Z</time>
      </trkpt>
      <trkpt lat="46.38042" lon="5.54336">
        <ele>390.39999389648</ele>
        <time>2026-08-27T11:17:59.000Z</time>
      </trkpt>
      <trkpt lat="46.38034" lon="5.54336">
        <ele>390.79998779297</ele>
        <time>2026-08-27T11:18:08.000Z</time>
      </trkpt>
      <trkpt lat="46.38023" lon="5.54335">
        <ele>391</ele>
        <time>2026-08-27T11:18:18.000Z</time>
      </trkpt>
      <trkpt lat="46.38022" lon="5.54335">
        <ele>391.20001220703</ele>
        <time>2026-08-27T11:18:19.000Z</time>
      </trkpt>
      <trkpt lat="46.38014" lon="5.54334">
        <ele>391.39999389648</ele>
        <time>2026-08-27T11:18:27.000Z</time>
      </trkpt>
      <trkpt lat="46.38013" lon="5.54334">
        <ele>391.39999389648</ele>
        <time>2026-08-27T11:18:28.000Z</time>
      </trkpt>
      <trkpt lat="46.3801" lon="5.54334">
        <ele>391.79998779297</ele>
        <time>2026-08-27T11:18:31.000Z</time>
      </trkpt>
      <trkpt lat="46.38008" lon="5.54336">
        <ele>392</ele>
        <time>2026-08-27T11:18:33.000Z</time>
      </trkpt>
      <trkpt lat="46.38007" lon="5.54337">
        <ele>392.20001220703</ele>
        <time>2026-08-27T11:18:35.000Z</time>
      </trkpt>
      <trkpt lat="46.37999" lon="5.54339">
        <ele>391.60000610352</ele>
        <time>2026-08-27T11:18:42.000Z</time>
      </trkpt>
      <trkpt lat="46.37998" lon="5.54339">
        <ele>391.60000610352</ele>
        <time>2026-08-27T11:18:43.000Z</time>
      </trkpt>
      <trkpt lat="46.37989" lon="5.54338">
        <ele>392.20001220703</ele>
        <time>2026-08-27T11:18:52.000Z</time>
      </trkpt>
      <trkpt lat="46.37983" lon="5.54337">
        <ele>392.79998779297</ele>
        <time>2026-08-27T11:18:57.000Z</time>
      </trkpt>
      <trkpt lat="46.37979" lon="5.54336">
        <ele>393.39999389648</ele>
        <time>2026-08-27T11:19:02.000Z</time>
      </trkpt>
      <trkpt lat="46.37977" lon="5.54334">
        <ele>393.79998779297</ele>
        <time>2026-08-27T11:19:05.000Z</time>
      </trkpt>
      <trkpt lat="46.37974" lon="5.54328">
        <ele>394.60000610352</ele>
        <time>2026-08-27T11:19:10.000Z</time>
      </trkpt>
      <trkpt lat="46.37972" lon="5.54324">
        <ele>395</ele>
        <time>2026-08-27T11:19:13.000Z</time>
      </trkpt>
      <trkpt lat="46.37972" lon="5.54321">
        <ele>395.20001220703</ele>
        <time>2026-08-27T11:19:15.000Z</time>
      </trkpt>
      <trkpt lat="46.37972" lon="5.54319">
        <ele>395.39999389648</ele>
        <time>2026-08-27T11:19:17.000Z</time>
      </trkpt>
      <trkpt lat="46.3797" lon="5.54315">
        <ele>396</ele>
        <time>2026-08-27T11:19:25.000Z</time>
      </trkpt>
      <trkpt lat="46.37967" lon="5.54311">
        <ele>396.39999389648</ele>
        <time>2026-08-27T11:19:33.000Z</time>
      </trkpt>
      <trkpt lat="46.37966" lon="5.5431">
        <ele>396.60000610352</ele>
        <time>2026-08-27T11:19:34.000Z</time>
      </trkpt>
      <trkpt lat="46.37965" lon="5.54308">
        <ele>397</ele>
        <time>2026-08-27T11:19:36.000Z</time>
      </trkpt>
      <trkpt lat="46.37962" lon="5.54305">
        <ele>397.79998779297</ele>
        <time>2026-08-27T11:19:43.000Z</time>
      </trkpt>
      <trkpt lat="46.3796" lon="5.54304">
        <ele>398</ele>
        <time>2026-08-27T11:19:49.000Z</time>
      </trkpt>
      <trkpt lat="46.37959" lon="5.54302">
        <ele>398.20001220703</ele>
        <time>2026-08-27T11:19:50.000Z</time>
      </trkpt>
      <trkpt lat="46.37959" lon="5.54302">
        <ele>398.39999389648</ele>
        <time>2026-08-27T11:19:51.000Z</time>
      </trkpt>
      <trkpt lat="46.37955" lon="5.543">
        <ele>399.20001220703</ele>
        <time>2026-08-27T11:19:57.000Z</time>
      </trkpt>
      <trkpt lat="46.37954" lon="5.54301">
        <ele>399.20001220703</ele>
        <time>2026-08-27T11:19:59.000Z</time>
      </trkpt>
      <trkpt lat="46.37954" lon="5.543">
        <ele>399.60000610352</ele>
        <time>2026-08-27T11:20:04.000Z</time>
      </trkpt>
      <trkpt lat="46.37955" lon="5.54299">
        <ele>399.60000610352</ele>
        <time>2026-08-27T11:20:06.000Z</time>
      </trkpt>
      <trkpt lat="46.37955" lon="5.54298">
        <ele>399.39999389648</ele>
        <time>2026-08-27T11:20:08.000Z</time>
      </trkpt>
      <trkpt lat="46.37955" lon="5.54297">
        <ele>399.20001220703</ele>
        <time>2026-08-27T11:20:11.000Z</time>
      </trkpt>
      <trkpt lat="46.37954" lon="5.54297">
        <ele>398.79998779297</ele>
        <time>2026-08-27T11:20:15.000Z</time>
      </trkpt>
      <trkpt lat="46.37954" lon="5.54296">
        <ele>399.39999389648</ele>
        <time>2026-08-27T11:20:22.000Z</time>
      </trkpt>
      <trkpt lat="46.37954" lon="5.54296">
        <ele>399.60000610352</ele>
        <time>2026-08-27T11:20:29.000Z</time>
      </trkpt>
      <trkpt lat="46.37954" lon="5.54298">
        <ele>399.79998779297</ele>
        <time>2026-08-27T11:20:32.000Z</time>
      </trkpt>
      <trkpt lat="46.37953" lon="5.54297">
        <ele>399.60000610352</ele>
        <time>2026-08-27T11:20:36.000Z</time>
      </trkpt>
      <trkpt lat="46.37953" lon="5.54295">
        <ele>399.79998779297</ele>
        <time>2026-08-27T11:20:42.000Z</time>
      </trkpt>
      <trkpt lat="46.37953" lon="5.54296">
        <ele>399.39999389648</ele>
        <time>2026-08-27T11:20:50.000Z</time>
      </trkpt>
      <trkpt lat="46.37951" lon="5.54296">
        <ele>399.39999389648</ele>
        <time>2026-08-27T11:20:58.000Z</time>
      </trkpt>
      <trkpt lat="46.37951" lon="5.54296">
        <ele>399.20001220703</ele>
        <time>2026-08-27T11:21:04.000Z</time>
      </trkpt>
      <trkpt lat="46.37951" lon="5.54296">
        <ele>399.20001220703</ele>
        <time>2026-08-27T11:21:06.000Z</time>
      </trkpt>
      <trkpt lat="46.37947" lon="5.54293">
        <ele>399</ele>
        <time>2026-08-27T11:21:12.000Z</time>
      </trkpt>
      <trkpt lat="46.37941" lon="5.54287">
        <ele>398.79998779297</ele>
        <time>2026-08-27T11:21:20.000Z</time>
      </trkpt>
      <trkpt lat="46.37938" lon="5.54285">
        <ele>398.39999389648</ele>
        <time>2026-08-27T11:21:23.000Z</time>
      </trkpt>
      <trkpt lat="46.37935" lon="5.54282">
        <ele>398.20001220703</ele>
        <time>2026-08-27T11:21:26.000Z</time>
      </trkpt>
      <trkpt lat="46.37932" lon="5.54279">
        <ele>398</ele>
        <time>2026-08-27T11:21:29.000Z</time>
      </trkpt>
      <trkpt lat="46.37924" lon="5.54271">
        <ele>397.20001220703</ele>
        <time>2026-08-27T11:21:38.000Z</time>
      </trkpt>
      <trkpt lat="46.37923" lon="5.54269">
        <ele>397.20001220703</ele>
        <time>2026-08-27T11:21:40.000Z</time>
      </trkpt>
      <trkpt lat="46.37921" lon="5.54265">
        <ele>397</ele>
        <time>2026-08-27T11:21:43.000Z</time>
      </trkpt>
      <trkpt lat="46.37922" lon="5.54265">
        <ele>396.60000610352</ele>
        <time>2026-08-27T11:21:49.000Z</time>
      </trkpt>
      <trkpt lat="46.37916" lon="5.54261">
        <ele>396.60000610352</ele>
        <time>2026-08-27T11:21:56.000Z</time>
      </trkpt>
      <trkpt lat="46.3791" lon="5.54253">
        <ele>396.60000610352</ele>
        <time>2026-08-27T11:22:02.000Z</time>
      </trkpt>
      <trkpt lat="46.37909" lon="5.54251">
        <ele>396.60000610352</ele>
        <time>2026-08-27T11:22:04.000Z</time>
      </trkpt>
      <trkpt lat="46.37902" lon="5.5424">
        <ele>396</ele>
        <time>2026-08-27T11:22:13.000Z</time>
      </trkpt>
      <trkpt lat="46.379" lon="5.54237">
        <ele>396</ele>
        <time>2026-08-27T11:22:15.000Z</time>
      </trkpt>
      <trkpt lat="46.37893" lon="5.54229">
        <ele>395.39999389648</ele>
        <time>2026-08-27T11:22:24.000Z</time>
      </trkpt>
      <trkpt lat="46.37884" lon="5.5422">
        <ele>395.20001220703</ele>
        <time>2026-08-27T11:22:34.000Z</time>
      </trkpt>
      <trkpt lat="46.37882" lon="5.54216">
        <ele>395</ele>
        <time>2026-08-27T11:22:37.000Z</time>
      </trkpt>
      <trkpt lat="46.37876" lon="5.54207">
        <ele>394.39999389648</ele>
        <time>2026-08-27T11:22:44.000Z</time>
      </trkpt>
      <trkpt lat="46.37871" lon="5.54201">
        <ele>394</ele>
        <time>2026-08-27T11:22:50.000Z</time>
      </trkpt>
      <trkpt lat="46.37865" lon="5.54194">
        <ele>393.60000610352</ele>
        <time>2026-08-27T11:22:57.000Z</time>
      </trkpt>
      <trkpt lat="46.37857" lon="5.54185">
        <ele>393</ele>
        <time>2026-08-27T11:23:06.000Z</time>
      </trkpt>
      <trkpt lat="46.37855" lon="5.54183">
        <ele>392.79998779297</ele>
        <time>2026-08-27T11:23:08.000Z</time>
      </trkpt>
      <trkpt lat="46.37849" lon="5.54173">
        <ele>391.79998779297</ele>
        <time>2026-08-27T11:23:16.000Z</time>
      </trkpt>
      <trkpt lat="46.37847" lon="5.5417">
        <ele>391.60000610352</ele>
        <time>2026-08-27T11:23:19.000Z</time>
      </trkpt>
      <trkpt lat="46.3784" lon="5.54162">
        <ele>391</ele>
        <time>2026-08-27T11:23:27.000Z</time>
      </trkpt>
      <trkpt lat="46.37839" lon="5.54159">
        <ele>391</ele>
        <time>2026-08-27T11:23:29.000Z</time>
      </trkpt>
      <trkpt lat="46.37838" lon="5.54158">
        <ele>390.79998779297</ele>
        <time>2026-08-27T11:23:30.000Z</time>
      </trkpt>
      <trkpt lat="46.3783" lon="5.54149">
        <ele>391</ele>
        <time>2026-08-27T11:23:39.000Z</time>
      </trkpt>
      <trkpt lat="46.37822" lon="5.54138">
        <ele>390.39999389648</ele>
        <time>2026-08-27T11:23:49.000Z</time>
      </trkpt>
      <trkpt lat="46.37813" lon="5.54128">
        <ele>389.79998779297</ele>
        <time>2026-08-27T11:23:58.000Z</time>
      </trkpt>
      <trkpt lat="46.37812" lon="5.54127">
        <ele>389.60000610352</ele>
        <time>2026-08-27T11:23:59.000Z</time>
      </trkpt>
      <trkpt lat="46.37808" lon="5.54124">
        <ele>388.39999389648</ele>
        <time>2026-08-27T11:24:03.000Z</time>
      </trkpt>
      <trkpt lat="46.37797" lon="5.54115">
        <ele>387.60000610352</ele>
        <time>2026-08-27T11:24:13.000Z</time>
      </trkpt>
      <trkpt lat="46.37795" lon="5.54113">
        <ele>387.39999389648</ele>
        <time>2026-08-27T11:24:15.000Z</time>
      </trkpt>
      <trkpt lat="46.37785" lon="5.54107">
        <ele>387.20001220703</ele>
        <time>2026-08-27T11:24:24.000Z</time>
      </trkpt>
      <trkpt lat="46.37773" lon="5.54098">
        <ele>386.39999389648</ele>
        <time>2026-08-27T11:24:36.000Z</time>
      </trkpt>
      <trkpt lat="46.37768" lon="5.54094">
        <ele>386.39999389648</ele>
        <time>2026-08-27T11:24:41.000Z</time>
      </trkpt>
      <trkpt lat="46.37759" lon="5.5409">
        <ele>385.60000610352</ele>
        <time>2026-08-27T11:24:48.000Z</time>
      </trkpt>
      <trkpt lat="46.37756" lon="5.54089">
        <ele>385.39999389648</ele>
        <time>2026-08-27T11:24:51.000Z</time>
      </trkpt>
      <trkpt lat="46.37747" lon="5.54084">
        <ele>384.20001220703</ele>
        <time>2026-08-27T11:25:01.000Z</time>
      </trkpt>
      <trkpt lat="46.37742" lon="5.54085">
        <ele>384.20001220703</ele>
        <time>2026-08-27T11:25:08.000Z</time>
      </trkpt>
      <trkpt lat="46.37739" lon="5.54084">
        <ele>384</ele>
        <time>2026-08-27T11:25:11.000Z</time>
      </trkpt>
      <trkpt lat="46.37734" lon="5.54081">
        <ele>384</ele>
        <time>2026-08-27T11:25:16.000Z</time>
      </trkpt>
      <trkpt lat="46.37727" lon="5.54078">
        <ele>383.20001220703</ele>
        <time>2026-08-27T11:25:22.000Z</time>
      </trkpt>
      <trkpt lat="46.37722" lon="5.54076">
        <ele>383.20001220703</ele>
        <time>2026-08-27T11:25:27.000Z</time>
      </trkpt>
      <trkpt lat="46.37712" lon="5.54071">
        <ele>382.39999389648</ele>
        <time>2026-08-27T11:25:36.000Z</time>
      </trkpt>
      <trkpt lat="46.37706" lon="5.54069">
        <ele>382.20001220703</ele>
        <time>2026-08-27T11:25:42.000Z</time>
      </trkpt>
      <trkpt lat="46.37702" lon="5.54068">
        <ele>382</ele>
        <time>2026-08-27T11:25:45.000Z</time>
      </trkpt>
      <trkpt lat="46.37696" lon="5.54067">
        <ele>381.79998779297</ele>
        <time>2026-08-27T11:25:51.000Z</time>
      </trkpt>
      <trkpt lat="46.37687" lon="5.54064">
        <ele>381</ele>
        <time>2026-08-27T11:25:58.000Z</time>
      </trkpt>
      <trkpt lat="46.37683" lon="5.54063">
        <ele>380.79998779297</ele>
        <time>2026-08-27T11:26:02.000Z</time>
      </trkpt>
      <trkpt lat="46.37678" lon="5.5406">
        <ele>380</ele>
        <time>2026-08-27T11:26:07.000Z</time>
      </trkpt>
      <trkpt lat="46.37671" lon="5.54057">
        <ele>380</ele>
        <time>2026-08-27T11:26:13.000Z</time>
      </trkpt>
      <trkpt lat="46.37661" lon="5.54055">
        <ele>379.39999389648</ele>
        <time>2026-08-27T11:26:22.000Z</time>
      </trkpt>
      <trkpt lat="46.37659" lon="5.54055">
        <ele>379</ele>
        <time>2026-08-27T11:26:24.000Z</time>
      </trkpt>
      <trkpt lat="46.37651" lon="5.54052">
        <ele>378.79998779297</ele>
        <time>2026-08-27T11:26:31.000Z</time>
      </trkpt>
      <trkpt lat="46.37644" lon="5.5405">
        <ele>379</ele>
        <time>2026-08-27T11:26:39.000Z</time>
      </trkpt>
      <trkpt lat="46.37637" lon="5.54047">
        <ele>378</ele>
        <time>2026-08-27T11:26:48.000Z</time>
      </trkpt>
      <trkpt lat="46.37634" lon="5.54048">
        <ele>377.79998779297</ele>
        <time>2026-08-27T11:26:50.000Z</time>
      </trkpt>
      <trkpt lat="46.37628" lon="5.54048">
        <ele>377</ele>
        <time>2026-08-27T11:26:55.000Z</time>
      </trkpt>
      <trkpt lat="46.37624" lon="5.54048">
        <ele>376.79998779297</ele>
        <time>2026-08-27T11:26:58.000Z</time>
      </trkpt>
      <trkpt lat="46.37619" lon="5.54049">
        <ele>377</ele>
        <time>2026-08-27T11:27:03.000Z</time>
      </trkpt>
      <trkpt lat="46.37608" lon="5.54051">
        <ele>376.39999389648</ele>
        <time>2026-08-27T11:27:13.000Z</time>
      </trkpt>
      <trkpt lat="46.37604" lon="5.54053">
        <ele>375.79998779297</ele>
        <time>2026-08-27T11:27:18.000Z</time>
      </trkpt>
      <trkpt lat="46.37601" lon="5.54055">
        <ele>375.60000610352</ele>
        <time>2026-08-27T11:27:21.000Z</time>
      </trkpt>
      <trkpt lat="46.3759" lon="5.5406">
        <ele>374.60000610352</ele>
        <time>2026-08-27T11:27:30.000Z</time>
      </trkpt>
      <trkpt lat="46.37579" lon="5.54065">
        <ele>373.39999389648</ele>
        <time>2026-08-27T11:27:40.000Z</time>
      </trkpt>
      <trkpt lat="46.37571" lon="5.54068">
        <ele>373.39999389648</ele>
        <time>2026-08-27T11:27:48.000Z</time>
      </trkpt>
      <trkpt lat="46.37565" lon="5.54069">
        <ele>372.20001220703</ele>
        <time>2026-08-27T11:27:53.000Z</time>
      </trkpt>
      <trkpt lat="46.37558" lon="5.5407">
        <ele>372.60000610352</ele>
        <time>2026-08-27T11:27:59.000Z</time>
      </trkpt>
      <trkpt lat="46.37552" lon="5.54071">
        <ele>371.20001220703</ele>
        <time>2026-08-27T11:28:04.000Z</time>
      </trkpt>
      <trkpt lat="46.37549" lon="5.54072">
        <ele>370.60000610352</ele>
        <time>2026-08-27T11:28:07.000Z</time>
      </trkpt>
      <trkpt lat="46.37538" lon="5.54074">
        <ele>371</ele>
        <time>2026-08-27T11:28:17.000Z</time>
      </trkpt>
      <trkpt lat="46.37531" lon="5.54077">
        <ele>370</ele>
        <time>2026-08-27T11:28:23.000Z</time>
      </trkpt>
      <trkpt lat="46.37527" lon="5.54078">
        <ele>369.60000610352</ele>
        <time>2026-08-27T11:28:26.000Z</time>
      </trkpt>
      <trkpt lat="46.37518" lon="5.54082">
        <ele>368.60000610352</ele>
        <time>2026-08-27T11:28:33.000Z</time>
      </trkpt>
      <trkpt lat="46.37514" lon="5.54084">
        <ele>368.20001220703</ele>
        <time>2026-08-27T11:28:38.000Z</time>
      </trkpt>
      <trkpt lat="46.37507" lon="5.54087">
        <ele>369.79998779297</ele>
        <time>2026-08-27T11:28:44.000Z</time>
      </trkpt>
      <trkpt lat="46.375" lon="5.5409">
        <ele>368.60000610352</ele>
        <time>2026-08-27T11:28:49.000Z</time>
      </trkpt>
      <trkpt lat="46.37497" lon="5.54092">
        <ele>367.20001220703</ele>
        <time>2026-08-27T11:28:52.000Z</time>
      </trkpt>
      <trkpt lat="46.37488" lon="5.54094">
        <ele>367.60000610352</ele>
        <time>2026-08-27T11:29:00.000Z</time>
      </trkpt>
      <trkpt lat="46.37479" lon="5.541">
        <ele>366.60000610352</ele>
        <time>2026-08-27T11:29:09.000Z</time>
      </trkpt>
      <trkpt lat="46.37476" lon="5.54101">
        <ele>366.20001220703</ele>
        <time>2026-08-27T11:29:11.000Z</time>
      </trkpt>
      <trkpt lat="46.37466" lon="5.54105">
        <ele>365.79998779297</ele>
        <time>2026-08-27T11:29:19.000Z</time>
      </trkpt>
      <trkpt lat="46.37455" lon="5.54111">
        <ele>365.20001220703</ele>
        <time>2026-08-27T11:29:29.000Z</time>
      </trkpt>
      <trkpt lat="46.37453" lon="5.54111">
        <ele>365</ele>
        <time>2026-08-27T11:29:31.000Z</time>
      </trkpt>
      <trkpt lat="46.37445" lon="5.54115">
        <ele>364.39999389648</ele>
        <time>2026-08-27T11:29:38.000Z</time>
      </trkpt>
      <trkpt lat="46.3744" lon="5.54117">
        <ele>364</ele>
        <time>2026-08-27T11:29:42.000Z</time>
      </trkpt>
      <trkpt lat="46.37437" lon="5.54119">
        <ele>363.79998779297</ele>
        <time>2026-08-27T11:29:45.000Z</time>
      </trkpt>
      <trkpt lat="46.37429" lon="5.54123">
        <ele>363.20001220703</ele>
        <time>2026-08-27T11:29:53.000Z</time>
      </trkpt>
      <trkpt lat="46.37426" lon="5.54125">
        <ele>363</ele>
        <time>2026-08-27T11:29:56.000Z</time>
      </trkpt>
      <trkpt lat="46.37419" lon="5.54129">
        <ele>362.20001220703</ele>
        <time>2026-08-27T11:30:02.000Z</time>
      </trkpt>
      <trkpt lat="46.37417" lon="5.5413">
        <ele>361.60000610352</ele>
        <time>2026-08-27T11:30:04.000Z</time>
      </trkpt>
      <trkpt lat="46.37408" lon="5.54136">
        <ele>361.20001220703</ele>
        <time>2026-08-27T11:30:12.000Z</time>
      </trkpt>
      <trkpt lat="46.37398" lon="5.5414">
        <ele>360.60000610352</ele>
        <time>2026-08-27T11:30:20.000Z</time>
      </trkpt>
      <trkpt lat="46.37396" lon="5.54141">
        <ele>360.20001220703</ele>
        <time>2026-08-27T11:30:22.000Z</time>
      </trkpt>
      <trkpt lat="46.37387" lon="5.54147">
        <ele>360.60000610352</ele>
        <time>2026-08-27T11:30:30.000Z</time>
      </trkpt>
      <trkpt lat="46.3738" lon="5.5415">
        <ele>359.39999389648</ele>
        <time>2026-08-27T11:30:36.000Z</time>
      </trkpt>
      <trkpt lat="46.37378" lon="5.54151">
        <ele>359.39999389648</ele>
        <time>2026-08-27T11:30:38.000Z</time>
      </trkpt>
      <trkpt lat="46.37369" lon="5.54156">
        <ele>358.79998779297</ele>
        <time>2026-08-27T11:30:47.000Z</time>
      </trkpt>
      <trkpt lat="46.37366" lon="5.54157">
        <ele>358.39999389648</ele>
        <time>2026-08-27T11:30:49.000Z</time>
      </trkpt>
      <trkpt lat="46.37361" lon="5.54159">
        <ele>358</ele>
        <time>2026-08-27T11:30:53.000Z</time>
      </trkpt>
      <trkpt lat="46.37358" lon="5.5416">
        <ele>357.39999389648</ele>
        <time>2026-08-27T11:30:56.000Z</time>
      </trkpt>
      <trkpt lat="46.37352" lon="5.54162">
        <ele>356.79998779297</ele>
        <time>2026-08-27T11:31:01.000Z</time>
      </trkpt>
      <trkpt lat="46.37339" lon="5.54164">
        <ele>356.79998779297</ele>
        <time>2026-08-27T11:31:11.000Z</time>
      </trkpt>
      <trkpt lat="46.37327" lon="5.54165">
        <ele>356.60000610352</ele>
        <time>2026-08-27T11:31:21.000Z</time>
      </trkpt>
      <trkpt lat="46.37322" lon="5.54164">
        <ele>356.39999389648</ele>
        <time>2026-08-27T11:31:24.000Z</time>
      </trkpt>
      <trkpt lat="46.37313" lon="5.54164">
        <ele>355.60000610352</ele>
        <time>2026-08-27T11:31:31.000Z</time>
      </trkpt>
      <trkpt lat="46.37311" lon="5.54164">
        <ele>355.20001220703</ele>
        <time>2026-08-27T11:31:33.000Z</time>
      </trkpt>
      <trkpt lat="46.37301" lon="5.54163">
        <ele>354.60000610352</ele>
        <time>2026-08-27T11:31:41.000Z</time>
      </trkpt>
      <trkpt lat="46.37291" lon="5.54162">
        <ele>354</ele>
        <time>2026-08-27T11:31:49.000Z</time>
      </trkpt>
      <trkpt lat="46.37288" lon="5.54161">
        <ele>353.79998779297</ele>
        <time>2026-08-27T11:31:51.000Z</time>
      </trkpt>
      <trkpt lat="46.37276" lon="5.54159">
        <ele>353</ele>
        <time>2026-08-27T11:32:00.000Z</time>
      </trkpt>
      <trkpt lat="46.37265" lon="5.54156">
        <ele>353</ele>
        <time>2026-08-27T11:32:09.000Z</time>
      </trkpt>
      <trkpt lat="46.37251" lon="5.54151">
        <ele>352.39999389648</ele>
        <time>2026-08-27T11:32:21.000Z</time>
      </trkpt>
      <trkpt lat="46.37246" lon="5.54149">
        <ele>352</ele>
        <time>2026-08-27T11:32:25.000Z</time>
      </trkpt>
      <trkpt lat="46.37239" lon="5.54146">
        <ele>351.60000610352</ele>
        <time>2026-08-27T11:32:31.000Z</time>
      </trkpt>
      <trkpt lat="46.37224" lon="5.54135">
        <ele>351.60000610352</ele>
        <time>2026-08-27T11:32:44.000Z</time>
      </trkpt>
      <trkpt lat="46.37217" lon="5.5413">
        <ele>350.79998779297</ele>
        <time>2026-08-27T11:32:50.000Z</time>
      </trkpt>
      <trkpt lat="46.37211" lon="5.54126">
        <ele>350.60000610352</ele>
        <time>2026-08-27T11:32:55.000Z</time>
      </trkpt>
      <trkpt lat="46.37201" lon="5.5412">
        <ele>349.79998779297</ele>
        <time>2026-08-27T11:33:04.000Z</time>
      </trkpt>
      <trkpt lat="46.37197" lon="5.54118">
        <ele>349.20001220703</ele>
        <time>2026-08-27T11:33:07.000Z</time>
      </trkpt>
      <trkpt lat="46.37186" lon="5.54109">
        <ele>348.79998779297</ele>
        <time>2026-08-27T11:33:17.000Z</time>
      </trkpt>
      <trkpt lat="46.37184" lon="5.54108">
        <ele>348.79998779297</ele>
        <time>2026-08-27T11:33:18.000Z</time>
      </trkpt>
      <trkpt lat="46.37174" lon="5.541">
        <ele>348.39999389648</ele>
        <time>2026-08-27T11:33:27.000Z</time>
      </trkpt>
      <trkpt lat="46.37169" lon="5.54095">
        <ele>347.79998779297</ele>
        <time>2026-08-27T11:33:31.000Z</time>
      </trkpt>
      <trkpt lat="46.37166" lon="5.54093">
        <ele>347.60000610352</ele>
        <time>2026-08-27T11:33:33.000Z</time>
      </trkpt>
      <trkpt lat="46.37158" lon="5.54087">
        <ele>347.60000610352</ele>
        <time>2026-08-27T11:33:40.000Z</time>
      </trkpt>
      <trkpt lat="46.37146" lon="5.54079">
        <ele>347.20001220703</ele>
        <time>2026-08-27T11:33:50.000Z</time>
      </trkpt>
      <trkpt lat="46.37139" lon="5.54072">
        <ele>346.79998779297</ele>
        <time>2026-08-27T11:33:58.000Z</time>
      </trkpt>
      <trkpt lat="46.37137" lon="5.5407">
        <ele>346.79998779297</ele>
        <time>2026-08-27T11:34:00.000Z</time>
      </trkpt>
      <trkpt lat="46.3713" lon="5.54064">
        <ele>346.39999389648</ele>
        <time>2026-08-27T11:34:06.000Z</time>
      </trkpt>
      <trkpt lat="46.37121" lon="5.54056">
        <ele>346</ele>
        <time>2026-08-27T11:34:14.000Z</time>
      </trkpt>
      <trkpt lat="46.37111" lon="5.54048">
        <ele>345.79998779297</ele>
        <time>2026-08-27T11:34:23.000Z</time>
      </trkpt>
      <trkpt lat="46.37103" lon="5.54042">
        <ele>346</ele>
        <time>2026-08-27T11:34:30.000Z</time>
      </trkpt>
      <trkpt lat="46.371" lon="5.5404">
        <ele>345.79998779297</ele>
        <time>2026-08-27T11:34:33.000Z</time>
      </trkpt>
      <trkpt lat="46.37092" lon="5.54033">
        <ele>345.20001220703</ele>
        <time>2026-08-27T11:34:40.000Z</time>
      </trkpt>
      <trkpt lat="46.3709" lon="5.54031">
        <ele>344.60000610352</ele>
        <time>2026-08-27T11:34:43.000Z</time>
      </trkpt>
      <trkpt lat="46.37089" lon="5.5403">
        <ele>344.20001220703</ele>
        <time>2026-08-27T11:34:47.000Z</time>
      </trkpt>
      <trkpt lat="46.37088" lon="5.5403">
        <ele>344.20001220703</ele>
        <time>2026-08-27T11:34:48.000Z</time>
      </trkpt>
      <trkpt lat="46.37084" lon="5.54031">
        <ele>344.39999389648</ele>
        <time>2026-08-27T11:34:55.000Z</time>
      </trkpt>
      <trkpt lat="46.37081" lon="5.54031">
        <ele>344.79998779297</ele>
        <time>2026-08-27T11:35:04.000Z</time>
      </trkpt>
      <trkpt lat="46.3708" lon="5.5403">
        <ele>345</ele>
        <time>2026-08-27T11:35:12.000Z</time>
      </trkpt>
      <trkpt lat="46.37073" lon="5.54032">
        <ele>345.60000610352</ele>
        <time>2026-08-27T11:35:19.000Z</time>
      </trkpt>
      <trkpt lat="46.37073" lon="5.54032">
        <ele>345.60000610352</ele>
        <time>2026-08-27T11:35:20.000Z</time>
      </trkpt>
      <trkpt lat="46.37066" lon="5.54034">
        <ele>346.20001220703</ele>
        <time>2026-08-27T11:35:26.000Z</time>
      </trkpt>
      <trkpt lat="46.3706" lon="5.54036">
        <ele>346.39999389648</ele>
        <time>2026-08-27T11:35:33.000Z</time>
      </trkpt>
      <trkpt lat="46.3705" lon="5.54038">
        <ele>346.39999389648</ele>
        <time>2026-08-27T11:35:40.000Z</time>
      </trkpt>
      <trkpt lat="46.37042" lon="5.54037">
        <ele>346.39999389648</ele>
        <time>2026-08-27T11:35:47.000Z</time>
      </trkpt>
      <trkpt lat="46.37038" lon="5.54036">
        <ele>346.60000610352</ele>
        <time>2026-08-27T11:35:50.000Z</time>
      </trkpt>
      <trkpt lat="46.37034" lon="5.54035">
        <ele>346.60000610352</ele>
        <time>2026-08-27T11:35:55.000Z</time>
      </trkpt>
      <trkpt lat="46.3703" lon="5.54035">
        <ele>346.79998779297</ele>
        <time>2026-08-27T11:35:59.000Z</time>
      </trkpt>
      <trkpt lat="46.3702" lon="5.54034">
        <ele>347.20001220703</ele>
        <time>2026-08-27T11:36:08.000Z</time>
      </trkpt>
      <trkpt lat="46.3701" lon="5.54031">
        <ele>347.60000610352</ele>
        <time>2026-08-27T11:36:16.000Z</time>
      </trkpt>
      <trkpt lat="46.37008" lon="5.5403">
        <ele>347.79998779297</ele>
        <time>2026-08-27T11:36:18.000Z</time>
      </trkpt>
      <trkpt lat="46.37" lon="5.54026">
        <ele>348.39999389648</ele>
        <time>2026-08-27T11:36:26.000Z</time>
      </trkpt>
      <trkpt lat="46.36996" lon="5.54024">
        <ele>348.79998779297</ele>
        <time>2026-08-27T11:36:29.000Z</time>
      </trkpt>
      <trkpt lat="46.3699" lon="5.54022">
        <ele>349</ele>
        <time>2026-08-27T11:36:34.000Z</time>
      </trkpt>
      <trkpt lat="46.3698" lon="5.54018">
        <ele>349.20001220703</ele>
        <time>2026-08-27T11:36:43.000Z</time>
      </trkpt>
      <trkpt lat="46.36971" lon="5.54013">
        <ele>349</ele>
        <time>2026-08-27T11:36:51.000Z</time>
      </trkpt>
      <trkpt lat="46.36966" lon="5.5401">
        <ele>349</ele>
        <time>2026-08-27T11:36:56.000Z</time>
      </trkpt>
      <trkpt lat="46.36962" lon="5.54008">
        <ele>348.79998779297</ele>
        <time>2026-08-27T11:37:00.000Z</time>
      </trkpt>
      <trkpt lat="46.36953" lon="5.54002">
        <ele>348.60000610352</ele>
        <time>2026-08-27T11:37:07.000Z</time>
      </trkpt>
      <trkpt lat="46.36946" lon="5.54">
        <ele>348.60000610352</ele>
        <time>2026-08-27T11:37:12.000Z</time>
      </trkpt>
      <trkpt lat="46.36943" lon="5.53999">
        <ele>348.79998779297</ele>
        <time>2026-08-27T11:37:15.000Z</time>
      </trkpt>
      <trkpt lat="46.36934" lon="5.53996">
        <ele>349</ele>
        <time>2026-08-27T11:37:24.000Z</time>
      </trkpt>
      <trkpt lat="46.36923" lon="5.53991">
        <ele>348.79998779297</ele>
        <time>2026-08-27T11:37:33.000Z</time>
      </trkpt>
      <trkpt lat="46.36914" lon="5.53987">
        <ele>349</ele>
        <time>2026-08-27T11:37:41.000Z</time>
      </trkpt>
      <trkpt lat="46.36911" lon="5.53987">
        <ele>349</ele>
        <time>2026-08-27T11:37:43.000Z</time>
      </trkpt>
      <trkpt lat="46.36908" lon="5.53987">
        <ele>349</ele>
        <time>2026-08-27T11:37:46.000Z</time>
      </trkpt>
      <trkpt lat="46.36906" lon="5.53986">
        <ele>349.20001220703</ele>
        <time>2026-08-27T11:37:48.000Z</time>
      </trkpt>
      <trkpt lat="46.36896" lon="5.53985">
        <ele>349.39999389648</ele>
        <time>2026-08-27T11:37:55.000Z</time>
      </trkpt>
      <trkpt lat="46.36893" lon="5.53984">
        <ele>349.39999389648</ele>
        <time>2026-08-27T11:37:57.000Z</time>
      </trkpt>
      <trkpt lat="46.36887" lon="5.53982">
        <ele>349.39999389648</ele>
        <time>2026-08-27T11:38:03.000Z</time>
      </trkpt>
      <trkpt lat="46.36875" lon="5.5398">
        <ele>349.60000610352</ele>
        <time>2026-08-27T11:38:12.000Z</time>
      </trkpt>
      <trkpt lat="46.36875" lon="5.5398">
        <ele>349.79998779297</ele>
        <time>2026-08-27T11:38:13.000Z</time>
      </trkpt>
      <trkpt lat="46.36863" lon="5.53978">
        <ele>350</ele>
        <time>2026-08-27T11:38:22.000Z</time>
      </trkpt>
      <trkpt lat="46.36856" lon="5.53977">
        <ele>350</ele>
        <time>2026-08-27T11:38:28.000Z</time>
      </trkpt>
      <trkpt lat="46.36848" lon="5.53975">
        <ele>350.39999389648</ele>
        <time>2026-08-27T11:38:35.000Z</time>
      </trkpt>
      <trkpt lat="46.36842" lon="5.53973">
        <ele>350.60000610352</ele>
        <time>2026-08-27T11:38:40.000Z</time>
      </trkpt>
      <trkpt lat="46.36839" lon="5.53971">
        <ele>350.79998779297</ele>
        <time>2026-08-27T11:38:44.000Z</time>
      </trkpt>
      <trkpt lat="46.3684" lon="5.5397">
        <ele>350.60000610352</ele>
        <time>2026-08-27T11:38:49.000Z</time>
      </trkpt>
      <trkpt lat="46.3684" lon="5.5397">
        <ele>350.60000610352</ele>
        <time>2026-08-27T11:38:52.000Z</time>
      </trkpt>
      <trkpt lat="46.36837" lon="5.53967">
        <ele>350.60000610352</ele>
        <time>2026-08-27T11:38:58.000Z</time>
      </trkpt>
      <trkpt lat="46.36835" lon="5.53966">
        <ele>350.79998779297</ele>
        <time>2026-08-27T11:39:00.000Z</time>
      </trkpt>
      <trkpt lat="46.36834" lon="5.53964">
        <ele>351</ele>
        <time>2026-08-27T11:39:04.000Z</time>
      </trkpt>
      <trkpt lat="46.36834" lon="5.53964">
        <ele>351</ele>
        <time>2026-08-27T11:39:05.000Z</time>
      </trkpt>
      <trkpt lat="46.36833" lon="5.53961">
        <ele>351.20001220703</ele>
        <time>2026-08-27T11:39:13.000Z</time>
      </trkpt>
      <trkpt lat="46.36834" lon="5.53963">
        <ele>351</ele>
        <time>2026-08-27T11:39:22.000Z</time>
      </trkpt>
      <trkpt lat="46.36833" lon="5.53966">
        <ele>351</ele>
        <time>2026-08-27T11:39:29.000Z</time>
      </trkpt>
      <trkpt lat="46.36832" lon="5.53967">
        <ele>351</ele>
        <time>2026-08-27T11:39:37.000Z</time>
      </trkpt>
      <trkpt lat="46.3683" lon="5.5397">
        <ele>351</ele>
        <time>2026-08-27T11:39:45.000Z</time>
      </trkpt>
      <trkpt lat="46.36827" lon="5.53968">
        <ele>350.79998779297</ele>
        <time>2026-08-27T11:39:54.000Z</time>
      </trkpt>
      <trkpt lat="46.36826" lon="5.53967">
        <ele>350.79998779297</ele>
        <time>2026-08-27T11:39:59.000Z</time>
      </trkpt>
      <trkpt lat="46.36822" lon="5.53965">
        <ele>350.79998779297</ele>
        <time>2026-08-27T11:40:07.000Z</time>
      </trkpt>
      <trkpt lat="46.36815" lon="5.53963">
        <ele>351</ele>
        <time>2026-08-27T11:40:14.000Z</time>
      </trkpt>
      <trkpt lat="46.36809" lon="5.53963">
        <ele>351</ele>
        <time>2026-08-27T11:40:22.000Z</time>
      </trkpt>
      <trkpt lat="46.36805" lon="5.53962">
        <ele>351.39999389648</ele>
        <time>2026-08-27T11:40:25.000Z</time>
      </trkpt>
      <trkpt lat="46.36801" lon="5.5396">
        <ele>351.39999389648</ele>
        <time>2026-08-27T11:40:29.000Z</time>
      </trkpt>
      <trkpt lat="46.36792" lon="5.53957">
        <ele>351.79998779297</ele>
        <time>2026-08-27T11:40:36.000Z</time>
      </trkpt>
      <trkpt lat="46.36791" lon="5.53956">
        <ele>351.79998779297</ele>
        <time>2026-08-27T11:40:37.000Z</time>
      </trkpt>
      <trkpt lat="46.3679" lon="5.53955">
        <ele>352</ele>
        <time>2026-08-27T11:40:38.000Z</time>
      </trkpt>
      <trkpt lat="46.36782" lon="5.5395">
        <ele>352.60000610352</ele>
        <time>2026-08-27T11:40:46.000Z</time>
      </trkpt>
      <trkpt lat="46.36775" lon="5.53947">
        <ele>353.20001220703</ele>
        <time>2026-08-27T11:40:53.000Z</time>
      </trkpt>
      <trkpt lat="46.36772" lon="5.53946">
        <ele>354.20001220703</ele>
        <time>2026-08-27T11:40:55.000Z</time>
      </trkpt>
      <trkpt lat="46.36771" lon="5.53946">
        <ele>354.60000610352</ele>
        <time>2026-08-27T11:40:56.000Z</time>
      </trkpt>
      <trkpt lat="46.36769" lon="5.53945">
        <ele>355</ele>
        <time>2026-08-27T11:40:58.000Z</time>
      </trkpt>
      <trkpt lat="46.36764" lon="5.53943">
        <ele>354.79998779297</ele>
        <time>2026-08-27T11:41:02.000Z</time>
      </trkpt>
      <trkpt lat="46.36759" lon="5.5394">
        <ele>354.79998779297</ele>
        <time>2026-08-27T11:41:07.000Z</time>
      </trkpt>
      <trkpt lat="46.36755" lon="5.53937">
        <ele>355.39999389648</ele>
        <time>2026-08-27T11:41:11.000Z</time>
      </trkpt>
      <trkpt lat="46.36749" lon="5.53933">
        <ele>355.39999389648</ele>
        <time>2026-08-27T11:41:16.000Z</time>
      </trkpt>
      <trkpt lat="46.36739" lon="5.53927">
        <ele>356.39999389648</ele>
        <time>2026-08-27T11:41:24.000Z</time>
      </trkpt>
      <trkpt lat="46.36738" lon="5.53927">
        <ele>356.39999389648</ele>
        <time>2026-08-27T11:41:25.000Z</time>
      </trkpt>
      <trkpt lat="46.36727" lon="5.53923">
        <ele>356.79998779297</ele>
        <time>2026-08-27T11:41:35.000Z</time>
      </trkpt>
      <trkpt lat="46.36717" lon="5.5392">
        <ele>356.79998779297</ele>
        <time>2026-08-27T11:41:43.000Z</time>
      </trkpt>
      <trkpt lat="46.36704" lon="5.53918">
        <ele>357.20001220703</ele>
        <time>2026-08-27T11:41:53.000Z</time>
      </trkpt>
      <trkpt lat="46.367" lon="5.53918">
        <ele>357.60000610352</ele>
        <time>2026-08-27T11:41:57.000Z</time>
      </trkpt>
      <trkpt lat="46.36692" lon="5.53919">
        <ele>358</ele>
        <time>2026-08-27T11:42:03.000Z</time>
      </trkpt>
      <trkpt lat="46.3668" lon="5.53922">
        <ele>358.20001220703</ele>
        <time>2026-08-27T11:42:13.000Z</time>
      </trkpt>
      <trkpt lat="46.36666" lon="5.53926">
        <ele>358.39999389648</ele>
        <time>2026-08-27T11:42:24.000Z</time>
      </trkpt>
      <trkpt lat="46.36656" lon="5.53931">
        <ele>357.60000610352</ele>
        <time>2026-08-27T11:42:33.000Z</time>
      </trkpt>
      <trkpt lat="46.36649" lon="5.53935">
        <ele>356.60000610352</ele>
        <time>2026-08-27T11:42:39.000Z</time>
      </trkpt>
      <trkpt lat="46.36648" lon="5.53935">
        <ele>356.60000610352</ele>
        <time>2026-08-27T11:42:40.000Z</time>
      </trkpt>
      <trkpt lat="46.36645" lon="5.53937">
        <ele>356.39999389648</ele>
        <time>2026-08-27T11:42:43.000Z</time>
      </trkpt>
      <trkpt lat="46.36632" lon="5.5394">
        <ele>355.39999389648</ele>
        <time>2026-08-27T11:42:54.000Z</time>
      </trkpt>
      <trkpt lat="46.36622" lon="5.53941">
        <ele>354.39999389648</ele>
        <time>2026-08-27T11:43:02.000Z</time>
      </trkpt>
      <trkpt lat="46.36621" lon="5.53941">
        <ele>354.20001220703</ele>
        <time>2026-08-27T11:43:03.000Z</time>
      </trkpt>
      <trkpt lat="46.36619" lon="5.53938">
        <ele>353.60000610352</ele>
        <time>2026-08-27T11:43:05.000Z</time>
      </trkpt>
      <trkpt lat="46.36618" lon="5.53936">
        <ele>353.39999389648</ele>
        <time>2026-08-27T11:43:06.000Z</time>
      </trkpt>
      <trkpt lat="46.36617" lon="5.5393">
        <ele>352.79998779297</ele>
        <time>2026-08-27T11:43:09.000Z</time>
      </trkpt>
      <trkpt lat="46.36612" lon="5.53919">
        <ele>352.39999389648</ele>
        <time>2026-08-27T11:43:17.000Z</time>
      </trkpt>
      <trkpt lat="46.36612" lon="5.53918">
        <ele>352.20001220703</ele>
        <time>2026-08-27T11:43:19.000Z</time>
      </trkpt>
      <trkpt lat="46.36612" lon="5.5392">
        <ele>352.39999389648</ele>
        <time>2026-08-27T11:43:27.000Z</time>
      </trkpt>
      <trkpt lat="46.36612" lon="5.5392">
        <ele>352.60000610352</ele>
        <time>2026-08-27T11:43:31.000Z</time>
      </trkpt>
      <trkpt lat="46.36613" lon="5.53921">
        <ele>352.60000610352</ele>
        <time>2026-08-27T11:43:37.000Z</time>
      </trkpt>
      <trkpt lat="46.36612" lon="5.5392">
        <ele>352.60000610352</ele>
        <time>2026-08-27T11:43:48.000Z</time>
      </trkpt>
      <trkpt lat="46.36612" lon="5.5392">
        <ele>352.79998779297</ele>
        <time>2026-08-27T11:44:01.000Z</time>
      </trkpt>
      <trkpt lat="46.36612" lon="5.5392">
        <ele>352.79998779297</ele>
        <time>2026-08-27T11:44:18.000Z</time>
      </trkpt>
      <trkpt lat="46.36614" lon="5.53919">
        <ele>352.20001220703</ele>
        <time>2026-08-27T11:44:29.000Z</time>
      </trkpt>
      <trkpt lat="46.36612" lon="5.53918">
        <ele>352.20001220703</ele>
        <time>2026-08-27T11:44:38.000Z</time>
      </trkpt>
      <trkpt lat="46.36604" lon="5.5391">
        <ele>351.20001220703</ele>
        <time>2026-08-27T11:44:45.000Z</time>
      </trkpt>
      <trkpt lat="46.36596" lon="5.53903">
        <ele>350.20001220703</ele>
        <time>2026-08-27T11:44:53.000Z</time>
      </trkpt>
      <trkpt lat="46.36594" lon="5.53902">
        <ele>350</ele>
        <time>2026-08-27T11:44:54.000Z</time>
      </trkpt>
      <trkpt lat="46.36583" lon="5.53896">
        <ele>349</ele>
        <time>2026-08-27T11:45:03.000Z</time>
      </trkpt>
      <trkpt lat="46.36581" lon="5.53895">
        <ele>348.79998779297</ele>
        <time>2026-08-27T11:45:05.000Z</time>
      </trkpt>
      <trkpt lat="46.36567" lon="5.5389">
        <ele>348.39999389648</ele>
        <time>2026-08-27T11:45:16.000Z</time>
      </trkpt>
      <trkpt lat="46.36565" lon="5.5389">
        <ele>348</ele>
        <time>2026-08-27T11:45:18.000Z</time>
      </trkpt>
      <trkpt lat="46.36555" lon="5.53889">
        <ele>347.79998779297</ele>
        <time>2026-08-27T11:45:26.000Z</time>
      </trkpt>
      <trkpt lat="46.36539" lon="5.53889">
        <ele>347.20001220703</ele>
        <time>2026-08-27T11:45:38.000Z</time>
      </trkpt>
      <trkpt lat="46.36533" lon="5.53889">
        <ele>347.20001220703</ele>
        <time>2026-08-27T11:45:43.000Z</time>
      </trkpt>
      <trkpt lat="46.3653" lon="5.53889">
        <ele>347</ele>
        <time>2026-08-27T11:45:45.000Z</time>
      </trkpt>
      <trkpt lat="46.36527" lon="5.53889">
        <ele>346.60000610352</ele>
        <time>2026-08-27T11:45:48.000Z</time>
      </trkpt>
      <trkpt lat="46.3652" lon="5.5389">
        <ele>346.20001220703</ele>
        <time>2026-08-27T11:45:56.000Z</time>
      </trkpt>
      <trkpt lat="46.36514" lon="5.53891">
        <ele>345.79998779297</ele>
        <time>2026-08-27T11:46:01.000Z</time>
      </trkpt>
      <trkpt lat="46.36507" lon="5.53891">
        <ele>345.79998779297</ele>
        <time>2026-08-27T11:46:07.000Z</time>
      </trkpt>
      <trkpt lat="46.36496" lon="5.53892">
        <ele>345.39999389648</ele>
        <time>2026-08-27T11:46:16.000Z</time>
      </trkpt>
      <trkpt lat="46.36485" lon="5.53895">
        <ele>345.39999389648</ele>
        <time>2026-08-27T11:46:25.000Z</time>
      </trkpt>
      <trkpt lat="46.36479" lon="5.53895">
        <ele>345.20001220703</ele>
        <time>2026-08-27T11:46:32.000Z</time>
      </trkpt>
      <trkpt lat="46.36472" lon="5.53895">
        <ele>345.39999389648</ele>
        <time>2026-08-27T11:46:39.000Z</time>
      </trkpt>
      <trkpt lat="46.36463" lon="5.53897">
        <ele>345.39999389648</ele>
        <time>2026-08-27T11:46:47.000Z</time>
      </trkpt>
      <trkpt lat="46.36453" lon="5.53901">
        <ele>346</ele>
        <time>2026-08-27T11:46:56.000Z</time>
      </trkpt>
      <trkpt lat="46.36444" lon="5.53905">
        <ele>346</ele>
        <time>2026-08-27T11:47:04.000Z</time>
      </trkpt>
      <trkpt lat="46.36443" lon="5.53906">
        <ele>346</ele>
        <time>2026-08-27T11:47:05.000Z</time>
      </trkpt>
      <trkpt lat="46.36442" lon="5.53907">
        <ele>346.20001220703</ele>
        <time>2026-08-27T11:47:06.000Z</time>
      </trkpt>
      <trkpt lat="46.3644" lon="5.53909">
        <ele>346.60000610352</ele>
        <time>2026-08-27T11:47:09.000Z</time>
      </trkpt>
      <trkpt lat="46.36432" lon="5.53914">
        <ele>346.39999389648</ele>
        <time>2026-08-27T11:47:15.000Z</time>
      </trkpt>
      <trkpt lat="46.36429" lon="5.53919">
        <ele>346.79998779297</ele>
        <time>2026-08-27T11:47:19.000Z</time>
      </trkpt>
      <trkpt lat="46.36425" lon="5.53923">
        <ele>347</ele>
        <time>2026-08-27T11:47:23.000Z</time>
      </trkpt>
      <trkpt lat="46.36418" lon="5.5393">
        <ele>347.39999389648</ele>
        <time>2026-08-27T11:47:30.000Z</time>
      </trkpt>
      <trkpt lat="46.36417" lon="5.53931">
        <ele>347.39999389648</ele>
        <time>2026-08-27T11:47:31.000Z</time>
      </trkpt>
      <trkpt lat="46.36417" lon="5.53932">
        <ele>347.39999389648</ele>
        <time>2026-08-27T11:47:32.000Z</time>
      </trkpt>
      <trkpt lat="46.36407" lon="5.53945">
        <ele>347.60000610352</ele>
        <time>2026-08-27T11:47:43.000Z</time>
      </trkpt>
      <trkpt lat="46.36403" lon="5.53952">
        <ele>348</ele>
        <time>2026-08-27T11:47:48.000Z</time>
      </trkpt>
      <trkpt lat="46.36401" lon="5.53955">
        <ele>348.20001220703</ele>
        <time>2026-08-27T11:47:51.000Z</time>
      </trkpt>
      <trkpt lat="46.36393" lon="5.53969">
        <ele>348.39999389648</ele>
        <time>2026-08-27T11:48:02.000Z</time>
      </trkpt>
      <trkpt lat="46.3639" lon="5.53974">
        <ele>348.39999389648</ele>
        <time>2026-08-27T11:48:06.000Z</time>
      </trkpt>
      <trkpt lat="46.36384" lon="5.53984">
        <ele>348.20001220703</ele>
        <time>2026-08-27T11:48:13.000Z</time>
      </trkpt>
      <trkpt lat="46.36382" lon="5.5399">
        <ele>348</ele>
        <time>2026-08-27T11:48:17.000Z</time>
      </trkpt>
      <trkpt lat="46.36377" lon="5.54002">
        <ele>347.60000610352</ele>
        <time>2026-08-27T11:48:25.000Z</time>
      </trkpt>
      <trkpt lat="46.3637" lon="5.54015">
        <ele>347</ele>
        <time>2026-08-27T11:48:34.000Z</time>
      </trkpt>
      <trkpt lat="46.36369" lon="5.54017">
        <ele>346.79998779297</ele>
        <time>2026-08-27T11:48:35.000Z</time>
      </trkpt>
      <trkpt lat="46.36366" lon="5.54021">
        <ele>346.60000610352</ele>
        <time>2026-08-27T11:48:38.000Z</time>
      </trkpt>
      <trkpt lat="46.36361" lon="5.54031">
        <ele>345.60000610352</ele>
        <time>2026-08-27T11:48:45.000Z</time>
      </trkpt>
      <trkpt lat="46.36357" lon="5.54037">
        <ele>345.39999389648</ele>
        <time>2026-08-27T11:48:49.000Z</time>
      </trkpt>
      <trkpt lat="46.36351" lon="5.54043">
        <ele>345.39999389648</ele>
        <time>2026-08-27T11:48:57.000Z</time>
      </trkpt>
      <trkpt lat="46.3635" lon="5.54045">
        <ele>345.20001220703</ele>
        <time>2026-08-27T11:48:58.000Z</time>
      </trkpt>
      <trkpt lat="46.36342" lon="5.54054">
        <ele>344.60000610352</ele>
        <time>2026-08-27T11:49:06.000Z</time>
      </trkpt>
      <trkpt lat="46.36342" lon="5.54055">
        <ele>344.39999389648</ele>
        <time>2026-08-27T11:49:07.000Z</time>
      </trkpt>
      <trkpt lat="46.36332" lon="5.54066">
        <ele>343.39999389648</ele>
        <time>2026-08-27T11:49:17.000Z</time>
      </trkpt>
      <trkpt lat="46.3633" lon="5.54068">
        <ele>343.20001220703</ele>
        <time>2026-08-27T11:49:19.000Z</time>
      </trkpt>
      <trkpt lat="46.36327" lon="5.54074">
        <ele>342.79998779297</ele>
        <time>2026-08-27T11:49:23.000Z</time>
      </trkpt>
      <trkpt lat="46.36324" lon="5.54078">
        <ele>342.39999389648</ele>
        <time>2026-08-27T11:49:26.000Z</time>
      </trkpt>
      <trkpt lat="46.3632" lon="5.54085">
        <ele>341.39999389648</ele>
        <time>2026-08-27T11:49:31.000Z</time>
      </trkpt>
      <trkpt lat="46.36311" lon="5.54095">
        <ele>340.20001220703</ele>
        <time>2026-08-27T11:49:41.000Z</time>
      </trkpt>
      <trkpt lat="46.36305" lon="5.54104">
        <ele>339.60000610352</ele>
        <time>2026-08-27T11:49:48.000Z</time>
      </trkpt>
      <trkpt lat="46.36304" lon="5.54105">
        <ele>339.60000610352</ele>
        <time>2026-08-27T11:49:49.000Z</time>
      </trkpt>
      <trkpt lat="46.36303" lon="5.54106">
        <ele>339.60000610352</ele>
        <time>2026-08-27T11:49:50.000Z</time>
      </trkpt>
      <trkpt lat="46.36296" lon="5.54118">
        <ele>339.20001220703</ele>
        <time>2026-08-27T11:49:58.000Z</time>
      </trkpt>
      <trkpt lat="46.36295" lon="5.5412">
        <ele>339.20001220703</ele>
        <time>2026-08-27T11:49:59.000Z</time>
      </trkpt>
      <trkpt lat="46.3629" lon="5.54131">
        <ele>339.39999389648</ele>
        <time>2026-08-27T11:50:07.000Z</time>
      </trkpt>
      <trkpt lat="46.36282" lon="5.54145">
        <ele>340</ele>
        <time>2026-08-27T11:50:16.000Z</time>
      </trkpt>
      <trkpt lat="46.36282" lon="5.54146">
        <ele>340</ele>
        <time>2026-08-27T11:50:17.000Z</time>
      </trkpt>
      <trkpt lat="46.36279" lon="5.54151">
        <ele>340</ele>
        <time>2026-08-27T11:50:21.000Z</time>
      </trkpt>
      <trkpt lat="46.36277" lon="5.54155">
        <ele>340</ele>
        <time>2026-08-27T11:50:24.000Z</time>
      </trkpt>
      <trkpt lat="46.36276" lon="5.54157">
        <ele>339.79998779297</ele>
        <time>2026-08-27T11:50:25.000Z</time>
      </trkpt>
      <trkpt lat="46.36276" lon="5.54158">
        <ele>339.79998779297</ele>
        <time>2026-08-27T11:50:26.000Z</time>
      </trkpt>
      <trkpt lat="46.3627" lon="5.5417">
        <ele>339</ele>
        <time>2026-08-27T11:50:35.000Z</time>
      </trkpt>
      <trkpt lat="46.36266" lon="5.54177">
        <ele>338.79998779297</ele>
        <time>2026-08-27T11:50:42.000Z</time>
      </trkpt>
      <trkpt lat="46.3626" lon="5.54191">
        <ele>338.60000610352</ele>
        <time>2026-08-27T11:50:52.000Z</time>
      </trkpt>
      <trkpt lat="46.36255" lon="5.54201">
        <ele>338.20001220703</ele>
        <time>2026-08-27T11:51:01.000Z</time>
      </trkpt>
      <trkpt lat="46.36254" lon="5.54203">
        <ele>338.20001220703</ele>
        <time>2026-08-27T11:51:02.000Z</time>
      </trkpt>
      <trkpt lat="46.3625" lon="5.54213">
        <ele>338</ele>
        <time>2026-08-27T11:51:11.000Z</time>
      </trkpt>
      <trkpt lat="46.3625" lon="5.54214">
        <ele>338</ele>
        <time>2026-08-27T11:51:13.000Z</time>
      </trkpt>
      <trkpt lat="46.36249" lon="5.54213">
        <ele>338</ele>
        <time>2026-08-27T11:51:15.000Z</time>
      </trkpt>
      <trkpt lat="46.36249" lon="5.54213">
        <ele>338</ele>
        <time>2026-08-27T11:51:17.000Z</time>
      </trkpt>
      <trkpt lat="46.36248" lon="5.54214">
        <ele>338</ele>
        <time>2026-08-27T11:51:19.000Z</time>
      </trkpt>
      <trkpt lat="46.36247" lon="5.54211">
        <ele>338.20001220703</ele>
        <time>2026-08-27T11:51:30.000Z</time>
      </trkpt>
      <trkpt lat="46.36249" lon="5.54213">
        <ele>338</ele>
        <time>2026-08-27T11:51:37.000Z</time>
      </trkpt>
      <trkpt lat="46.3625" lon="5.54213">
        <ele>338.20001220703</ele>
        <time>2026-08-27T11:51:44.000Z</time>
      </trkpt>
      <trkpt lat="46.3625" lon="5.54222">
        <ele>338.79998779297</ele>
        <time>2026-08-27T11:51:51.000Z</time>
      </trkpt>
      <trkpt lat="46.3625" lon="5.54225">
        <ele>339.20001220703</ele>
        <time>2026-08-27T11:51:55.000Z</time>
      </trkpt>
      <trkpt lat="46.36249" lon="5.54227">
        <ele>339.39999389648</ele>
        <time>2026-08-27T11:51:58.000Z</time>
      </trkpt>
      <trkpt lat="46.36244" lon="5.54229">
        <ele>338.60000610352</ele>
        <time>2026-08-27T11:52:04.000Z</time>
      </trkpt>
      <trkpt lat="46.36242" lon="5.54229">
        <ele>338.20001220703</ele>
        <time>2026-08-27T11:52:06.000Z</time>
      </trkpt>
      <trkpt lat="46.36242" lon="5.54229">
        <ele>338.20001220703</ele>
        <time>2026-08-27T11:52:07.000Z</time>
      </trkpt>
      <trkpt lat="46.36239" lon="5.54231">
        <ele>337.60000610352</ele>
        <time>2026-08-27T11:52:12.000Z</time>
      </trkpt>
      <trkpt lat="46.36231" lon="5.54236">
        <ele>337.20001220703</ele>
        <time>2026-08-27T11:52:21.000Z</time>
      </trkpt>
      <trkpt lat="46.36226" lon="5.5424">
        <ele>337</ele>
        <time>2026-08-27T11:52:26.000Z</time>
      </trkpt>
      <trkpt lat="46.36221" lon="5.54242">
        <ele>337</ele>
        <time>2026-08-27T11:52:30.000Z</time>
      </trkpt>
      <trkpt lat="46.36214" lon="5.54247">
        <ele>337</ele>
        <time>2026-08-27T11:52:38.000Z</time>
      </trkpt>
      <trkpt lat="46.36205" lon="5.54253">
        <ele>337.79998779297</ele>
        <time>2026-08-27T11:52:47.000Z</time>
      </trkpt>
      <trkpt lat="46.36203" lon="5.54254">
        <ele>338.20001220703</ele>
        <time>2026-08-27T11:52:50.000Z</time>
      </trkpt>
      <trkpt lat="46.36197" lon="5.54259">
        <ele>339</ele>
        <time>2026-08-27T11:52:55.000Z</time>
      </trkpt>
      <trkpt lat="46.36195" lon="5.5426">
        <ele>339.20001220703</ele>
        <time>2026-08-27T11:52:57.000Z</time>
      </trkpt>
      <trkpt lat="46.3619" lon="5.54262">
        <ele>339.60000610352</ele>
        <time>2026-08-27T11:53:02.000Z</time>
      </trkpt>
      <trkpt lat="46.36184" lon="5.54263">
        <ele>340</ele>
        <time>2026-08-27T11:53:06.000Z</time>
      </trkpt>
      <trkpt lat="46.36179" lon="5.54263">
        <ele>340</ele>
        <time>2026-08-27T11:53:10.000Z</time>
      </trkpt>
      <trkpt lat="46.36178" lon="5.54262">
        <ele>340</ele>
        <time>2026-08-27T11:53:12.000Z</time>
      </trkpt>
      <trkpt lat="46.3617" lon="5.54261">
        <ele>339.60000610352</ele>
        <time>2026-08-27T11:53:19.000Z</time>
      </trkpt>
      <trkpt lat="46.36164" lon="5.54259">
        <ele>339.20001220703</ele>
        <time>2026-08-27T11:53:24.000Z</time>
      </trkpt>
      <trkpt lat="46.3616" lon="5.54258">
        <ele>339</ele>
        <time>2026-08-27T11:53:28.000Z</time>
      </trkpt>
      <trkpt lat="46.36154" lon="5.54257">
        <ele>338.20001220703</ele>
        <time>2026-08-27T11:53:33.000Z</time>
      </trkpt>
      <trkpt lat="46.36147" lon="5.54254">
        <ele>337.79998779297</ele>
        <time>2026-08-27T11:53:37.000Z</time>
      </trkpt>
      <trkpt lat="46.36142" lon="5.54253">
        <ele>337.20001220703</ele>
        <time>2026-08-27T11:53:43.000Z</time>
      </trkpt>
      <trkpt lat="46.36138" lon="5.54253">
        <ele>336.79998779297</ele>
        <time>2026-08-27T11:53:45.000Z</time>
      </trkpt>
      <trkpt lat="46.36132" lon="5.54252">
        <ele>337</ele>
        <time>2026-08-27T11:53:50.000Z</time>
      </trkpt>
      <trkpt lat="46.36128" lon="5.5425">
        <ele>337</ele>
        <time>2026-08-27T11:53:53.000Z</time>
      </trkpt>
      <trkpt lat="46.36121" lon="5.54242">
        <ele>337</ele>
        <time>2026-08-27T11:54:02.000Z</time>
      </trkpt>
      <trkpt lat="46.36113" lon="5.54233">
        <ele>336.60000610352</ele>
        <time>2026-08-27T11:54:11.000Z</time>
      </trkpt>
      <trkpt lat="46.36108" lon="5.54225">
        <ele>336.60000610352</ele>
        <time>2026-08-27T11:54:17.000Z</time>
      </trkpt>
      <trkpt lat="46.36108" lon="5.54222">
        <ele>336</ele>
        <time>2026-08-27T11:54:20.000Z</time>
      </trkpt>
      <trkpt lat="46.36108" lon="5.54221">
        <ele>335.79998779297</ele>
        <time>2026-08-27T11:54:23.000Z</time>
      </trkpt>
      <trkpt lat="46.36108" lon="5.5422">
        <ele>335.60000610352</ele>
        <time>2026-08-27T11:54:24.000Z</time>
      </trkpt>
      <trkpt lat="46.36106" lon="5.54217">
        <ele>335.39999389648</ele>
        <time>2026-08-27T11:54:34.000Z</time>
      </trkpt>
      <trkpt lat="46.36106" lon="5.54218">
        <ele>335.20001220703</ele>
        <time>2026-08-27T11:54:37.000Z</time>
      </trkpt>
      <trkpt lat="46.36106" lon="5.54223">
        <ele>335.39999389648</ele>
        <time>2026-08-27T11:54:42.000Z</time>
      </trkpt>
      <trkpt lat="46.36106" lon="5.54223">
        <ele>335.60000610352</ele>
        <time>2026-08-27T11:54:53.000Z</time>
      </trkpt>
      <trkpt lat="46.36099" lon="5.54223">
        <ele>336</ele>
        <time>2026-08-27T11:55:02.000Z</time>
      </trkpt>
      <trkpt lat="46.36093" lon="5.5422">
        <ele>335</ele>
        <time>2026-08-27T11:55:11.000Z</time>
      </trkpt>
      <trkpt lat="46.36089" lon="5.54217">
        <ele>336.20001220703</ele>
        <time>2026-08-27T11:55:18.000Z</time>
      </trkpt>
      <trkpt lat="46.36083" lon="5.54218">
        <ele>336</ele>
        <time>2026-08-27T11:55:25.000Z</time>
      </trkpt>
      <trkpt lat="46.36074" lon="5.54219">
        <ele>335.79998779297</ele>
        <time>2026-08-27T11:55:34.000Z</time>
      </trkpt>
      <trkpt lat="46.36066" lon="5.5422">
        <ele>335.60000610352</ele>
        <time>2026-08-27T11:55:43.000Z</time>
      </trkpt>
      <trkpt lat="46.3606" lon="5.54224">
        <ele>335.79998779297</ele>
        <time>2026-08-27T11:55:48.000Z</time>
      </trkpt>
      <trkpt lat="46.36057" lon="5.54224">
        <ele>336</ele>
        <time>2026-08-27T11:55:49.000Z</time>
      </trkpt>
      <trkpt lat="46.3605" lon="5.54219">
        <ele>336.39999389648</ele>
        <time>2026-08-27T11:55:56.000Z</time>
      </trkpt>
      <trkpt lat="46.36043" lon="5.54218">
        <ele>336.60000610352</ele>
        <time>2026-08-27T11:56:03.000Z</time>
      </trkpt>
      <trkpt lat="46.36034" lon="5.54216">
        <ele>337</ele>
        <time>2026-08-27T11:56:09.000Z</time>
      </trkpt>
      <trkpt lat="46.36033" lon="5.54215">
        <ele>337.20001220703</ele>
        <time>2026-08-27T11:56:10.000Z</time>
      </trkpt>
      <trkpt lat="46.36028" lon="5.54211">
        <ele>337.39999389648</ele>
        <time>2026-08-27T11:56:16.000Z</time>
      </trkpt>
      <trkpt lat="46.36026" lon="5.54209">
        <ele>337.39999389648</ele>
        <time>2026-08-27T11:56:18.000Z</time>
      </trkpt>
      <trkpt lat="46.36019" lon="5.54205">
        <ele>337.20001220703</ele>
        <time>2026-08-27T11:56:26.000Z</time>
      </trkpt>
      <trkpt lat="46.36011" lon="5.54201">
        <ele>337.60000610352</ele>
        <time>2026-08-27T11:56:34.000Z</time>
      </trkpt>
      <trkpt lat="46.36009" lon="5.54199">
        <ele>337.60000610352</ele>
        <time>2026-08-27T11:56:36.000Z</time>
      </trkpt>
      <trkpt lat="46.36001" lon="5.54197">
        <ele>336.39999389648</ele>
        <time>2026-08-27T11:56:44.000Z</time>
      </trkpt>
      <trkpt lat="46.35998" lon="5.54196">
        <ele>336</ele>
        <time>2026-08-27T11:56:46.000Z</time>
      </trkpt>
      <trkpt lat="46.35997" lon="5.54195">
        <ele>336</ele>
        <time>2026-08-27T11:56:47.000Z</time>
      </trkpt>
      <trkpt lat="46.35991" lon="5.54192">
        <ele>335.79998779297</ele>
        <time>2026-08-27T11:56:53.000Z</time>
      </trkpt>
      <trkpt lat="46.35982" lon="5.54189">
        <ele>335.20001220703</ele>
        <time>2026-08-27T11:57:00.000Z</time>
      </trkpt>
      <trkpt lat="46.35974" lon="5.54187">
        <ele>335</ele>
        <time>2026-08-27T11:57:08.000Z</time>
      </trkpt>
      <trkpt lat="46.35966" lon="5.54183">
        <ele>335</ele>
        <time>2026-08-27T11:57:16.000Z</time>
      </trkpt>
      <trkpt lat="46.35966" lon="5.54183">
        <ele>334.79998779297</ele>
        <time>2026-08-27T11:57:17.000Z</time>
      </trkpt>
      <trkpt lat="46.35965" lon="5.54183">
        <ele>335</ele>
        <time>2026-08-27T11:57:23.000Z</time>
      </trkpt>
      <trkpt lat="46.35965" lon="5.54184">
        <ele>335.20001220703</ele>
        <time>2026-08-27T11:57:24.000Z</time>
      </trkpt>
      <trkpt lat="46.35965" lon="5.54189">
        <ele>336</ele>
        <time>2026-08-27T11:57:28.000Z</time>
      </trkpt>
      <trkpt lat="46.35964" lon="5.54191">
        <ele>336.39999389648</ele>
        <time>2026-08-27T11:57:30.000Z</time>
      </trkpt>
      <trkpt lat="46.35964" lon="5.54191">
        <ele>336.39999389648</ele>
        <time>2026-08-27T11:57:31.000Z</time>
      </trkpt>
      <trkpt lat="46.35961" lon="5.5419">
        <ele>336.60000610352</ele>
        <time>2026-08-27T11:57:35.000Z</time>
      </trkpt>
      <trkpt lat="46.35961" lon="5.5419">
        <ele>336.39999389648</ele>
        <time>2026-08-27T11:57:36.000Z</time>
      </trkpt>
      <trkpt lat="46.35957" lon="5.54187">
        <ele>335.79998779297</ele>
        <time>2026-08-27T11:57:44.000Z</time>
      </trkpt>
      <trkpt lat="46.35953" lon="5.54183">
        <ele>335</ele>
        <time>2026-08-27T11:57:51.000Z</time>
      </trkpt>
      <trkpt lat="46.35953" lon="5.54182">
        <ele>334.79998779297</ele>
        <time>2026-08-27T11:57:52.000Z</time>
      </trkpt>
      <trkpt lat="46.35952" lon="5.54182">
        <ele>334.79998779297</ele>
        <time>2026-08-27T11:57:53.000Z</time>
      </trkpt>
      <trkpt lat="46.35948" lon="5.54181">
        <ele>334.79998779297</ele>
        <time>2026-08-27T11:58:01.000Z</time>
      </trkpt>
      <trkpt lat="46.35945" lon="5.54181">
        <ele>334.79998779297</ele>
        <time>2026-08-27T11:58:07.000Z</time>
      </trkpt>
      <trkpt lat="46.35943" lon="5.54181">
        <ele>334.79998779297</ele>
        <time>2026-08-27T11:58:08.000Z</time>
      </trkpt>
      <trkpt lat="46.35942" lon="5.5418">
        <ele>334.79998779297</ele>
        <time>2026-08-27T11:58:11.000Z</time>
      </trkpt>
      <trkpt lat="46.3594" lon="5.5418">
        <ele>334.79998779297</ele>
        <time>2026-08-27T11:58:13.000Z</time>
      </trkpt>
      <trkpt lat="46.35937" lon="5.54179">
        <ele>334.79998779297</ele>
        <time>2026-08-27T11:58:17.000Z</time>
      </trkpt>
      <trkpt lat="46.35936" lon="5.54179">
        <ele>334.60000610352</ele>
        <time>2026-08-27T11:58:25.000Z</time>
      </trkpt>
      <trkpt lat="46.35934" lon="5.54178">
        <ele>334.60000610352</ele>
        <time>2026-08-27T11:58:34.000Z</time>
      </trkpt>
      <trkpt lat="46.35929" lon="5.54179">
        <ele>334.60000610352</ele>
        <time>2026-08-27T11:58:42.000Z</time>
      </trkpt>
      <trkpt lat="46.35921" lon="5.54176">
        <ele>334.39999389648</ele>
        <time>2026-08-27T11:58:50.000Z</time>
      </trkpt>
      <trkpt lat="46.35914" lon="5.54174">
        <ele>334.39999389648</ele>
        <time>2026-08-27T11:58:57.000Z</time>
      </trkpt>
      <trkpt lat="46.35905" lon="5.54174">
        <ele>334.39999389648</ele>
        <time>2026-08-27T11:59:04.000Z</time>
      </trkpt>
      <trkpt lat="46.35895" lon="5.54171">
        <ele>334.20001220703</ele>
        <time>2026-08-27T11:59:13.000Z</time>
      </trkpt>
      <trkpt lat="46.35886" lon="5.5417">
        <ele>334.20001220703</ele>
        <time>2026-08-27T11:59:20.000Z</time>
      </trkpt>
      <trkpt lat="46.3588" lon="5.54172">
        <ele>334.39999389648</ele>
        <time>2026-08-27T11:59:28.000Z</time>
      </trkpt>
      <trkpt lat="46.3587" lon="5.54173">
        <ele>334.39999389648</ele>
        <time>2026-08-27T11:59:35.000Z</time>
      </trkpt>
      <trkpt lat="46.35859" lon="5.5417">
        <ele>334.20001220703</ele>
        <time>2026-08-27T11:59:43.000Z</time>
      </trkpt>
      <trkpt lat="46.35851" lon="5.5417">
        <ele>334.20001220703</ele>
        <time>2026-08-27T11:59:51.000Z</time>
      </trkpt>
      <trkpt lat="46.35849" lon="5.5417">
        <ele>334.20001220703</ele>
        <time>2026-08-27T11:59:53.000Z</time>
      </trkpt>
      <trkpt lat="46.3584" lon="5.54169">
        <ele>333.79998779297</ele>
        <time>2026-08-27T12:00:01.000Z</time>
      </trkpt>
      <trkpt lat="46.35838" lon="5.54168">
        <ele>333.79998779297</ele>
        <time>2026-08-27T12:00:02.000Z</time>
      </trkpt>
      <trkpt lat="46.35833" lon="5.54168">
        <ele>333.79998779297</ele>
        <time>2026-08-27T12:00:06.000Z</time>
      </trkpt>
      <trkpt lat="46.35823" lon="5.54165">
        <ele>333.79998779297</ele>
        <time>2026-08-27T12:00:14.000Z</time>
      </trkpt>
      <trkpt lat="46.35814" lon="5.54162">
        <ele>333.60000610352</ele>
        <time>2026-08-27T12:00:22.000Z</time>
      </trkpt>
      <trkpt lat="46.35806" lon="5.54163">
        <ele>333.39999389648</ele>
        <time>2026-08-27T12:00:29.000Z</time>
      </trkpt>
      <trkpt lat="46.35797" lon="5.54167">
        <ele>334.20001220703</ele>
        <time>2026-08-27T12:00:37.000Z</time>
      </trkpt>
      <trkpt lat="46.35789" lon="5.54168">
        <ele>334.60000610352</ele>
        <time>2026-08-27T12:00:46.000Z</time>
      </trkpt>
      <trkpt lat="46.35783" lon="5.54169">
        <ele>334.39999389648</ele>
        <time>2026-08-27T12:00:51.000Z</time>
      </trkpt>
      <trkpt lat="46.35781" lon="5.54168">
        <ele>334.60000610352</ele>
        <time>2026-08-27T12:00:53.000Z</time>
      </trkpt>
      <trkpt lat="46.35776" lon="5.54167">
        <ele>334.79998779297</ele>
        <time>2026-08-27T12:00:57.000Z</time>
      </trkpt>
      <trkpt lat="46.3577" lon="5.54165">
        <ele>335</ele>
        <time>2026-08-27T12:01:01.000Z</time>
      </trkpt>
      <trkpt lat="46.35761" lon="5.54166">
        <ele>334.79998779297</ele>
        <time>2026-08-27T12:01:10.000Z</time>
      </trkpt>
      <trkpt lat="46.35751" lon="5.54163">
        <ele>334.60000610352</ele>
        <time>2026-08-27T12:01:18.000Z</time>
      </trkpt>
      <trkpt lat="46.35742" lon="5.54163">
        <ele>334.60000610352</ele>
        <time>2026-08-27T12:01:26.000Z</time>
      </trkpt>
      <trkpt lat="46.35733" lon="5.54163">
        <ele>334.60000610352</ele>
        <time>2026-08-27T12:01:34.000Z</time>
      </trkpt>
      <trkpt lat="46.35723" lon="5.54161">
        <ele>334.39999389648</ele>
        <time>2026-08-27T12:01:42.000Z</time>
      </trkpt>
      <trkpt lat="46.35716" lon="5.54156">
        <ele>333.79998779297</ele>
        <time>2026-08-27T12:01:48.000Z</time>
      </trkpt>
      <trkpt lat="46.35715" lon="5.54155">
        <ele>333.60000610352</ele>
        <time>2026-08-27T12:01:50.000Z</time>
      </trkpt>
      <trkpt lat="46.35711" lon="5.54149">
        <ele>334</ele>
        <time>2026-08-27T12:01:57.000Z</time>
      </trkpt>
      <trkpt lat="46.35704" lon="5.54143">
        <ele>334.39999389648</ele>
        <time>2026-08-27T12:02:05.000Z</time>
      </trkpt>
      <trkpt lat="46.357" lon="5.54142">
        <ele>334.79998779297</ele>
        <time>2026-08-27T12:02:12.000Z</time>
      </trkpt>
      <trkpt lat="46.35698" lon="5.54142">
        <ele>335</ele>
        <time>2026-08-27T12:02:14.000Z</time>
      </trkpt>
      <trkpt lat="46.35693" lon="5.54143">
        <ele>334.79998779297</ele>
        <time>2026-08-27T12:02:22.000Z</time>
      </trkpt>
      <trkpt lat="46.3569" lon="5.54146">
        <ele>334.79998779297</ele>
        <time>2026-08-27T12:02:29.000Z</time>
      </trkpt>
      <trkpt lat="46.35687" lon="5.5415">
        <ele>335</ele>
        <time>2026-08-27T12:02:37.000Z</time>
      </trkpt>
      <trkpt lat="46.35686" lon="5.54153">
        <ele>335.60000610352</ele>
        <time>2026-08-27T12:02:44.000Z</time>
      </trkpt>
      <trkpt lat="46.35687" lon="5.54155">
        <ele>335.60000610352</ele>
        <time>2026-08-27T12:02:52.000Z</time>
      </trkpt>
      <trkpt lat="46.35685" lon="5.54158">
        <ele>335.39999389648</ele>
        <time>2026-08-27T12:03:01.000Z</time>
      </trkpt>
      <trkpt lat="46.35685" lon="5.54163">
        <ele>335.39999389648</ele>
        <time>2026-08-27T12:03:08.000Z</time>
      </trkpt>
      <trkpt lat="46.35684" lon="5.54171">
        <ele>335.39999389648</ele>
        <time>2026-08-27T12:03:16.000Z</time>
      </trkpt>
      <trkpt lat="46.35681" lon="5.54171">
        <ele>335.20001220703</ele>
        <time>2026-08-27T12:03:22.000Z</time>
      </trkpt>
      <trkpt lat="46.35681" lon="5.54171">
        <ele>335.20001220703</ele>
        <time>2026-08-27T12:03:24.000Z</time>
      </trkpt>
      <trkpt lat="46.3568" lon="5.54169">
        <ele>335.20001220703</ele>
        <time>2026-08-27T12:03:28.000Z</time>
      </trkpt>
      <trkpt lat="46.3568" lon="5.54168">
        <ele>335.39999389648</ele>
        <time>2026-08-27T12:03:30.000Z</time>
      </trkpt>
      <trkpt lat="46.35679" lon="5.54169">
        <ele>335.39999389648</ele>
        <time>2026-08-27T12:03:38.000Z</time>
      </trkpt>
      <trkpt lat="46.35679" lon="5.54169">
        <ele>335.39999389648</ele>
        <time>2026-08-27T12:03:46.000Z</time>
      </trkpt>
      <trkpt lat="46.35679" lon="5.5417">
        <ele>335.39999389648</ele>
        <time>2026-08-27T12:03:55.000Z</time>
      </trkpt>
      <trkpt lat="46.35676" lon="5.54174">
        <ele>335.39999389648</ele>
        <time>2026-08-27T12:04:05.000Z</time>
      </trkpt>
      <trkpt lat="46.35676" lon="5.54173">
        <ele>335.60000610352</ele>
        <time>2026-08-27T12:04:12.000Z</time>
      </trkpt>
      <trkpt lat="46.35676" lon="5.54172">
        <ele>335.79998779297</ele>
        <time>2026-08-27T12:04:16.000Z</time>
      </trkpt>
      <trkpt lat="46.35675" lon="5.54171">
        <ele>335.79998779297</ele>
        <time>2026-08-27T12:04:20.000Z</time>
      </trkpt>
      <trkpt lat="46.35678" lon="5.54169">
        <ele>335.79998779297</ele>
        <time>2026-08-27T12:04:29.000Z</time>
      </trkpt>
      <trkpt lat="46.35678" lon="5.54169">
        <ele>336</ele>
        <time>2026-08-27T12:04:37.000Z</time>
      </trkpt>
      <trkpt lat="46.35677" lon="5.54172">
        <ele>336</ele>
        <time>2026-08-27T12:04:51.000Z</time>
      </trkpt>
      <trkpt lat="46.35677" lon="5.54172">
        <ele>335.79998779297</ele>
        <time>2026-08-27T12:05:00.000Z</time>
      </trkpt>
      <trkpt lat="46.35677" lon="5.54172">
        <ele>335.79998779297</ele>
        <time>2026-08-27T12:05:09.000Z</time>
      </trkpt>
      <trkpt lat="46.35676" lon="5.54172">
        <ele>335.60000610352</ele>
        <time>2026-08-27T12:05:17.000Z</time>
      </trkpt>
      <trkpt lat="46.35676" lon="5.54175">
        <ele>335.39999389648</ele>
        <time>2026-08-27T12:05:28.000Z</time>
      </trkpt>
      <trkpt lat="46.35675" lon="5.54172">
        <ele>335.20001220703</ele>
        <time>2026-08-27T12:05:35.000Z</time>
      </trkpt>
      <trkpt lat="46.35674" lon="5.54172">
        <ele>335</ele>
        <time>2026-08-27T12:05:36.000Z</time>
      </trkpt>
      <trkpt lat="46.35674" lon="5.54171">
        <ele>334.79998779297</ele>
        <time>2026-08-27T12:05:39.000Z</time>
      </trkpt>
      <trkpt lat="46.35671" lon="5.54169">
        <ele>333.79998779297</ele>
        <time>2026-08-27T12:05:45.000Z</time>
      </trkpt>
      <trkpt lat="46.35669" lon="5.54169">
        <ele>333.60000610352</ele>
        <time>2026-08-27T12:05:47.000Z</time>
      </trkpt>
      <trkpt lat="46.35661" lon="5.54172">
        <ele>334.60000610352</ele>
        <time>2026-08-27T12:05:56.000Z</time>
      </trkpt>
      <trkpt lat="46.35652" lon="5.54174">
        <ele>334.60000610352</ele>
        <time>2026-08-27T12:06:05.000Z</time>
      </trkpt>
      <trkpt lat="46.35648" lon="5.54173">
        <ele>334.79998779297</ele>
        <time>2026-08-27T12:06:10.000Z</time>
      </trkpt>
      <trkpt lat="46.35647" lon="5.54173">
        <ele>335</ele>
        <time>2026-08-27T12:06:11.000Z</time>
      </trkpt>
      <trkpt lat="46.35642" lon="5.54176">
        <ele>336</ele>
        <time>2026-08-27T12:06:18.000Z</time>
      </trkpt>
      <trkpt lat="46.35642" lon="5.54176">
        <ele>336.20001220703</ele>
        <time>2026-08-27T12:06:19.000Z</time>
      </trkpt>
      <trkpt lat="46.3564" lon="5.54178">
        <ele>337</ele>
        <time>2026-08-27T12:06:23.000Z</time>
      </trkpt>
      <trkpt lat="46.35638" lon="5.54181">
        <ele>338</ele>
        <time>2026-08-27T12:06:27.000Z</time>
      </trkpt>
      <trkpt lat="46.35637" lon="5.54181">
        <ele>338.20001220703</ele>
        <time>2026-08-27T12:06:28.000Z</time>
      </trkpt>
      <trkpt lat="46.35636" lon="5.54182">
        <ele>338.60000610352</ele>
        <time>2026-08-27T12:06:30.000Z</time>
      </trkpt>
      <trkpt lat="46.35634" lon="5.54184">
        <ele>339.39999389648</ele>
        <time>2026-08-27T12:06:34.000Z</time>
      </trkpt>
      <trkpt lat="46.35631" lon="5.54185">
        <ele>340.20001220703</ele>
        <time>2026-08-27T12:06:40.000Z</time>
      </trkpt>
      <trkpt lat="46.35631" lon="5.54185">
        <ele>340.39999389648</ele>
        <time>2026-08-27T12:06:43.000Z</time>
      </trkpt>
      <trkpt lat="46.35632" lon="5.54185">
        <ele>340.60000610352</ele>
        <time>2026-08-27T12:06:46.000Z</time>
      </trkpt>
      <trkpt lat="46.3563" lon="5.54187">
        <ele>340.60000610352</ele>
        <time>2026-08-27T12:06:52.000Z</time>
      </trkpt>
      <trkpt lat="46.35625" lon="5.5419">
        <ele>341.39999389648</ele>
        <time>2026-08-27T12:06:57.000Z</time>
      </trkpt>
      <trkpt lat="46.35617" lon="5.54189">
        <ele>341.79998779297</ele>
        <time>2026-08-27T12:07:02.000Z</time>
      </trkpt>
      <trkpt lat="46.35607" lon="5.54187">
        <ele>342</ele>
        <time>2026-08-27T12:07:10.000Z</time>
      </trkpt>
      <trkpt lat="46.35601" lon="5.54183">
        <ele>342</ele>
        <time>2026-08-27T12:07:15.000Z</time>
      </trkpt>
      <trkpt lat="46.35596" lon="5.54179">
        <ele>342</ele>
        <time>2026-08-27T12:07:20.000Z</time>
      </trkpt>
      <trkpt lat="46.3559" lon="5.54177">
        <ele>342.39999389648</ele>
        <time>2026-08-27T12:07:26.000Z</time>
      </trkpt>
      <trkpt lat="46.35588" lon="5.54176">
        <ele>342.60000610352</ele>
        <time>2026-08-27T12:07:28.000Z</time>
      </trkpt>
      <trkpt lat="46.35586" lon="5.54177">
        <ele>342.79998779297</ele>
        <time>2026-08-27T12:07:31.000Z</time>
      </trkpt>
      <trkpt lat="46.35584" lon="5.54183">
        <ele>342.60000610352</ele>
        <time>2026-08-27T12:07:36.000Z</time>
      </trkpt>
      <trkpt lat="46.35579" lon="5.54191">
        <ele>342.60000610352</ele>
        <time>2026-08-27T12:07:44.000Z</time>
      </trkpt>
      <trkpt lat="46.35575" lon="5.54197">
        <ele>342</ele>
        <time>2026-08-27T12:07:50.000Z</time>
      </trkpt>
      <trkpt lat="46.35573" lon="5.54204">
        <ele>341.39999389648</ele>
        <time>2026-08-27T12:07:54.000Z</time>
      </trkpt>
      <trkpt lat="46.35573" lon="5.54206">
        <ele>341</ele>
        <time>2026-08-27T12:07:56.000Z</time>
      </trkpt>
      <trkpt lat="46.35572" lon="5.5421">
        <ele>340.39999389648</ele>
        <time>2026-08-27T12:08:00.000Z</time>
      </trkpt>
      <trkpt lat="46.35571" lon="5.54214">
        <ele>339.79998779297</ele>
        <time>2026-08-27T12:08:03.000Z</time>
      </trkpt>
      <trkpt lat="46.3557" lon="5.54217">
        <ele>339.39999389648</ele>
        <time>2026-08-27T12:08:05.000Z</time>
      </trkpt>
      <trkpt lat="46.35569" lon="5.54221">
        <ele>338.79998779297</ele>
        <time>2026-08-27T12:08:08.000Z</time>
      </trkpt>
      <trkpt lat="46.35568" lon="5.54226">
        <ele>338.79998779297</ele>
        <time>2026-08-27T12:08:11.000Z</time>
      </trkpt>
      <trkpt lat="46.35568" lon="5.54231">
        <ele>338.60000610352</ele>
        <time>2026-08-27T12:08:14.000Z</time>
      </trkpt>
      <trkpt lat="46.35568" lon="5.54232">
        <ele>338.60000610352</ele>
        <time>2026-08-27T12:08:15.000Z</time>
      </trkpt>
      <trkpt lat="46.35568" lon="5.54234">
        <ele>338.60000610352</ele>
        <time>2026-08-27T12:08:16.000Z</time>
      </trkpt>
      <trkpt lat="46.35567" lon="5.54239">
        <ele>339</ele>
        <time>2026-08-27T12:08:19.000Z</time>
      </trkpt>
      <trkpt lat="46.35567" lon="5.54241">
        <ele>339</ele>
        <time>2026-08-27T12:08:20.000Z</time>
      </trkpt>
      <trkpt lat="46.35567" lon="5.54244">
        <ele>339</ele>
        <time>2026-08-27T12:08:22.000Z</time>
      </trkpt>
      <trkpt lat="46.35566" lon="5.54249">
        <ele>339</ele>
        <time>2026-08-27T12:08:25.000Z</time>
      </trkpt>
      <trkpt lat="46.35565" lon="5.54257">
        <ele>338.79998779297</ele>
        <time>2026-08-27T12:08:29.000Z</time>
      </trkpt>
      <trkpt lat="46.35565" lon="5.5426">
        <ele>339</ele>
        <time>2026-08-27T12:08:31.000Z</time>
      </trkpt>
      <trkpt lat="46.35565" lon="5.54265">
        <ele>339</ele>
        <time>2026-08-27T12:08:34.000Z</time>
      </trkpt>
      <trkpt lat="46.35565" lon="5.54268">
        <ele>339</ele>
        <time>2026-08-27T12:08:36.000Z</time>
      </trkpt>
      <trkpt lat="46.35565" lon="5.54279">
        <ele>339.39999389648</ele>
        <time>2026-08-27T12:08:44.000Z</time>
      </trkpt>
      <trkpt lat="46.35566" lon="5.54293">
        <ele>339.60000610352</ele>
        <time>2026-08-27T12:08:52.000Z</time>
      </trkpt>
      <trkpt lat="46.35567" lon="5.54304">
        <ele>340</ele>
        <time>2026-08-27T12:09:00.000Z</time>
      </trkpt>
      <trkpt lat="46.35567" lon="5.54305">
        <ele>340</ele>
        <time>2026-08-27T12:09:01.000Z</time>
      </trkpt>
      <trkpt lat="46.35567" lon="5.54313">
        <ele>340</ele>
        <time>2026-08-27T12:09:07.000Z</time>
      </trkpt>
      <trkpt lat="46.35567" lon="5.54317">
        <ele>340.39999389648</ele>
        <time>2026-08-27T12:09:11.000Z</time>
      </trkpt>
      <trkpt lat="46.35567" lon="5.54317">
        <ele>340.60000610352</ele>
        <time>2026-08-27T12:09:12.000Z</time>
      </trkpt>
      <trkpt lat="46.35568" lon="5.54315">
        <ele>340.79998779297</ele>
        <time>2026-08-27T12:09:14.000Z</time>
      </trkpt>
      <trkpt lat="46.3557" lon="5.54314">
        <ele>340.60000610352</ele>
        <time>2026-08-27T12:09:17.000Z</time>
      </trkpt>
      <trkpt lat="46.35572" lon="5.54315">
        <ele>340.60000610352</ele>
        <time>2026-08-27T12:09:24.000Z</time>
      </trkpt>
      <trkpt lat="46.35571" lon="5.54316">
        <ele>340.60000610352</ele>
        <time>2026-08-27T12:09:29.000Z</time>
      </trkpt>
      <trkpt lat="46.35571" lon="5.54318">
        <ele>340.79998779297</ele>
        <time>2026-08-27T12:09:34.000Z</time>
      </trkpt>
      <trkpt lat="46.35573" lon="5.54317">
        <ele>340.39999389648</ele>
        <time>2026-08-27T12:09:39.000Z</time>
      </trkpt>
      <trkpt lat="46.35572" lon="5.5432">
        <ele>340.39999389648</ele>
        <time>2026-08-27T12:09:45.000Z</time>
      </trkpt>
      <trkpt lat="46.35572" lon="5.54319">
        <ele>340.60000610352</ele>
        <time>2026-08-27T12:09:51.000Z</time>
      </trkpt>
      <trkpt lat="46.35569" lon="5.54326">
        <ele>340.79998779297</ele>
        <time>2026-08-27T12:09:58.000Z</time>
      </trkpt>
      <trkpt lat="46.35568" lon="5.5433">
        <ele>340.79998779297</ele>
        <time>2026-08-27T12:10:05.000Z</time>
      </trkpt>
      <trkpt lat="46.35568" lon="5.5433">
        <ele>341</ele>
        <time>2026-08-27T12:10:06.000Z</time>
      </trkpt>
      <trkpt lat="46.35568" lon="5.5433">
        <ele>341.20001220703</ele>
        <time>2026-08-27T12:10:08.000Z</time>
      </trkpt>
      <trkpt lat="46.35568" lon="5.54331">
        <ele>341.39999389648</ele>
        <time>2026-08-27T12:10:10.000Z</time>
      </trkpt>
      <trkpt lat="46.35567" lon="5.5433">
        <ele>341.39999389648</ele>
        <time>2026-08-27T12:10:11.000Z</time>
      </trkpt>
      <trkpt lat="46.35567" lon="5.54334">
        <ele>341.60000610352</ele>
        <time>2026-08-27T12:10:17.000Z</time>
      </trkpt>
      <trkpt lat="46.35567" lon="5.54335">
        <ele>341.39999389648</ele>
        <time>2026-08-27T12:10:19.000Z</time>
      </trkpt>
      <trkpt lat="46.35568" lon="5.54344">
        <ele>342.20001220703</ele>
        <time>2026-08-27T12:10:26.000Z</time>
      </trkpt>
      <trkpt lat="46.35567" lon="5.54348">
        <ele>342.39999389648</ele>
        <time>2026-08-27T12:10:30.000Z</time>
      </trkpt>
      <trkpt lat="46.35566" lon="5.54353">
        <ele>342.60000610352</ele>
        <time>2026-08-27T12:10:36.000Z</time>
      </trkpt>
      <trkpt lat="46.35564" lon="5.54361">
        <ele>342.39999389648</ele>
        <time>2026-08-27T12:10:40.000Z</time>
      </trkpt>
      <trkpt lat="46.35566" lon="5.54293">
        <ele>343.60000610352</ele>
        <time>2026-08-27T12:17:41.000Z</time>
      </trkpt>
      <trkpt lat="46.35566" lon="5.54301">
        <ele>343.39999389648</ele>
        <time>2026-08-27T12:17:43.000Z</time>
      </trkpt>
      <trkpt lat="46.35568" lon="5.54304">
        <ele>343.60000610352</ele>
        <time>2026-08-27T12:17:50.000Z</time>
      </trkpt>
      <trkpt lat="46.35568" lon="5.54308">
        <ele>343.60000610352</ele>
        <time>2026-08-27T12:17:57.000Z</time>
      </trkpt>
      <trkpt lat="46.3557" lon="5.5431">
        <ele>343.39999389648</ele>
        <time>2026-08-27T12:18:04.000Z</time>
      </trkpt>
      <trkpt lat="46.35572" lon="5.5431">
        <ele>343.39999389648</ele>
        <time>2026-08-27T12:18:07.000Z</time>
      </trkpt>
      <trkpt lat="46.35573" lon="5.54312">
        <ele>343.20001220703</ele>
        <time>2026-08-27T12:18:10.000Z</time>
      </trkpt>
      <trkpt lat="46.35573" lon="5.54312">
        <ele>343.20001220703</ele>
        <time>2026-08-27T12:18:11.000Z</time>
      </trkpt>
      <trkpt lat="46.35572" lon="5.54312">
        <ele>343.39999389648</ele>
        <time>2026-08-27T12:18:14.000Z</time>
      </trkpt>
      <trkpt lat="46.35571" lon="5.54313">
        <ele>343.60000610352</ele>
        <time>2026-08-27T12:18:17.000Z</time>
      </trkpt>
      <trkpt lat="46.35572" lon="5.54311">
        <ele>343.79998779297</ele>
        <time>2026-08-27T12:18:23.000Z</time>
      </trkpt>
      <trkpt lat="46.35572" lon="5.54309">
        <ele>343.60000610352</ele>
        <time>2026-08-27T12:18:30.000Z</time>
      </trkpt>
      <trkpt lat="46.35573" lon="5.54309">
        <ele>343.60000610352</ele>
        <time>2026-08-27T12:18:37.000Z</time>
      </trkpt>
      <trkpt lat="46.35574" lon="5.54313">
        <ele>343.60000610352</ele>
        <time>2026-08-27T12:18:46.000Z</time>
      </trkpt>
      <trkpt lat="46.35575" lon="5.54319">
        <ele>343.39999389648</ele>
        <time>2026-08-27T12:18:53.000Z</time>
      </trkpt>
      <trkpt lat="46.35575" lon="5.54325">
        <ele>343.39999389648</ele>
        <time>2026-08-27T12:19:00.000Z</time>
      </trkpt>
      <trkpt lat="46.35575" lon="5.54328">
        <ele>344.60000610352</ele>
        <time>2026-08-27T12:19:07.000Z</time>
      </trkpt>
      <trkpt lat="46.35575" lon="5.54327">
        <ele>344.79998779297</ele>
        <time>2026-08-27T12:19:08.000Z</time>
      </trkpt>
      <trkpt lat="46.35571" lon="5.54322">
        <ele>344.79998779297</ele>
        <time>2026-08-27T12:19:14.000Z</time>
      </trkpt>
      <trkpt lat="46.35566" lon="5.5431">
        <ele>344.39999389648</ele>
        <time>2026-08-27T12:19:26.000Z</time>
      </trkpt>
      <trkpt lat="46.35566" lon="5.54311">
        <ele>344.39999389648</ele>
        <time>2026-08-27T12:19:29.000Z</time>
      </trkpt>
      <trkpt lat="46.35565" lon="5.54307">
        <ele>344.79998779297</ele>
        <time>2026-08-27T12:19:33.000Z</time>
      </trkpt>
      <trkpt lat="46.35565" lon="5.54304">
        <ele>344.79998779297</ele>
        <time>2026-08-27T12:19:37.000Z</time>
      </trkpt>
      <trkpt lat="46.35563" lon="5.54304">
        <ele>344.79998779297</ele>
        <time>2026-08-27T12:19:40.000Z</time>
      </trkpt>
      <trkpt lat="46.35558" lon="5.54297">
        <ele>345.20001220703</ele>
        <time>2026-08-27T12:19:50.000Z</time>
      </trkpt>
      <trkpt lat="46.35558" lon="5.54299">
        <ele>345.39999389648</ele>
        <time>2026-08-27T12:20:01.000Z</time>
      </trkpt>
      <trkpt lat="46.35559" lon="5.54299">
        <ele>345.39999389648</ele>
        <time>2026-08-27T12:20:10.000Z</time>
      </trkpt>
      <trkpt lat="46.35557" lon="5.54299">
        <ele>345.39999389648</ele>
        <time>2026-08-27T12:20:17.000Z</time>
      </trkpt>
      <trkpt lat="46.35556" lon="5.54299">
        <ele>345.39999389648</ele>
        <time>2026-08-27T12:20:18.000Z</time>
      </trkpt>
      <trkpt lat="46.35556" lon="5.54299">
        <ele>345.39999389648</ele>
        <time>2026-08-27T12:20:19.000Z</time>
      </trkpt>
      <trkpt lat="46.35554" lon="5.54302">
        <ele>345.60000610352</ele>
        <time>2026-08-27T12:20:26.000Z</time>
      </trkpt>
      <trkpt lat="46.35555" lon="5.543">
        <ele>345.39999389648</ele>
        <time>2026-08-27T12:20:30.000Z</time>
      </trkpt>
      <trkpt lat="46.35555" lon="5.54299">
        <ele>345.39999389648</ele>
        <time>2026-08-27T12:20:33.000Z</time>
      </trkpt>
      <trkpt lat="46.35557" lon="5.54299">
        <ele>345.60000610352</ele>
        <time>2026-08-27T12:20:37.000Z</time>
      </trkpt>
      <trkpt lat="46.35557" lon="5.54299">
        <ele>345.60000610352</ele>
        <time>2026-08-27T12:20:40.000Z</time>
      </trkpt>
      <trkpt lat="46.35558" lon="5.54297">
        <ele>345.60000610352</ele>
        <time>2026-08-27T12:20:50.000Z</time>
      </trkpt>
      <trkpt lat="46.35558" lon="5.54295">
        <ele>345.79998779297</ele>
        <time>2026-08-27T12:20:55.000Z</time>
      </trkpt>
      <trkpt lat="46.35558" lon="5.54295">
        <ele>345.79998779297</ele>
        <time>2026-08-27T12:20:57.000Z</time>
      </trkpt>
      <trkpt lat="46.35556" lon="5.54294">
        <ele>345.60000610352</ele>
        <time>2026-08-27T12:21:02.000Z</time>
      </trkpt>
      <trkpt lat="46.35556" lon="5.54294">
        <ele>345.60000610352</ele>
        <time>2026-08-27T12:21:05.000Z</time>
      </trkpt>
      <trkpt lat="46.35556" lon="5.54298">
        <ele>345.60000610352</ele>
        <time>2026-08-27T12:21:09.000Z</time>
      </trkpt>
      <trkpt lat="46.35557" lon="5.54303">
        <ele>345.39999389648</ele>
        <time>2026-08-27T12:21:15.000Z</time>
      </trkpt>
      <trkpt lat="46.35556" lon="5.5431">
        <ele>344.60000610352</ele>
        <time>2026-08-27T12:21:19.000Z</time>
      </trkpt>
      <trkpt lat="46.35557" lon="5.54313">
        <ele>344</ele>
        <time>2026-08-27T12:21:22.000Z</time>
      </trkpt>
      <trkpt lat="46.35558" lon="5.54316">
        <ele>343.39999389648</ele>
        <time>2026-08-27T12:21:25.000Z</time>
      </trkpt>
      <trkpt lat="46.35559" lon="5.5432">
        <ele>342.20001220703</ele>
        <time>2026-08-27T12:21:29.000Z</time>
      </trkpt>
      <trkpt lat="46.3556" lon="5.54323">
        <ele>341.79998779297</ele>
        <time>2026-08-27T12:21:31.000Z</time>
      </trkpt>
      <trkpt lat="46.35561" lon="5.54328">
        <ele>342.60000610352</ele>
        <time>2026-08-27T12:21:39.000Z</time>
      </trkpt>
      <trkpt lat="46.35561" lon="5.54328">
        <ele>342.79998779297</ele>
        <time>2026-08-27T12:21:40.000Z</time>
      </trkpt>
      <trkpt lat="46.35561" lon="5.54329">
        <ele>343</ele>
        <time>2026-08-27T12:21:42.000Z</time>
      </trkpt>
      <trkpt lat="46.3556" lon="5.54329">
        <ele>343</ele>
        <time>2026-08-27T12:21:45.000Z</time>
      </trkpt>
      <trkpt lat="46.3556" lon="5.54328">
        <ele>342.79998779297</ele>
        <time>2026-08-27T12:21:46.000Z</time>
      </trkpt>
      <trkpt lat="46.3556" lon="5.54328">
        <ele>342.79998779297</ele>
        <time>2026-08-27T12:21:47.000Z</time>
      </trkpt>
      <trkpt lat="46.35564" lon="5.54329">
        <ele>343</ele>
        <time>2026-08-27T12:21:51.000Z</time>
      </trkpt>
      <trkpt lat="46.35566" lon="5.54328">
        <ele>343.20001220703</ele>
        <time>2026-08-27T12:21:53.000Z</time>
      </trkpt>
      <trkpt lat="46.35566" lon="5.54327">
        <ele>342.79998779297</ele>
        <time>2026-08-27T12:21:57.000Z</time>
      </trkpt>
      <trkpt lat="46.35566" lon="5.54328">
        <ele>342.79998779297</ele>
        <time>2026-08-27T12:21:58.000Z</time>
      </trkpt>
      <trkpt lat="46.35565" lon="5.54327">
        <ele>342.60000610352</ele>
        <time>2026-08-27T12:22:00.000Z</time>
      </trkpt>
      <trkpt lat="46.35564" lon="5.54326">
        <ele>342.20001220703</ele>
        <time>2026-08-27T12:22:05.000Z</time>
      </trkpt>
      <trkpt lat="46.35564" lon="5.54324">
        <ele>342</ele>
        <time>2026-08-27T12:22:06.000Z</time>
      </trkpt>
      <trkpt lat="46.35564" lon="5.54319">
        <ele>342.39999389648</ele>
        <time>2026-08-27T12:22:13.000Z</time>
      </trkpt>
      <trkpt lat="46.35564" lon="5.54315">
        <ele>341.79998779297</ele>
        <time>2026-08-27T12:22:19.000Z</time>
      </trkpt>
      <trkpt lat="46.35564" lon="5.54314">
        <ele>341.79998779297</ele>
        <time>2026-08-27T12:22:21.000Z</time>
      </trkpt>
      <trkpt lat="46.35563" lon="5.54314">
        <ele>342</ele>
        <time>2026-08-27T12:22:27.000Z</time>
      </trkpt>
      <trkpt lat="46.35562" lon="5.54315">
        <ele>341.79998779297</ele>
        <time>2026-08-27T12:22:29.000Z</time>
      </trkpt>
      <trkpt lat="46.3556" lon="5.5432">
        <ele>341.20001220703</ele>
        <time>2026-08-27T12:22:36.000Z</time>
      </trkpt>
      <trkpt lat="46.35559" lon="5.54322">
        <ele>341.20001220703</ele>
        <time>2026-08-27T12:22:38.000Z</time>
      </trkpt>
      <trkpt lat="46.35559" lon="5.54322">
        <ele>341.20001220703</ele>
        <time>2026-08-27T12:22:39.000Z</time>
      </trkpt>
      <trkpt lat="46.3556" lon="5.54318">
        <ele>341.39999389648</ele>
        <time>2026-08-27T12:22:44.000Z</time>
      </trkpt>
      <trkpt lat="46.35562" lon="5.54318">
        <ele>341.60000610352</ele>
        <time>2026-08-27T12:22:53.000Z</time>
      </trkpt>
      <trkpt lat="46.35567" lon="5.54316">
        <ele>341.79998779297</ele>
        <time>2026-08-27T12:23:01.000Z</time>
      </trkpt>
      <trkpt lat="46.35567" lon="5.54316">
        <ele>342</ele>
        <time>2026-08-27T12:23:11.000Z</time>
      </trkpt>
      <trkpt lat="46.35568" lon="5.54315">
        <ele>342</ele>
        <time>2026-08-27T12:23:13.000Z</time>
      </trkpt>
      <trkpt lat="46.35568" lon="5.54315">
        <ele>342</ele>
        <time>2026-08-27T12:23:16.000Z</time>
      </trkpt>
      <trkpt lat="46.35568" lon="5.54315">
        <ele>342</ele>
        <time>2026-08-27T12:23:17.000Z</time>
      </trkpt>
      <trkpt lat="46.35569" lon="5.54315">
        <ele>342</ele>
        <time>2026-08-27T12:23:19.000Z</time>
      </trkpt>
      <trkpt lat="46.35571" lon="5.54313">
        <ele>342.20001220703</ele>
        <time>2026-08-27T12:23:24.000Z</time>
      </trkpt>
      <trkpt lat="46.35571" lon="5.54313">
        <ele>342.20001220703</ele>
        <time>2026-08-27T12:23:25.000Z</time>
      </trkpt>
      <trkpt lat="46.35572" lon="5.54313">
        <ele>342.20001220703</ele>
        <time>2026-08-27T12:23:27.000Z</time>
      </trkpt>
      <trkpt lat="46.35572" lon="5.54313">
        <ele>342.39999389648</ele>
        <time>2026-08-27T12:23:28.000Z</time>
      </trkpt>
      <trkpt lat="46.35572" lon="5.54313">
        <ele>342.39999389648</ele>
        <time>2026-08-27T12:23:29.000Z</time>
      </trkpt>
      <trkpt lat="46.35572" lon="5.54314">
        <ele>342.60000610352</ele>
        <time>2026-08-27T12:23:33.000Z</time>
      </trkpt>
      <trkpt lat="46.35569" lon="5.54313">
        <ele>342.39999389648</ele>
        <time>2026-08-27T12:23:40.000Z</time>
      </trkpt>
      <trkpt lat="46.35565" lon="5.5431">
        <ele>342.39999389648</ele>
        <time>2026-08-27T12:23:49.000Z</time>
      </trkpt>
      <trkpt lat="46.35565" lon="5.54309">
        <ele>343.39999389648</ele>
        <time>2026-08-27T12:23:54.000Z</time>
      </trkpt>
      <trkpt lat="46.35565" lon="5.54309">
        <ele>343.79998779297</ele>
        <time>2026-08-27T12:23:57.000Z</time>
      </trkpt>
      <trkpt lat="46.35564" lon="5.54313">
        <ele>344.39999389648</ele>
        <time>2026-08-27T12:24:01.000Z</time>
      </trkpt>
      <trkpt lat="46.35561" lon="5.54317">
        <ele>344.39999389648</ele>
        <time>2026-08-27T12:24:05.000Z</time>
      </trkpt>
      <trkpt lat="46.35557" lon="5.54326">
        <ele>344.60000610352</ele>
        <time>2026-08-27T12:24:14.000Z</time>
      </trkpt>
      <trkpt lat="46.35556" lon="5.54332">
        <ele>344.79998779297</ele>
        <time>2026-08-27T12:24:21.000Z</time>
      </trkpt>
      <trkpt lat="46.35555" lon="5.54334">
        <ele>344.79998779297</ele>
        <time>2026-08-27T12:24:24.000Z</time>
      </trkpt>
      <trkpt lat="46.35554" lon="5.54334">
        <ele>345</ele>
        <time>2026-08-27T12:24:29.000Z</time>
      </trkpt>
      <trkpt lat="46.35554" lon="5.54332">
        <ele>345</ele>
        <time>2026-08-27T12:24:34.000Z</time>
      </trkpt>
      <trkpt lat="46.35555" lon="5.54334">
        <ele>344.79998779297</ele>
        <time>2026-08-27T12:24:42.000Z</time>
      </trkpt>
      <trkpt lat="46.35555" lon="5.54328">
        <ele>344.60000610352</ele>
        <time>2026-08-27T12:24:46.000Z</time>
      </trkpt>
      <trkpt lat="46.35555" lon="5.54323">
        <ele>344.79998779297</ele>
        <time>2026-08-27T12:24:50.000Z</time>
      </trkpt>
      <trkpt lat="46.35556" lon="5.54321">
        <ele>345.60000610352</ele>
        <time>2026-08-27T12:24:52.000Z</time>
      </trkpt>
      <trkpt lat="46.35556" lon="5.54315">
        <ele>346.60000610352</ele>
        <time>2026-08-27T12:24:56.000Z</time>
      </trkpt>
      <trkpt lat="46.35556" lon="5.54312">
        <ele>346.60000610352</ele>
        <time>2026-08-27T12:24:58.000Z</time>
      </trkpt>
      <trkpt lat="46.3556" lon="5.54306">
        <ele>346.79998779297</ele>
        <time>2026-08-27T12:25:01.000Z</time>
      </trkpt>
      <trkpt lat="46.35563" lon="5.54302">
        <ele>347.60000610352</ele>
        <time>2026-08-27T12:25:04.000Z</time>
      </trkpt>
      <trkpt lat="46.35565" lon="5.543">
        <ele>348.20001220703</ele>
        <time>2026-08-27T12:25:06.000Z</time>
      </trkpt>
      <trkpt lat="46.35566" lon="5.54301">
        <ele>348.39999389648</ele>
        <time>2026-08-27T12:25:07.000Z</time>
      </trkpt>
      <trkpt lat="46.35569" lon="5.54296">
        <ele>348.60000610352</ele>
        <time>2026-08-27T12:25:09.000Z</time>
      </trkpt>
      <trkpt lat="46.35572" lon="5.54292">
        <ele>349.20001220703</ele>
        <time>2026-08-27T12:25:12.000Z</time>
      </trkpt>
      <trkpt lat="46.35575" lon="5.5429">
        <ele>349.60000610352</ele>
        <time>2026-08-27T12:25:14.000Z</time>
      </trkpt>
      <trkpt lat="46.3558" lon="5.54286">
        <ele>350.39999389648</ele>
        <time>2026-08-27T12:25:18.000Z</time>
      </trkpt>
      <trkpt lat="46.35583" lon="5.54284">
        <ele>350.79998779297</ele>
        <time>2026-08-27T12:25:20.000Z</time>
      </trkpt>
      <trkpt lat="46.35586" lon="5.5428">
        <ele>351.79998779297</ele>
        <time>2026-08-27T12:25:26.000Z</time>
      </trkpt>
      <trkpt lat="46.35587" lon="5.54279">
        <ele>352</ele>
        <time>2026-08-27T12:25:27.000Z</time>
      </trkpt>
      <trkpt lat="46.3559" lon="5.54278">
        <ele>352.39999389648</ele>
        <time>2026-08-27T12:25:29.000Z</time>
      </trkpt>
      <trkpt lat="46.35591" lon="5.54278">
        <ele>352.79998779297</ele>
        <time>2026-08-27T12:25:31.000Z</time>
      </trkpt>
      <trkpt lat="46.35592" lon="5.5428">
        <ele>353</ele>
        <time>2026-08-27T12:25:32.000Z</time>
      </trkpt>
      <trkpt lat="46.35593" lon="5.54283">
        <ele>353.39999389648</ele>
        <time>2026-08-27T12:25:35.000Z</time>
      </trkpt>
      <trkpt lat="46.35594" lon="5.54283">
        <ele>353.60000610352</ele>
        <time>2026-08-27T12:25:37.000Z</time>
      </trkpt>
      <trkpt lat="46.35595" lon="5.54285">
        <ele>354</ele>
        <time>2026-08-27T12:25:40.000Z</time>
      </trkpt>
      <trkpt lat="46.35594" lon="5.54289">
        <ele>355</ele>
        <time>2026-08-27T12:25:46.000Z</time>
      </trkpt>
      <trkpt lat="46.35594" lon="5.54289">
        <ele>355.20001220703</ele>
        <time>2026-08-27T12:25:47.000Z</time>
      </trkpt>
      <trkpt lat="46.35595" lon="5.5429">
        <ele>356</ele>
        <time>2026-08-27T12:25:53.000Z</time>
      </trkpt>
      <trkpt lat="46.35595" lon="5.54291">
        <ele>356.20001220703</ele>
        <time>2026-08-27T12:25:55.000Z</time>
      </trkpt>
      <trkpt lat="46.35594" lon="5.54292">
        <ele>356.79998779297</ele>
        <time>2026-08-27T12:26:01.000Z</time>
      </trkpt>
      <trkpt lat="46.35594" lon="5.54293">
        <ele>357.60000610352</ele>
        <time>2026-08-27T12:26:04.000Z</time>
      </trkpt>
      <trkpt lat="46.35594" lon="5.54297">
        <ele>358.60000610352</ele>
        <time>2026-08-27T12:26:08.000Z</time>
      </trkpt>
      <trkpt lat="46.35593" lon="5.54301">
        <ele>359.20001220703</ele>
        <time>2026-08-27T12:26:11.000Z</time>
      </trkpt>
      <trkpt lat="46.35592" lon="5.54303">
        <ele>359.79998779297</ele>
        <time>2026-08-27T12:26:14.000Z</time>
      </trkpt>
      <trkpt lat="46.35591" lon="5.54306">
        <ele>360.20001220703</ele>
        <time>2026-08-27T12:26:17.000Z</time>
      </trkpt>
      <trkpt lat="46.35589" lon="5.54309">
        <ele>360.79998779297</ele>
        <time>2026-08-27T12:26:22.000Z</time>
      </trkpt>
      <trkpt lat="46.35589" lon="5.5431">
        <ele>360.79998779297</ele>
        <time>2026-08-27T12:26:23.000Z</time>
      </trkpt>
      <trkpt lat="46.35589" lon="5.54316">
        <ele>361.79998779297</ele>
        <time>2026-08-27T12:26:29.000Z</time>
      </trkpt>
      <trkpt lat="46.3559" lon="5.54317">
        <ele>362</ele>
        <time>2026-08-27T12:26:31.000Z</time>
      </trkpt>
      <trkpt lat="46.35596" lon="5.54318">
        <ele>363</ele>
        <time>2026-08-27T12:26:39.000Z</time>
      </trkpt>
      <trkpt lat="46.35601" lon="5.54324">
        <ele>363.60000610352</ele>
        <time>2026-08-27T12:26:47.000Z</time>
      </trkpt>
      <trkpt lat="46.35607" lon="5.54329">
        <ele>364</ele>
        <time>2026-08-27T12:26:54.000Z</time>
      </trkpt>
      <trkpt lat="46.35608" lon="5.5433">
        <ele>364.20001220703</ele>
        <time>2026-08-27T12:26:55.000Z</time>
      </trkpt>
      <trkpt lat="46.35615" lon="5.54336">
        <ele>365</ele>
        <time>2026-08-27T12:27:04.000Z</time>
      </trkpt>
      <trkpt lat="46.35621" lon="5.54344">
        <ele>366</ele>
        <time>2026-08-27T12:27:13.000Z</time>
      </trkpt>
      <trkpt lat="46.35628" lon="5.54353">
        <ele>364.60000610352</ele>
        <time>2026-08-27T12:27:22.000Z</time>
      </trkpt>
      <trkpt lat="46.35635" lon="5.54358">
        <ele>364.79998779297</ele>
        <time>2026-08-27T12:27:28.000Z</time>
      </trkpt>
      <trkpt lat="46.35639" lon="5.54362">
        <ele>365.20001220703</ele>
        <time>2026-08-27T12:27:31.000Z</time>
      </trkpt>
      <trkpt lat="46.35645" lon="5.54372">
        <ele>365.60000610352</ele>
        <time>2026-08-27T12:27:40.000Z</time>
      </trkpt>
      <trkpt lat="46.35647" lon="5.54373">
        <ele>365.79998779297</ele>
        <time>2026-08-27T12:27:42.000Z</time>
      </trkpt>
      <trkpt lat="46.35649" lon="5.54378">
        <ele>366</ele>
        <time>2026-08-27T12:27:48.000Z</time>
      </trkpt>
      <trkpt lat="46.35651" lon="5.54381">
        <ele>366.20001220703</ele>
        <time>2026-08-27T12:27:51.000Z</time>
      </trkpt>
      <trkpt lat="46.35652" lon="5.54381">
        <ele>366.20001220703</ele>
        <time>2026-08-27T12:27:54.000Z</time>
      </trkpt>
      <trkpt lat="46.35652" lon="5.54383">
        <ele>366.20001220703</ele>
        <time>2026-08-27T12:28:02.000Z</time>
      </trkpt>
      <trkpt lat="46.3565" lon="5.54382">
        <ele>366.60000610352</ele>
        <time>2026-08-27T12:28:09.000Z</time>
      </trkpt>
      <trkpt lat="46.3565" lon="5.54379">
        <ele>367.20001220703</ele>
        <time>2026-08-27T12:28:12.000Z</time>
      </trkpt>
      <trkpt lat="46.35649" lon="5.54374">
        <ele>368</ele>
        <time>2026-08-27T12:28:16.000Z</time>
      </trkpt>
      <trkpt lat="46.35649" lon="5.54373">
        <ele>368.20001220703</ele>
        <time>2026-08-27T12:28:17.000Z</time>
      </trkpt>
      <trkpt lat="46.3565" lon="5.54369">
        <ele>369.39999389648</ele>
        <time>2026-08-27T12:28:22.000Z</time>
      </trkpt>
      <trkpt lat="46.3565" lon="5.54367">
        <ele>369.60000610352</ele>
        <time>2026-08-27T12:28:24.000Z</time>
      </trkpt>
      <trkpt lat="46.35653" lon="5.54361">
        <ele>370</ele>
        <time>2026-08-27T12:28:30.000Z</time>
      </trkpt>
      <trkpt lat="46.35656" lon="5.54356">
        <ele>370.39999389648</ele>
        <time>2026-08-27T12:28:34.000Z</time>
      </trkpt>
      <trkpt lat="46.35656" lon="5.54355">
        <ele>370.60000610352</ele>
        <time>2026-08-27T12:28:36.000Z</time>
      </trkpt>
      <trkpt lat="46.35657" lon="5.54354">
        <ele>370.79998779297</ele>
        <time>2026-08-27T12:28:38.000Z</time>
      </trkpt>
      <trkpt lat="46.35657" lon="5.54351">
        <ele>371.39999389648</ele>
        <time>2026-08-27T12:28:44.000Z</time>
      </trkpt>
      <trkpt lat="46.35657" lon="5.5435">
        <ele>371.39999389648</ele>
        <time>2026-08-27T12:28:45.000Z</time>
      </trkpt>
      <trkpt lat="46.3566" lon="5.54345">
        <ele>372.39999389648</ele>
        <time>2026-08-27T12:28:51.000Z</time>
      </trkpt>
      <trkpt lat="46.35662" lon="5.54341">
        <ele>373.60000610352</ele>
        <time>2026-08-27T12:29:00.000Z</time>
      </trkpt>
      <trkpt lat="46.35664" lon="5.54337">
        <ele>374.79998779297</ele>
        <time>2026-08-27T12:29:04.000Z</time>
      </trkpt>
      <trkpt lat="46.35666" lon="5.54334">
        <ele>375.39999389648</ele>
        <time>2026-08-27T12:29:10.000Z</time>
      </trkpt>
      <trkpt lat="46.35666" lon="5.54332">
        <ele>375.79998779297</ele>
        <time>2026-08-27T12:29:13.000Z</time>
      </trkpt>
      <trkpt lat="46.35666" lon="5.54328">
        <ele>377</ele>
        <time>2026-08-27T12:29:18.000Z</time>
      </trkpt>
      <trkpt lat="46.35668" lon="5.54325">
        <ele>378.20001220703</ele>
        <time>2026-08-27T12:29:22.000Z</time>
      </trkpt>
      <trkpt lat="46.3567" lon="5.54322">
        <ele>379</ele>
        <time>2026-08-27T12:29:25.000Z</time>
      </trkpt>
      <trkpt lat="46.35671" lon="5.54322">
        <ele>379.39999389648</ele>
        <time>2026-08-27T12:29:26.000Z</time>
      </trkpt>
      <trkpt lat="46.35673" lon="5.5432">
        <ele>380.39999389648</ele>
        <time>2026-08-27T12:29:29.000Z</time>
      </trkpt>
      <trkpt lat="46.35675" lon="5.54319">
        <ele>381.39999389648</ele>
        <time>2026-08-27T12:29:32.000Z</time>
      </trkpt>
      <trkpt lat="46.35676" lon="5.54319">
        <ele>381.60000610352</ele>
        <time>2026-08-27T12:29:33.000Z</time>
      </trkpt>
      <trkpt lat="46.35682" lon="5.54316">
        <ele>381.79998779297</ele>
        <time>2026-08-27T12:29:38.000Z</time>
      </trkpt>
      <trkpt lat="46.35683" lon="5.54315">
        <ele>381.60000610352</ele>
        <time>2026-08-27T12:29:40.000Z</time>
      </trkpt>
      <trkpt lat="46.35686" lon="5.54312">
        <ele>381</ele>
        <time>2026-08-27T12:29:45.000Z</time>
      </trkpt>
      <trkpt lat="46.35689" lon="5.54311">
        <ele>380.60000610352</ele>
        <time>2026-08-27T12:29:48.000Z</time>
      </trkpt>
      <trkpt lat="46.35696" lon="5.54309">
        <ele>380.39999389648</ele>
        <time>2026-08-27T12:29:54.000Z</time>
      </trkpt>
      <trkpt lat="46.35698" lon="5.54308">
        <ele>380.20001220703</ele>
        <time>2026-08-27T12:29:56.000Z</time>
      </trkpt>
      <trkpt lat="46.35699" lon="5.54308">
        <ele>380.20001220703</ele>
        <time>2026-08-27T12:29:57.000Z</time>
      </trkpt>
      <trkpt lat="46.35708" lon="5.54307">
        <ele>379.39999389648</ele>
        <time>2026-08-27T12:30:08.000Z</time>
      </trkpt>
      <trkpt lat="46.35714" lon="5.54308">
        <ele>378.79998779297</ele>
        <time>2026-08-27T12:30:17.000Z</time>
      </trkpt>
      <trkpt lat="46.35717" lon="5.54307">
        <ele>378.39999389648</ele>
        <time>2026-08-27T12:30:21.000Z</time>
      </trkpt>
      <trkpt lat="46.3572" lon="5.54306">
        <ele>378.20001220703</ele>
        <time>2026-08-27T12:30:27.000Z</time>
      </trkpt>
      <trkpt lat="46.3572" lon="5.54306">
        <ele>378</ele>
        <time>2026-08-27T12:30:31.000Z</time>
      </trkpt>
      <trkpt lat="46.35721" lon="5.54306">
        <ele>378</ele>
        <time>2026-08-27T12:30:37.000Z</time>
      </trkpt>
      <trkpt lat="46.35723" lon="5.54305">
        <ele>377.39999389648</ele>
        <time>2026-08-27T12:30:45.000Z</time>
      </trkpt>
      <trkpt lat="46.35724" lon="5.54304">
        <ele>377.20001220703</ele>
        <time>2026-08-27T12:30:47.000Z</time>
      </trkpt>
      <trkpt lat="46.35724" lon="5.54302">
        <ele>376.39999389648</ele>
        <time>2026-08-27T12:30:55.000Z</time>
      </trkpt>
      <trkpt lat="46.35724" lon="5.54302">
        <ele>376.20001220703</ele>
        <time>2026-08-27T12:30:56.000Z</time>
      </trkpt>
      <trkpt lat="46.35724" lon="5.54302">
        <ele>376</ele>
        <time>2026-08-27T12:30:57.000Z</time>
      </trkpt>
      <trkpt lat="46.35724" lon="5.54302">
        <ele>375.20001220703</ele>
        <time>2026-08-27T12:31:03.000Z</time>
      </trkpt>
      <trkpt lat="46.35725" lon="5.54302">
        <ele>375</ele>
        <time>2026-08-27T12:31:07.000Z</time>
      </trkpt>
      <trkpt lat="46.35725" lon="5.54301">
        <ele>374.79998779297</ele>
        <time>2026-08-27T12:31:08.000Z</time>
      </trkpt>
      <trkpt lat="46.35727" lon="5.54301">
        <ele>374.60000610352</ele>
        <time>2026-08-27T12:31:10.000Z</time>
      </trkpt>
      <trkpt lat="46.3573" lon="5.54302">
        <ele>374.20001220703</ele>
        <time>2026-08-27T12:31:12.000Z</time>
      </trkpt>
      <trkpt lat="46.35733" lon="5.54304">
        <ele>373.60000610352</ele>
        <time>2026-08-27T12:31:16.000Z</time>
      </trkpt>
      <trkpt lat="46.35737" lon="5.54303">
        <ele>373.60000610352</ele>
        <time>2026-08-27T12:31:21.000Z</time>
      </trkpt>
      <trkpt lat="46.35737" lon="5.54302">
        <ele>374</ele>
        <time>2026-08-27T12:31:24.000Z</time>
      </trkpt>
      <trkpt lat="46.35738" lon="5.54299">
        <ele>375.39999389648</ele>
        <time>2026-08-27T12:31:32.000Z</time>
      </trkpt>
      <trkpt lat="46.35738" lon="5.54298">
        <ele>375.39999389648</ele>
        <time>2026-08-27T12:31:33.000Z</time>
      </trkpt>
      <trkpt lat="46.35743" lon="5.54285">
        <ele>375.60000610352</ele>
        <time>2026-08-27T12:31:43.000Z</time>
      </trkpt>
      <trkpt lat="46.35744" lon="5.54283">
        <ele>376.60000610352</ele>
        <time>2026-08-27T12:31:47.000Z</time>
      </trkpt>
      <trkpt lat="46.35748" lon="5.54278">
        <ele>377.60000610352</ele>
        <time>2026-08-27T12:31:52.000Z</time>
      </trkpt>
      <trkpt lat="46.35748" lon="5.54278">
        <ele>377.79998779297</ele>
        <time>2026-08-27T12:31:53.000Z</time>
      </trkpt>
      <trkpt lat="46.35751" lon="5.54278">
        <ele>378.39999389648</ele>
        <time>2026-08-27T12:31:57.000Z</time>
      </trkpt>
      <trkpt lat="46.35752" lon="5.54278">
        <ele>378.79998779297</ele>
        <time>2026-08-27T12:31:59.000Z</time>
      </trkpt>
      <trkpt lat="46.35753" lon="5.54279">
        <ele>379</ele>
        <time>2026-08-27T12:32:00.000Z</time>
      </trkpt>
      <trkpt lat="46.35753" lon="5.54279">
        <ele>379.39999389648</ele>
        <time>2026-08-27T12:32:02.000Z</time>
      </trkpt>
      <trkpt lat="46.35754" lon="5.54279">
        <ele>380</ele>
        <time>2026-08-27T12:32:05.000Z</time>
      </trkpt>
      <trkpt lat="46.35755" lon="5.5428">
        <ele>380.79998779297</ele>
        <time>2026-08-27T12:32:09.000Z</time>
      </trkpt>
      <trkpt lat="46.35755" lon="5.5428">
        <ele>381.20001220703</ele>
        <time>2026-08-27T12:32:11.000Z</time>
      </trkpt>
      <trkpt lat="46.35757" lon="5.5428">
        <ele>381.60000610352</ele>
        <time>2026-08-27T12:32:13.000Z</time>
      </trkpt>
      <trkpt lat="46.35761" lon="5.54279">
        <ele>382.20001220703</ele>
        <time>2026-08-27T12:32:18.000Z</time>
      </trkpt>
      <trkpt lat="46.35762" lon="5.54278">
        <ele>382.39999389648</ele>
        <time>2026-08-27T12:32:19.000Z</time>
      </trkpt>
      <trkpt lat="46.35764" lon="5.54278">
        <ele>383.39999389648</ele>
        <time>2026-08-27T12:32:23.000Z</time>
      </trkpt>
      <trkpt lat="46.35766" lon="5.54279">
        <ele>384.20001220703</ele>
        <time>2026-08-27T12:32:27.000Z</time>
      </trkpt>
      <trkpt lat="46.35767" lon="5.54279">
        <ele>384.39999389648</ele>
        <time>2026-08-27T12:32:28.000Z</time>
      </trkpt>
      <trkpt lat="46.35772" lon="5.54278">
        <ele>385.39999389648</ele>
        <time>2026-08-27T12:32:37.000Z</time>
      </trkpt>
      <trkpt lat="46.35774" lon="5.54278">
        <ele>385.39999389648</ele>
        <time>2026-08-27T12:32:40.000Z</time>
      </trkpt>
      <trkpt lat="46.35775" lon="5.54278">
        <ele>385.79998779297</ele>
        <time>2026-08-27T12:32:45.000Z</time>
      </trkpt>
      <trkpt lat="46.35777" lon="5.54279">
        <ele>386.39999389648</ele>
        <time>2026-08-27T12:32:49.000Z</time>
      </trkpt>
      <trkpt lat="46.35779" lon="5.54277">
        <ele>387.20001220703</ele>
        <time>2026-08-27T12:32:53.000Z</time>
      </trkpt>
      <trkpt lat="46.35782" lon="5.54275">
        <ele>387.39999389648</ele>
        <time>2026-08-27T12:32:56.000Z</time>
      </trkpt>
      <trkpt lat="46.35787" lon="5.54275">
        <ele>388</ele>
        <time>2026-08-27T12:33:02.000Z</time>
      </trkpt>
      <trkpt lat="46.35791" lon="5.54276">
        <ele>388.60000610352</ele>
        <time>2026-08-27T12:33:07.000Z</time>
      </trkpt>
      <trkpt lat="46.35791" lon="5.54278">
        <ele>388.79998779297</ele>
        <time>2026-08-27T12:33:08.000Z</time>
      </trkpt>
      <trkpt lat="46.35791" lon="5.54279">
        <ele>389</ele>
        <time>2026-08-27T12:33:09.000Z</time>
      </trkpt>
      <trkpt lat="46.35791" lon="5.5428">
        <ele>389.20001220703</ele>
        <time>2026-08-27T12:33:10.000Z</time>
      </trkpt>
      <trkpt lat="46.3579" lon="5.5428">
        <ele>389.39999389648</ele>
        <time>2026-08-27T12:33:11.000Z</time>
      </trkpt>
      <trkpt lat="46.3579" lon="5.54282">
        <ele>389.79998779297</ele>
        <time>2026-08-27T12:33:13.000Z</time>
      </trkpt>
      <trkpt lat="46.3579" lon="5.54283">
        <ele>390.20001220703</ele>
        <time>2026-08-27T12:33:15.000Z</time>
      </trkpt>
      <trkpt lat="46.35795" lon="5.54283">
        <ele>390.79998779297</ele>
        <time>2026-08-27T12:33:19.000Z</time>
      </trkpt>
      <trkpt lat="46.35796" lon="5.54283">
        <ele>391.20001220703</ele>
        <time>2026-08-27T12:33:21.000Z</time>
      </trkpt>
      <trkpt lat="46.35804" lon="5.54283">
        <ele>391.79998779297</ele>
        <time>2026-08-27T12:33:29.000Z</time>
      </trkpt>
      <trkpt lat="46.35805" lon="5.54283">
        <ele>392</ele>
        <time>2026-08-27T12:33:30.000Z</time>
      </trkpt>
      <trkpt lat="46.35814" lon="5.54283">
        <ele>392.20001220703</ele>
        <time>2026-08-27T12:33:37.000Z</time>
      </trkpt>
      <trkpt lat="46.35816" lon="5.54285">
        <ele>392.39999389648</ele>
        <time>2026-08-27T12:33:40.000Z</time>
      </trkpt>
      <trkpt lat="46.35818" lon="5.54286">
        <ele>392.79998779297</ele>
        <time>2026-08-27T12:33:42.000Z</time>
      </trkpt>
      <trkpt lat="46.35819" lon="5.54286">
        <ele>393</ele>
        <time>2026-08-27T12:33:44.000Z</time>
      </trkpt>
      <trkpt lat="46.35821" lon="5.54287">
        <ele>393.39999389648</ele>
        <time>2026-08-27T12:33:46.000Z</time>
      </trkpt>
      <trkpt lat="46.35823" lon="5.54288">
        <ele>394</ele>
        <time>2026-08-27T12:33:50.000Z</time>
      </trkpt>
      <trkpt lat="46.35823" lon="5.54289">
        <ele>394</ele>
        <time>2026-08-27T12:33:51.000Z</time>
      </trkpt>
      <trkpt lat="46.35827" lon="5.54291">
        <ele>395.20001220703</ele>
        <time>2026-08-27T12:33:56.000Z</time>
      </trkpt>
      <trkpt lat="46.35828" lon="5.54293">
        <ele>395.60000610352</ele>
        <time>2026-08-27T12:33:58.000Z</time>
      </trkpt>
      <trkpt lat="46.3583" lon="5.54296">
        <ele>396.39999389648</ele>
        <time>2026-08-27T12:34:03.000Z</time>
      </trkpt>
      <trkpt lat="46.3583" lon="5.54297">
        <ele>396.79998779297</ele>
        <time>2026-08-27T12:34:05.000Z</time>
      </trkpt>
      <trkpt lat="46.3583" lon="5.54298">
        <ele>397.20001220703</ele>
        <time>2026-08-27T12:34:06.000Z</time>
      </trkpt>
      <trkpt lat="46.3583" lon="5.543">
        <ele>397.60000610352</ele>
        <time>2026-08-27T12:34:08.000Z</time>
      </trkpt>
      <trkpt lat="46.35826" lon="5.54304">
        <ele>398.60000610352</ele>
        <time>2026-08-27T12:34:14.000Z</time>
      </trkpt>
      <trkpt lat="46.35823" lon="5.54308">
        <ele>398.60000610352</ele>
        <time>2026-08-27T12:34:18.000Z</time>
      </trkpt>
      <trkpt lat="46.35818" lon="5.5431">
        <ele>398.60000610352</ele>
        <time>2026-08-27T12:34:22.000Z</time>
      </trkpt>
      <trkpt lat="46.35804" lon="5.54314">
        <ele>398</ele>
        <time>2026-08-27T12:34:33.000Z</time>
      </trkpt>
      <trkpt lat="46.35798" lon="5.54315">
        <ele>397.60000610352</ele>
        <time>2026-08-27T12:34:38.000Z</time>
      </trkpt>
      <trkpt lat="46.35794" lon="5.54317">
        <ele>397</ele>
        <time>2026-08-27T12:34:42.000Z</time>
      </trkpt>
      <trkpt lat="46.35782" lon="5.54321">
        <ele>397.20001220703</ele>
        <time>2026-08-27T12:34:52.000Z</time>
      </trkpt>
      <trkpt lat="46.35773" lon="5.54323">
        <ele>397.20001220703</ele>
        <time>2026-08-27T12:34:59.000Z</time>
      </trkpt>
      <trkpt lat="46.3577" lon="5.54325">
        <ele>397</ele>
        <time>2026-08-27T12:35:02.000Z</time>
      </trkpt>
      <trkpt lat="46.3577" lon="5.54326">
        <ele>396.79998779297</ele>
        <time>2026-08-27T12:35:03.000Z</time>
      </trkpt>
      <trkpt lat="46.35766" lon="5.54334">
        <ele>396.60000610352</ele>
        <time>2026-08-27T12:35:10.000Z</time>
      </trkpt>
      <trkpt lat="46.35761" lon="5.54341">
        <ele>397.39999389648</ele>
        <time>2026-08-27T12:35:18.000Z</time>
      </trkpt>
      <trkpt lat="46.35757" lon="5.54346">
        <ele>397.20001220703</ele>
        <time>2026-08-27T12:35:24.000Z</time>
      </trkpt>
      <trkpt lat="46.35755" lon="5.54348">
        <ele>397</ele>
        <time>2026-08-27T12:35:27.000Z</time>
      </trkpt>
      <trkpt lat="46.35754" lon="5.54348">
        <ele>396.79998779297</ele>
        <time>2026-08-27T12:35:28.000Z</time>
      </trkpt>
      <trkpt lat="46.35748" lon="5.54354">
        <ele>397.39999389648</ele>
        <time>2026-08-27T12:35:34.000Z</time>
      </trkpt>
      <trkpt lat="46.35744" lon="5.54358">
        <ele>397.79998779297</ele>
        <time>2026-08-27T12:35:41.000Z</time>
      </trkpt>
      <trkpt lat="46.35742" lon="5.54359">
        <ele>397.79998779297</ele>
        <time>2026-08-27T12:35:43.000Z</time>
      </trkpt>
      <trkpt lat="46.35737" lon="5.54368">
        <ele>398.60000610352</ele>
        <time>2026-08-27T12:35:51.000Z</time>
      </trkpt>
      <trkpt lat="46.35737" lon="5.54368">
        <ele>398.79998779297</ele>
        <time>2026-08-27T12:35:52.000Z</time>
      </trkpt>
      <trkpt lat="46.35735" lon="5.5437">
        <ele>398.79998779297</ele>
        <time>2026-08-27T12:36:01.000Z</time>
      </trkpt>
      <trkpt lat="46.35731" lon="5.54372">
        <ele>399.79998779297</ele>
        <time>2026-08-27T12:36:11.000Z</time>
      </trkpt>
      <trkpt lat="46.3573" lon="5.54375">
        <ele>400.79998779297</ele>
        <time>2026-08-27T12:36:15.000Z</time>
      </trkpt>
      <trkpt lat="46.35728" lon="5.54379">
        <ele>401.79998779297</ele>
        <time>2026-08-27T12:36:19.000Z</time>
      </trkpt>
      <trkpt lat="46.35727" lon="5.54381">
        <ele>402</ele>
        <time>2026-08-27T12:36:21.000Z</time>
      </trkpt>
      <trkpt lat="46.35722" lon="5.54385">
        <ele>403.20001220703</ele>
        <time>2026-08-27T12:36:27.000Z</time>
      </trkpt>
      <trkpt lat="46.35721" lon="5.54387">
        <ele>403.39999389648</ele>
        <time>2026-08-27T12:36:29.000Z</time>
      </trkpt>
      <trkpt lat="46.3572" lon="5.5439">
        <ele>403.60000610352</ele>
        <time>2026-08-27T12:36:31.000Z</time>
      </trkpt>
      <trkpt lat="46.35718" lon="5.54392">
        <ele>404.20001220703</ele>
        <time>2026-08-27T12:36:35.000Z</time>
      </trkpt>
      <trkpt lat="46.35717" lon="5.54396">
        <ele>405.20001220703</ele>
        <time>2026-08-27T12:36:38.000Z</time>
      </trkpt>
      <trkpt lat="46.35716" lon="5.54397">
        <ele>405.60000610352</ele>
        <time>2026-08-27T12:36:39.000Z</time>
      </trkpt>
      <trkpt lat="46.35714" lon="5.54402">
        <ele>406.60000610352</ele>
        <time>2026-08-27T12:36:43.000Z</time>
      </trkpt>
      <trkpt lat="46.35714" lon="5.54404">
        <ele>407.79998779297</ele>
        <time>2026-08-27T12:36:46.000Z</time>
      </trkpt>
      <trkpt lat="46.35715" lon="5.54405">
        <ele>408.39999389648</ele>
        <time>2026-08-27T12:36:48.000Z</time>
      </trkpt>
      <trkpt lat="46.35715" lon="5.54405">
        <ele>408.60000610352</ele>
        <time>2026-08-27T12:36:49.000Z</time>
      </trkpt>
      <trkpt lat="46.35716" lon="5.54405">
        <ele>408.79998779297</ele>
        <time>2026-08-27T12:36:50.000Z</time>
      </trkpt>
      <trkpt lat="46.3572" lon="5.54405">
        <ele>409.39999389648</ele>
        <time>2026-08-27T12:36:56.000Z</time>
      </trkpt>
      <trkpt lat="46.35725" lon="5.54403">
        <ele>409.79998779297</ele>
        <time>2026-08-27T12:37:00.000Z</time>
      </trkpt>
      <trkpt lat="46.35729" lon="5.54402">
        <ele>410.20001220703</ele>
        <time>2026-08-27T12:37:05.000Z</time>
      </trkpt>
      <trkpt lat="46.35736" lon="5.54409">
        <ele>410.79998779297</ele>
        <time>2026-08-27T12:37:12.000Z</time>
      </trkpt>
      <trkpt lat="46.35736" lon="5.5441">
        <ele>411</ele>
        <time>2026-08-27T12:37:13.000Z</time>
      </trkpt>
      <trkpt lat="46.35737" lon="5.54413">
        <ele>411.39999389648</ele>
        <time>2026-08-27T12:37:16.000Z</time>
      </trkpt>
      <trkpt lat="46.35737" lon="5.54417">
        <ele>411.79998779297</ele>
        <time>2026-08-27T12:37:20.000Z</time>
      </trkpt>
      <trkpt lat="46.35737" lon="5.54418">
        <ele>412</ele>
        <time>2026-08-27T12:37:21.000Z</time>
      </trkpt>
      <trkpt lat="46.3574" lon="5.54428">
        <ele>413</ele>
        <time>2026-08-27T12:37:29.000Z</time>
      </trkpt>
      <trkpt lat="46.3574" lon="5.54429">
        <ele>413.20001220703</ele>
        <time>2026-08-27T12:37:30.000Z</time>
      </trkpt>
      <trkpt lat="46.35743" lon="5.54438">
        <ele>414</ele>
        <time>2026-08-27T12:37:39.000Z</time>
      </trkpt>
      <trkpt lat="46.35743" lon="5.5444">
        <ele>414</ele>
        <time>2026-08-27T12:37:40.000Z</time>
      </trkpt>
      <trkpt lat="46.35745" lon="5.5445">
        <ele>414.60000610352</ele>
        <time>2026-08-27T12:37:47.000Z</time>
      </trkpt>
      <trkpt lat="46.35747" lon="5.54457">
        <ele>415</ele>
        <time>2026-08-27T12:37:55.000Z</time>
      </trkpt>
      <trkpt lat="46.35747" lon="5.54459">
        <ele>415</ele>
        <time>2026-08-27T12:38:03.000Z</time>
      </trkpt>
      <trkpt lat="46.35746" lon="5.54461">
        <ele>415.20001220703</ele>
        <time>2026-08-27T12:38:09.000Z</time>
      </trkpt>
      <trkpt lat="46.35746" lon="5.54462">
        <ele>415.20001220703</ele>
        <time>2026-08-27T12:38:10.000Z</time>
      </trkpt>
      <trkpt lat="46.35744" lon="5.54465">
        <ele>415.39999389648</ele>
        <time>2026-08-27T12:38:19.000Z</time>
      </trkpt>
      <trkpt lat="46.35744" lon="5.54466">
        <ele>415.20001220703</ele>
        <time>2026-08-27T12:38:26.000Z</time>
      </trkpt>
      <trkpt lat="46.35743" lon="5.54468">
        <ele>415</ele>
        <time>2026-08-27T12:38:31.000Z</time>
      </trkpt>
      <trkpt lat="46.35743" lon="5.54467">
        <ele>415.20001220703</ele>
        <time>2026-08-27T12:38:36.000Z</time>
      </trkpt>
      <trkpt lat="46.35744" lon="5.54466">
        <ele>415.20001220703</ele>
        <time>2026-08-27T12:38:44.000Z</time>
      </trkpt>
      <trkpt lat="46.35748" lon="5.54467">
        <ele>415.39999389648</ele>
        <time>2026-08-27T12:38:50.000Z</time>
      </trkpt>
      <trkpt lat="46.3575" lon="5.5447">
        <ele>415.60000610352</ele>
        <time>2026-08-27T12:38:53.000Z</time>
      </trkpt>
      <trkpt lat="46.35754" lon="5.54476">
        <ele>416.20001220703</ele>
        <time>2026-08-27T12:38:58.000Z</time>
      </trkpt>
      <trkpt lat="46.35756" lon="5.54478">
        <ele>416.60000610352</ele>
        <time>2026-08-27T12:39:00.000Z</time>
      </trkpt>
      <trkpt lat="46.35758" lon="5.54485">
        <ele>417.20001220703</ele>
        <time>2026-08-27T12:39:05.000Z</time>
      </trkpt>
      <trkpt lat="46.35759" lon="5.54493">
        <ele>418.20001220703</ele>
        <time>2026-08-27T12:39:11.000Z</time>
      </trkpt>
      <trkpt lat="46.35759" lon="5.54494">
        <ele>418.39999389648</ele>
        <time>2026-08-27T12:39:12.000Z</time>
      </trkpt>
      <trkpt lat="46.35759" lon="5.5451">
        <ele>419.60000610352</ele>
        <time>2026-08-27T12:39:22.000Z</time>
      </trkpt>
      <trkpt lat="46.35756" lon="5.54523">
        <ele>420.60000610352</ele>
        <time>2026-08-27T12:39:31.000Z</time>
      </trkpt>
      <trkpt lat="46.35753" lon="5.54531">
        <ele>420.79998779297</ele>
        <time>2026-08-27T12:39:36.000Z</time>
      </trkpt>
      <trkpt lat="46.35754" lon="5.54535">
        <ele>421.39999389648</ele>
        <time>2026-08-27T12:39:40.000Z</time>
      </trkpt>
      <trkpt lat="46.35755" lon="5.54535">
        <ele>421.60000610352</ele>
        <time>2026-08-27T12:39:41.000Z</time>
      </trkpt>
      <trkpt lat="46.35757" lon="5.54536">
        <ele>421.60000610352</ele>
        <time>2026-08-27T12:39:43.000Z</time>
      </trkpt>
      <trkpt lat="46.35763" lon="5.54531">
        <ele>421.39999389648</ele>
        <time>2026-08-27T12:39:49.000Z</time>
      </trkpt>
      <trkpt lat="46.3577" lon="5.54526">
        <ele>422</ele>
        <time>2026-08-27T12:39:58.000Z</time>
      </trkpt>
      <trkpt lat="46.35778" lon="5.54519">
        <ele>422.20001220703</ele>
        <time>2026-08-27T12:40:05.000Z</time>
      </trkpt>
      <trkpt lat="46.35785" lon="5.54519">
        <ele>422.39999389648</ele>
        <time>2026-08-27T12:40:12.000Z</time>
      </trkpt>
      <trkpt lat="46.35792" lon="5.54521">
        <ele>422.79998779297</ele>
        <time>2026-08-27T12:40:19.000Z</time>
      </trkpt>
      <trkpt lat="46.35795" lon="5.54521">
        <ele>422.79998779297</ele>
        <time>2026-08-27T12:40:21.000Z</time>
      </trkpt>
      <trkpt lat="46.35803" lon="5.54518">
        <ele>422.79998779297</ele>
        <time>2026-08-27T12:40:29.000Z</time>
      </trkpt>
      <trkpt lat="46.35815" lon="5.54515">
        <ele>423.60000610352</ele>
        <time>2026-08-27T12:40:39.000Z</time>
      </trkpt>
      <trkpt lat="46.35817" lon="5.54515">
        <ele>423.79998779297</ele>
        <time>2026-08-27T12:40:41.000Z</time>
      </trkpt>
      <trkpt lat="46.35826" lon="5.54513">
        <ele>424</ele>
        <time>2026-08-27T12:40:47.000Z</time>
      </trkpt>
      <trkpt lat="46.35828" lon="5.54516">
        <ele>424</ele>
        <time>2026-08-27T12:40:50.000Z</time>
      </trkpt>
      <trkpt lat="46.35828" lon="5.54519">
        <ele>424.20001220703</ele>
        <time>2026-08-27T12:40:52.000Z</time>
      </trkpt>
      <trkpt lat="46.3583" lon="5.54526">
        <ele>424.79998779297</ele>
        <time>2026-08-27T12:40:56.000Z</time>
      </trkpt>
      <trkpt lat="46.35831" lon="5.54536">
        <ele>425.20001220703</ele>
        <time>2026-08-27T12:41:01.000Z</time>
      </trkpt>
      <trkpt lat="46.35833" lon="5.54547">
        <ele>425.39999389648</ele>
        <time>2026-08-27T12:41:07.000Z</time>
      </trkpt>
      <trkpt lat="46.35834" lon="5.54557">
        <ele>425.20001220703</ele>
        <time>2026-08-27T12:41:12.000Z</time>
      </trkpt>
      <trkpt lat="46.35837" lon="5.54574">
        <ele>425.60000610352</ele>
        <time>2026-08-27T12:41:22.000Z</time>
      </trkpt>
      <trkpt lat="46.35839" lon="5.54579">
        <ele>426</ele>
        <time>2026-08-27T12:41:25.000Z</time>
      </trkpt>
      <trkpt lat="46.35841" lon="5.54589">
        <ele>426.39999389648</ele>
        <time>2026-08-27T12:41:31.000Z</time>
      </trkpt>
      <trkpt lat="46.35843" lon="5.54596">
        <ele>426.39999389648</ele>
        <time>2026-08-27T12:41:35.000Z</time>
      </trkpt>
      <trkpt lat="46.35844" lon="5.54605">
        <ele>426.79998779297</ele>
        <time>2026-08-27T12:41:40.000Z</time>
      </trkpt>
      <trkpt lat="46.35844" lon="5.54607">
        <ele>427</ele>
        <time>2026-08-27T12:41:41.000Z</time>
      </trkpt>
      <trkpt lat="46.35845" lon="5.54618">
        <ele>427.39999389648</ele>
        <time>2026-08-27T12:41:47.000Z</time>
      </trkpt>
      <trkpt lat="46.35846" lon="5.54624">
        <ele>427.39999389648</ele>
        <time>2026-08-27T12:41:50.000Z</time>
      </trkpt>
      <trkpt lat="46.35851" lon="5.54643">
        <ele>427.79998779297</ele>
        <time>2026-08-27T12:42:01.000Z</time>
      </trkpt>
      <trkpt lat="46.35852" lon="5.54645">
        <ele>427.79998779297</ele>
        <time>2026-08-27T12:42:02.000Z</time>
      </trkpt>
      <trkpt lat="46.35853" lon="5.5465">
        <ele>428</ele>
        <time>2026-08-27T12:42:05.000Z</time>
      </trkpt>
      <trkpt lat="46.35856" lon="5.54663">
        <ele>428.20001220703</ele>
        <time>2026-08-27T12:42:12.000Z</time>
      </trkpt>
      <trkpt lat="46.35861" lon="5.54684">
        <ele>428.60000610352</ele>
        <time>2026-08-27T12:42:24.000Z</time>
      </trkpt>
      <trkpt lat="46.35865" lon="5.54704">
        <ele>428.79998779297</ele>
        <time>2026-08-27T12:42:35.000Z</time>
      </trkpt>
      <trkpt lat="46.35869" lon="5.54726">
        <ele>429</ele>
        <time>2026-08-27T12:42:47.000Z</time>
      </trkpt>
      <trkpt lat="46.35869" lon="5.54727">
        <ele>429.20001220703</ele>
        <time>2026-08-27T12:42:48.000Z</time>
      </trkpt>
      <trkpt lat="46.35872" lon="5.54746">
        <ele>429.39999389648</ele>
        <time>2026-08-27T12:42:58.000Z</time>
      </trkpt>
      <trkpt lat="46.35872" lon="5.5475">
        <ele>429.39999389648</ele>
        <time>2026-08-27T12:43:00.000Z</time>
      </trkpt>
      <trkpt lat="46.35874" lon="5.5477">
        <ele>429.60000610352</ele>
        <time>2026-08-27T12:43:11.000Z</time>
      </trkpt>
      <trkpt lat="46.35876" lon="5.5479">
        <ele>430</ele>
        <time>2026-08-27T12:43:22.000Z</time>
      </trkpt>
      <trkpt lat="46.35876" lon="5.54796">
        <ele>430</ele>
        <time>2026-08-27T12:43:25.000Z</time>
      </trkpt>
      <trkpt lat="46.35878" lon="5.54815">
        <ele>430.20001220703</ele>
        <time>2026-08-27T12:43:35.000Z</time>
      </trkpt>
      <trkpt lat="46.3588" lon="5.54838">
        <ele>430.39999389648</ele>
        <time>2026-08-27T12:43:47.000Z</time>
      </trkpt>
      <trkpt lat="46.35883" lon="5.54858">
        <ele>430.60000610352</ele>
        <time>2026-08-27T12:43:58.000Z</time>
      </trkpt>
      <trkpt lat="46.35883" lon="5.54871">
        <ele>431.20001220703</ele>
        <time>2026-08-27T12:44:05.000Z</time>
      </trkpt>
      <trkpt lat="46.35884" lon="5.54877">
        <ele>431.39999389648</ele>
        <time>2026-08-27T12:44:09.000Z</time>
      </trkpt>
      <trkpt lat="46.35885" lon="5.54885">
        <ele>431.79998779297</ele>
        <time>2026-08-27T12:44:14.000Z</time>
      </trkpt>
      <trkpt lat="46.35885" lon="5.5489">
        <ele>431.79998779297</ele>
        <time>2026-08-27T12:44:17.000Z</time>
      </trkpt>
      <trkpt lat="46.35885" lon="5.54896">
        <ele>432.20001220703</ele>
        <time>2026-08-27T12:44:21.000Z</time>
      </trkpt>
      <trkpt lat="46.35886" lon="5.54903">
        <ele>432.60000610352</ele>
        <time>2026-08-27T12:44:26.000Z</time>
      </trkpt>
      <trkpt lat="46.35887" lon="5.54911">
        <ele>432.79998779297</ele>
        <time>2026-08-27T12:44:31.000Z</time>
      </trkpt>
      <trkpt lat="46.35887" lon="5.54917">
        <ele>433</ele>
        <time>2026-08-27T12:44:35.000Z</time>
      </trkpt>
      <trkpt lat="46.35888" lon="5.54923">
        <ele>433.20001220703</ele>
        <time>2026-08-27T12:44:39.000Z</time>
      </trkpt>
      <trkpt lat="46.35889" lon="5.5493">
        <ele>433.60000610352</ele>
        <time>2026-08-27T12:44:44.000Z</time>
      </trkpt>
      <trkpt lat="46.3589" lon="5.54943">
        <ele>433.79998779297</ele>
        <time>2026-08-27T12:44:53.000Z</time>
      </trkpt>
      <trkpt lat="46.35897" lon="5.54952">
        <ele>434</ele>
        <time>2026-08-27T12:45:02.000Z</time>
      </trkpt>
      <trkpt lat="46.35902" lon="5.54953">
        <ele>434.20001220703</ele>
        <time>2026-08-27T12:45:06.000Z</time>
      </trkpt>
      <trkpt lat="46.35909" lon="5.54953">
        <ele>434.39999389648</ele>
        <time>2026-08-27T12:45:12.000Z</time>
      </trkpt>
      <trkpt lat="46.35922" lon="5.54952">
        <ele>434.60000610352</ele>
        <time>2026-08-27T12:45:24.000Z</time>
      </trkpt>
      <trkpt lat="46.35935" lon="5.54953">
        <ele>434.79998779297</ele>
        <time>2026-08-27T12:45:36.000Z</time>
      </trkpt>
      <trkpt lat="46.35948" lon="5.54957">
        <ele>435.20001220703</ele>
        <time>2026-08-27T12:45:48.000Z</time>
      </trkpt>
      <trkpt lat="46.35957" lon="5.54965">
        <ele>435.79998779297</ele>
        <time>2026-08-27T12:45:57.000Z</time>
      </trkpt>
      <trkpt lat="46.35963" lon="5.54976">
        <ele>436.39999389648</ele>
        <time>2026-08-27T12:46:06.000Z</time>
      </trkpt>
      <trkpt lat="46.35965" lon="5.54979">
        <ele>436.39999389648</ele>
        <time>2026-08-27T12:46:08.000Z</time>
      </trkpt>
      <trkpt lat="46.35972" lon="5.54991">
        <ele>436.79998779297</ele>
        <time>2026-08-27T12:46:18.000Z</time>
      </trkpt>
      <trkpt lat="46.35979" lon="5.55006">
        <ele>437</ele>
        <time>2026-08-27T12:46:29.000Z</time>
      </trkpt>
      <trkpt lat="46.35989" lon="5.55024">
        <ele>437.20001220703</ele>
        <time>2026-08-27T12:46:41.000Z</time>
      </trkpt>
      <trkpt lat="46.36" lon="5.55041">
        <ele>437.39999389648</ele>
        <time>2026-08-27T12:46:53.000Z</time>
      </trkpt>
      <trkpt lat="46.36003" lon="5.55046">
        <ele>437.39999389648</ele>
        <time>2026-08-27T12:46:56.000Z</time>
      </trkpt>
      <trkpt lat="46.36013" lon="5.55069">
        <ele>437</ele>
        <time>2026-08-27T12:47:11.000Z</time>
      </trkpt>
      <trkpt lat="46.36022" lon="5.55089">
        <ele>436.60000610352</ele>
        <time>2026-08-27T12:47:23.000Z</time>
      </trkpt>
      <trkpt lat="46.3603" lon="5.55111">
        <ele>437</ele>
        <time>2026-08-27T12:47:36.000Z</time>
      </trkpt>
      <trkpt lat="46.36037" lon="5.55132">
        <ele>437</ele>
        <time>2026-08-27T12:47:47.000Z</time>
      </trkpt>
      <trkpt lat="46.36045" lon="5.55156">
        <ele>436.79998779297</ele>
        <time>2026-08-27T12:48:00.000Z</time>
      </trkpt>
      <trkpt lat="46.36052" lon="5.55175">
        <ele>436.79998779297</ele>
        <time>2026-08-27T12:48:11.000Z</time>
      </trkpt>
      <trkpt lat="46.36062" lon="5.55194">
        <ele>436.60000610352</ele>
        <time>2026-08-27T12:48:23.000Z</time>
      </trkpt>
      <trkpt lat="46.36075" lon="5.55214">
        <ele>437</ele>
        <time>2026-08-27T12:48:37.000Z</time>
      </trkpt>
      <trkpt lat="46.36086" lon="5.55231">
        <ele>436.60000610352</ele>
        <time>2026-08-27T12:48:49.000Z</time>
      </trkpt>
      <trkpt lat="46.36095" lon="5.55248">
        <ele>436.60000610352</ele>
        <time>2026-08-27T12:49:01.000Z</time>
      </trkpt>
      <trkpt lat="46.36102" lon="5.55264">
        <ele>436.39999389648</ele>
        <time>2026-08-27T12:49:11.000Z</time>
      </trkpt>
      <trkpt lat="46.36102" lon="5.55273">
        <ele>436.39999389648</ele>
        <time>2026-08-27T12:49:16.000Z</time>
      </trkpt>
      <trkpt lat="46.36101" lon="5.55279">
        <ele>436.39999389648</ele>
        <time>2026-08-27T12:49:20.000Z</time>
      </trkpt>
      <trkpt lat="46.36097" lon="5.55295">
        <ele>436.20001220703</ele>
        <time>2026-08-27T12:49:30.000Z</time>
      </trkpt>
      <trkpt lat="46.36096" lon="5.55311">
        <ele>436.60000610352</ele>
        <time>2026-08-27T12:49:40.000Z</time>
      </trkpt>
      <trkpt lat="46.36097" lon="5.55335">
        <ele>437</ele>
        <time>2026-08-27T12:49:53.000Z</time>
      </trkpt>
      <trkpt lat="46.36098" lon="5.55347">
        <ele>437.39999389648</ele>
        <time>2026-08-27T12:50:00.000Z</time>
      </trkpt>
      <trkpt lat="46.36098" lon="5.5535">
        <ele>437.60000610352</ele>
        <time>2026-08-27T12:50:02.000Z</time>
      </trkpt>
      <trkpt lat="46.361" lon="5.55369">
        <ele>438</ele>
        <time>2026-08-27T12:50:13.000Z</time>
      </trkpt>
      <trkpt lat="46.36099" lon="5.55384">
        <ele>438.60000610352</ele>
        <time>2026-08-27T12:50:21.000Z</time>
      </trkpt>
      <trkpt lat="46.36099" lon="5.55385">
        <ele>438.60000610352</ele>
        <time>2026-08-27T12:50:22.000Z</time>
      </trkpt>
      <trkpt lat="46.36097" lon="5.554">
        <ele>439.20001220703</ele>
        <time>2026-08-27T12:50:30.000Z</time>
      </trkpt>
      <trkpt lat="46.36096" lon="5.55404">
        <ele>439.60000610352</ele>
        <time>2026-08-27T12:50:32.000Z</time>
      </trkpt>
      <trkpt lat="46.36094" lon="5.55418">
        <ele>440</ele>
        <time>2026-08-27T12:50:40.000Z</time>
      </trkpt>
      <trkpt lat="46.36095" lon="5.55432">
        <ele>440.20001220703</ele>
        <time>2026-08-27T12:50:49.000Z</time>
      </trkpt>
      <trkpt lat="46.36096" lon="5.55432">
        <ele>440.39999389648</ele>
        <time>2026-08-27T12:50:50.000Z</time>
      </trkpt>
      <trkpt lat="46.36098" lon="5.55432">
        <ele>440.60000610352</ele>
        <time>2026-08-27T12:50:51.000Z</time>
      </trkpt>
      <trkpt lat="46.36102" lon="5.55431">
        <ele>440.79998779297</ele>
        <time>2026-08-27T12:50:54.000Z</time>
      </trkpt>
      <trkpt lat="46.36111" lon="5.55424">
        <ele>440.79998779297</ele>
        <time>2026-08-27T12:51:02.000Z</time>
      </trkpt>
      <trkpt lat="46.36122" lon="5.55414">
        <ele>440.60000610352</ele>
        <time>2026-08-27T12:51:13.000Z</time>
      </trkpt>
      <trkpt lat="46.36129" lon="5.55408">
        <ele>440</ele>
        <time>2026-08-27T12:51:21.000Z</time>
      </trkpt>
      <trkpt lat="46.3613" lon="5.55406">
        <ele>439.79998779297</ele>
        <time>2026-08-27T12:51:24.000Z</time>
      </trkpt>
    </trkseg>
  </trk>
</gpx>